# Wetter Temperatur Luftdruck Luftfeuchtigkeit Sichtweite Windgeschwindigkeit Windrichtung Zeit
1 Clouds 20 1018 94 10000 6.7 210 19:58 17.10.2019
2 Clouds 20 1018 94 10000 6.2 220 19:39 17.10.2019
3 Clouds 20 1017 94 10000 6.2 220 19:19 17.10.2019
4 Clouds 21 1017 94 10000 6.2 220 18:43 17.10.2019
5 Drizzle 21 1017 94 8000 5.7 230 18:21 17.10.2019
6 Drizzle 21 1017 94 8000 5.7 230 18:00 17.10.2019
7 Drizzle 20 1018 100 9000 5.7 220 17:41 17.10.2019
8 Rain 21 1018 94 10000 6.7 220 17:23 17.10.2019
9 Rain 21 1018 94 10000 6.7 220 16:56 17.10.2019
10 Clouds 21 1018 88 10000 6.2 220 16:38 17.10.2019
11 Clouds 21 1018 88 10000 6.7 220 16:18 17.10.2019
12 Clouds 21 1018 88 10000 6.7 220 15:55 17.10.2019
13 Clouds 21 1018 88 10000 6.7 220 15:37 17.10.2019
14 Rain 21 1018 88 10000 6.2 230 15:19 17.10.2019
15 Rain 21 1019 88 6000 4.6 240 14:42 17.10.2019
16 Clouds 21 1019 88 10000 4.6 240 14:24 17.10.2019
17 Clouds 21 1019 88 10000 4.6 240 13:57 17.10.2019
18 Clouds 20 1019 88 10000 5.1 230 13:39 17.10.2019
19 Clouds 20 1019 88 10000 4.6 240 13:19 17.10.2019
20 Clouds 20 1018 94 10000 4.1 230 12:41 17.10.2019
21 Clouds 20 1018 94 10000 4.1 230 12:21 17.10.2019
22 Rain 19 1018 100 10000 3.6 230 11:59 17.10.2019
23 Rain 19 1018 100 10000 3.6 230 11:41 17.10.2019
24 Rain 19 1018 100 10000 3.6 230 11:41 17.10.2019
25 Clouds 19 1018 100 10000 4.1 230 11:19 17.10.2019
26 -273 0 0 0 0 0 10:56 17.10.2019
27 Drizzle 19 1018 100 2500 3.6 210 10:38 17.10.2019
28 Drizzle 18 1017 100 6000 3.1 220 10:18 17.10.2019
29 Clouds 18 1017 100 6000 2.1 230 09:54 17.10.2019
30 Clouds 18 1017 100 6000 2.1 230 09:36 17.10.2019
31 Drizzle 18 1017 100 8000 3.1 220 09:18 17.10.2019
32 Rain 18 1017 100 10000 3.1 240 08:42 17.10.2019
33 Rain 18 1017 100 10000 5.1 230 08:24 17.10.2019
34 Clouds 18 1017 100 8000 6.2 230 07:56 17.10.2019
35 Clouds 18 1017 100 8000 6.2 230 07:37 17.10.2019
36 Drizzle 18 1017 93 5000 5.7 230 07:18 17.10.2019
37 Drizzle 18 1017 93 4500 6.7 230 06:40 17.10.2019
38 Drizzle 18 1017 93 7000 6.7 220 06:21 17.10.2019
39 Clouds 18 1017 88 10000 6.7 210 05:54 17.10.2019
40 Clouds 18 1017 88 10000 6.7 210 05:32 17.10.2019
41 Clouds 18 1018 88 10000 6.2 210 04:55 17.10.2019
42 Clouds 18 1018 88 10000 5.1 210 03:55 17.10.2019
43 Clouds 19 1018 82 10000 5.1 210 02:50 17.10.2019
44 Clouds 18 1018 88 10000 5.1 210 01:39 17.10.2019
45 Clouds 18 1018 88 10000 5.1 220 00:40 17.10.2019
46 Clouds 18 1018 88 10000 5.1 210 00:19 17.10.2019
47 Clouds 18 1018 88 10000 5.7 220 23:42 16.10.2019
48 Clouds 18 1018 82 10000 5.1 210 23:21 16.10.2019
49 Clouds 18 1018 82 10000 5.1 210 22:56 16.10.2019
50 Clouds 18 1018 82 10000 5.1 210 22:56 16.10.2019
51 Clouds 18 1018 82 10000 4.6 210 22:37 16.10.2019
52 Clouds 18 1018 82 10000 4.6 210 22:37 16.10.2019
53 Clouds 18 1019 82 10000 4.6 210 22:19 16.10.2019
54 Clouds 18 1019 82 10000 4.6 210 22:19 16.10.2019
55 Clouds 18 1019 82 10000 4.6 210 22:19 16.10.2019
56 Clouds 18 1019 82 10000 4.6 210 21:57 16.10.2019
57 Clouds 18 1019 82 10000 4.1 210 21:38 16.10.2019
58 Clouds 18 1019 82 10000 3.6 210 21:19 16.10.2019
59 Clouds 18 1019 82 10000 4.1 210 20:58 16.10.2019
60 Clouds 18 1019 82 10000 4.1 210 20:58 16.10.2019
61 Clouds 18 1019 82 10000 4.1 210 20:39 16.10.2019
62 Clouds 18 1019 82 10000 4.6 210 20:21 16.10.2019
63 Clouds 18 1019 82 10000 4.6 210 19:59 16.10.2019
64 Clouds 18 1019 82 10000 4.6 200 19:39 16.10.2019
65 Rain 19 1019 82 10000 6.7 230 19:21 16.10.2019
66 Clouds 19 1019 72 10000 6.7 220 18:55 16.10.2019
67 Clouds 19 1019 72 10000 6.7 220 18:36 16.10.2019
68 Clouds 19 1019 68 10000 7.2 210 18:18 16.10.2019
69 Clouds 19 1019 68 10000 7.2 210 17:54 16.10.2019
70 Clouds 19 1019 68 10000 7.2 210 17:54 16.10.2019
71 -273 0 0 0 0 0 17:36 16.10.2019
72 Clouds 19 1019 68 10000 7.2 210 17:36 16.10.2019
73 Clouds 20 1019 64 10000 8.2 200 17:18 16.10.2019
74 Clouds 20 1019 64 10000 7.2 210 16:42 16.10.2019
75 Clouds 20 1019 60 10000 7.7 200 16:21 16.10.2019
76 Clouds 20 1019 60 10000 7.7 200 15:58 16.10.2019
77 Clouds 20 1019 60 10000 7.7 200 15:39 16.10.2019
78 Clouds 20 1020 60 10000 6.2 210 15:19 16.10.2019
79 Clouds 20 1020 60 10000 6.2 210 14:58 16.10.2019
80 Clouds 20 1020 60 10000 6.2 210 14:58 16.10.2019
81 Clouds 20 1020 60 10000 6.2 210 14:39 16.10.2019
82 Clouds 20 1020 60 10000 6.2 200 14:19 16.10.2019
83 Clouds 19 1020 60 10000 6.2 200 13:57 16.10.2019
84 Clouds 20 1021 64 10000 5.1 210 13:38 16.10.2019
85 Clouds 19 1021 77 10000 2.6 0 13:20 16.10.2019
86 Clouds 19 1021 82 10000 2.1 70 12:42 16.10.2019
87 Clouds 18 1021 87 10000 2.6 60 12:20 16.10.2019
88 Clouds 17 1021 87 10000 1.5 0 11:45 16.10.2019
89 Clouds 16 1021 82 10000 2.1 0 11:19 16.10.2019
90 Clouds 16 1021 82 10000 2.1 0 10:56 16.10.2019
91 Clouds 15 1021 93 10000 1 0 10:36 16.10.2019
92 Clouds 13 1021 100 10000 2.456 230 10:18 16.10.2019
93 Clouds 13 1020 93 10000 2.456 230 09:40 16.10.2019
94 Clouds 13 1020 93 10000 2.722 234 09:40 16.10.2019
95 Clouds 13 1020 87 10000 1 0 09:22 16.10.2019
96 Clouds 12 1020 87 10000 1 0 08:56 16.10.2019
97 Clear 12 1020 93 10000 1 0 08:37 16.10.2019
98 Clear 13 1020 93 10000 2.218 234 08:19 16.10.2019
99 Clear 13 1020 93 10000 2.218 234 07:41 16.10.2019
100 Clear 13 1020 93 10000 2.218 234 07:23 16.10.2019
101 Clouds 13 1020 93 10000 2.218 234 06:47 16.10.2019
102 Clouds 13 1020 93 10000 2.218 234 06:28 16.10.2019
103 Clear 13 1021 87 10000 1.5 250 04:31 16.10.2019
104 Clouds 14 1021 87 10000 0.5 0 02:51 16.10.2019
105 Clear 14 1022 82 10000 1.5 270 01:20 16.10.2019
106 Clear 14 1022 82 10000 1.5 270 00:59 16.10.2019
107 Clear 14 1022 87 10000 2.1 250 00:40 16.10.2019
108 Clouds 15 1022 82 10000 3.1 240 23:59 15.10.2019
109 Clouds 15 1022 82 10000 2.6 230 23:38 15.10.2019
110 Clouds 15 1022 82 10000 3.1 230 23:20 15.10.2019
111 Clouds 15 1022 77 10000 3.1 220 22:55 15.10.2019
112 Clouds 15 1022 77 10000 3.1 220 22:37 15.10.2019
113 Clouds 15 1022 77 10000 2.6 210 22:18 15.10.2019
114 Clouds 15 1022 77 10000 3.6 220 21:55 15.10.2019
115 Clouds 15 1022 77 10000 3.6 220 21:55 15.10.2019
116 Clouds 16 1022 77 10000 3.6 220 21:36 15.10.2019
117 Clouds 16 1022 77 10000 3.6 220 21:36 15.10.2019
118 Clouds 17 1022 67 10000 3.1 220 21:18 15.10.2019
119 Clouds 17 1021 67 10000 5.1 230 20:55 15.10.2019
120 Clouds 17 1021 67 10000 5.1 230 20:55 15.10.2019
121 Clouds 17 1021 67 10000 5.1 230 20:37 15.10.2019
122 Clouds 17 1021 67 10000 5.1 230 20:19 15.10.2019
123 Clouds 18 1021 63 10000 5.1 240 19:55 15.10.2019
124 Clouds 18 1021 63 10000 5.1 240 19:36 15.10.2019
125 Clouds 18 1021 63 10000 6.2 230 19:18 15.10.2019
126 Clouds 18 1021 55 10000 6.7 220 18:43 15.10.2019
127 -273 0 0 0 0 0 18:25 15.10.2019
128 Clouds 19 1022 59 10000 5.7 230 17:55 15.10.2019
129 Clouds 19 1022 59 10000 5.7 230 17:37 15.10.2019
130 Clouds 19 1022 59 10000 5.7 230 17:37 15.10.2019
131 Clouds 19 1022 56 10000 5.7 220 17:18 15.10.2019
132 Clouds 19 1022 56 10000 5.7 230 16:43 15.10.2019
133 Clouds 19 1022 56 10000 6.2 220 16:22 15.10.2019
134 Clouds 19 1022 56 10000 6.2 220 15:57 15.10.2019
135 Clouds 19 1022 52 10000 5.7 220 15:39 15.10.2019
136 Clouds 19 1022 52 10000 5.7 220 15:39 15.10.2019
137 Clouds 19 1023 52 10000 5.7 210 15:19 15.10.2019
138 Clouds 19 1023 55 10000 5.1 200 14:56 15.10.2019
139 Clouds 19 1023 55 10000 5.1 200 14:37 15.10.2019
140 Clouds 19 1023 55 10000 5.1 200 14:37 15.10.2019
141 Clouds 19 1023 55 10000 4.1 210 14:18 15.10.2019
142 Clouds 19 1023 55 10000 3.6 220 13:43 15.10.2019
143 Clouds 18 1023 59 10000 2.6 220 13:21 15.10.2019
144 Clouds 18 1023 59 10000 2.6 220 12:57 15.10.2019
145 Clouds 18 1023 59 10000 2.6 230 12:38 15.10.2019
146 Clouds 17 1023 72 10000 2.1 220 12:19 15.10.2019
147 Clouds 17 1023 77 10000 2.1 230 11:43 15.10.2019
148 Clouds 15 1023 82 10000 2.6 250 11:20 15.10.2019
149 Clouds 14 1022 87 10000 2.6 250 10:56 15.10.2019
150 Clear 13 1022 87 10000 2.6 250 10:38 15.10.2019
151 Clear 12 1022 87 10000 2.1 240 10:18 15.10.2019
152 Clear 11 1022 87 10000 1.5 270 09:55 15.10.2019
153 Clear 11 1022 87 10000 1.5 270 09:55 15.10.2019
154 Clear 11 1022 87 10000 1.5 270 09:36 15.10.2019
155 Clear 11 1022 87 10000 1.5 270 09:36 15.10.2019
156 Clear 12 1022 87 10000 1.5 270 09:18 15.10.2019
157 Clear 13 1022 82 10000 2.6 270 08:41 15.10.2019
158 Clear 12 1022 87 10000 1.5 280 08:21 15.10.2019
159 Clear 12 1022 87 10000 2.1 270 07:55 15.10.2019
160 Clear 12 1022 87 10000 2.1 270 07:36 15.10.2019
161 Clear 13 1022 87 10000 3.1 240 07:18 15.10.2019
162 Clear 12 1022 87 10000 2.6 240 06:43 15.10.2019
163 Clear 13 1022 87 10000 2.1 240 06:20 15.10.2019
164 Clouds 12 1022 82 10000 1.5 260 05:37 15.10.2019
165 Clouds 13 1022 82 10000 2.1 250 05:19 15.10.2019
166 Clouds 13 1022 76 10000 2.1 280 04:23 15.10.2019
167 Clouds 13 1022 82 10000 2.6 260 03:35 15.10.2019
168 Clouds 13 1022 76 10000 2.6 250 02:22 15.10.2019
169 Clouds 13 1022 82 10000 1.5 250 01:47 15.10.2019
170 Clear 13 1022 82 10000 1 0 01:18 15.10.2019
171 Clouds 14 1021 82 10000 0.5 0 00:28 15.10.2019
172 Clouds 14 1021 82 10000 0.5 0 23:59 14.10.2019
173 Clouds 14 1021 72 10000 1.5 270 23:39 14.10.2019
174 Clouds 15 1021 67 10000 1.5 310 23:19 14.10.2019
175 Clouds 15 1020 72 10000 2.1 280 22:40 14.10.2019
176 Clouds 15 1020 67 10000 2.6 340 22:21 14.10.2019
177 Clouds 15 1020 67 10000 2.6 340 21:59 14.10.2019
178 Clouds 16 1020 63 10000 1.5 290 21:40 14.10.2019
179 Clouds 16 1020 63 10000 2.1 300 21:21 14.10.2019
180 Clouds 16 1020 63 10000 2.1 300 21:21 14.10.2019
181 Clouds 16 1019 59 10000 4.1 310 20:58 14.10.2019
182 Clouds 17 1019 59 10000 4.1 310 20:38 14.10.2019
183 Clouds 17 1019 55 10000 4.1 300 20:20 14.10.2019
184 Clouds 17 1019 55 10000 4.1 300 19:58 14.10.2019
185 Clouds 18 1019 55 10000 5.1 300 19:39 14.10.2019
186 Clouds 18 1019 55 10000 5.1 300 19:39 14.10.2019
187 Clouds 18 1018 55 10000 4.6 330 19:21 14.10.2019
188 Clouds 18 1018 55 10000 4.6 330 19:21 14.10.2019
189 Clouds 18 1018 55 10000 6.2 320 18:57 14.10.2019
190 Clouds 18 1018 55 10000 6.2 320 18:57 14.10.2019
191 Clouds 18 1018 55 10000 6.2 320 18:38 14.10.2019
192 Clouds 19 1017 52 10000 5.1 290 18:18 14.10.2019
193 Clouds 19 1017 55 10000 5.7 290 17:44 14.10.2019
194 Rain 19 1017 55 10000 6.2 290 17:25 14.10.2019
195 Rain 19 1017 55 10000 6.2 290 16:58 14.10.2019
196 Rain 19 1017 59 10000 6.2 300 16:40 14.10.2019
197 Rain 19 1017 59 10000 6.2 300 16:40 14.10.2019
198 Clouds 19 1017 55 10000 5.1 280 16:20 14.10.2019
199 Clouds 19 1016 55 10000 5.7 290 15:41 14.10.2019
200 Rain 18 1016 72 10000 5.7 310 15:22 14.10.2019
201 Rain 18 1016 77 10000 6.2 290 14:46 14.10.2019
202 Rain 18 1016 77 10000 4.6 260 14:26 14.10.2019
203 Rain 17 1016 88 10000 3.6 240 13:59 14.10.2019
204 Rain 18 1016 77 10000 4.6 260 13:59 14.10.2019
205 -273 0 0 0 0 0 13:41 14.10.2019
206 Rain 16 1016 82 10000 3.6 260 13:21 14.10.2019
207 Rain 16 1016 93 10000 3.1 260 12:43 14.10.2019
208 Rain 16 1015 93 10000 4.1 250 12:21 14.10.2019
209 Rain 16 1015 93 10000 4.1 250 12:21 14.10.2019
210 Rain 16 1014 93 10000 5.7 250 11:59 14.10.2019
211 Rain 15 1014 93 10000 5.7 250 11:41 14.10.2019
212 Rain 16 1014 93 10000 5.7 240 11:22 14.10.2019
213 Rain 16 1013 93 10000 4.1 260 10:44 14.10.2019
214 Rain 15 1013 87 10000 5.1 200 10:23 14.10.2019
215 Rain 16 1013 87 10000 5.1 200 10:00 14.10.2019
216 Clouds 15 1013 93 10000 4.1 210 09:41 14.10.2019
217 Clouds 15 1012 100 10000 3.1 200 09:21 14.10.2019
218 Clouds 15 1013 100 10000 3.6 220 08:50 14.10.2019
219 Clouds 15 1013 100 10000 3.1 220 08:23 14.10.2019
220 Clouds 14 1012 100 10000 3.1 220 07:47 14.10.2019
221 Clouds 14 1012 93 10000 2.6 220 07:25 14.10.2019
222 Clouds 14 1012 93 10000 3.6 240 06:58 14.10.2019
223 Clouds 14 1012 93 10000 3.6 240 06:28 14.10.2019
224 Clouds 14 1011 87 10000 3.1 250 05:56 14.10.2019
225 Rain 15 1011 87 10000 3.1 250 05:26 14.10.2019
226 Rain 15 1011 93 7000 4.1 290 03:50 14.10.2019
227 Rain 15 1011 93 10000 5.7 290 03:25 14.10.2019
228 Rain 16 1010 100 5000 4.6 270 02:31 14.10.2019
229 Rain 17 1011 100 7000 3.6 240 01:21 14.10.2019
230 Rain 18 1011 93 5000 3.6 220 00:42 14.10.2019
231 Rain 17 1011 93 10000 4.1 210 00:18 14.10.2019
232 Rain 18 1011 93 10000 3.1 210 23:41 13.10.2019
233 Rain 18 1011 82 10000 5.1 200 23:19 13.10.2019
234 Rain 18 1011 88 10000 7.7 190 22:57 13.10.2019
235 Rain 18 1011 88 10000 7.7 190 22:39 13.10.2019
236 Rain 18 1011 88 10000 6.7 200 22:20 13.10.2019
237 Rain 18 1011 88 10000 6.7 200 21:57 13.10.2019
238 Clouds 19 1011 82 10000 6.7 200 21:36 13.10.2019
239 Clouds 19 1011 82 10000 6.7 200 21:18 13.10.2019
240 Clouds 19 1011 72 10000 7.7 200 20:56 13.10.2019
241 Clouds 19 1011 88 10000 5.1 170 20:56 13.10.2019
242 Clouds 19 1011 72 10000 7.7 200 20:37 13.10.2019
243 Clouds 19 1012 72 10000 7.7 200 20:19 13.10.2019
244 -273 0 0 0 0 0 19:55 13.10.2019
245 Clouds 20 1012 64 10000 8.2 200 19:36 13.10.2019
246 Clouds 21 1012 64 10000 8.7 200 19:18 13.10.2019
247 Clouds 21 1012 60 10000 8.2 210 18:54 13.10.2019
248 Clouds 21 1012 56 10000 8.2 190 18:36 13.10.2019
249 Clouds 22 1012 56 10000 8.2 190 18:18 13.10.2019
250 -273 0 0 0 0 0 17:42 13.10.2019
251 Clouds 22 1012 60 10000 8.2 200 17:42 13.10.2019
252 Clouds 22 1012 60 10000 8.2 200 17:42 13.10.2019
253 Clouds 22 1012 60 10000 8.2 210 17:24 13.10.2019
254 Clouds 22 1012 60 10000 8.2 210 17:24 13.10.2019
255 Clouds 22 1012 60 10000 8.7 200 16:45 13.10.2019
256 Clouds 22 1012 60 10000 6.7 190 16:20 13.10.2019
257 Clouds 22 1013 64 10000 9.8 190 15:59 13.10.2019
258 Clouds 22 1013 64 10000 9.8 190 15:59 13.10.2019
259 Clouds 22 1013 64 10000 9.8 190 15:39 13.10.2019
260 Clouds 23 1013 64 10000 8.2 200 15:21 13.10.2019
261 Clouds 22 1014 73 10000 9.3 200 14:59 13.10.2019
262 Clouds 22 1014 73 10000 9.3 200 14:40 13.10.2019
263 Clouds 21 1014 73 10000 8.2 200 14:22 13.10.2019
264 Clouds 21 1014 73 10000 7.7 170 13:59 13.10.2019
265 Clouds 21 1014 73 10000 7.7 170 13:39 13.10.2019
266 Clouds 21 1014 77 10000 7.7 170 13:21 13.10.2019
267 Clouds 21 1014 82 10000 6.7 170 12:56 13.10.2019
268 Clouds 21 1014 82 10000 6.7 170 12:38 13.10.2019
269 Clouds 20 1014 82 10000 6.7 170 12:19 13.10.2019
270 Clouds 20 1014 88 10000 5.7 160 11:58 13.10.2019
271 Clouds 19 1014 88 10000 5.7 160 11:38 13.10.2019
272 Clouds 19 1014 88 10000 5.7 160 11:38 13.10.2019
273 Clouds 19 1014 88 10000 5.7 170 11:19 13.10.2019
274 -273 0 0 0 0 0 10:42 13.10.2019
275 Clouds 18 1013 93 10000 5.7 160 10:23 13.10.2019
276 Clouds 18 1013 93 10000 5.1 160 09:58 13.10.2019
277 Clouds 18 1013 93 10000 5.1 160 09:38 13.10.2019
278 Clouds 18 1013 93 10000 4.6 170 09:19 13.10.2019
279 Clouds 18 1013 93 10000 5.1 170 08:43 13.10.2019
280 Clouds 18 1013 93 10000 5.7 180 08:23 13.10.2019
281 Clouds 18 1013 93 10000 4.6 170 07:47 13.10.2019
282 Clouds 18 1013 93 10000 4.6 170 07:28 13.10.2019
283 Clouds 19 1013 88 10000 5.1 190 06:48 13.10.2019
284 Clouds 18 1013 88 10000 5.7 190 05:57 13.10.2019
285 Clouds 19 1013 88 10000 5.7 180 04:59 13.10.2019
286 Clouds 19 1013 88 10000 5.7 180 04:33 13.10.2019
287 Clouds 18 1013 88 10000 6.2 190 02:48 13.10.2019
288 Clouds 18 1014 88 10000 5.7 200 02:23 13.10.2019
289 Clear 18 1013 100 10000 4.1 190 01:34 13.10.2019
290 Clear 18 1013 100 10000 4.1 190 01:34 13.10.2019
291 Clouds 18 1014 82 10000 5.7 200 00:52 13.10.2019
292 Clouds 18 1014 82 10000 5.7 200 00:52 13.10.2019
293 Clouds 18 1014 88 10000 6.2 200 00:22 13.10.2019
294 Clouds 18 1014 82 10000 6.7 200 23:59 12.10.2019
295 Clouds 18 1014 82 10000 6.7 200 23:40 12.10.2019
296 Clouds 19 1013 82 10000 6.2 200 23:21 12.10.2019
297 Clouds 18 1013 82 10000 6.2 200 22:58 12.10.2019
298 Clouds 19 1013 82 10000 6.2 200 22:39 12.10.2019
299 Clouds 18 1013 77 10000 5.7 200 22:21 12.10.2019
300 Clouds 19 1013 82 10000 5.7 200 21:55 12.10.2019
301 Clouds 19 1013 82 10000 5.7 200 21:37 12.10.2019
302 Clouds 19 1013 82 10000 6.2 210 21:19 12.10.2019
303 Clouds 19 1013 72 10000 6.2 200 20:43 12.10.2019
304 Clouds 20 1013 72 10000 6.2 210 20:25 12.10.2019
305 Clouds 20 1013 64 10000 6.2 220 19:40 12.10.2019
306 Clouds 21 1013 68 10000 7.2 220 19:22 12.10.2019
307 Clouds 21 1013 68 10000 7.2 220 19:22 12.10.2019
308 Clouds 21 1013 73 10000 8.7 210 18:59 12.10.2019
309 Clouds 21 1013 73 10000 8.7 210 18:41 12.10.2019
310 Clouds 21 1013 73 10000 9.3 200 18:23 12.10.2019
311 Clouds 21 1013 73 10000 8.7 200 17:45 12.10.2019
312 Clouds 21 1013 73 10000 8.2 200 17:20 12.10.2019
313 Clouds 22 1013 73 10000 8.7 200 16:56 12.10.2019
314 Clouds 21 1013 73 10000 8.7 200 16:38 12.10.2019
315 Clouds 22 1013 64 10000 4.6 220 16:18 12.10.2019
316 Clouds 21 1014 68 10000 8.7 200 15:44 12.10.2019
317 Clouds 22 1014 68 10000 8.7 200 15:25 12.10.2019
318 Clouds 22 1014 68 10000 8.7 200 15:25 12.10.2019
319 Clouds 22 1014 64 10000 7.7 210 14:57 12.10.2019
320 Clouds 22 1014 64 10000 7.7 210 14:38 12.10.2019
321 Clouds 22 1014 68 10000 7.7 200 14:18 12.10.2019
322 Clouds 21 1014 68 10000 7.7 200 13:44 12.10.2019
323 Clouds 21 1014 68 10000 7.7 180 13:26 12.10.2019
324 Clouds 21 1014 73 10000 7.2 190 12:40 12.10.2019
325 Clouds 20 1014 73 10000 6.7 190 12:22 12.10.2019
326 Clouds 20 1014 73 10000 6.7 190 12:22 12.10.2019
327 Clouds 20 1014 73 10000 6.7 190 11:59 12.10.2019
328 Clouds 20 1014 77 10000 6.2 180 11:40 12.10.2019
329 Clouds 20 1014 82 10000 5.1 170 11:22 12.10.2019
330 Clouds 19 1014 82 10000 4.1 170 10:56 12.10.2019
331 Clouds 19 1014 82 10000 4.1 170 10:37 12.10.2019
332 Clouds 19 1014 88 10000 2.1 140 10:18 12.10.2019
333 Clouds 18 1013 88 10000 2.1 90 09:55 12.10.2019
334 Clouds 18 1013 88 10000 2.1 90 09:37 12.10.2019
335 Clouds 18 1013 88 10000 1.5 120 09:18 12.10.2019
336 Clouds 18 1013 88 10000 2.1 100 08:41 12.10.2019
337 Clouds 18 1013 88 10000 2.1 100 08:41 12.10.2019
338 Clouds 18 1013 88 10000 2.6 90 08:20 12.10.2019
339 Clouds 18 1013 88 10000 2.6 90 08:20 12.10.2019
340 Clouds 18 1013 82 10000 3.1 140 07:36 12.10.2019
341 Clouds 18 1014 88 10000 3.1 200 07:18 12.10.2019
342 Clouds 19 1014 82 10000 2.6 200 05:53 12.10.2019
343 Clouds 19 1013 93 10000 0.5 0 05:24 12.10.2019
344 Clouds 19 1015 77 10000 2.1 120 04:26 12.10.2019
345 Clouds 19 1015 77 10000 2.1 120 03:42 12.10.2019
346 Clear 19 1015 77 10000 1.21 88.913 02:28 12.10.2019
347 Clear 19 1016 77 10000 0.5 0 01:30 12.10.2019
348 Clear 19 1016 72 10000 1 0 00:43 12.10.2019
349 Clear 19 1016 77 10000 1.5 330 00:24 12.10.2019
350 Clear 20 1016 72 10000 2.1 330 23:41 11.10.2019
351 Clear 19 1016 68 10000 1.5 340 23:21 11.10.2019
352 Clear 19 1016 68 10000 1.5 340 22:59 11.10.2019
353 Clear 19 1015 64 10000 1.5 310 22:37 11.10.2019
354 Clear 19 1015 64 10000 1.5 310 22:37 11.10.2019
355 Clear 20 1015 60 10000 1 0 22:18 11.10.2019
356 Clear 20 1015 60 10000 2.1 300 21:40 11.10.2019
357 Clear 21 1015 56 10000 2.1 260 21:21 11.10.2019
358 Clear 21 1015 56 10000 3.1 260 20:55 11.10.2019
359 Clear 21 1015 56 10000 3.1 260 20:37 11.10.2019
360 Clear 21 1015 50 10000 3.1 240 20:18 11.10.2019
361 Clear 22 1015 50 10000 4.1 250 19:55 11.10.2019
362 Clear 22 1015 50 10000 4.1 250 19:36 11.10.2019
363 Clear 22 1015 47 10000 5.1 250 19:18 11.10.2019
364 Clear 23 1015 47 10000 4.6 240 18:54 11.10.2019
365 Clear 23 1015 47 10000 4.6 240 18:36 11.10.2019
366 Clear 23 1015 41 10000 3.6 230 18:18 11.10.2019
367 Clear 23 1015 41 10000 3.1 160 17:54 11.10.2019
368 Clear 24 1015 41 10000 3.1 160 17:36 11.10.2019
369 Clear 24 1015 41 10000 3.1 130 17:18 11.10.2019
370 Clear 25 1015 39 10000 3.1 90 16:39 11.10.2019
371 Clear 25 1016 41 10000 3.1 100 16:19 11.10.2019
372 Clear 25 1016 41 10000 2.1 80 15:57 11.10.2019
373 Clear 25 1016 41 10000 2.1 80 15:37 11.10.2019
374 Clear 24 1017 47 10000 2.1 80 15:18 11.10.2019
375 Clear 24 1017 47 10000 2.1 100 14:44 11.10.2019
376 Clear 23 1017 46 10000 1.5 160 14:25 11.10.2019
377 Clear 23 1018 49 10000 1.5 0 13:47 11.10.2019
378 Clear 22 1018 60 10000 1.5 80 13:27 11.10.2019
379 Clear 22 1018 60 10000 1.5 80 12:59 11.10.2019
380 Clear 21 1018 68 10000 1.5 0 12:41 11.10.2019
381 Clear 19 1018 68 10000 2.6 70 12:22 11.10.2019
382 Clear 19 1018 46 10000 2.6 130 11:59 11.10.2019
383 Clear 18 1018 72 10000 2.1 70 11:39 11.10.2019
384 Clear 17 1018 72 10000 1.5 60 11:21 11.10.2019
385 Clear 15 1018 72 10000 1.5 70 10:56 11.10.2019
386 Clear 15 1018 72 10000 1.5 70 10:38 11.10.2019
387 Clear 15 1017 72 10000 1.5 30 10:19 11.10.2019
388 Clear 15 1017 72 10000 1.5 50 09:43 11.10.2019
389 Clear 15 1017 67 10000 1.5 360 09:21 11.10.2019
390 Clear 15 1017 67 10000 1.5 360 08:59 11.10.2019
391 Clear 15 1017 67 10000 1 40 08:39 11.10.2019
392 Clear 15 1017 72 10000 1.71 48.392 08:21 11.10.2019
393 Clear 14 1017 67 10000 1.71 48.392 07:58 11.10.2019
394 Clear 15 1017 67 10000 1.71 48.392 07:39 11.10.2019
395 Clear 15 1017 67 10000 1 0 07:20 11.10.2019
396 Clear 15 1017 72 10000 1.71 48.392 06:43 11.10.2019
397 Clear 15 1017 67 10000 3.68 32.791 06:20 11.10.2019
398 Clear 15 1017 59 10000 0.5 0 05:32 11.10.2019
399 Clear 16 1017 55 10000 1 0 04:59 11.10.2019
400 Clear 16 1017 55 10000 1.5 340 03:46 11.10.2019
401 Clear 17 1017 63 10000 1 0 01:57 11.10.2019
402 Clear 17 1017 46 10000 1 0 00:42 11.10.2019
403 Clear 17 1017 49 10000 4.1 310 00:22 11.10.2019
404 Clear 18 1017 56 10000 5.1 320 23:42 10.10.2019
405 Clear 18 1017 56 10000 4.6 310 23:20 10.10.2019
406 Clear 18 1016 56 10000 4.1 310 22:57 10.10.2019
407 Clear 18 1016 56 10000 4.1 310 22:37 10.10.2019
408 Clear 19 1016 49 10000 2.6 300 22:19 10.10.2019
409 Clear 19 1016 46 10000 4.6 320 21:54 10.10.2019
410 Clear 20 1016 46 10000 4.6 320 21:36 10.10.2019
411 Clear 20 1016 44 10000 3.1 310 21:18 10.10.2019
412 Clear 21 1016 41 10000 3.1 310 20:41 10.10.2019
413 Clear 22 1016 39 10000 3.1 310 20:21 10.10.2019
414 Clear 23 1016 39 10000 3.1 310 19:58 10.10.2019
415 Clear 24 1016 34 10000 3.1 320 19:39 10.10.2019
416 Clear 27 1016 23 10000 2.1 0 19:20 10.10.2019
417 Clear 27 1016 24 10000 2.1 110 18:56 10.10.2019
418 Clear 26 1016 24 10000 2.1 110 18:38 10.10.2019
419 Clear 28 1016 26 10000 2.6 100 18:19 10.10.2019
420 Clear 27 1016 28 10000 2.1 80 17:41 10.10.2019
421 Clear 27 1016 28 10000 3.1 0 17:20 10.10.2019
422 Clear 27 1017 30 10000 3.1 100 16:59 10.10.2019
423 Clear 27 1017 30 10000 3.1 100 16:41 10.10.2019
424 Clear 26 1017 31 10000 3.1 100 16:22 10.10.2019
425 Clear 26 1017 36 10000 2.6 100 15:44 10.10.2019
426 Clear 25 1017 36 10000 2.6 0 15:25 10.10.2019
427 Clear 24 1018 41 10000 2.1 70 14:59 10.10.2019
428 Clear 24 1018 41 10000 2.1 70 14:38 10.10.2019
429 Clear 24 1018 41 10000 2.1 70 14:38 10.10.2019
430 Clear 24 1017 41 10000 3.1 10 14:19 10.10.2019
431 Clear 23 1018 46 10000 2.6 70 13:59 10.10.2019
432 Clear 23 1018 46 10000 2.6 70 13:59 10.10.2019
433 Clear 22 1018 49 10000 2.1 80 13:41 10.10.2019
434 Clear 21 1019 49 10000 2.6 30 13:20 10.10.2019
435 Clear 21 1019 52 10000 3.1 360 12:57 10.10.2019
436 Clear 20 1019 52 10000 3.1 360 12:39 10.10.2019
437 Clear 19 1019 55 10000 3.6 360 12:19 10.10.2019
438 Clear 19 1019 63 10000 4.6 330 11:55 10.10.2019
439 Clear 18 1019 63 10000 4.6 330 11:37 10.10.2019
440 Clear 17 1018 67 10000 4.6 330 11:18 10.10.2019
441 Clear 17 1018 72 10000 4.1 330 10:44 10.10.2019
442 Clear 15 1018 77 10000 4.6 330 10:25 10.10.2019
443 Clear 15 1018 77 10000 4.1 330 09:56 10.10.2019
444 Clear 15 1018 77 10000 4.1 330 09:38 10.10.2019
445 Clear 15 1018 77 10000 4.1 320 09:19 10.10.2019
446 Clear 15 1018 77 10000 4.6 320 08:41 10.10.2019
447 Clear 15 1017 77 10000 4.1 320 08:23 10.10.2019
448 Clear 15 1017 77 10000 4.1 320 07:59 10.10.2019
449 Clear 15 1018 77 10000 6.2 320 07:40 10.10.2019
450 Clear 15 1018 77 10000 6.2 320 07:20 10.10.2019
451 Clear 15 1018 77 10000 5.7 330 06:45 10.10.2019
452 Clear 15 1018 72 10000 6.2 330 06:24 10.10.2019
453 Clear 15 1018 77 10000 8.2 340 05:24 10.10.2019
454 Clear 16 1018 77 10000 7.7 340 04:37 10.10.2019
455 Clear 16 1018 77 10000 7.7 330 03:42 10.10.2019
456 Clear 16 1019 77 10000 8.2 340 01:43 10.10.2019
457 Clear 16 1019 77 10000 8.7 330 01:24 10.10.2019
458 Clear 16 1019 72 10000 10.3 330 00:53 10.10.2019
459 Clear 16 1019 72 10000 9.3 330 00:21 10.10.2019
460 Clear 16 1019 72 10000 9.8 330 23:39 09.10.2019
461 Clear 16 1019 72 10000 8.2 330 23:20 09.10.2019
462 Clear 17 1019 72 10000 9.3 330 22:44 09.10.2019
463 Clear 17 1019 63 10000 9.8 330 22:24 09.10.2019
464 Clear 17 1019 63 10000 9.8 330 21:59 09.10.2019
465 Clear 17 1019 63 10000 9.3 340 21:40 09.10.2019
466 Clear 17 1019 63 10000 7.2 320 21:20 09.10.2019
467 Clear 17 1019 59 10000 8.7 330 20:56 09.10.2019
468 Clear 17 1019 59 10000 8.7 330 20:56 09.10.2019
469 Clear 18 1019 59 10000 8.7 330 20:37 09.10.2019
470 Clear 18 1018 55 10000 5.1 350 20:19 09.10.2019
471 Clear 18 1018 55 10000 5.1 350 20:19 09.10.2019
472 Clear 19 1018 52 10000 9.8 330 19:57 09.10.2019
473 Clear 19 1018 52 10000 9.8 330 19:39 09.10.2019
474 Clear 19 1018 49 10000 7.2 330 19:20 09.10.2019
475 Clear 21 1018 46 10000 7.7 330 18:38 09.10.2019
476 Clear 21 1018 46 10000 9.3 340 18:19 09.10.2019
477 Clear 21 1018 46 10000 9.3 340 17:57 09.10.2019
478 Clear 21 1018 43 10000 10.3 340 17:37 09.10.2019
479 Clear 22 1019 37 10000 10.8 340 17:19 09.10.2019
480 Clear 22 1019 37 10000 10.8 340 17:19 09.10.2019
481 -273 0 0 0 0 0 16:55 09.10.2019
482 Clear 22 1019 37 10000 9.8 340 16:36 09.10.2019
483 Clear 22 1019 40 10000 9.8 330 16:18 09.10.2019
484 Clear 22 1019 40 10000 9.3 330 15:55 09.10.2019
485 Clear 22 1019 40 10000 9.3 330 15:36 09.10.2019
486 Clear 22 1019 40 10000 9.3 330 15:36 09.10.2019
487 Clear 22 1019 37 10000 9.8 350 15:18 09.10.2019
488 Clear 22 1020 33 10000 8.7 350 14:42 09.10.2019
489 Clear 22 1020 33 10000 8.7 350 14:42 09.10.2019
490 Clear 22 1020 35 10000 10.3 350 14:18 09.10.2019
491 Clear 21 1020 35 10000 10.8 350 13:55 09.10.2019
492 Clear 21 1020 35 10000 10.8 350 13:36 09.10.2019
493 Clear 20 1020 42 10000 9.8 340 13:18 09.10.2019
494 Clear 20 1021 45 10000 8.7 350 12:42 09.10.2019
495 Clear 19 1020 52 10000 9.3 350 12:22 09.10.2019
496 Clear 19 1020 55 10000 9.8 340 11:58 09.10.2019
497 Clear 19 1020 55 10000 9.8 340 11:39 09.10.2019
498 Clear 18 1020 59 10000 8.7 340 11:20 09.10.2019
499 Clear 18 1020 59 10000 8.7 340 10:57 09.10.2019
500 Clear 18 1020 59 10000 8.7 340 10:57 09.10.2019
501 Clear 18 1020 63 10000 8.2 350 10:39 09.10.2019
502 Clear 17 1020 67 10000 7.7 350 10:18 09.10.2019
503 Clear 16 1020 67 10000 5.7 360 09:42 09.10.2019
504 Clear 16 1020 63 10000 6.2 350 09:20 09.10.2019
505 Clear 16 1019 63 10000 6.2 350 08:57 09.10.2019
506 Clear 16 1019 63 10000 6.2 350 08:37 09.10.2019
507 Clear 16 1019 63 10000 9.3 340 08:18 09.10.2019
508 Clear 16 1019 67 10000 8.7 340 07:43 09.10.2019
509 Clear 16 1019 72 10000 8.2 340 07:23 09.10.2019
510 Clouds 16 1019 72 10000 5.1 350 06:52 09.10.2019
511 Clouds 16 1019 77 10000 5.7 350 06:20 09.10.2019
512 Clouds 16 1019 77 10000 7.2 340 05:46 09.10.2019
513 Clouds 16 1019 77 10000 7.2 340 05:46 09.10.2019
514 Clear 17 1019 77 10000 4.6 350 04:41 09.10.2019
515 Clear 17 1019 72 10000 6.2 340 03:24 09.10.2019
516 Clear 17 1019 72 10000 6.2 340 01:48 09.10.2019
517 Clear 17 1019 72 10000 6.7 340 01:22 09.10.2019
518 Clear 17 1019 77 10000 4.6 350 00:59 09.10.2019
519 Clear 18 1019 77 10000 4.6 350 00:40 09.10.2019
520 Clouds 18 1019 77 10000 4.6 330 00:22 09.10.2019
521 Clouds 18 1019 77 10000 4.6 330 00:22 09.10.2019
522 Clouds 18 1019 82 10000 3.1 10 23:58 08.10.2019
523 Clouds 18 1019 82 10000 3.1 10 23:37 08.10.2019
524 Clouds 18 1019 82 10000 2.6 310 23:18 08.10.2019
525 Clouds 19 1018 88 10000 4.6 340 22:40 08.10.2019
526 Clouds 19 1018 88 10000 6.2 340 22:21 08.10.2019
527 Clouds 19 1018 88 10000 6.2 340 21:58 08.10.2019
528 Clouds 19 1018 88 10000 3.6 340 21:39 08.10.2019
529 Clouds 20 1018 88 10000 3.6 340 21:39 08.10.2019
530 Clouds 20 1018 88 10000 7.7 340 21:20 08.10.2019
531 Clouds 20 1018 83 10000 7.2 320 20:57 08.10.2019
532 Clouds 20 1018 83 10000 7.2 320 20:39 08.10.2019
533 Clouds 20 1017 73 10000 6.2 310 20:21 08.10.2019
534 Clouds 21 1017 73 10000 9.3 330 19:59 08.10.2019
535 Clouds 21 1017 73 10000 9.3 330 19:41 08.10.2019
536 Clouds 23 1017 64 10000 9.3 330 19:23 08.10.2019
537 Clouds 24 1017 61 10000 7.7 330 18:57 08.10.2019
538 Clouds 24 1017 61 10000 7.7 330 18:39 08.10.2019
539 Clouds 25 1017 57 10000 7.7 330 18:19 08.10.2019
540 Clouds 25 1017 57 10000 6.7 330 17:55 08.10.2019
541 Clouds 25 1017 57 10000 6.7 330 17:55 08.10.2019
542 Clouds 25 1017 57 10000 6.7 330 17:36 08.10.2019
543 Clouds 26 1017 57 10000 5.7 310 17:18 08.10.2019
544 Clouds 26 1017 61 10000 7.2 330 16:40 08.10.2019
545 Clouds 26 1017 57 10000 5.1 320 16:22 08.10.2019
546 Clouds 26 1017 57 10000 6.2 320 15:56 08.10.2019
547 Clouds 26 1017 57 10000 6.2 320 15:37 08.10.2019
548 Clouds 26 1018 61 10000 5.1 310 15:19 08.10.2019
549 Clouds 26 1018 57 10000 5.1 320 14:42 08.10.2019
550 Clouds 25 1018 61 10000 5.7 330 14:21 08.10.2019
551 Clouds 25 1018 61 10000 5.7 330 14:21 08.10.2019
552 Clouds 25 1018 61 10000 5.7 330 13:58 08.10.2019
553 Clouds 25 1018 61 10000 5.7 340 13:39 08.10.2019
554 Clouds 24 1018 69 10000 5.7 340 13:20 08.10.2019
555 Clouds 23 1018 69 10000 5.7 340 12:59 08.10.2019
556 Clouds 23 1018 69 10000 7.2 350 12:38 08.10.2019
557 Clouds 22 1019 69 10000 6.7 350 12:19 08.10.2019
558 Clouds 21 1019 73 10000 7.2 350 11:43 08.10.2019
559 Clouds 20 1019 77 10000 6.7 340 11:24 08.10.2019
560 Clouds 20 1018 77 10000 5.1 350 10:59 08.10.2019
561 Clouds 19 1018 77 10000 5.1 350 10:40 08.10.2019
562 Clouds 19 1018 82 10000 5.7 330 10:21 08.10.2019
563 Clear 18 1018 82 10000 4.1 340 09:58 08.10.2019
564 Clear 18 1018 82 10000 4.1 340 09:39 08.10.2019
565 Clear 18 1018 77 10000 4.6 330 09:20 08.10.2019
566 Clear 18 1018 82 10000 2.1 360 08:43 08.10.2019
567 Clear 18 1018 82 10000 4.6 340 08:25 08.10.2019
568 Clear 18 1017 82 10000 6.2 330 07:46 08.10.2019
569 Clear 18 1017 77 10000 5.7 330 07:22 08.10.2019
570 Clear 18 1017 77 10000 5.7 330 06:56 08.10.2019
571 Clear 18 1017 77 10000 5.7 330 06:32 08.10.2019
572 Clear 19 1017 82 10000 5.1 320 05:57 08.10.2019
573 Clear 19 1017 82 10000 5.1 330 05:57 08.10.2019
574 Clear 19 1017 82 10000 5.1 330 05:36 08.10.2019
575 Clear 18 1018 82 10000 4.6 320 04:36 08.10.2019
576 Clear 18 1018 77 10000 5.1 330 03:29 08.10.2019
577 Clear 18 1018 72 10000 4.6 330 02:39 08.10.2019
578 Clear 18 1018 63 10000 3.6 350 01:49 08.10.2019
579 Clear 18 1018 63 10000 3.6 350 01:31 08.10.2019
580 Clear 18 1018 63 10000 3.6 350 01:31 08.10.2019
581 Clear 19 1018 59 10000 4.6 350 00:51 08.10.2019
582 Clear 19 1018 60 10000 6.2 340 00:22 08.10.2019
583 Clear 19 1018 59 10000 6.2 340 23:42 07.10.2019
584 Clear 19 1019 45 10000 6.2 330 23:21 07.10.2019
585 Clear 19 1019 45 10000 6.2 330 23:21 07.10.2019
586 Clear 19 1019 45 10000 6.2 330 22:58 07.10.2019
587 Clear 19 1018 42 10000 5.1 320 22:40 07.10.2019
588 Clear 20 1018 42 10000 6.2 310 22:21 07.10.2019
589 Clear 20 1018 40 10000 5.7 320 21:58 07.10.2019
590 Clear 19 1018 40 10000 5.7 320 21:40 07.10.2019
591 Clear 21 1018 37 10000 5.1 310 21:20 07.10.2019
592 Clear 21 1018 33 10000 4.1 320 20:58 07.10.2019
593 Clear 22 1018 33 10000 4.1 320 20:39 07.10.2019
594 Clear 23 1018 29 10000 6.2 320 20:21 07.10.2019
595 Clear 23 1018 29 10000 6.2 320 19:58 07.10.2019
596 Clear 24 1018 26 10000 6.2 330 19:40 07.10.2019
597 Clear 26 1018 21 10000 7.2 340 19:20 07.10.2019
598 Clear 26 1018 21 10000 7.2 340 18:58 07.10.2019
599 Clear 26 1018 19 10000 8.2 340 18:38 07.10.2019
600 Clear 26 1018 76 10000 7.2 340 18:19 07.10.2019
601 Clear 27 1018 17 10000 6.2 340 17:43 07.10.2019
602 Clear 27 1018 18 10000 6.7 340 17:23 07.10.2019
603 Clear 27 1018 18 10000 6.7 340 17:23 07.10.2019
604 Clear 27 1018 21 10000 6.7 330 16:59 07.10.2019
605 Clear 27 1018 21 10000 6.7 330 16:41 07.10.2019
606 Clear 28 1019 24 10000 6.2 340 16:22 07.10.2019
607 Clear 28 1019 26 10000 5.7 340 15:46 07.10.2019
608 Clear 26 1019 28 10000 5.7 330 15:26 07.10.2019
609 Clear 27 1020 30 10000 5.1 360 14:58 07.10.2019
610 Clear 26 1020 30 10000 5.1 360 14:40 07.10.2019
611 Clear 25 1020 34 10000 4.6 350 14:22 07.10.2019
612 Clear 24 1020 44 10000 4.1 340 13:43 07.10.2019
613 Clear 23 1020 46 10000 3.6 310 13:21 07.10.2019
614 Clear 23 1020 43 10000 4.1 340 12:57 07.10.2019
615 Clear 22 1020 43 10000 4.1 340 12:39 07.10.2019
616 Clear 20 1020 49 10000 4.1 340 12:19 07.10.2019
617 Clear 21 1020 49 10000 4.1 340 11:58 07.10.2019
618 Clear 20 1020 56 10000 4.6 330 11:38 07.10.2019
619 Clear 19 1020 59 10000 4.1 330 11:20 07.10.2019
620 Clouds 18 1020 72 10000 3.6 330 10:42 07.10.2019
621 Clouds 17 1020 77 10000 2.6 320 10:21 07.10.2019
622 Clouds 16 1020 77 10000 4.6 330 09:56 07.10.2019
623 Clouds 16 1020 77 10000 4.6 330 09:38 07.10.2019
624 Clear 16 1019 77 10000 4.1 320 09:19 07.10.2019
625 Clear 15 1019 77 10000 5.1 320 08:42 07.10.2019
626 Clear 16 1019 82 10000 4.1 320 08:20 07.10.2019
627 Clear 16 1019 82 10000 3.1 310 07:46 07.10.2019
628 Clear 16 1019 82 10000 3.6 300 07:27 07.10.2019
629 Clear 16 1019 82 10000 3.6 320 06:57 07.10.2019
630 Clear 16 1019 82 10000 3.6 320 06:38 07.10.2019
631 Clear 16 1019 72 10000 2.1 310 05:56 07.10.2019
632 Clear 16 1019 77 10000 1.5 0 05:25 07.10.2019
633 Clear 16 1019 82 10000 6.7 320 04:47 07.10.2019
634 Clear 17 1020 82 10000 4.1 320 03:45 07.10.2019
635 Clear 17 1020 82 10000 4.1 320 03:45 07.10.2019
636 Clear 17 1020 82 10000 2.1 310 03:27 07.10.2019
637 Clouds 18 1021 88 10000 5.1 340 02:23 07.10.2019
638 Clouds 18 1021 88 10000 5.7 340 01:58 07.10.2019
639 Clouds 18 1021 88 10000 3.1 340 01:23 07.10.2019
640 Clouds 18 1021 88 10000 6.2 340 00:45 07.10.2019
641 Clouds 18 1021 88 10000 2.6 340 00:23 07.10.2019
642 Clouds 18 1021 88 10000 2.6 340 23:59 06.10.2019
643 Clouds 18 1021 88 10000 3.6 310 23:39 06.10.2019
644 Clouds 19 1021 88 10000 5.1 320 23:18 06.10.2019
645 Clouds 19 1021 82 10000 6.2 320 22:54 06.10.2019
646 Clouds 19 1021 82 10000 6.2 320 22:36 06.10.2019
647 Clouds 19 1021 82 10000 6.2 320 22:18 06.10.2019
648 Clouds 19 1021 82 10000 6.2 320 22:18 06.10.2019
649 Clouds 19 1020 77 10000 5.7 310 21:55 06.10.2019
650 Clouds 19 1020 77 10000 5.7 310 21:54 06.10.2019
651 Clouds 19 1020 77 10000 5.7 310 21:36 06.10.2019
652 Clouds 19 1020 77 10000 6.2 320 21:18 06.10.2019
653 Clouds 20 1020 68 10000 5.7 320 20:54 06.10.2019
654 Clouds 21 1020 68 10000 5.7 320 20:36 06.10.2019
655 Clouds 21 1020 68 10000 5.7 320 20:36 06.10.2019
656 Clear 21 1020 64 10000 4.1 320 20:18 06.10.2019
657 Clear 22 1020 57 10000 7.7 340 19:54 06.10.2019
658 Clear 23 1020 57 10000 7.7 340 19:36 06.10.2019
659 Clear 23 1020 53 10000 6.7 340 19:18 06.10.2019
660 Clear 24 1020 53 10000 5.7 330 18:54 06.10.2019
661 Clear 24 1020 53 10000 5.7 330 18:36 06.10.2019
662 Clear 25 1020 47 10000 6.7 350 18:18 06.10.2019
663 Clear 25 1020 47 10000 6.7 330 17:42 06.10.2019
664 Clear 26 1020 47 10000 6.2 330 17:19 06.10.2019
665 Clear 26 1020 47 10000 5.7 330 16:54 06.10.2019
666 Clear 26 1020 47 10000 5.7 330 16:36 06.10.2019
667 Clear 26 1020 44 10000 5.1 360 16:18 06.10.2019
668 Clear 26 1021 44 10000 5.1 350 15:42 06.10.2019
669 Clear 25 1021 47 10000 4.6 360 15:19 06.10.2019
670 Clear 25 1021 53 10000 5.7 330 14:44 06.10.2019
671 Clear 24 1021 50 10000 5.7 340 14:25 06.10.2019
672 Clear 24 1022 60 10000 6.2 340 13:58 06.10.2019
673 Clear 23 1022 60 10000 6.2 340 13:39 06.10.2019
674 Clear 23 1021 53 10000 4.6 20 13:21 06.10.2019
675 Clear 22 1022 60 10000 6.7 340 12:57 06.10.2019
676 Clear 22 1022 60 10000 6.7 340 12:39 06.10.2019
677 Clouds 21 1022 64 10000 7.7 340 12:20 06.10.2019
678 Clouds 20 1021 68 10000 7.2 340 11:58 06.10.2019
679 Clouds 20 1021 68 10000 7.2 340 11:39 06.10.2019
680 Clouds 20 1021 72 10000 5.7 350 11:20 06.10.2019
681 Clear 19 1021 77 10000 5.7 350 10:45 06.10.2019
682 Clear 18 1020 82 10000 4.1 340 10:26 06.10.2019
683 Clear 17 1020 82 10000 4.1 340 09:58 06.10.2019
684 Clear 17 1020 77 10000 3.6 10 09:40 06.10.2019
685 Clear 16 1020 77 10000 3.6 360 09:19 06.10.2019
686 Clear 16 1020 82 10000 4.6 350 08:45 06.10.2019
687 Clear 16 1020 77 10000 4.6 350 08:21 06.10.2019
688 Clear 16 1019 82 10000 4.6 340 07:57 06.10.2019
689 Clear 16 1019 82 10000 4.6 340 07:38 06.10.2019
690 Clear 16 1019 82 10000 3.1 340 06:32 06.10.2019
691 Clear 16 1019 82 10000 4.6 350 05:35 06.10.2019
692 Clouds 16 1020 82 10000 6.2 330 04:27 06.10.2019
693 Clouds 16 1020 87 10000 6.2 340 02:47 06.10.2019
694 Clouds 16 1020 87 10000 5.7 340 02:27 06.10.2019
695 Clouds 16 1020 82 10000 4.1 350 01:46 06.10.2019
696 Clouds 16 1020 77 10000 5.7 350 01:27 06.10.2019
697 Clouds 17 1021 77 10000 7.2 330 00:57 06.10.2019
698 Clouds 17 1021 77 10000 7.2 330 00:29 06.10.2019
699 Clouds 17 1020 77 10000 6.7 340 23:45 05.10.2019
700 Clear 17 1020 72 10000 6.7 330 23:23 05.10.2019
701 Clear 17 1020 72 10000 6.7 330 22:59 05.10.2019
702 Clear 17 1020 72 10000 6.7 330 22:40 05.10.2019
703 Clear 17 1019 72 10000 6.2 330 22:21 05.10.2019
704 Clear 17 1019 68 10000 6.2 340 21:57 05.10.2019
705 Clear 18 1019 68 10000 6.2 340 21:39 05.10.2019
706 Clear 18 1019 68 10000 6.7 330 21:20 05.10.2019
707 Clear 18 1019 68 10000 6.2 320 20:56 05.10.2019
708 Clear 18 1019 68 10000 6.2 320 20:38 05.10.2019
709 Clear 18 1019 63 10000 6.2 320 20:19 05.10.2019
710 Clear 19 1019 60 10000 7.7 330 19:39 05.10.2019
711 Clear 20 1019 56 10000 6.7 320 19:21 05.10.2019
712 Clear 20 1018 60 10000 6.2 310 18:57 05.10.2019
713 Clear 21 1018 60 10000 6.2 310 18:39 05.10.2019
714 Clear 20 1018 60 10000 6.2 310 18:39 05.10.2019
715 Clear 21 1018 56 10000 5.7 310 18:20 05.10.2019
716 Clear 22 1018 49 10000 5.7 310 17:55 05.10.2019
717 Clouds 22 1018 53 10000 4.6 310 17:37 05.10.2019
718 Clouds 22 1018 53 10000 4.6 310 17:18 05.10.2019
719 Clouds 22 1018 49 10000 4.1 310 16:42 05.10.2019
720 Clouds 22 1018 53 10000 4.6 310 16:21 05.10.2019
721 Clouds 22 1018 53 10000 4.6 310 15:57 05.10.2019
722 Clouds 22 1019 53 10000 5.1 330 15:39 05.10.2019
723 Clouds 22 1019 53 10000 5.7 330 15:21 05.10.2019
724 Clouds 22 1019 60 10000 5.1 330 14:57 05.10.2019
725 Clouds 22 1019 60 10000 5.1 330 14:38 05.10.2019
726 Clouds 21 1019 56 10000 5.1 340 14:20 05.10.2019
727 Clouds 21 1019 56 10000 5.1 340 14:20 05.10.2019
728 Clouds 21 1019 64 10000 6.2 350 13:42 05.10.2019
729 Clouds 21 1020 64 10000 7.2 360 13:22 05.10.2019
730 Clouds 20 1019 68 10000 6.7 340 12:46 05.10.2019
731 Clouds 20 1019 68 10000 7.7 340 12:21 05.10.2019
732 Clouds 19 1019 68 10000 5.7 340 11:59 05.10.2019
733 Clouds 19 1019 68 10000 5.7 340 11:37 05.10.2019
734 Clouds 19 1019 72 10000 4.6 330 11:18 05.10.2019
735 Clouds 19 1019 72 10000 4.6 330 11:18 05.10.2019
736 Clouds 18 1019 77 10000 2.6 310 10:45 05.10.2019
737 Clouds 17 1018 82 10000 2.6 320 10:26 05.10.2019
738 Clouds 17 1018 82 10000 2.6 320 09:58 05.10.2019
739 Clouds 17 1018 87 10000 2.1 330 09:39 05.10.2019
740 Clouds 17 1018 82 10000 2.6 340 09:20 05.10.2019
741 Clouds 17 1018 82 10000 2.6 340 09:20 05.10.2019
742 Clouds 16 1017 87 10000 2.6 340 08:40 05.10.2019
743 Clouds 16 1017 87 10000 3.1 340 08:20 05.10.2019
744 Clouds 17 1017 87 10000 3.1 340 07:57 05.10.2019
745 Clouds 16 1017 87 10000 1.5 320 07:34 05.10.2019
746 Clouds 16 1017 87 10000 2.6 330 06:58 05.10.2019
747 Clouds 16 1017 82 10000 2.1 340 06:28 05.10.2019
748 Clouds 16 1018 82 10000 1.5 300 05:51 05.10.2019
749 Clouds 17 1018 82 10000 1.5 0 03:57 05.10.2019
750 Clouds 16 1018 82 10000 1.5 340 03:28 05.10.2019
751 Clouds 17 1019 82 10000 2.6 300 01:42 05.10.2019
752 Clouds 17 1019 77 10000 1.5 300 01:20 05.10.2019
753 Clouds 17 1019 77 10000 2.6 320 00:43 05.10.2019
754 Clear 17 1019 77 10000 2.6 320 00:25 05.10.2019
755 Clear 17 1019 77 10000 2.6 320 00:25 05.10.2019
756 Clear 17 1019 77 10000 2.6 320 23:44 04.10.2019
757 Clear 17 1019 77 10000 2.1 310 23:26 04.10.2019
758 Clear 18 1019 72 10000 2.6 330 22:59 04.10.2019
759 Clear 18 1019 72 10000 2.6 330 22:39 04.10.2019
760 Clear 18 1019 68 10000 2.1 320 22:20 04.10.2019
761 Clouds 18 1018 68 10000 3.1 310 21:57 04.10.2019
762 Clouds 18 1018 68 10000 3.1 310 21:39 04.10.2019
763 Clouds 19 1018 64 10000 4.6 330 21:20 04.10.2019
764 Clouds 19 1018 60 10000 5.1 310 20:57 04.10.2019
765 Clouds 20 1018 60 10000 5.1 310 20:38 04.10.2019
766 Clouds 21 1018 60 10000 5.1 330 20:20 04.10.2019
767 Clouds 22 1018 56 10000 5.1 330 19:48 04.10.2019
768 Clouds 23 1018 53 10000 4.1 320 19:29 04.10.2019
769 Clouds 24 1017 53 10000 4.1 320 18:59 04.10.2019
770 Clouds 24 1017 53 10000 4.1 320 18:39 04.10.2019
771 Clouds 25 1018 53 10000 5.1 330 18:19 04.10.2019
772 Clouds 25 1017 57 10000 4.1 340 17:57 04.10.2019
773 Clouds 25 1017 57 10000 4.1 340 17:38 04.10.2019
774 Clouds 25 1018 57 10000 5.1 340 17:19 04.10.2019
775 Clouds 25 1018 57 10000 6.2 340 16:54 04.10.2019
776 Clouds 25 1018 57 10000 6.2 340 16:36 04.10.2019
777 Clouds 25 1018 57 10000 6.2 340 16:36 04.10.2019
778 Clouds 25 1018 57 10000 6.2 340 16:36 04.10.2019
779 Clouds 25 1018 53 10000 4.6 350 16:18 04.10.2019
780 -273 0 0 0 0 0 15:54 04.10.2019
781 Clouds 25 1019 53 10000 5.1 340 15:36 04.10.2019
782 Clouds 25 1019 57 10000 5.1 330 15:18 04.10.2019
783 Clouds 24 1019 60 10000 5.7 340 14:41 04.10.2019
784 Clouds 23 1020 68 10000 3.1 300 14:22 04.10.2019
785 Clouds 23 1020 68 10000 4.1 320 13:58 04.10.2019
786 Clouds 23 1020 68 10000 4.1 320 13:40 04.10.2019
787 Clouds 23 1020 73 10000 4.1 320 13:19 04.10.2019
788 Clouds 22 1020 68 10000 5.7 330 12:45 04.10.2019
789 Clouds 22 1020 73 10000 3.6 310 12:27 04.10.2019
790 Clouds 22 1020 73 10000 3.6 310 12:27 04.10.2019
791 Clouds 21 1020 73 10000 3.6 310 11:44 04.10.2019
792 Clouds 21 1020 73 10000 3.6 310 11:43 04.10.2019
793 Clouds 21 1020 73 10000 3.6 310 11:43 04.10.2019
794 Clouds 21 1020 73 10000 3.6 310 11:43 04.10.2019
795 Clouds 20 1020 88 10000 3.6 340 11:22 04.10.2019
796 Clouds 20 1020 88 10000 2.6 320 10:58 04.10.2019
797 Clouds 20 1020 88 10000 2.6 320 10:38 04.10.2019
798 Clouds 19 1020 88 10000 3.1 330 10:19 04.10.2019
799 Clouds 19 1019 93 10000 2.1 310 09:44 04.10.2019
800 Clouds 19 1019 93 10000 2.1 310 09:44 04.10.2019
801 Clouds 18 1019 93 10000 1 0 09:25 04.10.2019
802 Clouds 18 1019 93 10000 1 0 08:55 04.10.2019
803 Clouds 18 1019 93 10000 1 0 08:37 04.10.2019
804 Clouds 18 1019 93 10000 1 0 08:18 04.10.2019
805 Clouds 18 1019 93 10000 1 0 07:42 04.10.2019
806 Clouds 19 1019 93 10000 1.5 310 07:20 04.10.2019
807 Clouds 19 1019 93 10000 0.5 0 06:41 04.10.2019
808 Clouds 19 1019 93 10000 1.5 310 06:22 04.10.2019
809 Clouds 19 1019 93 10000 3.6 300 05:23 04.10.2019
810 Clouds 19 1019 93 10000 2.1 280 04:54 04.10.2019
811 Clouds 19 1020 93 10000 2.1 300 03:42 04.10.2019
812 Clouds 20 1020 94 0 2.1 310 02:53 04.10.2019
813 Clouds 20 1021 88 10000 4.1 300 01:54 04.10.2019
814 Clouds 20 1021 88 10000 4.1 300 01:54 04.10.2019
815 Clouds 19 1021 88 10000 3.6 300 01:28 04.10.2019
816 Clouds 19 1021 93 10000 3.6 300 00:50 04.10.2019
817 Clouds 19 1021 88 10000 4.6 300 23:54 03.10.2019
818 Clouds 19 1021 88 10000 4.6 300 23:36 03.10.2019
819 Clouds 19 1021 88 10000 4.6 300 23:18 03.10.2019
820 Clear 19 1021 82 10000 4.1 310 22:54 03.10.2019
821 Clear 19 1021 82 10000 4.1 310 22:36 03.10.2019
822 Clear 19 1020 77 10000 3.1 300 22:18 03.10.2019
823 Clear 19 1021 77 10000 3.6 310 21:41 03.10.2019
824 Clouds 19 1021 73 10000 3.6 300 21:21 03.10.2019
825 Clouds 20 1021 73 10000 3.6 300 20:59 03.10.2019
826 Clouds 20 1020 73 10000 4.1 300 20:41 03.10.2019
827 Clouds 21 1020 68 10000 5.1 330 20:23 03.10.2019
828 Clouds 21 1020 68 10000 5.1 330 19:59 03.10.2019
829 Clouds 22 1020 64 10000 5.1 320 19:41 03.10.2019
830 Clouds 23 1020 64 10000 5.7 330 19:22 03.10.2019
831 Clouds 23 1020 64 10000 5.1 310 18:57 03.10.2019
832 Clouds 23 1020 64 10000 5.1 310 18:38 03.10.2019
833 Clouds 23 1020 64 10000 5.1 310 18:38 03.10.2019
834 Clouds 23 1021 60 10000 4.6 300 18:19 03.10.2019
835 Clouds 23 1021 60 10000 4.6 300 18:19 03.10.2019
836 Clouds 24 1021 57 10000 5.1 340 17:43 03.10.2019
837 Clouds 24 1021 60 10000 6.2 320 17:23 03.10.2019
838 Clouds 24 1021 60 10000 5.7 310 16:59 03.10.2019
839 Clouds 24 1021 60 10000 5.7 310 16:40 03.10.2019
840 Clouds 24 1021 60 10000 4.6 320 16:22 03.10.2019
841 Clouds 24 1021 57 10000 6.7 330 15:55 03.10.2019
842 Clouds 24 1021 57 10000 6.7 330 15:37 03.10.2019
843 Clouds 23 1021 57 10000 4.1 320 15:18 03.10.2019
844 Clouds 23 1022 60 10000 5.7 340 14:39 03.10.2019
845 Clouds 23 1022 60 10000 4.1 330 14:20 03.10.2019
846 Clouds 23 1022 64 10000 5.1 330 13:56 03.10.2019
847 Clouds 23 1022 64 10000 5.1 330 13:56 03.10.2019
848 Clouds 23 1022 64 10000 5.1 330 13:38 03.10.2019
849 Clouds 22 1022 68 10000 4.6 320 13:19 03.10.2019
850 Clouds 22 1022 64 10000 3.6 310 12:54 03.10.2019
851 Clouds 21 1022 64 10000 3.6 310 12:36 03.10.2019
852 Clouds 20 1022 68 10000 5.1 340 12:18 03.10.2019
853 Clouds 19 1022 77 10000 4.1 330 11:40 03.10.2019
854 Clouds 19 1022 77 10000 4.1 330 11:40 03.10.2019
855 Clouds 18 1022 82 10000 3.1 330 11:22 03.10.2019
856 Clouds 18 1022 82 10000 3.1 330 10:58 03.10.2019
857 Clouds 17 1022 82 10000 2.6 340 10:39 03.10.2019
858 Clouds 17 1022 82 10000 2.6 340 10:39 03.10.2019
859 Clouds 17 1022 87 10000 1.5 20 10:18 03.10.2019
860 Clouds 16 1021 87 10000 1.5 350 09:56 03.10.2019
861 Clouds 15 1021 87 10000 1.5 350 09:38 03.10.2019
862 Clouds 15 1021 87 10000 2.1 330 09:19 03.10.2019
863 Clouds 15 1021 87 10000 2.1 340 08:43 03.10.2019
864 Clouds 15 1021 87 10000 1.5 330 08:25 03.10.2019
865 Clouds 15 1021 87 10000 1.5 80 07:55 03.10.2019
866 Clouds 15 1021 87 10000 1.5 80 07:37 03.10.2019
867 Clouds 15 1021 87 10000 1 0 07:19 03.10.2019
868 Clouds 15 1021 82 10000 2.6 330 06:27 03.10.2019
869 Clear 15 1020 82 10000 3.6 330 05:50 03.10.2019
870 Clear 15 1020 82 10000 3.6 330 05:31 03.10.2019
871 Clear 16 1020 82 10000 2.6 310 04:47 03.10.2019
872 Clear 16 1021 82 10000 3.6 320 04:18 03.10.2019
873 Clear 16 1021 82 10000 4.1 310 03:19 03.10.2019
874 Clear 16 1021 82 10000 4.1 310 03:19 03.10.2019
875 Clear 16 1020 82 10000 5.1 310 02:27 03.10.2019
876 Clear 16 1021 77 10000 3.6 320 01:41 03.10.2019
877 Clear 16 1021 82 10000 4.6 320 01:20 03.10.2019
878 Clear 16 1021 77 10000 4.6 320 00:41 03.10.2019
879 Clear 16 1021 72 10000 4.6 320 23:58 02.10.2019
880 Clear 17 1021 72 10000 4.6 320 23:38 02.10.2019
881 Clear 17 1021 67 10000 4.6 320 23:19 02.10.2019
882 Clear 17 1021 67 10000 5.1 320 22:43 02.10.2019
883 Clear 17 1020 67 10000 6.2 320 22:21 02.10.2019
884 Clear 18 1020 63 10000 7.2 330 21:56 02.10.2019
885 Clear 18 1020 63 10000 7.2 330 21:38 02.10.2019
886 Clear 18 1020 68 10000 5.7 330 21:19 02.10.2019
887 Clear 18 1020 68 10000 5.7 330 21:19 02.10.2019
888 Clear 19 1020 63 10000 4.6 320 20:56 02.10.2019
889 Clear 19 1020 63 10000 4.6 320 20:37 02.10.2019
890 Clear 19 1020 64 10000 6.2 330 20:19 02.10.2019
891 Clear 20 1020 56 10000 5.7 310 19:46 02.10.2019
892 Clear 21 1020 53 10000 5.1 320 19:23 02.10.2019
893 Clear 21 1020 53 10000 5.1 320 19:23 02.10.2019
894 Clear 21 1020 53 10000 5.1 320 18:59 02.10.2019
895 Clear 22 1020 53 10000 6.2 320 18:40 02.10.2019
896 Clear 22 1020 53 10000 5.1 310 18:21 02.10.2019
897 Clear 22 1020 53 10000 5.1 310 17:59 02.10.2019
898 Clear 22 1020 53 10000 4.6 320 17:40 02.10.2019
899 Clear 23 1020 53 10000 4.6 300 17:21 02.10.2019
900 Clouds 23 1020 49 10000 5.7 320 16:57 02.10.2019
901 Clear 23 1020 53 10000 4.6 300 16:57 02.10.2019
902 Clouds 23 1020 49 10000 5.7 320 16:38 02.10.2019
903 Clouds 23 1020 53 10000 5.1 310 16:20 02.10.2019
904 Clouds 23 1020 53 10000 5.1 310 15:56 02.10.2019
905 Clouds 23 1020 49 10000 5.1 330 15:37 02.10.2019
906 Clouds 23 1020 49 10000 5.1 330 15:18 02.10.2019
907 Clouds 22 1021 49 10000 5.7 330 14:43 02.10.2019
908 Clouds 23 1021 49 10000 5.7 330 14:25 02.10.2019
909 Clouds 22 1021 53 10000 5.1 340 13:57 02.10.2019
910 Clouds 22 1021 56 10000 5.1 340 13:39 02.10.2019
911 Clouds 22 1021 56 10000 5.1 340 13:21 02.10.2019
912 Clouds 21 1022 64 10000 6.7 340 12:40 02.10.2019
913 Clouds 21 1022 64 10000 6.7 340 12:22 02.10.2019
914 Clouds 21 1022 64 10000 6.7 340 12:22 02.10.2019
915 Clouds 20 1022 64 10000 6.2 350 11:59 02.10.2019
916 Clouds 20 1021 68 10000 6.2 350 11:41 02.10.2019
917 Clouds 19 1021 68 10000 6.2 350 11:21 02.10.2019
918 Clouds 18 1021 88 10000 3.6 340 10:39 02.10.2019
919 Clouds 18 1021 88 10000 3.6 340 10:19 02.10.2019
920 Clouds 18 1021 88 10000 3.6 340 10:19 02.10.2019
921 Clouds 16 1020 87 10000 2.1 330 09:42 02.10.2019
922 Clouds 16 1020 87 10000 2.1 330 09:20 02.10.2019
923 Clouds 16 1020 87 10000 2.6 320 08:57 02.10.2019
924 Clouds 16 1020 93 10000 1.5 300 08:39 02.10.2019
925 Clouds 16 1020 93 10000 1.5 300 08:20 02.10.2019
926 Clouds 16 1020 93 10000 2.1 240 07:55 02.10.2019
927 Clouds 16 1020 93 10000 1 0 07:36 02.10.2019
928 Clouds 16 1020 93 10000 1 0 07:36 02.10.2019
929 Clouds 16 1020 93 10000 1 0 07:18 02.10.2019
930 Clouds 16 1020 93 10000 2.1 310 06:28 02.10.2019
931 Clouds 16 1020 93 10000 2.1 300 05:51 02.10.2019
932 Clouds 16 1020 93 10000 2.1 320 05:22 02.10.2019
933 Clouds 17 1021 93 10000 2.6 340 04:18 02.10.2019
934 Clouds 17 1021 88 10000 2.1 330 03:45 02.10.2019
935 Clouds 17 1021 88 10000 1.5 10 02:38 02.10.2019
936 Clouds 17 1021 88 10000 1.5 10 02:20 02.10.2019
937 Clouds 18 1021 88 10000 3.6 340 00:55 02.10.2019
938 Clouds 18 1021 88 10000 4.1 340 00:30 02.10.2019
939 Clouds 18 1021 88 10000 4.1 330 23:57 01.10.2019
940 Clouds 18 1021 88 10000 3.6 320 23:39 01.10.2019
941 Clouds 19 1021 88 10000 3.6 320 23:21 01.10.2019
942 Clouds 19 1021 88 10000 3.6 310 22:58 01.10.2019
943 Clouds 19 1021 88 10000 3.6 310 22:58 01.10.2019
944 Clouds 19 1021 88 10000 3.6 310 22:58 01.10.2019
945 Clouds 19 1020 82 10000 3.1 300 22:38 01.10.2019
946 Clouds 19 1020 82 10000 3.1 300 22:38 01.10.2019
947 Clouds 19 1020 82 10000 3.1 300 22:18 01.10.2019
948 Clouds 19 1020 82 10000 3.6 300 21:43 01.10.2019
949 Clouds 19 1019 72 10000 3.6 310 21:24 01.10.2019
950 Clouds 20 1019 68 10000 5.1 330 20:59 01.10.2019
951 Clouds 20 1019 56 10000 4.6 330 20:39 01.10.2019
952 Clouds 21 1019 56 10000 4.6 330 20:21 01.10.2019
953 Clouds 21 1019 53 10000 4.6 310 19:59 01.10.2019
954 Clouds 22 1019 47 10000 4.1 300 19:41 01.10.2019
955 Clouds 23 1019 47 10000 4.1 300 19:23 01.10.2019
956 Clouds 23 1018 50 10000 4.6 300 18:56 01.10.2019
957 Clouds 24 1018 47 10000 4.6 290 18:38 01.10.2019
958 Clouds 24 1018 47 10000 4.6 290 18:19 01.10.2019
959 Clouds 24 1018 50 10000 4.1 300 17:43 01.10.2019
960 Clouds 25 1018 50 10000 4.1 300 17:25 01.10.2019
961 Clouds 25 1018 50 10000 4.1 320 16:59 01.10.2019
962 Clouds 25 1018 53 10000 4.1 290 16:41 01.10.2019
963 Clouds 25 1018 53 10000 4.1 290 16:22 01.10.2019
964 Clouds 25 1019 54 10000 4.1 320 15:55 01.10.2019
965 Clouds 24 1019 57 10000 4.1 320 15:37 01.10.2019
966 Clouds 24 1019 57 10000 4.1 320 15:18 01.10.2019
967 Clouds 24 1019 57 10000 4.1 320 15:18 01.10.2019
968 Clouds 23 1019 60 10000 3.1 300 14:40 01.10.2019
969 Clouds 23 1019 60 10000 3.1 300 14:20 01.10.2019
970 Clouds 23 1019 60 10000 3.6 290 13:57 01.10.2019
971 Clouds 23 1019 60 10000 3.6 290 13:57 01.10.2019
972 Clouds 23 1019 69 10000 3.1 300 13:38 01.10.2019
973 Clouds 22 1019 69 10000 3.1 300 13:18 01.10.2019
974 Clouds 22 1019 73 10000 4.1 300 12:56 01.10.2019
975 Clouds 22 1019 78 10000 3.6 300 12:38 01.10.2019
976 Clouds 22 1019 78 10000 3.6 300 12:18 01.10.2019
977 Clouds 21 1019 78 10000 4.6 320 11:57 01.10.2019
978 Clouds 21 1019 78 10000 4.6 320 11:57 01.10.2019
979 Clouds 21 1019 83 10000 3.6 300 11:37 01.10.2019
980 Clouds 21 1019 83 10000 3.6 300 11:18 01.10.2019
981 Clouds 20 1019 88 10000 3.1 300 10:48 01.10.2019
982 Clouds 20 1019 93 10000 3.6 300 10:28 01.10.2019
983 Clouds 19 1018 88 10000 2.6 290 09:46 01.10.2019
984 Clouds 18 1018 93 10000 3.1 290 09:26 01.10.2019
985 Clouds 18 1018 93 10000 2.1 280 08:46 01.10.2019
986 Clouds 18 1017 93 10000 2.6 300 08:28 01.10.2019
987 Clouds 18 1017 88 10000 2.1 300 07:59 01.10.2019
988 Clouds 18 1017 88 10000 2.1 290 07:41 01.10.2019
989 Clouds 18 1017 88 10000 2.1 290 07:20 01.10.2019
990 Clouds 18 1017 88 10000 2.6 280 06:43 01.10.2019
991 Clouds 18 1017 88 10000 2.6 280 06:18 01.10.2019
992 Clouds 18 1017 82 10000 2.1 290 05:45 01.10.2019
993 Clouds 18 1017 82 10000 1.5 300 04:46 01.10.2019
994 Clouds 19 1017 82 10000 1.5 300 03:58 01.10.2019
995 Clouds 19 1018 88 10000 2.6 320 02:24 01.10.2019
996 Clouds 19 1017 88 10000 3.1 310 01:57 01.10.2019
997 Clouds 19 1017 88 10000 2.6 310 00:53 01.10.2019
998 Clouds 19 1017 88 10000 3.6 310 00:26 01.10.2019
999 Clouds 19 1017 88 10000 4.1 320 23:55 30.09.2019
1000 Clouds 19 1016 88 10000 5.7 320 23:37 30.09.2019
1001 Clouds 19 1016 88 10000 5.7 320 23:18 30.09.2019
1002 Clouds 20 1016 82 10000 5.7 300 22:42 30.09.2019
1003 Clouds 20 1016 82 10000 5.7 300 22:24 30.09.2019
1004 Clouds 20 1016 82 10000 4.1 310 21:56 30.09.2019
1005 Clouds 20 1015 82 10000 4.6 320 21:38 30.09.2019
1006 Clouds 20 1015 82 10000 4.6 320 21:19 30.09.2019
1007 Clouds 20 1016 77 10000 4.6 320 20:55 30.09.2019
1008 Clouds 20 1016 77 10000 4.6 320 20:55 30.09.2019
1009 Clouds 21 1015 73 10000 5.1 310 20:37 30.09.2019
1010 Clouds 21 1015 73 10000 5.1 310 20:19 30.09.2019
1011 Clouds 22 1016 69 10000 4.6 310 19:56 30.09.2019
1012 Clouds 22 1016 69 10000 4.6 310 19:56 30.09.2019
1013 Clouds 22 1016 64 10000 5.1 320 19:38 30.09.2019
1014 Clouds 23 1016 64 10000 5.1 320 19:18 30.09.2019
1015 Clouds 23 1015 64 10000 5.1 320 18:54 30.09.2019
1016 Clouds 24 1016 61 10000 4.1 310 18:36 30.09.2019
1017 Clouds 24 1016 57 10000 3.6 290 18:18 30.09.2019
1018 Clouds 24 1016 57 10000 3.1 300 17:40 30.09.2019
1019 Clouds 25 1016 57 10000 3.1 300 17:22 30.09.2019
1020 Clouds 24 1016 61 10000 5.7 220 16:56 30.09.2019
1021 Clouds 25 1016 61 10000 5.7 220 16:56 30.09.2019
1022 Clouds 24 1017 61 10000 5.7 220 16:38 30.09.2019
1023 Clouds 24 1017 61 10000 5.7 220 16:19 30.09.2019
1024 Clouds 24 1017 61 10000 5.7 220 16:19 30.09.2019
1025 Clouds 24 1017 61 10000 4.1 210 15:56 30.09.2019
1026 Clouds 24 1017 61 10000 2.6 120 15:37 30.09.2019
1027 Clouds 25 1017 61 10000 2.6 120 15:19 30.09.2019
1028 Clouds 24 1017 65 10000 3.6 140 14:57 30.09.2019
1029 Clouds 24 1017 65 10000 2.6 110 14:37 30.09.2019
1030 Clouds 24 1017 65 10000 2.6 110 14:18 30.09.2019
1031 Clouds 23 1018 69 10000 2.6 110 13:55 30.09.2019
1032 Clouds 22 1018 73 10000 2.6 80 13:36 30.09.2019
1033 Clouds 22 1018 73 10000 2.6 80 13:18 30.09.2019
1034 Clouds 21 1018 78 10000 2.6 0 12:41 30.09.2019
1035 Clouds 21 1018 78 10000 2.6 0 12:21 30.09.2019
1036 Clouds 20 1018 78 10000 2.6 50 11:44 30.09.2019
1037 Clouds 20 1018 88 10000 2.1 10 11:23 30.09.2019
1038 Mist 19 1018 93 10000 3.1 10 10:59 30.09.2019
1039 Mist 19 1017 93 10000 2.6 350 10:40 30.09.2019
1040 Mist 19 1017 100 10000 3.1 350 10:19 30.09.2019
1041 Mist 19 1017 93 10000 2.6 350 10:19 30.09.2019
1042 Mist 18 1017 100 10000 3.1 350 09:58 30.09.2019
1043 Mist 18 1017 100 10000 3.1 350 09:58 30.09.2019
1044 Fog 18 1017 93 10000 2.6 330 09:39 30.09.2019
1045 Clouds 18 1017 100 10000 3.1 330 09:20 30.09.2019
1046 Clouds 18 1017 93 10000 3.1 330 08:46 30.09.2019
1047 Clouds 18 1017 93 10000 3.1 330 08:28 30.09.2019
1048 Clouds 18 1017 93 10000 3.1 330 07:45 30.09.2019
1049 Clouds 18 1017 93 10000 3.6 330 07:27 30.09.2019
1050 Clouds 18 1017 100 10000 2.6 330 06:56 30.09.2019
1051 Clouds 18 1017 100 10000 3.6 330 06:34 30.09.2019
1052 Clouds 18 1018 93 10000 2.6 320 05:48 30.09.2019
1053 Clouds 18 1018 93 10000 2.6 320 05:48 30.09.2019
1054 Clouds 18 1018 93 10000 3.6 330 04:40 30.09.2019
1055 Clouds 19 1019 88 10000 5.1 330 02:48 30.09.2019
1056 Clouds 19 1019 88 10000 5.1 330 01:38 30.09.2019
1057 Clouds 19 1019 82 10000 6.2 340 00:43 30.09.2019
1058 Clouds 19 1019 82 10000 6.2 340 00:22 30.09.2019
1059 Clouds 19 1019 82 10000 5.7 320 23:55 29.09.2019
1060 Clouds 19 1019 82 10000 5.7 320 23:36 29.09.2019
1061 Clouds 19 1019 82 10000 5.7 320 23:18 29.09.2019
1062 Clouds 19 1019 82 10000 6.7 310 22:42 29.09.2019
1063 Clouds 19 1019 82 10000 6.7 310 22:23 29.09.2019
1064 Clouds 19 1018 82 10000 6.7 320 21:58 29.09.2019
1065 Clouds 19 1018 82 10000 6.7 320 21:38 29.09.2019
1066 Clouds 19 1018 82 10000 6.7 320 21:19 29.09.2019
1067 Clouds 19 1018 82 10000 6.7 320 21:19 29.09.2019
1068 Clouds 19 1018 82 10000 6.7 320 21:19 29.09.2019
1069 Clouds 20 1018 77 10000 5.7 320 20:55 29.09.2019
1070 Clouds 20 1018 77 10000 5.7 320 20:55 29.09.2019
1071 Clouds 20 1018 73 10000 6.7 320 20:37 29.09.2019
1072 Clouds 21 1018 73 10000 6.7 320 20:19 29.09.2019
1073 Clear 23 1018 60 10000 4.6 310 19:39 29.09.2019
1074 Clear 23 1018 60 10000 4.6 310 19:19 29.09.2019
1075 Clear 24 1018 57 10000 4.6 310 18:57 29.09.2019
1076 Clear 24 1018 57 10000 4.6 310 18:57 29.09.2019
1077 Clear 25 1018 50 10000 5.1 330 18:38 29.09.2019
1078 Clear 25 1018 50 10000 5.1 330 18:20 29.09.2019
1079 Clear 25 1018 50 10000 5.1 330 17:59 29.09.2019
1080 Clear 25 1018 50 10000 5.1 350 17:41 29.09.2019
1081 Clear 25 1018 50 10000 5.1 350 17:20 29.09.2019
1082 Clear 25 1019 50 10000 4.6 340 16:59 29.09.2019
1083 Clear 25 1019 50 10000 4.6 340 16:59 29.09.2019
1084 Clear 25 1019 50 10000 4.6 340 16:59 29.09.2019
1085 Clear 25 1019 50 10000 4.1 330 16:41 29.09.2019
1086 Clear 25 1019 50 10000 4.1 330 16:20 29.09.2019
1087 -273 0 0 0 0 0 15:58 29.09.2019
1088 Clear 24 1020 57 10000 5.1 340 15:37 29.09.2019
1089 Clear 24 1020 57 10000 5.1 340 15:18 29.09.2019
1090 Clear 24 1020 57 10000 5.1 340 15:18 29.09.2019
1091 Clouds 23 1020 60 10000 5.1 360 14:57 29.09.2019
1092 Clouds 23 1020 60 10000 5.1 360 14:37 29.09.2019
1093 Clouds 23 1020 60 10000 5.1 360 14:18 29.09.2019
1094 Clouds 23 1020 68 10000 5.7 320 13:55 29.09.2019
1095 Clouds 21 1021 68 10000 5.7 320 13:36 29.09.2019
1096 Clouds 21 1021 68 10000 5.7 320 13:18 29.09.2019
1097 Clouds 21 1021 72 10000 6.7 340 12:55 29.09.2019
1098 -273 0 0 0 0 0 12:55 29.09.2019
1099 Clouds 21 1021 72 10000 6.7 340 12:55 29.09.2019
1100 Clouds 20 1021 72 10000 6.7 340 12:37 29.09.2019
1101 Clouds 20 1021 72 10000 6.7 340 12:19 29.09.2019
1102 Clouds 19 1020 82 10000 5.7 330 11:41 29.09.2019
1103 Clouds 18 1020 82 10000 5.7 330 11:20 29.09.2019
1104 Clouds 18 1020 77 10000 4.1 330 10:58 29.09.2019
1105 Clouds 17 1020 82 10000 4.6 330 10:39 29.09.2019
1106 Clouds 16 1020 82 10000 4.6 330 10:20 29.09.2019
1107 Clear 16 1019 82 10000 3.1 330 09:57 29.09.2019
1108 Clouds 16 1019 87 10000 2.6 320 09:39 29.09.2019
1109 Clouds 16 1019 87 10000 2.6 320 09:39 29.09.2019
1110 Clouds 14 1019 87 10000 2.6 320 09:19 29.09.2019
1111 Clouds 14 1019 87 10000 4.1 330 08:43 29.09.2019
1112 Clouds 14 1019 87 10000 4.1 330 08:22 29.09.2019
1113 Clouds 14 1019 87 10000 3.6 320 07:44 29.09.2019
1114 Clouds 14 1019 87 10000 3.6 320 07:44 29.09.2019
1115 Clouds 14 1019 93 10000 3.1 330 07:26 29.09.2019
1116 Clouds 14 1019 87 10000 6.2 330 06:50 29.09.2019
1117 Clouds 14 1019 87 10000 2.1 0 05:59 29.09.2019
1118 Clouds 15 1019 87 10000 3.6 330 04:46 29.09.2019
1119 Clouds 15 1019 87 10000 2.6 320 04:24 29.09.2019
1120 Clouds 16 1019 82 10000 5.7 320 02:59 29.09.2019
1121 Clouds 16 1019 82 10000 6.2 320 02:19 29.09.2019
1122 Clouds 16 1019 82 10000 6.2 320 02:19 29.09.2019
1123 Clouds 16 1019 82 10000 5.7 320 01:45 29.09.2019
1124 Clouds 16 1019 82 10000 5.7 320 01:19 29.09.2019
1125 Clear 16 1019 87 10000 7.2 320 00:40 29.09.2019
1126 Clear 16 1019 87 10000 7.2 320 00:19 29.09.2019
1127 Clear 17 1019 87 10000 7.2 310 23:39 28.09.2019
1128 Clear 17 1019 87 10000 7.2 310 23:20 28.09.2019
1129 Clear 17 1019 77 10000 7.7 310 22:41 28.09.2019
1130 Clear 17 1019 77 10000 7.7 310 22:23 28.09.2019
1131 Clear 18 1018 77 10000 6.2 310 21:59 28.09.2019
1132 Clear 18 1018 72 10000 6.7 310 21:40 28.09.2019
1133 Clear 18 1018 72 10000 6.7 310 21:21 28.09.2019
1134 Clear 18 1018 68 10000 5.7 310 20:59 28.09.2019
1135 Clouds 19 1018 60 10000 6.2 310 20:40 28.09.2019
1136 Clouds 20 1018 60 10000 6.2 310 20:20 28.09.2019
1137 Clouds 20 1018 56 10000 5.7 320 19:58 28.09.2019
1138 Clear 21 1018 53 10000 5.1 310 19:39 28.09.2019
1139 Clear 22 1018 53 10000 5.1 310 19:21 28.09.2019
1140 Clear 23 1018 47 10000 4.6 310 18:58 28.09.2019
1141 Clear 23 1018 47 10000 4.6 310 18:58 28.09.2019
1142 Clear 24 1018 42 10000 2.6 30 18:39 28.09.2019
1143 Clear 24 1018 42 10000 2.6 30 18:21 28.09.2019
1144 Clear 25 1018 39 10000 1.5 0 17:57 28.09.2019
1145 Clear 25 1018 42 10000 1.5 0 17:38 28.09.2019
1146 Clear 25 1018 42 10000 1.5 0 17:20 28.09.2019
1147 Clear 25 1019 41 10000 3.6 40 16:45 28.09.2019
1148 Clear 25 1019 41 10000 3.6 40 16:27 28.09.2019
1149 Clear 25 1019 44 10000 3.1 350 15:57 28.09.2019
1150 Clear 24 1020 44 10000 3.1 20 15:38 28.09.2019
1151 Clear 24 1020 44 10000 3.1 20 15:20 28.09.2019
1152 Clear 24 1020 47 10000 2.1 0 14:54 28.09.2019
1153 Clear 23 1020 50 10000 3.1 0 14:36 28.09.2019
1154 Clear 24 1020 50 10000 3.1 0 14:18 28.09.2019
1155 Clear 23 1021 56 10000 3.6 360 13:42 28.09.2019
1156 Clear 22 1021 56 10000 3.6 360 13:20 28.09.2019
1157 Clouds 21 1021 60 10000 3.1 360 12:55 28.09.2019
1158 Clouds 21 1021 60 10000 4.1 10 12:36 28.09.2019
1159 Clouds 21 1021 60 10000 4.1 10 12:18 28.09.2019
1160 Clouds 19 1021 72 10000 3.1 320 11:40 28.09.2019
1161 Clouds 19 1021 72 10000 3.1 320 11:20 28.09.2019
1162 Clouds 18 1021 77 10000 4.1 350 10:44 28.09.2019
1163 Clouds 17 1021 82 10000 3.1 340 10:21 28.09.2019
1164 Clouds 17 1020 87 10000 3.6 330 09:59 28.09.2019
1165 Clouds 16 1020 82 10000 5.1 320 09:40 28.09.2019
1166 Clouds 16 1020 82 10000 5.1 320 09:40 28.09.2019
1167 Clouds 16 1020 82 10000 5.1 320 09:19 28.09.2019
1168 Clouds 16 1020 82 10000 3.1 320 08:48 28.09.2019
1169 Clear 16 1020 82 10000 3.6 320 08:29 28.09.2019
1170 Clear 16 1020 82 10000 3.1 330 07:57 28.09.2019
1171 Clear 16 1020 87 10000 4.1 310 07:38 28.09.2019
1172 Clear 16 1020 87 10000 4.1 310 07:19 28.09.2019
1173 Clouds 17 1020 88 10000 5.7 310 06:40 28.09.2019
1174 Clouds 17 1020 88 10000 5.7 310 06:21 28.09.2019
1175 Clouds 17 1020 88 10000 6.2 310 05:25 28.09.2019
1176 Clouds 17 1020 88 10000 5.7 310 04:56 28.09.2019
1177 Clouds 17 1020 88 10000 5.7 310 04:30 28.09.2019
1178 Clouds 17 1020 93 10000 5.1 310 03:42 28.09.2019
1179 Clouds 18 1020 88 10000 6.7 320 02:59 28.09.2019
1180 Clouds 18 1021 88 10000 6.7 330 02:40 28.09.2019
1181 Clouds 18 1021 88 10000 6.7 330 02:22 28.09.2019
1182 Clear 18 1021 82 10000 4.6 320 01:43 28.09.2019
1183 Clouds 18 1021 82 10000 4.1 320 01:19 28.09.2019
1184 Clear 18 1021 88 10000 4.6 330 00:46 28.09.2019
1185 Clear 18 1021 82 10000 5.1 330 00:28 28.09.2019
1186 Clear 19 1021 82 10000 4.1 320 23:39 27.09.2019
1187 Clear 19 1021 82 10000 4.1 320 23:21 27.09.2019
1188 Clear 19 1021 77 10000 6.7 330 22:56 27.09.2019
1189 Clear 19 1020 82 10000 6.2 320 22:37 27.09.2019
1190 Clear 19 1020 82 10000 6.2 320 22:18 27.09.2019
1191 Clouds 20 1020 77 10000 7.2 330 21:41 27.09.2019
1192 Clouds 20 1020 77 10000 7.2 330 21:21 27.09.2019
1193 Clouds 20 1020 77 10000 8.2 330 20:59 27.09.2019
1194 Clouds 20 1020 77 10000 8.2 330 20:59 27.09.2019
1195 Clouds 21 1020 73 10000 7.2 330 20:40 27.09.2019
1196 Clouds 21 1020 73 10000 7.2 330 20:20 27.09.2019
1197 Clouds 22 1020 68 10000 8.2 330 19:58 27.09.2019
1198 Clouds 23 1020 60 10000 7.7 330 19:39 27.09.2019
1199 Clouds 23 1020 60 10000 7.7 330 19:21 27.09.2019
1200 Clouds 23 1020 53 10000 8.2 340 18:43 27.09.2019
1201 Clouds 24 1020 53 10000 8.2 340 18:25 27.09.2019
1202 Clouds 24 1020 53 10000 7.2 330 17:58 27.09.2019
1203 Clouds 25 1020 50 10000 7.7 340 17:40 27.09.2019
1204 Clouds 24 1020 50 10000 7.7 340 17:20 27.09.2019
1205 Clear 25 1020 47 10000 6.2 340 16:58 27.09.2019
1206 Clear 25 1020 47 10000 6.2 330 16:40 27.09.2019
1207 Clear 25 1020 47 10000 6.2 330 16:19 27.09.2019
1208 Clear 25 1020 44 10000 5.7 340 15:55 27.09.2019
1209 Clear 25 1021 44 10000 5.1 330 15:37 27.09.2019
1210 Clear 25 1021 44 10000 5.1 330 15:19 27.09.2019
1211 Clear 24 1021 44 10000 5.7 360 14:42 27.09.2019
1212 Clear 24 1021 50 10000 4.6 340 14:23 27.09.2019
1213 Clear 23 1022 56 10000 4.1 330 14:00 27.09.2019
1214 Clouds 23 1022 60 10000 5.1 340 13:41 27.09.2019
1215 Clouds 23 1022 60 10000 5.1 340 13:21 27.09.2019
1216 Clouds 22 1022 64 10000 6.2 340 12:57 27.09.2019
1217 Clouds 21 1022 72 10000 6.7 340 12:38 27.09.2019
1218 Clouds 21 1022 72 10000 6.7 340 12:19 27.09.2019
1219 Clouds 19 1021 77 10000 5.7 330 11:39 27.09.2019
1220 Clouds 19 1021 77 10000 5.7 330 11:21 27.09.2019
1221 Clouds 18 1021 82 10000 7.2 330 10:57 27.09.2019
1222 Clouds 18 1021 88 10000 7.2 330 10:39 27.09.2019
1223 Clouds 18 1021 88 10000 7.2 330 10:39 27.09.2019
1224 Clouds 18 1021 88 10000 7.2 330 10:20 27.09.2019
1225 Clouds 17 1021 93 10000 7.7 330 09:42 27.09.2019
1226 Clouds 17 1021 93 10000 7.7 330 09:21 27.09.2019
1227 Clouds 17 1020 87 10000 5.7 320 08:57 27.09.2019
1228 Clouds 17 1020 87 10000 5.7 330 08:38 27.09.2019
1229 Clouds 17 1020 87 10000 5.7 330 08:19 27.09.2019
1230 Clouds 17 1020 87 10000 4.6 320 07:45 27.09.2019
1231 Clouds 17 1020 87 10000 4.6 320 07:23 27.09.2019
1232 Clouds 16 1020 87 10000 2.1 350 06:43 27.09.2019
1233 Clouds 16 1020 87 10000 2.1 350 06:23 27.09.2019
1234 Clouds 16 1020 87 10000 3.1 350 05:50 27.09.2019
1235 Clouds 16 1020 87 10000 3.1 340 05:32 27.09.2019
1236 Clouds 17 1021 82 10000 6.2 340 03:55 27.09.2019
1237 Clouds 17 1021 82 10000 7.2 340 02:42 27.09.2019
1238 Clear 17 1021 82 10000 8.2 330 01:47 27.09.2019
1239 Clear 17 1021 82 10000 7.7 340 01:27 27.09.2019
1240 Clear 18 1021 72 10000 5.7 330 00:22 27.09.2019
1241 Clear 18 1021 72 10000 5.7 320 23:56 26.09.2019
1242 Clear 18 1021 72 10000 7.7 330 23:38 26.09.2019
1243 Clear 18 1021 72 10000 7.7 330 23:18 26.09.2019
1244 Clear 18 1020 72 10000 6.7 330 22:56 26.09.2019
1245 Clear 18 1020 72 10000 7.7 330 22:38 26.09.2019
1246 Clear 18 1020 72 10000 7.7 330 22:18 26.09.2019
1247 Clear 18 1020 77 10000 7.2 330 21:55 26.09.2019
1248 Clouds 19 1020 72 10000 6.2 330 21:36 26.09.2019
1249 Clouds 19 1020 72 10000 6.2 330 21:18 26.09.2019
1250 Clouds 19 1020 68 10000 5.7 320 20:57 26.09.2019
1251 Clouds 20 1019 64 10000 6.7 320 20:39 26.09.2019
1252 Clouds 20 1019 64 10000 6.7 320 20:20 26.09.2019
1253 Clouds 20 1019 64 10000 6.7 320 20:20 26.09.2019
1254 Clouds 21 1019 53 10000 5.7 310 19:40 26.09.2019
1255 Clouds 22 1019 53 10000 5.7 310 19:19 26.09.2019
1256 Clear 23 1019 53 10000 5.7 320 18:59 26.09.2019
1257 Clear 23 1019 50 10000 6.2 330 18:40 26.09.2019
1258 Clear 23 1019 50 10000 6.2 330 18:22 26.09.2019
1259 Clear 23 1019 50 10000 6.7 330 17:57 26.09.2019
1260 Clear 23 1019 47 10000 7.2 340 17:37 26.09.2019
1261 Clear 23 1019 47 10000 7.2 340 17:18 26.09.2019
1262 Clear 24 1020 44 10000 6.2 340 16:40 26.09.2019
1263 Clear 24 1020 44 10000 6.2 340 16:21 26.09.2019
1264 Clear 24 1020 47 10000 6.2 340 16:00 26.09.2019
1265 Clear 24 1020 41 10000 5.7 340 15:39 26.09.2019
1266 Clear 24 1020 41 10000 5.7 340 15:20 26.09.2019
1267 Clouds 24 1020 47 10000 5.1 330 14:57 26.09.2019
1268 Clouds 23 1020 50 10000 4.1 350 14:39 26.09.2019
1269 Clouds 23 1020 50 10000 4.1 350 14:20 26.09.2019
1270 Clouds 23 1021 53 10000 5.1 340 13:55 26.09.2019
1271 Clouds 22 1021 56 10000 5.7 350 13:37 26.09.2019
1272 Clouds 22 1021 56 10000 5.7 350 13:18 26.09.2019
1273 Clouds 21 1021 64 10000 5.7 350 12:41 26.09.2019
1274 Clouds 21 1021 64 10000 5.7 350 12:21 26.09.2019
1275 Clouds 20 1021 68 10000 7.2 340 11:55 26.09.2019
1276 Clouds 19 1021 72 10000 7.2 340 11:37 26.09.2019
1277 Clouds 19 1021 72 10000 7.2 340 11:37 26.09.2019
1278 Clouds 19 1021 72 10000 7.2 340 11:19 26.09.2019
1279 Clouds 18 1020 88 10000 6.2 330 10:42 26.09.2019
1280 Clouds 18 1020 88 10000 6.2 330 10:23 26.09.2019
1281 Clouds 17 1020 88 10000 4.1 330 09:57 26.09.2019
1282 Clouds 17 1020 87 10000 4.1 330 09:39 26.09.2019
1283 Clouds 16 1020 87 10000 4.1 330 09:18 26.09.2019
1284 Clouds 16 1020 87 10000 3.6 330 08:48 26.09.2019
1285 Clouds 16 1020 87 10000 4.1 330 08:30 26.09.2019
1286 Clouds 16 1020 87 10000 4.6 330 07:47 26.09.2019
1287 Clouds 16 1020 87 10000 4.1 330 07:22 26.09.2019
1288 Clouds 16 1020 87 10000 4.1 330 07:22 26.09.2019
1289 Clouds 17 1020 87 10000 4.6 340 06:52 26.09.2019
1290 Clouds 17 1020 93 10000 5.1 340 06:28 26.09.2019
1291 Clouds 17 1019 93 10000 4.6 350 05:52 26.09.2019
1292 Clouds 17 1019 88 10000 5.1 340 05:29 26.09.2019
1293 Clouds 17 1020 82 10000 4.1 330 03:33 26.09.2019
1294 Clouds 17 1020 82 10000 3.6 340 02:19 26.09.2019
1295 Clouds 17 1020 82 10000 4.1 340 01:40 26.09.2019
1296 Clouds 17 1020 82 10000 4.1 340 01:22 26.09.2019
1297 Clear 17 1020 82 10000 6.2 330 00:45 26.09.2019
1298 Clear 18 1020 82 10000 4.1 350 00:25 26.09.2019
1299 Clear 18 1020 82 10000 5.7 330 23:43 25.09.2019
1300 Clear 18 1020 82 10000 5.7 330 23:22 25.09.2019
1301 Clear 18 1020 82 10000 6.2 330 22:55 25.09.2019
1302 Clear 18 1020 77 10000 5.1 330 22:37 25.09.2019
1303 Clear 18 1020 77 10000 5.1 330 22:18 25.09.2019
1304 Clouds 18 1020 77 10000 4.6 330 21:55 25.09.2019
1305 Clouds 19 1020 77 10000 4.6 330 21:36 25.09.2019
1306 Clouds 19 1020 77 10000 4.6 330 21:18 25.09.2019
1307 Clouds 19 1020 68 10000 4.6 320 20:55 25.09.2019
1308 Clouds 19 1020 64 10000 5.7 330 20:37 25.09.2019
1309 Clouds 19 1020 64 10000 5.7 330 20:18 25.09.2019
1310 Clouds 21 1020 56 10000 6.2 320 19:40 25.09.2019
1311 Clouds 22 1020 56 10000 6.2 320 19:21 25.09.2019
1312 Clouds 22 1020 56 10000 5.7 320 18:56 25.09.2019
1313 Clouds 22 1020 56 10000 6.2 350 18:38 25.09.2019
1314 Clouds 22 1020 56 10000 6.2 350 18:19 25.09.2019
1315 Clouds 22 1020 53 10000 5.7 320 17:40 25.09.2019
1316 Clouds 23 1020 53 10000 5.7 320 17:21 25.09.2019
1317 Clouds 23 1020 53 10000 5.1 330 16:58 25.09.2019
1318 Clouds 23 1020 53 10000 5.1 330 16:58 25.09.2019
1319 Clouds 23 1021 56 10000 5.7 340 16:40 25.09.2019
1320 Clouds 23 1021 56 10000 5.7 340 16:22 25.09.2019
1321 Clouds 23 1021 53 10000 6.2 340 15:56 25.09.2019
1322 Clouds 22 1021 53 10000 6.2 350 15:38 25.09.2019
1323 Clouds 23 1021 53 10000 6.2 350 15:19 25.09.2019
1324 Clouds 22 1022 53 10000 5.7 350 14:42 25.09.2019
1325 Clouds 22 1022 53 10000 5.7 350 14:22 25.09.2019
1326 Clouds 22 1022 56 10000 5.7 350 13:58 25.09.2019
1327 Clouds 22 1022 60 10000 6.2 360 13:39 25.09.2019
1328 Clouds 22 1022 60 10000 6.2 360 13:20 25.09.2019
1329 Clouds 21 1023 60 10000 6.7 360 12:54 25.09.2019
1330 Clouds 21 1023 64 10000 5.1 350 12:36 25.09.2019
1331 Clouds 20 1023 64 10000 5.1 350 12:18 25.09.2019
1332 Clouds 19 1022 72 10000 5.1 330 11:40 25.09.2019
1333 Clouds 19 1022 72 10000 5.1 330 11:20 25.09.2019
1334 Clouds 18 1022 88 10000 4.6 330 10:47 25.09.2019
1335 Clouds 17 1022 88 10000 2.6 330 10:27 25.09.2019
1336 Fog 16 1022 93 10000 2.6 330 09:59 25.09.2019
1337 Fog 16 1022 93 10000 2.6 330 09:59 25.09.2019
1338 Fog 16 1022 93 10000 2.6 330 09:59 25.09.2019
1339 Fog 16 1021 93 10000 1.5 330 09:41 25.09.2019
1340 Fog 16 1021 93 10000 1.5 330 09:23 25.09.2019
1341 Fog 15 1021 93 10000 1.5 320 08:57 25.09.2019
1342 Clouds 16 1021 87 10000 2.1 330 08:39 25.09.2019
1343 Fog 15 1021 87 10000 2.1 330 08:19 25.09.2019
1344 Clouds 16 1021 93 10000 2.1 320 07:40 25.09.2019
1345 Clouds 16 1021 93 10000 2.1 320 07:22 25.09.2019
1346 Clouds 16 1021 93 10000 2.6 330 06:55 25.09.2019
1347 Clouds 16 1021 87 10000 2.6 340 06:34 25.09.2019
1348 Clear 16 1021 93 10000 3.1 330 05:43 25.09.2019
1349 Clear 16 1021 93 10000 2.6 330 04:58 25.09.2019
1350 Clouds 17 1021 88 10000 2.6 330 02:50 25.09.2019
1351 Clouds 18 1022 93 10000 2.1 330 01:29 25.09.2019
1352 Clouds 18 1022 88 10000 3.6 340 00:38 25.09.2019
1353 Clouds 18 1022 88 10000 3.6 340 00:20 25.09.2019
1354 Clouds 19 1021 88 10000 3.1 320 23:42 24.09.2019
1355 Clouds 19 1021 88 10000 3.1 320 23:22 24.09.2019
1356 Clouds 19 1021 88 10000 3.6 320 22:57 24.09.2019
1357 Clouds 19 1021 88 10000 3.6 320 22:38 24.09.2019
1358 Clouds 19 1021 88 10000 3.6 320 22:18 24.09.2019
1359 Clouds 19 1021 88 10000 3.6 320 22:18 24.09.2019
1360 Clear 19 1021 88 10000 3.1 310 21:55 24.09.2019
1361 Clouds 20 1021 82 10000 3.1 310 21:37 24.09.2019
1362 Clouds 20 1021 82 10000 3.1 310 21:18 24.09.2019
1363 Clouds 20 1020 77 10000 4.1 310 20:56 24.09.2019
1364 Clouds 20 1020 77 10000 4.1 310 20:56 24.09.2019
1365 Clouds 21 1020 60 10000 5.7 330 20:37 24.09.2019
1366 Clouds 22 1020 60 10000 5.7 330 20:19 24.09.2019
1367 Clouds 23 1020 53 10000 5.1 340 19:42 24.09.2019
1368 Clouds 23 1020 53 10000 5.1 340 19:20 24.09.2019
1369 Clouds 23 1020 53 10000 5.1 340 19:20 24.09.2019
1370 Clouds 23 1020 53 10000 5.1 340 19:20 24.09.2019
1371 Clouds 23 1020 57 10000 5.1 340 18:57 24.09.2019
1372 Clouds 24 1020 65 10000 3.6 300 18:39 24.09.2019
1373 Clouds 24 1020 65 10000 3.6 300 18:20 24.09.2019
1374 Clouds 24 1020 65 10000 3.6 300 18:20 24.09.2019
1375 Clouds 23 1020 69 10000 4.1 310 17:57 24.09.2019
1376 Clouds 23 1020 78 10000 2.6 290 17:38 24.09.2019
1377 Clouds 23 1020 78 10000 2.6 290 17:19 24.09.2019
1378 Drizzle 21 1020 100 2000 4.1 230 16:42 24.09.2019
1379 Drizzle 21 1020 100 2000 4.1 230 16:21 24.09.2019
1380 Rain 21 1021 88 7000 4.6 230 15:59 24.09.2019
1381 Rain 21 1021 88 6000 5.1 230 15:41 24.09.2019
1382 Rain 21 1021 88 6000 5.1 230 15:22 24.09.2019
1383 Rain 21 1021 88 6000 5.1 230 15:22 24.09.2019
1384 Drizzle 21 1021 83 10000 6.2 230 14:40 24.09.2019
1385 Drizzle 21 1021 83 10000 6.2 230 14:19 24.09.2019
1386 Drizzle 21 1021 78 10000 5.7 230 13:45 24.09.2019
1387 Drizzle 21 1021 83 10000 5.1 230 13:24 24.09.2019
1388 Drizzle 21 1021 88 10000 5.7 230 12:59 24.09.2019
1389 Drizzle 21 1021 88 10000 4.6 240 12:39 24.09.2019
1390 Clouds 21 1021 78 10000 4.6 170 12:18 24.09.2019
1391 Clouds 20 1021 88 10000 5.7 240 11:43 24.09.2019
1392 Clouds 20 1021 88 10000 5.7 240 11:43 24.09.2019
1393 Clouds 20 1021 88 10000 5.7 240 11:22 24.09.2019
1394 Clouds 20 1021 88 10000 4.1 240 10:57 24.09.2019
1395 Clouds 19 1021 93 10000 3.1 230 10:37 24.09.2019
1396 Clouds 19 1021 93 10000 3.1 230 10:19 24.09.2019
1397 Clouds 18 1021 93 10000 2.6 230 09:46 24.09.2019
1398 Mist 18 1021 88 10000 2.1 210 09:27 24.09.2019
1399 Clouds 18 1021 93 10000 1 0 08:57 24.09.2019
1400 Clouds 18 1021 93 10000 1.5 220 08:39 24.09.2019
1401 Clouds 18 1021 93 10000 1.5 220 08:20 24.09.2019
1402 Clouds 18 1020 93 10000 2.1 210 07:55 24.09.2019
1403 Clouds 18 1020 93 10000 1.5 220 07:36 24.09.2019
1404 Clouds 18 1020 93 10000 1.5 220 07:36 24.09.2019
1405 Clouds 18 1020 88 9000 1 230 07:18 24.09.2019
1406 Clouds 17 1020 93 10000 2.1 230 06:37 24.09.2019
1407 Clouds 17 1021 93 10000 2.6 260 05:52 24.09.2019
1408 Clouds 18 1021 93 10000 2.1 260 05:20 24.09.2019
1409 Clear 17 1021 88 10000 1.5 290 03:46 24.09.2019
1410 Clear 17 1021 93 10000 1 300 03:20 24.09.2019
1411 Clear 17 1021 88 10000 2.6 270 02:43 24.09.2019
1412 Clear 18 1022 82 10000 0.5 0 01:40 24.09.2019
1413 Clear 18 1022 82 10000 1.5 280 00:40 24.09.2019
1414 Clear 18 1022 82 10000 1.5 280 00:21 24.09.2019
1415 Clear 18 1022 77 10000 1 0 23:41 23.09.2019
1416 Clear 18 1022 77 10000 1 0 23:22 23.09.2019
1417 Clear 19 1021 77 10000 2.1 290 22:40 23.09.2019
1418 Clear 19 1021 77 10000 2.1 290 22:21 23.09.2019
1419 Clear 19 1021 77 10000 2.1 290 22:21 23.09.2019
1420 Clear 19 1021 72 10000 2.1 280 21:59 23.09.2019
1421 Clear 19 1021 72 10000 2.6 290 21:41 23.09.2019
1422 Clear 19 1021 72 10000 2.6 290 21:20 23.09.2019
1423 Clear 20 1021 68 10000 3.1 300 20:58 23.09.2019
1424 Clouds 20 1021 60 10000 3.1 280 20:39 23.09.2019
1425 Clouds 20 1021 60 10000 3.1 280 20:18 23.09.2019
1426 Clouds 20 1021 60 10000 3.1 280 20:18 23.09.2019
1427 Clouds 21 1021 56 10000 3.6 280 19:40 23.09.2019
1428 Clouds 21 1021 56 10000 3.6 280 19:22 23.09.2019
1429 Clouds 21 1021 56 10000 3.6 280 19:22 23.09.2019
1430 Clouds 21 1021 56 10000 3.6 280 19:22 23.09.2019
1431 Clouds 22 1021 56 10000 4.1 250 18:59 23.09.2019
1432 Clouds 22 1021 56 10000 3.6 270 18:41 23.09.2019
1433 Clouds 22 1021 56 10000 3.6 270 18:19 23.09.2019
1434 Clouds 22 1021 60 10000 5.7 230 17:56 23.09.2019
1435 Clouds 22 1021 60 10000 5.7 230 17:56 23.09.2019
1436 Clouds 22 1021 64 10000 7.2 210 17:38 23.09.2019
1437 Clouds 22 1021 64 10000 7.2 210 17:20 23.09.2019
1438 Clouds 22 1021 60 10000 6.2 210 16:55 23.09.2019
1439 Clouds 22 1021 60 10000 5.7 200 16:36 23.09.2019
1440 Clouds 22 1021 60 10000 5.7 200 16:36 23.09.2019
1441 Clouds 22 1021 60 10000 5.7 200 16:36 23.09.2019
1442 Clouds 22 1021 60 10000 5.7 200 16:18 23.09.2019
1443 Clouds 22 1021 60 10000 4.6 220 15:56 23.09.2019
1444 Clouds 22 1021 60 10000 4.6 220 15:56 23.09.2019
1445 Clouds 22 1021 60 10000 4.1 140 15:38 23.09.2019
1446 Clouds 23 1021 60 10000 4.1 140 15:18 23.09.2019
1447 Clouds 22 1022 64 10000 1.5 0 14:40 23.09.2019
1448 Clouds 22 1022 64 10000 1.5 0 14:20 23.09.2019
1449 Clouds 21 1022 68 10000 2.6 0 13:58 23.09.2019
1450 Clouds 21 1022 64 10000 1 0 13:38 23.09.2019
1451 Clouds 21 1022 64 10000 1 0 13:18 23.09.2019
1452 Clouds 20 1022 77 10000 1.5 0 12:44 23.09.2019
1453 Clouds 20 1022 77 10000 2.1 290 12:23 23.09.2019
1454 Clouds 20 1022 77 10000 1.5 0 12:23 23.09.2019
1455 Clouds 19 1022 77 10000 1.5 0 11:58 23.09.2019
1456 Clouds 19 1022 82 10000 1.5 0 11:40 23.09.2019
1457 Clouds 19 1022 82 10000 1.5 0 11:21 23.09.2019
1458 Clouds 18 1022 88 10000 1.5 120 10:49 23.09.2019
1459 Clouds 17 1022 88 10000 1.5 0 10:22 23.09.2019
1460 Clouds 15 1021 93 10000 1.72 242.677 09:59 23.09.2019
1461 Clouds 15 1021 93 10000 0.5 0 09:38 23.09.2019
1462 Clouds 14 1021 93 10000 0.5 0 09:19 23.09.2019
1463 Clouds 14 1021 100 10000 1.32 211.217 08:45 23.09.2019
1464 Fog 14 1021 100 10000 1.32 211.217 08:26 23.09.2019
1465 Clouds 14 1021 100 10000 1 0 07:56 23.09.2019
1466 Clouds 14 1020 100 10000 1 0 07:28 23.09.2019
1467 Clouds 14 1020 93 10000 1.32 211.217 06:37 23.09.2019
1468 Clouds 15 1020 93 10000 0.5 0 05:51 23.09.2019
1469 Clouds 15 1020 87 10000 1 230 05:21 23.09.2019
1470 Clouds 15 1020 93 10000 0.5 290 04:54 23.09.2019
1471 Clouds 16 1020 93 10000 2.1 270 02:37 23.09.2019
1472 Clear 16 1020 88 10000 2.1 240 00:46 23.09.2019
1473 Clear 17 1020 88 10000 1.5 290 00:22 23.09.2019
1474 Clear 17 1020 88 10000 1.5 250 23:51 22.09.2019
1475 Clear 17 1020 82 10000 2.1 300 23:32 22.09.2019
1476 Clear 17 1020 82 10000 2.1 300 22:58 22.09.2019
1477 Clear 17 1020 77 10000 1.5 280 22:40 22.09.2019
1478 Clear 18 1020 77 10000 1.5 280 22:21 22.09.2019
1479 Clear 18 1019 77 10000 2.6 290 21:43 22.09.2019
1480 Clear 19 1019 72 10000 3.6 290 21:22 22.09.2019
1481 Clear 19 1019 72 10000 3.6 290 21:22 22.09.2019
1482 Clouds 19 1019 68 10000 3.6 300 20:58 22.09.2019
1483 Clouds 19 1019 64 10000 4.1 320 20:40 22.09.2019
1484 Clouds 20 1019 64 10000 4.1 320 20:22 22.09.2019
1485 Clouds 20 1018 56 10000 4.1 290 19:42 22.09.2019
1486 Clouds 20 1018 56 10000 4.1 290 19:42 22.09.2019
1487 Clouds 20 1018 56 10000 4.1 290 19:23 22.09.2019
1488 Clouds 21 1018 52 10000 5.1 340 18:59 22.09.2019
1489 Clouds 21 1018 56 10000 4.1 310 18:40 22.09.2019
1490 Clouds 21 1018 56 10000 4.1 310 18:20 22.09.2019
1491 Clouds 21 1018 53 10000 3.1 290 17:58 22.09.2019
1492 Clouds 21 1018 53 10000 3.1 290 17:58 22.09.2019
1493 Clouds 22 1018 49 10000 3.6 270 17:40 22.09.2019
1494 Clouds 22 1018 49 10000 3.6 270 17:19 22.09.2019
1495 Clouds 22 1018 56 10000 3.6 300 16:45 22.09.2019
1496 Clouds 21 1018 56 10000 4.1 280 16:26 22.09.2019
1497 Clouds 22 1018 53 10000 4.1 280 15:57 22.09.2019
1498 Clouds 21 1018 52 10000 3.6 280 15:38 22.09.2019
1499 Clouds 22 1018 52 10000 3.6 280 15:19 22.09.2019
1500 Clouds 21 1018 60 10000 4.1 290 14:43 22.09.2019
1501 Clouds 21 1018 60 10000 4.1 290 14:25 22.09.2019
1502 Clouds 21 1018 60 10000 3.1 280 13:58 22.09.2019
1503 Clouds 21 1018 64 10000 2.6 300 13:40 22.09.2019
1504 Clouds 21 1018 64 10000 2.6 300 13:40 22.09.2019
1505 Clouds 21 1018 64 10000 2.6 300 13:21 22.09.2019
1506 Clouds 20 1018 72 10000 2.6 290 12:44 22.09.2019
1507 Clouds 20 1018 72 10000 2.6 290 12:24 22.09.2019
1508 Clouds 19 1017 82 10000 2.1 300 11:59 22.09.2019
1509 Clouds 19 1017 82 10000 2.1 290 11:40 22.09.2019
1510 Clouds 18 1017 82 10000 2.1 290 11:22 22.09.2019
1511 Clouds 18 1017 93 10000 2.1 260 10:45 22.09.2019
1512 Rain 18 1016 93 10000 2.1 240 10:20 22.09.2019
1513 Clouds 17 1016 100 10000 1 270 09:59 22.09.2019
1514 Clouds 17 1016 100 10000 1.5 230 09:40 22.09.2019
1515 Clouds 16 1016 100 10000 1.5 230 09:20 22.09.2019
1516 Fog 16 1015 100 10000 1 260 08:45 22.09.2019
1517 Fog 16 1015 100 10000 2.1 250 08:25 22.09.2019
1518 Clouds 16 1015 100 10000 2.1 270 07:56 22.09.2019
1519 Clouds 17 1015 100 10000 1 0 07:38 22.09.2019
1520 Clouds 16 1015 100 10000 1 0 07:18 22.09.2019
1521 Rain 17 1014 100 10000 2.1 230 06:55 22.09.2019
1522 Fog 16 1014 100 10000 1 230 05:36 22.09.2019
1523 Clouds 17 1014 93 10000 2.1 270 03:48 22.09.2019
1524 Clouds 17 1014 93 10000 2.6 230 02:38 22.09.2019
1525 Clouds 17 1014 93 10000 2.6 230 02:19 22.09.2019
1526 Clouds 17 1014 93 10000 2.1 240 01:23 22.09.2019
1527 Clouds 17 1013 93 10000 2.1 270 00:37 22.09.2019
1528 Clouds 17 1013 93 10000 2.1 270 00:18 22.09.2019
1529 Clouds 17 1013 93 10000 1.5 310 23:41 21.09.2019
1530 Clouds 17 1013 93 10000 1.5 310 23:20 21.09.2019
1531 Clouds 17 1012 88 10000 2.1 290 22:39 21.09.2019
1532 Clouds 17 1012 88 10000 2.1 290 22:39 21.09.2019
1533 Clouds 18 1012 88 10000 2.1 290 22:21 21.09.2019
1534 Clouds 17 1011 88 10000 2.6 290 21:55 21.09.2019
1535 Clouds 18 1011 88 10000 3.6 300 21:37 21.09.2019
1536 Clouds 18 1011 88 10000 3.6 300 21:18 21.09.2019
1537 Clouds 18 1010 93 10000 3.1 300 20:39 21.09.2019
1538 Clouds 18 1010 93 10000 3.1 300 20:39 21.09.2019
1539 Drizzle 18 1010 93 10000 3.1 300 20:21 21.09.2019
1540 Rain 19 1010 100 4000 6.2 220 19:48 21.09.2019
1541 Rain 19 1009 100 2000 8.2 190 19:24 21.09.2019
1542 Rain 19 1009 94 3000 8.7 190 18:59 21.09.2019
1543 Rain 19 1010 100 2000 9.3 190 18:37 21.09.2019
1544 Rain 19 1010 100 2000 9.3 190 18:19 21.09.2019
1545 Rain 20 1010 94 10000 8.7 190 17:42 21.09.2019
1546 Rain 20 1010 94 10000 8.7 190 17:42 21.09.2019
1547 Rain 20 1010 94 10000 8.7 190 17:21 21.09.2019
1548 Rain 20 1010 94 4000 6.2 170 16:44 21.09.2019
1549 Rain 20 1010 94 4000 6.2 170 16:44 21.09.2019
1550 Rain 20 1010 94 7000 10.3 200 16:24 21.09.2019
1551 Rain 21 1010 94 10000 10.3 190 15:59 21.09.2019
1552 Rain 21 1010 88 10000 10.3 190 15:40 21.09.2019
1553 Rain 21 1010 88 10000 10.3 190 15:20 21.09.2019
1554 Rain 21 1011 94 10000 10.3 200 14:44 21.09.2019
1555 Rain 21 1011 88 10000 10.3 200 14:26 21.09.2019
1556 Rain 22 1011 83 10000 9.8 200 13:43 21.09.2019
1557 Rain 22 1011 83 10000 9.8 200 13:25 21.09.2019
1558 Rain 22 1011 83 10000 9.8 200 13:25 21.09.2019
1559 Rain 22 1011 88 10000 9.3 200 12:58 21.09.2019
1560 Clouds 22 1011 83 10000 8.7 200 12:39 21.09.2019
1561 Clouds 22 1011 83 10000 8.7 200 12:39 21.09.2019
1562 Clouds 21 1011 83 10000 8.7 200 12:20 21.09.2019
1563 Clouds 21 1011 94 10000 7.7 190 11:51 21.09.2019
1564 Clouds 20 1011 88 10000 6.7 200 11:26 21.09.2019
1565 Rain 20 1011 94 10000 5.7 200 10:57 21.09.2019
1566 Rain 19 1011 94 10000 4.6 200 10:38 21.09.2019
1567 Rain 19 1010 94 10000 5.1 200 10:20 21.09.2019
1568 Rain 19 1010 94 10000 5.1 200 09:55 21.09.2019
1569 Rain 19 1010 94 10000 4.1 200 09:37 21.09.2019
1570 Rain 19 1010 94 10000 4.1 200 09:19 21.09.2019
1571 Rain 19 1010 94 10000 5.7 200 08:45 21.09.2019
1572 Rain 19 1010 94 10000 5.7 200 08:20 21.09.2019
1573 Rain 19 1010 100 10000 3.1 210 07:40 21.09.2019
1574 Rain 19 1010 100 10000 3.1 210 07:20 21.09.2019
1575 Clouds 19 1010 93 10000 4.1 230 06:36 21.09.2019
1576 Clouds 20 1010 93 10000 4.6 220 05:51 21.09.2019
1577 Clouds 19 1011 93 10000 4.1 220 04:40 21.09.2019
1578 Clouds 19 1011 93 10000 4.1 220 03:35 21.09.2019
1579 Drizzle 19 1011 93 7000 5.1 180 02:25 21.09.2019
1580 Rain 19 1012 82 10000 5.1 170 01:49 21.09.2019
1581 Rain 19 1012 82 10000 5.1 170 01:26 21.09.2019
1582 Clouds 19 1012 82 10000 5.1 170 00:26 21.09.2019
1583 Clouds 19 1012 82 10000 5.7 180 23:57 20.09.2019
1584 Clouds 19 1012 77 10000 6.7 180 23:30 20.09.2019
1585 Clouds 20 1012 77 10000 4.6 170 22:56 20.09.2019
1586 Clouds 20 1012 77 10000 4.6 170 22:56 20.09.2019
1587 Rain 20 1013 68 10000 6.2 190 22:38 20.09.2019
1588 Rain 20 1013 68 10000 6.2 190 22:20 20.09.2019
1589 Clouds 20 1013 73 10000 5.1 190 21:55 20.09.2019
1590 Clouds 20 1013 77 10000 4.1 210 21:37 20.09.2019
1591 Clouds 20 1013 77 10000 4.1 210 21:18 20.09.2019
1592 Clouds 21 1013 73 10000 4.6 210 20:41 20.09.2019
1593 Clouds 21 1013 73 10000 4.6 210 20:21 20.09.2019
1594 Clouds 21 1013 73 10000 6.7 210 19:58 20.09.2019
1595 Clouds 21 1013 73 10000 5.1 220 19:39 20.09.2019
1596 Clouds 21 1013 73 10000 5.1 220 19:20 20.09.2019
1597 Clouds 22 1013 68 10000 5.7 200 18:40 20.09.2019
1598 Clouds 22 1013 68 10000 5.7 200 18:20 20.09.2019
1599 Clouds 22 1013 73 10000 6.2 210 17:59 20.09.2019
1600 Clouds 22 1013 64 10000 5.7 220 17:41 20.09.2019
1601 Clouds 22 1013 64 10000 5.7 220 17:22 20.09.2019
1602 Clouds 22 1013 60 10000 5.1 210 16:41 20.09.2019
1603 Clouds 22 1013 60 10000 5.1 210 16:19 20.09.2019
1604 Clouds 22 1014 60 10000 4.1 220 15:55 20.09.2019
1605 Clouds 22 1014 68 10000 3.1 180 15:37 20.09.2019
1606 Clouds 22 1014 68 10000 3.1 180 15:19 20.09.2019
1607 Clouds 22 1014 77 10000 2.1 240 14:42 20.09.2019
1608 Clouds 22 1015 73 10000 2.6 200 14:19 20.09.2019
1609 Clouds 21 1015 82 10000 2.6 150 13:48 20.09.2019
1610 Clouds 21 1015 82 10000 2.6 150 13:28 20.09.2019
1611 Clouds 20 1015 82 10000 2.6 150 12:57 20.09.2019
1612 Rain 20 1015 88 10000 3.1 180 12:37 20.09.2019
1613 Rain 19 1015 88 10000 3.1 180 12:18 20.09.2019
1614 Clouds 19 1015 88 9000 1.5 160 11:49 20.09.2019
1615 Rain 18 1015 88 8000 2.1 0 11:21 20.09.2019
1616 Rain 18 1015 88 7000 3.1 190 10:43 20.09.2019
1617 Rain 18 1015 88 7000 3.1 190 10:24 20.09.2019
1618 Rain 18 1014 93 9000 2.1 160 09:59 20.09.2019
1619 Rain 18 1014 93 10000 1.5 250 09:38 20.09.2019
1620 Rain 18 1014 93 10000 1.5 250 09:18 20.09.2019
1621 Rain 18 1014 93 9000 2.1 80 08:43 20.09.2019
1622 Rain 18 1014 93 9000 2.1 80 08:25 20.09.2019
1623 Rain 18 1014 93 10000 2.1 210 07:47 20.09.2019
1624 Rain 18 1014 93 10000 0.5 0 07:28 20.09.2019
1625 Clouds 18 1014 88 10000 0.5 0 06:45 20.09.2019
1626 Clouds 18 1014 88 10000 0.5 0 06:27 20.09.2019
1627 Clouds 18 1014 88 10000 1 0 05:50 20.09.2019
1628 Clouds 18 1015 88 10000 0.5 0 03:46 20.09.2019
1629 Clouds 18 1016 88 10000 2.71 324.821 03:21 20.09.2019
1630 Clear 18 1016 82 10000 1 0 01:45 20.09.2019
1631 Clear 18 1016 82 10000 2.6 320 01:24 20.09.2019
1632 Clear 18 1016 82 10000 2.6 320 01:24 20.09.2019
1633 Clouds 19 1016 77 10000 4.6 310 00:31 20.09.2019
1634 Clouds 19 1016 77 10000 3.6 300 23:46 19.09.2019
1635 Clouds 19 1016 77 10000 3.6 300 23:24 19.09.2019
1636 Clouds 19 1017 77 10000 3.1 310 22:57 19.09.2019
1637 Clouds 19 1016 77 10000 4.1 290 22:38 19.09.2019
1638 Clouds 19 1016 77 10000 4.1 290 22:19 19.09.2019
1639 Clouds 19 1016 77 10000 4.6 290 21:56 19.09.2019
1640 Rain 20 1016 72 10000 4.1 300 21:37 19.09.2019
1641 Rain 20 1016 72 10000 4.1 300 21:18 19.09.2019
1642 Clouds 21 1016 68 10000 4.1 310 20:43 19.09.2019
1643 Clouds 21 1016 68 10000 4.1 310 20:23 19.09.2019
1644 Clouds 21 1015 68 10000 4.6 310 19:57 19.09.2019
1645 Clouds 21 1015 64 10000 4.1 310 19:38 19.09.2019
1646 Clouds 22 1016 64 10000 3.6 300 19:19 19.09.2019
1647 Clouds 22 1016 64 10000 3.6 300 18:55 19.09.2019
1648 Clouds 22 1016 60 10000 5.1 310 18:37 19.09.2019
1649 Clouds 23 1016 56 10000 4.6 310 18:18 19.09.2019
1650 Clouds 23 1016 56 10000 4.1 300 17:42 19.09.2019
1651 Clouds 23 1016 56 10000 4.1 300 17:23 19.09.2019
1652 Clouds 23 1016 56 10000 4.6 320 16:58 19.09.2019
1653 Clouds 23 1016 60 10000 4.6 330 16:39 19.09.2019
1654 Clouds 23 1016 60 10000 4.6 330 16:18 19.09.2019
1655 Clouds 23 1017 60 10000 2.6 320 15:39 19.09.2019
1656 Clouds 23 1017 60 10000 2.6 320 15:20 19.09.2019
1657 Clouds 22 1017 68 10000 2.1 0 14:42 19.09.2019
1658 Clouds 22 1017 73 10000 2.1 0 14:24 19.09.2019
1659 Clouds 21 1018 72 10000 3.1 0 13:59 19.09.2019
1660 Clouds 21 1017 73 10000 2.1 100 13:40 19.09.2019
1661 Clouds 21 1017 73 10000 2.1 100 13:20 19.09.2019
1662 Clouds 21 1018 72 9000 2.6 80 12:40 19.09.2019
1663 Clouds 20 1018 72 9000 2.6 80 12:20 19.09.2019
1664 Clouds 20 1018 72 9000 2.6 0 11:58 19.09.2019
1665 Clouds 20 1017 72 10000 3.1 10 11:39 19.09.2019
1666 Clouds 20 1017 72 10000 3.1 10 11:21 19.09.2019
1667 Clouds 19 1017 77 9000 3.1 10 10:57 19.09.2019
1668 Clouds 19 1017 82 9000 2.1 350 10:36 19.09.2019
1669 Clouds 18 1017 82 9000 2.1 350 10:18 19.09.2019
1670 Clouds 17 1017 88 10000 1 0 09:42 19.09.2019
1671 Clouds 17 1017 88 10000 1 0 09:22 19.09.2019
1672 Clouds 17 1017 93 10000 1.5 360 08:56 19.09.2019
1673 Clouds 17 1017 88 10000 1.5 340 08:36 19.09.2019
1674 Clouds 17 1017 88 10000 1.5 340 08:18 19.09.2019
1675 Clouds 17 1016 82 10000 1.5 340 07:42 19.09.2019
1676 Clouds 17 1016 82 10000 1.5 340 07:21 19.09.2019
1677 Clouds 17 1016 82 10000 1.5 340 07:21 19.09.2019
1678 Clouds 17 1016 82 10000 1.5 300 06:47 19.09.2019
1679 Clouds 17 1017 88 10000 1.5 290 06:27 19.09.2019
1680 Clouds 17 1017 88 10000 2.1 240 05:52 19.09.2019
1681 Clear 18 1017 88 10000 1.5 310 04:58 19.09.2019
1682 Clear 18 1017 82 10000 2.1 320 03:52 19.09.2019
1683 Clouds 18 1018 82 10000 2.6 300 02:45 19.09.2019
1684 Clouds 18 1018 88 10000 2.6 320 01:27 19.09.2019
1685 Clouds 18 1018 88 10000 3.1 330 00:50 19.09.2019
1686 Clouds 18 1018 88 10000 3.1 330 00:50 19.09.2019
1687 Clouds 18 1018 88 10000 2.6 310 00:26 19.09.2019
1688 Clouds 18 1018 88 10000 2.6 310 00:26 19.09.2019
1689 Clouds 19 1017 77 10000 3.1 290 23:42 18.09.2019
1690 Clouds 19 1017 77 10000 3.1 290 23:21 18.09.2019
1691 Clouds 19 1017 82 10000 3.6 310 22:55 18.09.2019
1692 Clouds 18 1017 82 10000 3.6 280 22:36 18.09.2019
1693 Clouds 18 1017 82 10000 3.6 280 22:18 18.09.2019
1694 Clouds 18 1017 82 10000 4.6 290 21:54 18.09.2019
1695 Clouds 18 1017 82 10000 4.6 290 21:54 18.09.2019
1696 Clouds 19 1017 72 10000 3.1 290 21:36 18.09.2019
1697 Clouds 19 1017 72 10000 3.1 290 21:18 18.09.2019
1698 Clouds 20 1017 68 10000 3.6 280 20:55 18.09.2019
1699 Clouds 20 1017 64 10000 4.1 290 20:37 18.09.2019
1700 Clear 20 1016 60 10000 4.1 280 20:18 18.09.2019
1701 Clear 21 1016 60 10000 4.6 290 19:41 18.09.2019
1702 Clouds 22 1016 53 10000 4.1 290 19:20 18.09.2019
1703 Clouds 22 1016 53 10000 4.1 290 18:57 18.09.2019
1704 Clouds 23 1016 50 10000 5.1 270 18:38 18.09.2019
1705 Clouds 23 1016 50 10000 5.1 270 18:19 18.09.2019
1706 Clouds 23 1016 50 10000 4.1 290 17:59 18.09.2019
1707 Clouds 24 1016 50 10000 5.1 270 17:40 18.09.2019
1708 Clouds 24 1016 50 10000 5.1 270 17:19 18.09.2019
1709 Clouds 24 1016 50 10000 5.1 270 16:57 18.09.2019
1710 Clouds 24 1016 47 10000 3.1 270 16:38 18.09.2019
1711 Clouds 24 1016 47 10000 3.1 270 16:20 18.09.2019
1712 Clouds 24 1016 47 10000 4.6 220 15:56 18.09.2019
1713 Clouds 25 1017 47 10000 3.6 260 15:38 18.09.2019
1714 Clouds 24 1017 47 10000 3.6 260 15:20 18.09.2019
1715 Clouds 24 1017 50 10000 3.6 240 14:58 18.09.2019
1716 Clouds 24 1017 53 10000 2.6 0 14:39 18.09.2019
1717 Clouds 24 1017 53 10000 2.6 0 14:21 18.09.2019
1718 Clouds 24 1017 53 10000 2.6 0 14:21 18.09.2019
1719 Clouds 23 1017 50 10000 3.1 0 13:57 18.09.2019
1720 Rain 23 1017 60 10000 3.1 340 13:37 18.09.2019
1721 Rain 23 1017 60 10000 3.1 340 13:18 18.09.2019
1722 Clouds 21 1017 68 10000 4.1 330 12:41 18.09.2019
1723 Clouds 21 1017 68 10000 4.1 330 12:22 18.09.2019
1724 Clouds 20 1017 72 10000 3.1 330 11:40 18.09.2019
1725 Clouds 20 1017 72 10000 3.1 330 11:20 18.09.2019
1726 Clouds 19 1016 72 10000 2.1 340 10:57 18.09.2019
1727 Clouds 18 1016 77 10000 2.6 330 10:39 18.09.2019
1728 Clouds 18 1016 77 10000 2.6 330 10:19 18.09.2019
1729 Clouds 17 1016 77 10000 1.5 350 09:54 18.09.2019
1730 Clear 17 1016 82 10000 1.5 80 09:36 18.09.2019
1731 Clear 17 1016 82 10000 1.5 80 09:18 18.09.2019
1732 Clear 16 1015 77 10000 3.1 330 08:41 18.09.2019
1733 Clear 16 1015 77 10000 3.1 330 08:21 18.09.2019
1734 Clear 17 1015 77 10000 2.6 310 07:44 18.09.2019
1735 Clear 17 1015 77 10000 2.6 310 07:23 18.09.2019
1736 Clear 17 1015 77 10000 2.6 300 06:49 18.09.2019
1737 Clear 17 1015 77 10000 3.6 300 06:24 18.09.2019
1738 Clear 18 1015 77 10000 2.1 300 05:27 18.09.2019
1739 Clear 18 1015 77 10000 2.1 290 03:42 18.09.2019
1740 Clear 18 1015 82 10000 2.1 300 02:40 18.09.2019
1741 Clear 18 1016 82 10000 2.6 310 01:50 18.09.2019
1742 Clear 18 1016 82 10000 4.1 320 00:56 18.09.2019
1743 Clear 19 1016 82 10000 4.1 320 00:33 18.09.2019
1744 Clear 19 1016 77 10000 4.6 300 23:48 17.09.2019
1745 Clear 19 1016 77 10000 4.6 300 23:48 17.09.2019
1746 Clear 19 1016 77 10000 4.6 310 23:25 17.09.2019
1747 Clear 19 1016 77 10000 4.6 310 23:25 17.09.2019
1748 Clear 19 1015 77 10000 4.6 310 22:59 17.09.2019
1749 Clear 19 1015 77 10000 4.6 320 22:41 17.09.2019
1750 Clear 19 1015 77 10000 4.6 320 22:22 17.09.2019
1751 Clear 19 1015 68 10000 5.7 310 21:54 17.09.2019
1752 Clear 20 1015 68 10000 5.1 310 21:36 17.09.2019
1753 Clear 20 1015 68 10000 5.1 310 21:18 17.09.2019
1754 Clear 20 1015 68 10000 5.1 310 21:18 17.09.2019
1755 Clear 21 1015 64 10000 4.6 300 20:56 17.09.2019
1756 Clear 21 1015 64 10000 4.6 300 20:56 17.09.2019
1757 Clear 21 1014 60 10000 5.7 300 20:38 17.09.2019
1758 Clear 21 1014 60 10000 5.7 300 20:19 17.09.2019
1759 Clear 21 1014 60 10000 5.7 300 20:19 17.09.2019
1760 Clear 22 1014 56 10000 4.6 290 19:57 17.09.2019
1761 Clear 22 1014 50 10000 4.1 280 19:38 17.09.2019
1762 Clear 23 1014 50 10000 4.1 280 19:18 17.09.2019
1763 Clear 24 1014 36 10000 4.6 230 18:43 17.09.2019
1764 Clear 24 1014 36 10000 4.6 230 18:22 17.09.2019
1765 Clouds 24 1015 42 10000 3.6 240 17:56 17.09.2019
1766 Clouds 24 1015 42 10000 3.6 240 17:37 17.09.2019
1767 Clouds 25 1015 42 10000 3.6 240 17:19 17.09.2019
1768 Clouds 24 1015 44 10000 3.6 220 16:42 17.09.2019
1769 Clouds 25 1015 44 10000 3.6 220 16:22 17.09.2019
1770 Clouds 25 1015 44 10000 3.1 0 15:59 17.09.2019
1771 Clouds 25 1016 47 10000 3.1 200 15:38 17.09.2019
1772 Clouds 24 1016 47 10000 3.1 200 15:19 17.09.2019
1773 Clouds 24 1016 47 10000 3.1 200 15:19 17.09.2019
1774 Clouds 24 1016 53 10000 2.6 270 14:56 17.09.2019
1775 Clear 24 1016 53 10000 2.6 200 14:37 17.09.2019
1776 Clear 24 1016 53 10000 2.6 200 14:19 17.09.2019
1777 Clear 23 1016 57 10000 2.6 200 13:43 17.09.2019
1778 Clear 23 1017 56 10000 2.6 240 13:23 17.09.2019
1779 Clear 22 1017 64 10000 2.6 260 12:56 17.09.2019
1780 Clear 22 1017 68 10000 2.6 240 12:37 17.09.2019
1781 Clear 21 1017 68 10000 2.6 240 12:18 17.09.2019
1782 Clear 20 1016 72 10000 2.1 270 11:42 17.09.2019
1783 Clear 20 1016 72 10000 2.1 270 11:24 17.09.2019
1784 Clear 19 1017 82 10000 1 0 10:56 17.09.2019
1785 Clear 18 1016 82 10000 1.89 199.233 10:37 17.09.2019
1786 Clear 18 1016 82 10000 1.89 199.233 10:19 17.09.2019
1787 Clouds 16 1016 93 9000 0.5 0 09:41 17.09.2019
1788 Clouds 17 1016 93 9000 0.5 0 09:21 17.09.2019
1789 Fog 16 1016 93 7000 2.05 186.46 08:51 17.09.2019
1790 Fog 16 1016 93 8000 1 0 08:33 17.09.2019
1791 Clouds 17 1016 93 8000 1.5 260 07:59 17.09.2019
1792 Clouds 17 1016 93 10000 2.1 260 07:39 17.09.2019
1793 Clouds 17 1016 93 10000 2.1 260 07:21 17.09.2019
1794 Clouds 17 1016 88 10000 1.5 250 06:47 17.09.2019
1795 Clouds 17 1016 88 10000 2.1 240 06:23 17.09.2019
1796 Clouds 17 1016 88 10000 1.5 270 05:49 17.09.2019
1797 Clouds 17 1016 88 10000 1.58 140.767 04:31 17.09.2019
1798 Clouds 18 1017 82 10000 1 250 02:58 17.09.2019
1799 Clouds 18 1017 82 10000 1 0 02:38 17.09.2019
1800 Clouds 18 1017 88 10000 0.5 0 01:26 17.09.2019
1801 Clouds 19 1017 82 10000 2.1 240 00:40 17.09.2019
1802 Clouds 19 1018 82 10000 2.1 230 23:40 16.09.2019
1803 Clouds 19 1018 82 10000 2.1 230 23:19 16.09.2019
1804 Clear 19 1017 82 10000 3.1 250 22:56 16.09.2019
1805 Clear 19 1017 77 10000 3.1 260 22:38 16.09.2019
1806 Clear 19 1017 77 10000 3.1 260 22:19 16.09.2019
1807 Clear 20 1017 77 10000 4.1 240 21:55 16.09.2019
1808 Clear 19 1017 77 10000 4.6 240 21:36 16.09.2019
1809 Clear 19 1017 77 10000 4.6 240 21:18 16.09.2019
1810 Clear 21 1017 68 10000 4.6 230 20:40 16.09.2019
1811 Clear 21 1017 68 10000 4.6 230 20:21 16.09.2019
1812 Clear 21 1017 68 10000 5.7 230 19:57 16.09.2019
1813 Clear 22 1017 64 10000 5.7 220 19:39 16.09.2019
1814 Clouds 23 1016 64 10000 5.7 230 19:19 16.09.2019
1815 Clouds 23 1017 64 10000 6.2 210 18:47 16.09.2019
1816 Clouds 23 1017 64 10000 6.2 210 18:28 16.09.2019
1817 Clouds 23 1017 60 10000 5.1 230 17:57 16.09.2019
1818 Clouds 23 1017 60 10000 5.1 230 17:57 16.09.2019
1819 Clouds 23 1017 60 10000 6.2 230 17:38 16.09.2019
1820 Clouds 23 1017 60 10000 6.2 230 17:20 16.09.2019
1821 Clouds 23 1017 53 10000 5.7 220 16:54 16.09.2019
1822 Clouds 23 1018 60 10000 5.7 230 16:36 16.09.2019
1823 Clouds 23 1018 60 10000 5.7 230 16:18 16.09.2019
1824 Clouds 23 1018 60 10000 6.7 220 15:54 16.09.2019
1825 Clouds 23 1018 60 10000 5.7 210 15:36 16.09.2019
1826 Clouds 23 1018 60 10000 5.7 210 15:18 16.09.2019
1827 Clouds 22 1019 64 10000 4.6 230 14:40 16.09.2019
1828 Clouds 22 1019 64 10000 4.6 230 14:22 16.09.2019
1829 Clouds 22 1019 68 10000 4.6 230 13:55 16.09.2019
1830 Clouds 21 1019 68 10000 3.6 210 13:37 16.09.2019
1831 Clouds 21 1019 68 10000 3.6 210 13:18 16.09.2019
1832 Clouds 21 1019 68 10000 3.6 210 13:18 16.09.2019
1833 Clouds 20 1019 77 10000 3.6 270 12:40 16.09.2019
1834 Clouds 21 1019 77 10000 3.6 270 12:22 16.09.2019
1835 Clouds 19 1019 82 10000 3.1 230 11:46 16.09.2019
1836 Clouds 19 1019 82 10000 3.1 230 11:23 16.09.2019
1837 Clouds 19 1019 88 10000 3.1 250 10:58 16.09.2019
1838 Fog 18 1018 82 8000 3.1 240 10:38 16.09.2019
1839 Fog 18 1018 82 8000 3.1 240 10:19 16.09.2019
1840 Fog 17 1018 88 10000 2.1 230 09:57 16.09.2019
1841 Fog 17 1018 88 10000 1 0 09:38 16.09.2019
1842 Fog 17 1018 88 10000 1 0 09:18 16.09.2019
1843 Fog 17 1018 93 8000 1.5 320 08:42 16.09.2019
1844 Fog 17 1017 93 10000 2.6 230 08:24 16.09.2019
1845 Clear 17 1017 88 10000 3.1 230 07:44 16.09.2019
1846 Clear 17 1017 82 10000 2.1 240 07:25 16.09.2019
1847 Clear 17 1017 82 10000 1.5 270 06:59 16.09.2019
1848 Clear 17 1017 82 10000 1 0 06:40 16.09.2019
1849 Clear 17 1017 82 10000 1 0 06:22 16.09.2019
1850 Clear 18 1018 82 10000 1 0 05:43 16.09.2019
1851 Clear 18 1018 82 10000 1 0 05:25 16.09.2019
1852 Clear 18 1018 88 10000 4.1 320 03:52 16.09.2019
1853 Clear 19 1018 72 10000 2.1 300 01:57 16.09.2019
1854 Clear 19 1018 64 10000 1.5 250 00:40 16.09.2019
1855 Clear 19 1018 64 10000 1.5 250 00:22 16.09.2019
1856 Clear 20 1018 68 10000 3.1 320 23:39 15.09.2019
1857 Clear 20 1018 68 10000 3.1 320 23:20 15.09.2019
1858 Clear 20 1018 64 10000 4.1 330 22:42 15.09.2019
1859 Clear 20 1018 64 10000 4.1 330 22:23 15.09.2019
1860 Clear 21 1017 68 10000 5.1 310 21:58 15.09.2019
1861 Clear 22 1017 64 10000 4.6 300 21:40 15.09.2019
1862 Clear 22 1017 64 10000 4.6 300 21:40 15.09.2019
1863 Clear 23 1017 64 10000 4.6 300 21:21 15.09.2019
1864 Clear 23 1017 57 10000 4.6 300 20:59 15.09.2019
1865 Clear 23 1017 57 10000 4.6 300 20:59 15.09.2019
1866 Clear 23 1017 47 10000 4.6 330 20:41 15.09.2019
1867 Clear 23 1017 47 10000 4.6 330 20:23 15.09.2019
1868 Clear 23 1017 47 10000 4.6 330 20:23 15.09.2019
1869 Clear 24 1017 47 10000 3.6 320 19:45 15.09.2019
1870 Clear 25 1017 44 10000 5.1 320 19:23 15.09.2019
1871 Clear 27 1017 39 10000 4.1 290 18:55 15.09.2019
1872 Clear 27 1017 37 10000 3.6 280 18:36 15.09.2019
1873 Clear 26 1017 35 10000 3.6 270 18:18 15.09.2019
1874 Clear 27 1017 39 10000 6.2 220 17:40 15.09.2019
1875 Clear 27 1017 39 10000 6.2 220 17:20 15.09.2019
1876 Clear 27 1017 39 10000 4.6 220 16:44 15.09.2019
1877 Clear 27 1017 39 10000 3.6 250 16:26 15.09.2019
1878 Clear 27 1018 37 10000 2.1 0 15:59 15.09.2019
1879 Clear 26 1018 39 10000 2.1 0 15:41 15.09.2019
1880 Clear 27 1018 39 10000 2.1 0 15:21 15.09.2019
1881 Clear 27 1018 42 10000 1.5 0 14:58 15.09.2019
1882 Clear 27 1019 44 10000 2.1 170 14:40 15.09.2019
1883 Clear 27 1019 44 10000 2.1 170 14:20 15.09.2019
1884 Clear 25 1019 50 10000 2.1 60 13:47 15.09.2019
1885 Clear 25 1019 53 10000 2.1 60 13:24 15.09.2019
1886 Clear 25 1019 53 10000 2.1 60 12:57 15.09.2019
1887 Clear 24 1019 57 10000 2.6 40 12:39 15.09.2019
1888 Clear 24 1019 57 10000 2.6 40 12:18 15.09.2019
1889 Clear 23 1019 60 10000 3.6 60 11:42 15.09.2019
1890 Clear 23 1019 60 10000 3.6 60 11:22 15.09.2019
1891 Clear 22 1019 68 10000 5.1 50 10:58 15.09.2019
1892 Clouds 22 1018 68 10000 5.1 50 10:40 15.09.2019
1893 Clouds 22 1018 68 10000 5.1 50 10:21 15.09.2019
1894 Clear 21 1018 64 10000 2.6 50 09:42 15.09.2019
1895 Clear 21 1018 64 10000 2.6 50 09:42 15.09.2019
1896 Clear 21 1018 64 10000 2.6 50 09:20 15.09.2019
1897 Clear 21 1018 60 10000 2.6 20 08:58 15.09.2019
1898 Clear 21 1018 64 10000 3.1 30 08:39 15.09.2019
1899 Clear 21 1018 64 10000 3.1 30 08:18 15.09.2019
1900 Clear 21 1018 64 10000 3.1 30 08:18 15.09.2019
1901 Clear 20 1018 64 10000 3.6 30 07:41 15.09.2019
1902 Clear 20 1018 60 10000 2.1 50 06:44 15.09.2019
1903 Clear 21 1018 64 10000 2.6 50 05:35 15.09.2019
1904 Clear 22 1018 56 10000 2.6 40 03:19 15.09.2019
1905 Clear 22 1018 53 10000 3.6 50 02:18 15.09.2019
1906 Clear 23 1018 50 10000 4.1 30 01:36 15.09.2019
1907 Clear 23 1018 50 10000 5.7 20 00:57 15.09.2019
1908 Clear 23 1018 47 10000 5.1 30 00:37 15.09.2019
1909 Clear 23 1018 47 10000 5.1 30 00:18 15.09.2019
1910 Clear 24 1018 50 10000 3.6 10 23:55 14.09.2019
1911 Clear 24 1018 47 10000 4.1 350 23:37 14.09.2019
1912 Clear 24 1018 47 10000 4.1 350 23:19 14.09.2019
1913 Clear 24 1018 47 10000 4.1 330 22:55 14.09.2019
1914 Clear 25 1018 44 10000 4.6 330 22:37 14.09.2019
1915 Clear 25 1018 44 10000 4.6 330 22:18 14.09.2019
1916 Clear 25 1017 44 10000 4.6 320 21:40 14.09.2019
1917 Clear 25 1017 44 10000 4.6 320 21:20 14.09.2019
1918 Clear 27 1017 42 10000 6.2 340 20:58 14.09.2019
1919 Clear 27 1017 39 10000 7.2 340 20:38 14.09.2019
1920 Clear 28 1017 39 10000 7.2 340 20:20 14.09.2019
1921 Clear 28 1017 35 10000 6.2 330 19:46 14.09.2019
1922 Clear 28 1016 37 10000 5.7 320 19:22 14.09.2019
1923 Clear 29 1016 35 10000 4.6 310 18:58 14.09.2019
1924 Clear 30 1016 37 10000 5.7 320 18:38 14.09.2019
1925 Clear 29 1016 37 10000 5.7 320 18:20 14.09.2019
1926 Clear 30 1017 29 10000 3.1 10 17:44 14.09.2019
1927 Clear 30 1017 29 10000 3.1 10 17:24 14.09.2019
1928 Clear 29 1017 30 10000 3.6 50 16:54 14.09.2019
1929 Clear 30 1017 30 10000 4.1 0 16:36 14.09.2019
1930 Clear 30 1017 30 10000 4.1 0 16:18 14.09.2019
1931 Clouds 29 1018 33 10000 4.1 40 15:41 14.09.2019
1932 Clouds 29 1018 33 10000 4.1 40 15:22 14.09.2019
1933 Clouds 29 1018 33 10000 4.1 40 15:22 14.09.2019
1934 Clouds 29 1018 39 10000 4.6 70 14:55 14.09.2019
1935 Clouds 28 1019 39 10000 4.1 60 14:36 14.09.2019
1936 Clear 28 1019 50 10000 4.1 60 14:18 14.09.2019
1937 Clouds 28 1019 39 10000 4.1 60 14:18 14.09.2019
1938 Clear 27 1019 47 10000 4.6 60 13:44 14.09.2019
1939 Clear 26 1019 47 10000 4.6 60 13:20 14.09.2019
1940 Clear 25 1019 57 10000 5.7 60 12:45 14.09.2019
1941 Clear 25 1019 57 10000 5.7 60 12:23 14.09.2019
1942 Clear 23 1019 60 10000 5.1 60 11:41 14.09.2019
1943 Clear 23 1019 60 10000 5.1 60 11:41 14.09.2019
1944 Clear 23 1019 60 10000 5.1 60 11:20 14.09.2019
1945 Clear 22 1020 60 10000 4.6 40 10:40 14.09.2019
1946 Clear 22 1020 60 10000 4.6 40 10:22 14.09.2019
1947 Clear 22 1019 64 10000 4.1 40 09:58 14.09.2019
1948 Clear 21 1019 64 10000 4.1 30 09:40 14.09.2019
1949 Clear 21 1019 64 10000 4.1 30 09:21 14.09.2019
1950 Clear 20 1019 68 10000 5.1 50 08:57 14.09.2019
1951 Clear 20 1019 64 10000 4.6 40 08:38 14.09.2019
1952 Clear 20 1019 64 10000 4.6 40 08:19 14.09.2019
1953 Clear 20 1019 60 10000 5.7 50 07:43 14.09.2019
1954 Clear 20 1019 60 10000 5.7 50 07:21 14.09.2019
1955 Clear 20 1019 56 10000 5.1 30 06:35 14.09.2019
1956 Clear 21 1019 56 10000 4.6 40 05:53 14.09.2019
1957 Clear 22 1019 56 10000 3.6 50 04:34 14.09.2019
1958 Clear 23 1020 53 10000 4.1 50 03:25 14.09.2019
1959 Clear 23 1020 47 10000 3.6 60 02:42 14.09.2019
1960 Clear 24 1020 41 10000 2.6 80 01:45 14.09.2019
1961 Clear 24 1020 41 10000 2.6 80 01:19 14.09.2019
1962 Clear 25 1020 36 10000 2.1 0 00:40 14.09.2019
1963 Clear 25 1020 36 10000 2.1 0 00:22 14.09.2019
1964 Clear 25 1020 36 10000 2.1 60 23:56 13.09.2019
1965 Clear 25 1020 34 10000 2.1 0 23:37 13.09.2019
1966 Clear 25 1020 34 10000 2.1 0 23:18 13.09.2019
1967 -273 0 0 0 0 0 22:55 13.09.2019
1968 Clear 26 1020 34 10000 2.1 90 22:36 13.09.2019
1969 Clear 26 1020 34 10000 2.1 90 22:18 13.09.2019
1970 Clear 26 1019 34 10000 4.1 90 21:39 13.09.2019
1971 Clear 27 1019 34 10000 4.1 90 21:19 13.09.2019
1972 Clouds 28 1019 32 10000 3.6 90 20:58 13.09.2019
1973 Clouds 28 1019 32 10000 4.6 90 20:37 13.09.2019
1974 Clouds 28 1019 32 10000 4.6 90 20:19 13.09.2019
1975 Clear 30 1019 28 10000 5.1 90 19:54 13.09.2019
1976 Clouds 30 1019 27 10000 4.1 100 19:36 13.09.2019
1977 Clouds 30 1019 27 10000 4.1 100 19:18 13.09.2019
1978 Clear 31 1018 23 10000 4.6 100 18:38 13.09.2019
1979 Clear 31 1018 23 10000 4.6 100 18:20 13.09.2019
1980 Clear 32 1018 22 10000 4.6 110 17:55 13.09.2019
1981 Clear 32 1018 22 10000 4.1 90 17:37 13.09.2019
1982 Clear 32 1018 22 10000 4.1 90 17:18 13.09.2019
1983 Smoke 32 1019 21 10000 6.2 70 16:40 13.09.2019
1984 Smoke 32 1019 21 10000 6.2 70 16:20 13.09.2019
1985 Clear 32 1019 20 10000 5.7 40 15:45 13.09.2019
1986 Clear 32 1020 19 10000 6.2 50 15:27 13.09.2019
1987 Clear 31 1020 22 10000 6.2 60 14:57 13.09.2019
1988 Clear 31 1020 22 10000 7.2 70 14:39 13.09.2019
1989 Clear 31 1020 22 10000 7.2 70 14:19 13.09.2019
1990 Clear 30 1020 23 10000 7.7 70 13:45 13.09.2019
1991 Clear 29 1021 26 10000 7.7 70 13:23 13.09.2019
1992 Clear 28 1021 32 10000 6.7 40 12:56 13.09.2019
1993 Clear 28 1021 36 10000 7.2 50 12:38 13.09.2019
1994 Clear 28 1021 36 10000 7.2 50 12:20 13.09.2019
1995 Clear 27 1021 39 10000 7.7 50 11:54 13.09.2019
1996 Clear 27 1021 36 10000 6.2 50 11:18 13.09.2019
1997 Clear 25 1021 44 10000 5.1 50 10:38 13.09.2019
1998 Clear 25 1021 44 10000 5.1 50 10:19 13.09.2019
1999 Clear 23 1021 49 10000 3.1 20 09:44 13.09.2019
2000 Clear 23 1021 49 10000 3.1 20 09:24 13.09.2019
2001 Clear 23 1021 52 10000 3.1 360 08:58 13.09.2019
2002 Clear 23 1021 56 10000 3.1 20 08:40 13.09.2019
2003 Clear 22 1021 56 10000 3.1 20 08:20 13.09.2019
2004 Clear 22 1021 49 10000 4.6 60 07:45 13.09.2019
2005 Clear 21 1021 49 10000 4.6 60 07:27 13.09.2019
2006 Clear 22 1021 49 10000 4.6 60 07:27 13.09.2019
2007 Clear 22 1021 44 10000 4.6 50 06:45 13.09.2019
2008 Clear 23 1021 47 10000 4.1 30 05:49 13.09.2019
2009 Clear 24 1022 47 10000 3.6 30 04:53 13.09.2019
2010 Clear 23 1023 41 10000 4.6 50 03:40 13.09.2019
2011 Clear 24 1022 36 10000 5.1 20 02:20 13.09.2019
2012 Clear 24 1022 36 10000 4.6 30 01:52 13.09.2019
2013 Clear 24 1022 34 10000 5.1 30 01:33 13.09.2019
2014 Clear 24 1022 34 10000 5.1 30 01:33 13.09.2019
2015 Clear 24 1022 34 10000 4.6 330 00:47 13.09.2019
2016 Clear 24 1022 34 10000 4.6 330 00:21 13.09.2019
2017 Clear 24 1022 34 10000 5.1 320 23:38 12.09.2019
2018 Clear 24 1022 34 10000 5.1 320 23:19 12.09.2019
2019 Clear 26 1021 36 10000 7.2 330 22:42 12.09.2019
2020 Clear 26 1021 36 10000 7.2 330 22:23 12.09.2019
2021 Clear 27 1021 32 10000 5.7 320 21:57 12.09.2019
2022 Clear 27 1021 34 10000 6.2 330 21:38 12.09.2019
2023 Clear 26 1021 34 10000 6.2 330 21:20 12.09.2019
2024 Clear 28 1020 32 10000 6.7 330 20:56 12.09.2019
2025 Clear 28 1020 27 10000 4.1 320 20:38 12.09.2019
2026 Clear 30 1020 27 10000 4.1 320 20:20 12.09.2019
2027 Clear 31 1020 24 10000 5.7 30 19:54 12.09.2019
2028 Clear 31 1020 24 10000 6.7 20 19:36 12.09.2019
2029 Clear 31 1020 24 10000 6.7 20 19:36 12.09.2019
2030 Clear 31 1020 24 10000 6.7 20 19:18 12.09.2019
2031 Clear 32 1020 24 10000 7.7 40 18:38 12.09.2019
2032 Clear 32 1020 24 10000 7.7 40 18:19 12.09.2019
2033 Clear 32 1021 22 10000 7.7 30 17:56 12.09.2019
2034 Clear 32 1021 24 10000 8.2 40 17:38 12.09.2019
2035 Clear 32 1021 24 10000 8.2 40 17:19 12.09.2019
2036 Clear 31 1021 25 10000 8.7 40 16:42 12.09.2019
2037 Clear 31 1021 25 10000 8.7 40 16:22 12.09.2019
2038 Clear 31 1022 25 10000 8.2 40 15:45 12.09.2019
2039 Clear 31 1022 25 10000 8.2 30 15:27 12.09.2019
2040 Clear 30 1023 25 10000 8.2 40 14:58 12.09.2019
2041 Clear 30 1023 25 10000 8.2 40 14:58 12.09.2019
2042 Clear 30 1023 27 10000 8.2 50 14:40 12.09.2019
2043 Clear 30 1023 27 10000 8.2 50 14:40 12.09.2019
2044 Clear 30 1023 27 10000 8.2 50 14:21 12.09.2019
2045 Clear 28 1024 30 10000 8.7 40 13:40 12.09.2019
2046 Clear 28 1024 30 10000 8.7 40 13:21 12.09.2019
2047 Clear 27 1024 32 10000 7.2 40 12:49 12.09.2019
2048 Clear 25 1024 34 10000 6.2 40 12:20 12.09.2019
2049 Clear 25 1024 38 10000 6.2 50 12:00 12.09.2019
2050 Clear 25 1024 38 10000 5.7 30 11:41 12.09.2019
2051 Clear 24 1024 38 10000 5.7 30 11:21 12.09.2019
2052 Clear 24 1024 38 10000 5.7 50 10:57 12.09.2019
2053 Clear 24 1024 40 10000 5.1 50 10:39 12.09.2019
2054 Clear 23 1024 43 10000 3.6 40 10:20 12.09.2019
2055 Clear 22 1024 43 10000 3.6 40 09:43 12.09.2019
2056 Clear 22 1024 43 10000 3.6 40 09:20 12.09.2019
2057 Clear 21 1023 46 10000 3.6 30 08:57 12.09.2019
2058 Clear 21 1023 46 10000 3.6 50 08:38 12.09.2019
2059 Clear 21 1023 46 10000 3.6 50 08:20 12.09.2019
2060 Clear 21 1023 46 10000 3.6 60 07:38 12.09.2019
2061 Clear 21 1022 43 10000 3.6 60 07:18 12.09.2019
2062 Clear 21 1022 43 10000 3.6 60 06:49 12.09.2019
2063 Clear 21 1022 43 10000 3.6 60 06:49 12.09.2019
2064 Clear 20 1022 43 10000 4.6 50 06:19 12.09.2019
2065 Clear 19 1022 43 10000 4.6 50 05:48 12.09.2019
2066 Clear 20 1021 43 10000 4.6 50 05:27 12.09.2019
2067 Clear 19 1021 43 10000 4.1 40 04:31 12.09.2019
2068 Clear 19 1021 43 10000 4.1 40 04:31 12.09.2019
2069 Clear 19 1022 43 10000 2.6 340 01:47 12.09.2019
2070 Clear 19 1022 46 10000 3.1 330 01:28 12.09.2019
2071 Clear 20 1022 46 10000 3.6 330 00:51 12.09.2019
2072 Clear 20 1022 46 10000 4.1 330 00:31 12.09.2019
2073 Clear 20 1022 43 10000 4.6 330 23:57 11.09.2019
2074 Clear 21 1022 43 10000 6.2 330 23:37 11.09.2019
2075 Clear 21 1022 43 10000 6.2 330 23:19 11.09.2019
2076 Clear 20 1021 43 10000 8.7 330 22:55 11.09.2019
2077 Clear 20 1021 43 10000 8.7 330 22:37 11.09.2019
2078 Clear 21 1021 43 10000 8.7 330 22:18 11.09.2019
2079 Clear 21 1021 43 10000 8.7 330 22:18 11.09.2019
2080 Clear 21 1020 43 10000 8.7 330 21:41 11.09.2019
2081 Clear 22 1020 43 10000 8.7 330 21:23 11.09.2019
2082 Clear 23 1020 36 10000 9.3 340 20:56 11.09.2019
2083 Clear 23 1020 36 10000 9.3 340 20:38 11.09.2019
2084 Clear 23 1020 36 10000 9.3 340 20:19 11.09.2019
2085 Clear 24 1020 33 10000 8.7 330 20:19 11.09.2019
2086 Clear 24 1020 33 10000 8.7 330 19:57 11.09.2019
2087 Clear 25 1020 31 10000 7.2 320 19:39 11.09.2019
2088 Clear 25 1020 31 10000 7.2 320 19:39 11.09.2019
2089 Clear 26 1020 31 10000 7.2 320 19:19 11.09.2019
2090 Clear 27 1019 31 10000 8.2 330 18:56 11.09.2019
2091 Clear 27 1020 32 10000 7.2 330 18:37 11.09.2019
2092 Clear 26 1020 32 10000 7.2 330 18:19 11.09.2019
2093 Clear 27 1020 32 10000 5.1 330 17:41 11.09.2019
2094 Clear 26 1020 32 10000 5.1 330 17:22 11.09.2019
2095 Clear 26 1020 28 10000 5.1 30 16:57 11.09.2019
2096 Clear 26 1020 26 10000 5.7 90 16:39 11.09.2019
2097 Clear 26 1020 26 10000 5.7 90 16:20 11.09.2019
2098 Clear 26 1021 26 10000 5.7 80 15:47 11.09.2019
2099 Clear 26 1021 28 10000 5.7 60 15:24 11.09.2019
2100 Clear 25 1021 29 10000 6.2 70 14:59 11.09.2019
2101 Clear 25 1022 27 10000 6.2 60 14:40 11.09.2019
2102 Clear 25 1022 27 10000 6.2 60 14:20 11.09.2019
2103 Clear 25 1022 29 10000 6.7 50 13:59 11.09.2019
2104 Clear 25 1022 31 10000 8.2 50 13:37 11.09.2019
2105 Clear 25 1022 31 10000 8.2 50 13:19 11.09.2019
2106 Clear 24 1023 35 10000 8.7 50 12:42 11.09.2019
2107 Clear 23 1023 35 10000 8.7 50 12:22 11.09.2019
2108 Clear 22 1022 33 10000 7.2 50 11:58 11.09.2019
2109 Clear 21 1022 35 10000 8.2 40 11:38 11.09.2019
2110 Clear 21 1022 35 10000 8.2 40 11:20 11.09.2019
2111 Clear 21 1022 40 10000 6.2 40 10:55 11.09.2019
2112 Clear 20 1022 42 10000 6.2 40 10:36 11.09.2019
2113 Clear 19 1022 42 10000 6.2 40 10:18 11.09.2019
2114 Clear 17 1022 52 10000 4.1 20 09:37 11.09.2019
2115 Clear 16 1022 52 10000 4.1 20 09:19 11.09.2019
2116 Clear 16 1022 52 10000 4.1 20 09:19 11.09.2019
2117 Clear 15 1021 59 10000 3.1 360 08:41 11.09.2019
2118 Clear 15 1021 59 10000 3.1 360 08:21 11.09.2019
2119 Clear 15 1021 62 10000 3.1 340 07:57 11.09.2019
2120 Clear 15 1021 59 10000 3.6 340 07:38 11.09.2019
2121 Clear 15 1021 59 10000 3.6 340 07:19 11.09.2019
2122 Clear 16 1021 63 10000 4.6 320 06:40 11.09.2019
2123 Clear 17 1021 63 10000 4.6 320 06:21 11.09.2019
2124 Clear 16 1021 63 10000 3.6 350 05:34 11.09.2019
2125 Clear 16 1021 63 10000 3.6 350 04:53 11.09.2019
2126 Clear 16 1021 63 10000 7.2 330 04:18 11.09.2019
2127 Clear 16 1021 67 10000 6.7 320 03:27 11.09.2019
2128 Clear 16 1021 72 10000 7.7 320 02:32 11.09.2019
2129 Clear 16 1022 72 10000 8.2 330 01:32 11.09.2019
2130 Clear 16 1022 72 10000 7.7 330 00:37 11.09.2019
2131 Clear 16 1022 72 10000 7.7 330 00:19 11.09.2019
2132 Clear 16 1021 72 10000 8.2 330 23:40 10.09.2019
2133 Clear 16 1021 72 10000 8.2 330 23:22 10.09.2019
2134 Clouds 17 1021 72 10000 6.2 320 22:57 10.09.2019
2135 Clouds 17 1020 72 10000 6.2 320 22:37 10.09.2019
2136 Clouds 17 1020 72 10000 6.2 320 22:18 10.09.2019
2137 Clouds 17 1020 67 10000 6.2 320 21:55 10.09.2019
2138 Clouds 17 1020 63 10000 7.7 330 21:36 10.09.2019
2139 Clouds 17 1020 59 10000 8.7 330 21:18 10.09.2019
2140 Clouds 18 1020 59 10000 8.7 330 20:56 10.09.2019
2141 Clouds 18 1020 59 10000 8.2 320 20:37 10.09.2019
2142 Clouds 18 1020 59 10000 8.2 320 20:18 10.09.2019
2143 Clouds 19 1020 52 10000 10.8 330 19:55 10.09.2019
2144 Clouds 19 1020 52 10000 10.8 330 19:55 10.09.2019
2145 Clouds 20 1020 55 10000 10.3 340 19:36 10.09.2019
2146 Clouds 20 1020 55 10000 10.3 340 19:36 10.09.2019
2147 Clouds 20 1020 49 10000 9.3 350 19:18 10.09.2019
2148 Clouds 20 1020 45 10000 8.2 350 18:45 10.09.2019
2149 Clouds 20 1020 45 10000 8.2 350 18:22 10.09.2019
2150 Clouds 21 1020 43 10000 8.7 350 17:57 10.09.2019
2151 Clouds 21 1020 43 10000 11.3 340 17:39 10.09.2019
2152 Clouds 21 1020 43 10000 11.3 340 17:20 10.09.2019
2153 Clouds 21 1020 40 10000 12.3 340 16:57 10.09.2019
2154 Clouds 21 1020 37 10000 11.8 360 16:38 10.09.2019
2155 Clouds 21 1020 37 10000 11.8 360 16:38 10.09.2019
2156 Clouds 21 1020 37 10000 11.8 360 16:19 10.09.2019
2157 Clouds 21 1020 37 10000 11.8 360 16:19 10.09.2019
2158 Clouds 21 1020 40 10000 11.8 350 15:44 10.09.2019
2159 Clouds 21 1020 40 10000 11.8 350 15:44 10.09.2019
2160 Clouds 21 1021 40 10000 10.3 350 15:23 10.09.2019
2161 Clouds 21 1021 37 10000 9.8 350 14:58 10.09.2019
2162 Clouds 21 1021 40 10000 11.3 350 14:39 10.09.2019
2163 Clouds 21 1021 40 10000 11.3 350 14:21 10.09.2019
2164 Clouds 21 1021 40 10000 8.7 350 13:48 10.09.2019
2165 Clouds 21 1021 40 10000 12.3 360 13:24 10.09.2019
2166 Clouds 20 1022 43 10000 9.8 350 12:55 10.09.2019
2167 Clouds 20 1022 48 10000 9.3 340 12:37 10.09.2019
2168 Clouds 19 1022 52 10000 8.2 350 12:18 10.09.2019
2169 Clouds 18 1022 55 10000 7.7 350 11:42 10.09.2019
2170 Clouds 18 1022 55 10000 7.7 350 11:22 10.09.2019
2171 Clouds 18 1021 63 10000 7.7 350 10:59 10.09.2019
2172 Clouds 17 1021 67 10000 8.2 340 10:37 10.09.2019
2173 Clouds 17 1020 67 10000 8.7 330 10:18 10.09.2019
2174 Clouds 16 1020 72 10000 6.7 340 09:44 10.09.2019
2175 Clouds 16 1020 72 10000 5.1 330 09:20 10.09.2019
2176 Clouds 16 1020 72 10000 5.1 330 08:57 10.09.2019
2177 Clouds 16 1020 77 10000 4.1 330 08:38 10.09.2019
2178 Clouds 16 1020 77 10000 4.1 330 08:20 10.09.2019
2179 Clouds 16 1020 77 10000 5.7 330 07:44 10.09.2019
2180 Clouds 16 1020 77 10000 5.7 330 07:25 10.09.2019
2181 Clouds 17 1020 82 10000 5.1 350 06:46 10.09.2019
2182 Clouds 17 1020 82 10000 5.1 350 06:28 10.09.2019
2183 Clouds 18 1020 88 10000 5.1 330 04:41 10.09.2019
2184 Clouds 18 1021 77 10000 6.2 340 02:44 10.09.2019
2185 Clouds 18 1021 77 10000 6.2 340 02:22 10.09.2019
2186 Clouds 18 1021 82 10000 4.6 350 01:52 10.09.2019
2187 Clouds 18 1021 82 10000 4.6 350 01:52 10.09.2019
2188 Clouds 17 1021 82 10000 6.7 340 01:24 10.09.2019
2189 Clouds 17 1021 82 10000 4.6 330 00:44 10.09.2019
2190 Clouds 17 1021 82 10000 4.6 330 00:23 10.09.2019
2191 Clouds 17 1021 77 10000 6.7 330 23:41 09.09.2019
2192 Clouds 17 1021 77 10000 6.7 330 23:19 09.09.2019
2193 Clouds 17 1020 77 10000 5.7 320 22:56 09.09.2019
2194 Clouds 17 1020 72 10000 5.7 330 22:37 09.09.2019
2195 Clouds 17 1020 72 10000 5.7 330 22:19 09.09.2019
2196 Clouds 17 1020 72 10000 4.6 330 21:56 09.09.2019
2197 Clouds 18 1019 72 10000 5.1 350 21:37 09.09.2019
2198 Clouds 18 1019 72 10000 5.1 350 21:19 09.09.2019
2199 Clouds 18 1019 72 10000 7.7 340 20:55 09.09.2019
2200 Clouds 19 1019 68 10000 7.7 330 20:37 09.09.2019
2201 Clouds 19 1019 68 10000 9.8 330 20:18 09.09.2019
2202 Clouds 19 1019 68 10000 9.8 330 19:56 09.09.2019
2203 Clouds 20 1019 68 10000 8.2 340 19:38 09.09.2019
2204 Clouds 21 1018 64 10000 7.2 320 19:19 09.09.2019
2205 Clouds 21 1018 64 10000 7.2 320 18:56 09.09.2019
2206 Clouds 21 1018 60 10000 6.7 320 18:38 09.09.2019
2207 Clouds 21 1018 53 10000 6.2 320 18:19 09.09.2019
2208 Clouds 21 1018 53 10000 6.2 320 17:56 09.09.2019
2209 Clear 22 1018 49 10000 8.2 330 17:38 09.09.2019
2210 Clear 22 1018 49 10000 8.2 330 17:38 09.09.2019
2211 Clear 22 1018 49 10000 8.2 330 17:20 09.09.2019
2212 Clouds 22 1019 53 10000 6.2 320 16:55 09.09.2019
2213 Clouds 22 1019 60 10000 6.7 320 16:37 09.09.2019
2214 Clouds 22 1019 56 10000 5.7 300 16:18 09.09.2019
2215 Clouds 23 1019 53 10000 5.1 300 15:44 09.09.2019
2216 Clouds 22 1019 53 10000 5.1 300 15:24 09.09.2019
2217 Clouds 23 1019 53 10000 4.6 300 14:58 09.09.2019
2218 Clouds 22 1019 56 10000 4.1 300 14:40 09.09.2019
2219 Clouds 22 1019 56 10000 4.1 300 14:21 09.09.2019
2220 Clouds 22 1019 53 10000 4.6 310 13:57 09.09.2019
2221 Clouds 22 1019 56 10000 4.6 320 13:39 09.09.2019
2222 Clouds 22 1019 60 10000 3.6 320 13:18 09.09.2019
2223 Clouds 22 1019 60 10000 3.6 320 12:54 09.09.2019
2224 Clouds 21 1019 60 10000 2.6 320 12:36 09.09.2019
2225 Clouds 20 1019 68 10000 4.6 330 12:18 09.09.2019
2226 Clouds 20 1019 72 10000 4.1 300 11:43 09.09.2019
2227 Clouds 19 1019 77 10000 3.1 330 11:20 09.09.2019
2228 Clouds 19 1019 77 10000 3.1 330 10:54 09.09.2019
2229 Clouds 18 1019 82 10000 2.6 320 10:36 09.09.2019
2230 Clouds 18 1018 88 10000 3.1 330 10:18 09.09.2019
2231 Clouds 17 1018 87 10000 2.6 300 09:46 09.09.2019
2232 Clouds 17 1018 87 10000 2.6 300 09:27 09.09.2019
2233 Clouds 17 1018 87 10000 4.6 310 08:56 09.09.2019
2234 Clouds 17 1018 87 10000 2.6 310 08:38 09.09.2019
2235 Clouds 16 1018 87 10000 2.6 310 08:19 09.09.2019
2236 Clear 17 1017 87 10000 3.1 330 07:41 09.09.2019
2237 Clear 17 1017 87 10000 2.1 340 07:20 09.09.2019
2238 Clear 17 1017 87 10000 2.1 340 06:54 09.09.2019
2239 Clear 17 1017 87 10000 2.1 340 06:54 09.09.2019
2240 Clear 18 1017 77 10000 2.1 0 06:27 09.09.2019
2241 Clear 19 1018 56 10000 4.1 300 03:21 09.09.2019
2242 Clear 19 1018 56 10000 4.6 300 02:42 09.09.2019
2243 Clear 19 1018 49 10000 4.1 310 01:25 09.09.2019
2244 Clear 20 1018 46 10000 2.1 130 00:24 09.09.2019
2245 Clear 21 1018 46 10000 2.6 310 23:56 08.09.2019
2246 Clear 21 1018 46 10000 2.6 310 23:56 08.09.2019
2247 Clear 21 1018 43 10000 3.6 290 23:38 08.09.2019
2248 Clear 21 1018 43 10000 4.6 300 23:19 08.09.2019
2249 Clear 21 1017 38 10000 2.6 280 22:41 08.09.2019
2250 Clear 21 1017 38 10000 2.6 280 22:23 08.09.2019
2251 Clear 21 1017 38 10000 2.6 280 22:23 08.09.2019
2252 Clear 22 1017 41 10000 2.1 260 21:59 08.09.2019
2253 Clear 23 1017 41 10000 2.1 280 21:40 08.09.2019
2254 Clear 23 1017 41 10000 2.1 280 21:40 08.09.2019
2255 Clear 23 1017 41 10000 2.1 280 21:22 08.09.2019
2256 Clear 24 1017 34 10000 4.1 270 20:56 08.09.2019
2257 Clear 24 1016 32 10000 4.6 260 20:37 08.09.2019
2258 Clear 25 1016 32 10000 4.6 260 20:19 08.09.2019
2259 Clear 26 1016 28 10000 4.1 280 19:40 08.09.2019
2260 Clear 26 1016 28 10000 4.1 290 19:21 08.09.2019
2261 Clear 26 1016 28 10000 4.1 290 19:21 08.09.2019
2262 Clear 26 1016 28 10000 4.1 290 18:59 08.09.2019
2263 Clouds 27 1015 30 10000 5.7 250 18:39 08.09.2019
2264 Clouds 27 1015 37 10000 6.2 230 18:20 08.09.2019
2265 Clouds 27 1015 37 10000 6.2 230 17:59 08.09.2019
2266 Clouds 28 1016 37 10000 6.7 220 17:37 08.09.2019
2267 Clouds 28 1016 37 10000 6.7 220 17:37 08.09.2019
2268 Clouds 28 1016 37 10000 6.7 220 17:19 08.09.2019
2269 Clouds 28 1016 39 10000 6.7 230 16:58 08.09.2019
2270 Clouds 28 1016 35 10000 6.7 230 16:40 08.09.2019
2271 Clouds 28 1016 35 10000 6.7 230 16:20 08.09.2019
2272 Clear 28 1016 35 10000 7.2 220 15:56 08.09.2019
2273 Clear 28 1016 35 10000 6.7 220 15:36 08.09.2019
2274 Clear 29 1016 35 10000 6.7 220 15:18 08.09.2019
2275 Clear 29 1016 33 10000 4.6 190 14:40 08.09.2019
2276 Clear 29 1016 33 10000 4.6 190 14:22 08.09.2019
2277 Clear 28 1017 39 10000 2.6 90 13:58 08.09.2019
2278 Clear 28 1017 47 10000 2.6 100 13:40 08.09.2019
2279 Clear 27 1017 47 10000 2.6 100 13:22 08.09.2019
2280 Clear 26 1017 50 10000 2.6 100 12:55 08.09.2019
2281 Clear 26 1017 50 10000 2.6 60 12:37 08.09.2019
2282 Clear 25 1017 50 10000 3.1 90 12:19 08.09.2019
2283 Clear 25 1017 50 10000 3.1 90 11:57 08.09.2019
2284 Clear 24 1016 47 10000 2.1 70 11:37 08.09.2019
2285 Clouds 23 1016 53 10000 1.5 0 11:19 08.09.2019
2286 Clouds 22 1016 60 10000 1.5 10 10:43 08.09.2019
2287 Clouds 21 1016 60 10000 1.5 10 10:23 08.09.2019
2288 Clouds 21 1016 60 10000 1.5 20 09:56 08.09.2019
2289 Clear 20 1016 64 10000 2.1 0 09:37 08.09.2019
2290 Clear 19 1016 64 10000 2.1 0 09:19 08.09.2019
2291 Clear 19 1015 56 10000 2.1 130 08:40 08.09.2019
2292 Clear 19 1015 56 10000 2.1 130 08:40 08.09.2019
2293 Clear 19 1015 60 10000 1.5 140 08:19 08.09.2019
2294 Clear 19 1015 60 10000 1.5 140 07:59 08.09.2019
2295 Clear 20 1015 64 10000 1.5 270 07:37 08.09.2019
2296 Clear 20 1015 60 10000 2.6 260 07:19 08.09.2019
2297 Clear 20 1015 56 10000 3.6 240 06:44 08.09.2019
2298 Clear 20 1015 43 10000 0.5 0 05:45 08.09.2019
2299 Clear 20 1015 43 10000 0.5 0 05:27 08.09.2019
2300 Clear 20 1015 38 10000 1.5 290 03:30 08.09.2019
2301 Clear 21 1015 40 10000 1.5 270 02:51 08.09.2019
2302 Clear 20 1015 40 10000 2.6 230 01:57 08.09.2019
2303 Clear 20 1015 40 10000 2.6 230 01:57 08.09.2019
2304 Clear 20 1015 33 10000 2.1 220 01:34 08.09.2019
2305 Clear 20 1015 33 10000 2.1 280 00:50 08.09.2019
2306 Clear 21 1015 33 10000 2.1 280 00:32 08.09.2019
2307 Clear 22 1016 33 10000 2.1 310 23:59 07.09.2019
2308 Clear 22 1015 33 10000 3.1 320 23:38 07.09.2019
2309 Clear 22 1015 33 10000 3.1 320 23:19 07.09.2019
2310 Clear 23 1015 36 10000 4.1 310 22:57 07.09.2019
2311 Clear 23 1015 36 10000 4.6 310 22:37 07.09.2019
2312 Clear 24 1015 31 10000 2.6 310 22:18 07.09.2019
2313 Clear 25 1015 28 10000 3.1 270 21:41 07.09.2019
2314 Clear 24 1015 28 10000 3.1 270 21:23 07.09.2019
2315 Clear 26 1015 25 10000 4.1 250 20:42 07.09.2019
2316 Clear 26 1015 25 10000 4.1 250 20:22 07.09.2019
2317 Clear 28 1015 30 10000 5.1 230 19:58 07.09.2019
2318 Clear 28 1015 28 10000 5.1 220 19:39 07.09.2019
2319 Clear 29 1015 28 10000 5.1 210 19:21 07.09.2019
2320 Clear 29 1015 28 10000 5.1 210 18:59 07.09.2019
2321 Clouds 30 1015 28 10000 5.7 210 18:40 07.09.2019
2322 Clouds 29 1015 28 10000 5.7 210 18:22 07.09.2019
2323 Clouds 29 1015 30 10000 6.2 220 17:59 07.09.2019
2324 Clouds 29 1015 28 10000 6.2 220 17:41 07.09.2019
2325 Clouds 30 1015 28 10000 6.2 220 17:19 07.09.2019
2326 Clouds 30 1015 23 10000 5.1 200 16:59 07.09.2019
2327 Clear 30 1015 19 10000 2.6 150 16:41 07.09.2019
2328 Clear 30 1015 19 10000 2.6 150 16:20 07.09.2019
2329 Clear 30 1016 22 10000 2.6 0 15:48 07.09.2019
2330 Clear 30 1016 22 10000 2.6 0 15:26 07.09.2019
2331 Clear 30 1016 22 10000 2.6 0 15:26 07.09.2019
2332 Clear 30 1016 25 10000 2.6 120 14:58 07.09.2019
2333 Clear 29 1016 26 10000 3.6 50 14:37 07.09.2019
2334 Clear 29 1016 26 10000 3.6 50 14:19 07.09.2019
2335 Clear 28 1016 29 10000 4.1 60 13:58 07.09.2019
2336 Clear 28 1016 29 10000 4.1 60 13:58 07.09.2019
2337 Clear 28 1016 29 10000 4.1 60 13:39 07.09.2019
2338 Clear 27 1016 29 10000 4.1 60 13:21 07.09.2019
2339 Clear 25 1016 31 10000 6.2 50 12:44 07.09.2019
2340 Clear 25 1016 31 10000 6.2 50 12:26 07.09.2019
2341 Clear 24 1016 31 10000 6.2 50 11:58 07.09.2019
2342 Clear 24 1016 31 10000 7.2 60 11:39 07.09.2019
2343 Clear 23 1016 31 10000 5.7 60 11:19 07.09.2019
2344 Clear 23 1016 28 10000 5.1 40 10:41 07.09.2019
2345 Clear 23 1016 28 10000 5.1 40 10:22 07.09.2019
2346 Clear 22 1016 30 10000 5.1 30 09:56 07.09.2019
2347 Clear 22 1015 32 10000 4.6 40 09:38 07.09.2019
2348 Clear 21 1015 32 10000 4.6 20 09:20 07.09.2019
2349 Clear 21 1015 34 10000 3.6 20 08:44 07.09.2019
2350 Clear 21 1015 34 10000 3.6 20 08:26 07.09.2019
2351 Clear 21 1015 32 10000 4.1 30 07:47 07.09.2019
2352 Clear 21 1015 32 10000 4.1 30 07:28 07.09.2019
2353 Clear 21 1015 30 10000 4.1 40 06:52 07.09.2019
2354 Clear 21 1015 30 10000 4.1 30 06:20 07.09.2019
2355 Clear 19 1015 33 10000 3.1 360 04:49 07.09.2019
2356 Clear 19 1015 33 10000 3.6 360 04:23 07.09.2019
2357 Clear 21 1015 35 10000 3.6 320 02:50 07.09.2019
2358 Clear 20 1015 35 10000 3.6 320 02:20 07.09.2019
2359 Clear 22 1016 35 10000 3.6 320 01:26 07.09.2019
2360 Clear 21 1016 38 10000 5.1 320 00:42 07.09.2019
2361 Clear 22 1015 38 10000 5.7 320 00:19 07.09.2019
2362 Clear 22 1015 38 10000 5.1 320 23:41 06.09.2019
2363 Clear 23 1015 38 10000 5.1 320 23:22 06.09.2019
2364 Clear 23 1015 38 10000 5.1 320 23:22 06.09.2019
2365 Clear 23 1015 36 10000 6.2 320 22:58 06.09.2019
2366 Clear 24 1015 33 10000 4.6 310 22:39 06.09.2019
2367 Clear 25 1015 29 10000 5.1 320 22:19 06.09.2019
2368 Clear 25 1015 29 10000 5.1 320 21:58 06.09.2019
2369 Clear 25 1015 29 10000 5.1 320 21:58 06.09.2019
2370 Clear 26 1015 30 10000 5.1 320 21:39 06.09.2019
2371 Clear 26 1015 30 10000 5.1 320 21:21 06.09.2019
2372 Clear 27 1015 28 10000 4.6 310 20:58 06.09.2019
2373 Clear 27 1015 28 10000 5.1 300 20:40 06.09.2019
2374 Clear 27 1015 28 10000 5.1 300 20:21 06.09.2019
2375 Clear 28 1015 25 10000 5.1 300 19:58 06.09.2019
2376 Clear 31 1014 25 10000 5.1 310 19:39 06.09.2019
2377 Clear 31 1014 22 10000 5.7 330 19:20 06.09.2019
2378 Clouds 31 1015 22 10000 4.6 310 18:47 06.09.2019
2379 Clouds 31 1015 22 10000 4.6 310 18:28 06.09.2019
2380 Clouds 31 1015 21 10000 2.1 0 17:59 06.09.2019
2381 Clouds 31 1015 21 10000 2.1 0 17:59 06.09.2019
2382 Clouds 31 1015 22 10000 3.6 90 17:38 06.09.2019
2383 Clear 31 1015 22 10000 2.6 60 17:19 06.09.2019
2384 Clear 31 1016 22 10000 2.6 0 16:42 06.09.2019
2385 Clear 31 1016 23 10000 2.6 0 16:19 06.09.2019
2386 Clear 31 1016 23 10000 2.6 0 15:59 06.09.2019
2387 Clear 30 1017 25 10000 2.6 90 15:39 06.09.2019
2388 Clear 30 1017 25 10000 2.6 90 15:21 06.09.2019
2389 Clear 29 1017 25 10000 4.6 50 14:40 06.09.2019
2390 Clear 28 1017 26 10000 5.7 40 14:18 06.09.2019
2391 Clear 28 1017 28 10000 6.7 30 13:43 06.09.2019
2392 Clear 28 1017 28 10000 6.7 30 13:22 06.09.2019
2393 Clear 28 1017 28 10000 6.7 30 13:22 06.09.2019
2394 Clear 27 1017 33 10000 7.7 50 12:41 06.09.2019
2395 Clear 26 1017 33 10000 7.7 50 12:23 06.09.2019
2396 Clear 25 1017 33 10000 7.7 50 11:59 06.09.2019
2397 Clear 25 1017 33 10000 7.2 50 11:40 06.09.2019
2398 Clear 24 1016 36 10000 7.2 50 11:22 06.09.2019
2399 Clear 24 1017 35 10000 7.2 50 10:54 06.09.2019
2400 Clear 24 1017 35 10000 7.2 50 10:54 06.09.2019
2401 Clear 24 1017 33 10000 7.2 50 10:36 06.09.2019
2402 Clear 23 1016 35 10000 6.7 40 10:18 06.09.2019
2403 Clear 23 1016 35 10000 6.2 40 09:38 06.09.2019
2404 Clear 22 1016 35 10000 6.2 40 09:19 06.09.2019
2405 Clear 23 1016 35 10000 5.7 40 08:54 06.09.2019
2406 Clear 22 1016 33 10000 6.2 40 08:36 06.09.2019
2407 Clear 23 1015 31 10000 5.7 40 08:18 06.09.2019
2408 Clear 23 1015 31 10000 6.7 40 07:41 06.09.2019
2409 Clear 23 1015 31 10000 6.7 40 07:22 06.09.2019
2410 Clear 23 1015 27 10000 6.2 40 06:41 06.09.2019
2411 Clear 23 1015 27 10000 6.7 40 05:58 06.09.2019
2412 Clear 24 1015 25 10000 5.7 40 04:57 06.09.2019
2413 Clear 24 1015 25 10000 5.7 40 04:26 06.09.2019
2414 Clear 24 1015 26 10000 6.2 40 03:23 06.09.2019
2415 Clear 23 1015 34 10000 3.6 30 01:47 06.09.2019
2416 Clear 23 1015 44 10000 4.6 330 00:23 06.09.2019
2417 Clear 23 1015 44 10000 4.6 330 00:23 06.09.2019
2418 Clear 24 1015 44 10000 5.1 320 23:43 05.09.2019
2419 Clear 25 1015 44 10000 5.1 320 23:23 05.09.2019
2420 Clear 24 1014 41 10000 6.2 320 22:47 05.09.2019
2421 Clear 24 1014 41 10000 6.2 320 22:28 05.09.2019
2422 Clear 26 1014 39 10000 5.1 320 21:58 05.09.2019
2423 Clear 27 1014 37 10000 5.1 310 21:40 05.09.2019
2424 Clear 27 1014 37 10000 5.1 310 21:21 05.09.2019
2425 Clear 27 1014 32 10000 4.1 310 20:58 05.09.2019
2426 Clear 27 1014 32 10000 4.1 310 20:58 05.09.2019
2427 Clear 28 1014 33 10000 4.1 310 20:40 05.09.2019
2428 Clear 28 1014 33 10000 4.1 310 20:22 05.09.2019
2429 Clear 29 1014 31 10000 4.6 310 20:00 05.09.2019
2430 Clear 32 1014 29 10000 4.6 330 19:41 05.09.2019
2431 Clear 32 1014 26 10000 4.1 310 19:22 05.09.2019
2432 Clear 32 1014 26 10000 4.1 310 18:56 05.09.2019
2433 Clear 32 1014 24 10000 2.1 0 18:38 05.09.2019
2434 Clear 32 1014 18 10000 1.5 0 18:18 05.09.2019
2435 Clear 32 1014 19 10000 4.1 0 17:41 05.09.2019
2436 Clear 32 1014 19 10000 4.1 0 17:22 05.09.2019
2437 Clear 31 1015 22 10000 3.6 40 16:58 05.09.2019
2438 Clear 31 1015 22 10000 5.7 40 16:40 05.09.2019
2439 Smoke 30 1015 25 10000 5.7 60 16:20 05.09.2019
2440 Smoke 30 1015 25 10000 5.7 60 15:55 05.09.2019
2441 Clear 30 1015 27 10000 5.1 40 15:37 05.09.2019
2442 Clear 30 1015 27 10000 5.1 40 15:37 05.09.2019
2443 Clear 30 1015 27 10000 5.1 40 15:18 05.09.2019
2444 Clear 30 1015 27 10000 5.1 40 15:18 05.09.2019
2445 Clear 29 1016 34 10000 5.7 60 14:42 05.09.2019
2446 Clear 28 1016 34 10000 5.7 60 14:21 05.09.2019
2447 Clear 27 1016 41 10000 6.2 60 13:44 05.09.2019
2448 Clear 27 1016 41 10000 6.2 60 13:23 05.09.2019
2449 Clear 26 1016 44 10000 7.2 50 12:58 05.09.2019
2450 Clear 26 1016 44 10000 6.7 50 12:40 05.09.2019
2451 Clear 25 1016 44 10000 6.7 50 12:21 05.09.2019
2452 Clear 24 1016 50 10000 5.1 40 11:43 05.09.2019
2453 Clear 22 1016 60 10000 3.6 20 11:20 05.09.2019
2454 Clear 21 1016 72 10000 2.6 360 10:43 05.09.2019
2455 Clear 20 1016 77 10000 3.1 340 10:23 05.09.2019
2456 Clear 20 1016 77 10000 3.1 340 10:23 05.09.2019
2457 Clear 20 1016 77 10000 3.1 340 10:23 05.09.2019
2458 Clear 20 1016 77 10000 3.1 340 09:59 05.09.2019
2459 Clear 18 1016 77 10000 3.1 340 09:40 05.09.2019
2460 Clear 17 1016 82 10000 2.6 350 09:20 05.09.2019
2461 Clear 17 1016 82 10000 3.1 340 08:46 05.09.2019
2462 Clear 17 1016 82 10000 3.1 340 08:28 05.09.2019
2463 Clear 17 1016 82 10000 3.1 340 08:28 05.09.2019
2464 Clear 18 1015 77 10000 4.6 330 07:56 05.09.2019
2465 Clear 18 1015 77 10000 5.7 320 07:37 05.09.2019
2466 Clear 18 1015 77 10000 5.7 320 07:19 05.09.2019
2467 Clear 18 1015 77 10000 5.7 320 06:39 05.09.2019
2468 Clear 18 1015 77 10000 6.2 320 06:18 05.09.2019
2469 Clear 18 1015 77 10000 6.2 320 05:40 05.09.2019
2470 Clear 18 1015 77 10000 6.2 320 05:22 05.09.2019
2471 Clear 19 1016 82 10000 5.7 320 04:29 05.09.2019
2472 Clear 19 1016 82 10000 6.7 330 03:46 05.09.2019
2473 Clear 19 1016 77 10000 7.7 310 02:56 05.09.2019
2474 Clear 19 1016 77 10000 7.2 310 02:28 05.09.2019
2475 Clear 18 1017 88 10000 7.7 310 01:48 05.09.2019
2476 Clear 19 1017 77 10000 6.7 330 00:52 05.09.2019
2477 Clear 19 1017 77 10000 6.7 330 00:27 05.09.2019
2478 Clear 20 1018 72 10000 5.7 340 23:59 04.09.2019
2479 Clear 20 1018 72 10000 4.6 350 23:39 04.09.2019
2480 Clear 20 1018 68 10000 5.7 330 23:19 04.09.2019
2481 Clear 21 1017 64 10000 6.7 310 22:47 04.09.2019
2482 Clear 22 1017 60 10000 7.2 300 22:19 04.09.2019
2483 Clear 22 1017 60 10000 7.2 300 21:55 04.09.2019
2484 Clear 22 1017 60 10000 7.2 300 21:55 04.09.2019
2485 -273 0 0 0 0 0 21:55 04.09.2019
2486 Clear 22 1017 44 10000 6.2 300 21:37 04.09.2019
2487 Clear 24 1016 34 10000 6.7 300 21:18 04.09.2019
2488 Clear 24 1016 34 10000 6.7 300 20:54 04.09.2019
2489 Clear 26 1017 28 10000 5.7 300 20:36 04.09.2019
2490 Clear 26 1017 32 10000 6.7 310 20:18 04.09.2019
2491 Clear 28 1017 28 10000 6.2 310 19:40 04.09.2019
2492 Clear 28 1017 30 10000 6.7 310 19:21 04.09.2019
2493 Clear 29 1017 29 10000 6.7 320 18:42 04.09.2019
2494 Clear 29 1017 35 10000 9.3 360 18:24 04.09.2019
2495 Clear 29 1017 35 10000 9.3 360 18:24 04.09.2019
2496 Clear 30 1017 31 10000 6.2 320 17:58 04.09.2019
2497 Clear 30 1017 24 10000 6.2 330 17:40 04.09.2019
2498 Clear 32 1017 24 10000 6.2 330 17:21 04.09.2019
2499 Clear 33 1017 24 10000 4.6 300 17:21 04.09.2019
2500 Clear 33 1017 24 10000 4.6 300 16:56 04.09.2019
2501 Clear 33 1017 26 10000 4.1 310 16:37 04.09.2019
2502 Clear 33 1017 26 10000 3.6 300 16:19 04.09.2019
2503 Clear 33 1018 26 10000 4.6 320 15:40 04.09.2019
2504 Clear 31 1018 26 10000 4.6 320 15:22 04.09.2019
2505 Clear 33 1018 26 10000 3.1 310 14:58 04.09.2019
2506 Clear 33 1018 24 10000 2.6 0 14:38 04.09.2019
2507 Clear 30 1018 26 10000 2.1 0 14:20 04.09.2019
2508 Clear 32 1018 26 10000 2.1 0 13:58 04.09.2019
2509 Clear 30 1018 27 10000 3.1 0 13:39 04.09.2019
2510 Clear 30 1019 25 10000 4.1 340 13:20 04.09.2019
2511 Clear 29 1019 30 10000 4.1 330 12:44 04.09.2019
2512 Clear 30 1019 30 10000 4.1 330 12:25 04.09.2019
2513 Clear 27 1019 32 10000 4.1 300 11:56 04.09.2019
2514 Clear 27 1019 34 10000 3.6 320 11:38 04.09.2019
2515 Clear 25 1018 36 10000 4.1 310 11:19 04.09.2019
2516 -273 0 0 0 0 0 10:55 04.09.2019
2517 Clear 25 1018 38 10000 4.1 310 10:36 04.09.2019
2518 Clear 24 1018 41 10000 4.6 320 10:18 04.09.2019
2519 Clear 23 1018 41 10000 4.1 320 09:42 04.09.2019
2520 Clear 20 1018 46 10000 4.1 320 09:19 04.09.2019
2521 Clear 20 1018 46 10000 4.1 310 08:42 04.09.2019
2522 Clear 21 1018 49 10000 4.6 310 08:24 04.09.2019
2523 Clear 21 1018 49 10000 4.6 310 07:58 04.09.2019
2524 Clear 20 1018 49 10000 4.6 310 07:35 04.09.2019
2525 Clear 21 1018 47 10000 3.1 310 06:53 04.09.2019
2526 Clear 21 1018 47 10000 3.1 310 06:32 04.09.2019
2527 Clear 22 1018 46 10000 1.5 330 04:54 04.09.2019
2528 Clear 21 1018 44 10000 2.1 320 04:22 04.09.2019
2529 Clear 22 1018 44 10000 2.1 320 02:46 04.09.2019
2530 Clear 22 1018 39 10000 3.1 320 01:18 04.09.2019
2531 Clear 22 1018 39 10000 4.1 320 00:41 04.09.2019
2532 Clear 23 1018 39 10000 4.1 310 00:22 04.09.2019
2533 Clear 23 1018 41 10000 4.6 320 23:48 03.09.2019
2534 Clear 24 1018 41 10000 4.6 320 23:26 03.09.2019
2535 Clear 24 1018 39 10000 4.6 320 22:41 03.09.2019
2536 Clear 24 1018 39 10000 4.6 320 22:23 03.09.2019
2537 Clear 25 1018 39 10000 5.1 320 21:57 03.09.2019
2538 Clear 25 1018 39 10000 5.1 320 21:57 03.09.2019
2539 Clear 25 1018 37 10000 6.2 330 21:38 03.09.2019
2540 Clear 26 1018 37 10000 6.2 330 21:20 03.09.2019
2541 Clear 27 1018 32 10000 5.7 300 20:56 03.09.2019
2542 Clear 27 1018 33 10000 4.6 300 20:37 03.09.2019
2543 Clear 28 1018 30 10000 4.6 310 20:19 03.09.2019
2544 Clear 28 1018 29 10000 3.6 290 19:43 03.09.2019
2545 Clear 31 1018 27 10000 4.1 270 19:20 03.09.2019
2546 Clear 31 1018 27 10000 4.1 270 18:59 03.09.2019
2547 Clear 31 1018 27 10000 4.1 270 18:59 03.09.2019
2548 Clear 32 1018 24 10000 5.1 250 18:40 03.09.2019
2549 Clear 32 1018 26 10000 5.1 230 18:20 03.09.2019
2550 Clear 32 1018 26 10000 5.1 230 17:56 03.09.2019
2551 Clear 32 1018 27 10000 6.7 220 17:38 03.09.2019
2552 Clear 32 1018 25 10000 6.2 220 17:19 03.09.2019
2553 Clear 32 1018 27 10000 4.6 240 16:43 03.09.2019
2554 Clear 32 1018 27 10000 4.6 240 16:23 03.09.2019
2555 Clear 32 1018 26 10000 3.6 220 15:57 03.09.2019
2556 Clear 32 1018 24 10000 3.1 190 15:37 03.09.2019
2557 Clear 32 1019 31 10000 3.1 0 15:19 03.09.2019
2558 Clear 32 1019 31 10000 3.1 0 14:56 03.09.2019
2559 Clear 31 1019 31 10000 2.1 0 14:37 03.09.2019
2560 Clear 31 1019 33 10000 2.1 80 14:18 03.09.2019
2561 Clear 30 1019 33 10000 2.1 80 13:55 03.09.2019
2562 Clear 30 1019 42 10000 2.6 0 13:37 03.09.2019
2563 Clear 29 1019 48 10000 2.6 90 13:18 03.09.2019
2564 Clear 28 1019 54 10000 2.6 90 12:47 03.09.2019
2565 Clear 27 1019 54 10000 2.6 90 12:29 03.09.2019
2566 Clear 25 1019 57 10000 2.1 70 11:44 03.09.2019
2567 Clear 25 1019 57 10000 2.1 70 11:25 03.09.2019
2568 Clear 23 1019 57 10000 1.5 70 10:59 03.09.2019
2569 Clear 23 1019 57 10000 1.5 70 10:59 03.09.2019
2570 Clear 23 1018 60 10000 1.5 0 10:40 03.09.2019
2571 Clear 21 1018 60 10000 1.5 80 10:22 03.09.2019
2572 Clear 21 1018 60 10000 1.5 80 09:51 03.09.2019
2573 Clear 19 1018 60 10000 1 0 09:33 03.09.2019
2574 Clear 18 1018 63 10000 0.5 0 08:58 03.09.2019
2575 Clear 17 1017 63 10000 1.5 51.645 08:38 03.09.2019
2576 Clear 19 1017 64 10000 1.5 51.645 08:19 03.09.2019
2577 Clear 19 1017 49 10000 1.5 130 07:43 03.09.2019
2578 Clear 20 1017 49 10000 1.5 130 07:24 03.09.2019
2579 Clear 19 1016 49 10000 1 0 06:54 03.09.2019
2580 Clear 19 1016 46 10000 1 0 06:36 03.09.2019
2581 Clear 20 1017 49 10000 1 300 03:44 03.09.2019
2582 Clear 21 1017 56 10000 1 290 02:49 03.09.2019
2583 Clear 21 1017 53 10000 0.5 290 02:30 03.09.2019
2584 Clear 22 1017 53 10000 0.5 0 01:58 03.09.2019
2585 Clear 22 1017 49 10000 1 0 01:40 03.09.2019
2586 Clear 22 1017 49 10000 2.1 320 01:21 03.09.2019
2587 Clear 22 1017 47 10000 1.5 0 00:28 03.09.2019
2588 Clear 23 1017 47 10000 2.1 50 23:56 02.09.2019
2589 Clear 23 1016 44 10000 4.6 310 23:36 02.09.2019
2590 Clear 24 1016 38 10000 5.1 310 23:18 02.09.2019
2591 Clear 23 1016 38 10000 5.1 310 22:55 02.09.2019
2592 -273 0 0 0 0 0 22:55 02.09.2019
2593 Clear 24 1015 36 10000 5.1 310 22:36 02.09.2019
2594 Clear 24 1015 41 10000 4.6 310 22:18 02.09.2019
2595 Clear 24 1015 41 10000 4.6 310 21:55 02.09.2019
2596 Clear 25 1015 42 10000 3.6 300 21:36 02.09.2019
2597 Clear 26 1015 37 10000 4.1 300 21:18 02.09.2019
2598 Clear 27 1015 30 10000 3.1 290 20:41 02.09.2019
2599 Clear 29 1014 33 10000 4.1 300 20:23 02.09.2019
2600 Clear 29 1014 33 10000 4.1 300 19:58 02.09.2019
2601 Clear 30 1014 29 10000 3.1 280 19:40 02.09.2019
2602 Clear 30 1014 24 10000 4.1 220 19:21 02.09.2019
2603 Clear 30 1014 24 10000 4.1 220 18:56 02.09.2019
2604 Clear 30 1014 22 10000 4.6 230 18:36 02.09.2019
2605 Clear 30 1015 27 10000 5.1 230 18:18 02.09.2019
2606 Clear 30 1015 27 10000 4.1 180 17:40 02.09.2019
2607 Clear 30 1015 29 10000 3.1 0 17:21 02.09.2019
2608 Clear 30 1015 29 10000 3.1 0 16:59 02.09.2019
2609 Clear 30 1015 29 10000 3.1 0 16:59 02.09.2019
2610 Clear 30 1015 35 10000 3.1 120 16:39 02.09.2019
2611 Clear 30 1015 35 10000 3.1 120 16:20 02.09.2019
2612 Clear 29 1015 40 10000 3.1 90 15:46 02.09.2019
2613 Clear 28 1015 40 10000 3.1 90 15:27 02.09.2019
2614 Clear 27 1015 45 10000 2.1 0 14:58 02.09.2019
2615 Clear 27 1015 51 10000 2.6 90 14:40 02.09.2019
2616 Clear 27 1015 51 10000 2.6 90 14:22 02.09.2019
2617 Clear 25 1016 51 10000 2.6 100 13:56 02.09.2019
2618 Clear 25 1016 54 10000 2.1 0 13:37 02.09.2019
2619 Clear 24 1016 60 10000 2.6 0 13:19 02.09.2019
2620 Clear 23 1016 68 10000 2.6 100 12:45 02.09.2019
2621 Clear 22 1015 68 10000 2.1 90 12:25 02.09.2019
2622 Clear 23 1016 68 10000 2.6 100 12:25 02.09.2019
2623 Clear 22 1015 68 10000 2.1 90 11:58 02.09.2019
2624 Clear 22 1015 77 10000 2.6 90 11:39 02.09.2019
2625 Clear 21 1015 73 10000 2.1 70 11:21 02.09.2019
2626 Clear 21 1015 73 10000 2.1 70 10:57 02.09.2019
2627 Clear 19 1015 72 10000 2.6 10 10:38 02.09.2019
2628 Clear 19 1015 82 10000 2.6 310 10:19 02.09.2019
2629 Clear 17 1015 82 10000 3.1 320 09:46 02.09.2019
2630 Clear 16 1014 88 10000 3.6 320 09:22 02.09.2019
2631 Clear 16 1014 88 10000 3.6 320 08:58 02.09.2019
2632 Clouds 16 1014 82 10000 4.1 320 08:38 02.09.2019
2633 Clouds 16 1014 82 10000 4.1 320 08:18 02.09.2019
2634 Clear 17 1013 82 10000 4.6 310 07:41 02.09.2019
2635 Clear 17 1013 88 10000 4.6 300 07:21 02.09.2019
2636 Clear 18 1014 88 10000 6.2 310 06:45 02.09.2019
2637 Clear 18 1014 88 10000 6.2 310 06:25 02.09.2019
2638 Clear 18 1014 88 10000 3.6 330 05:48 02.09.2019
2639 Clear 18 1014 88 10000 3.6 330 05:19 02.09.2019
2640 Clear 18 1014 82 10000 5.7 320 04:21 02.09.2019
2641 Clear 18 1014 82 10000 6.7 310 01:48 02.09.2019
2642 Clear 18 1014 77 10000 6.7 320 00:49 02.09.2019
2643 Clear 19 1014 77 10000 6.7 320 00:31 02.09.2019
2644 Clouds 19 1015 77 10000 6.2 320 23:46 01.09.2019
2645 Clouds 19 1015 77 10000 6.2 320 23:23 01.09.2019
2646 Clouds 19 1015 77 10000 6.7 310 22:59 01.09.2019
2647 Clouds 19 1015 77 10000 6.7 310 22:59 01.09.2019
2648 Clouds 19 1014 72 10000 7.2 310 22:40 01.09.2019
2649 Clouds 19 1014 72 10000 7.2 310 22:19 01.09.2019
2650 Clouds 20 1014 72 10000 7.2 310 21:57 01.09.2019
2651 Clouds 20 1014 68 10000 6.7 310 21:39 01.09.2019
2652 Clouds 21 1014 64 10000 6.2 320 21:20 01.09.2019
2653 Clouds 21 1014 64 10000 6.2 320 20:57 01.09.2019
2654 Clouds 22 1014 57 10000 6.7 320 20:38 01.09.2019
2655 Clouds 22 1014 57 10000 6.7 320 20:38 01.09.2019
2656 Clouds 22 1014 57 10000 6.7 320 20:38 01.09.2019
2657 Clouds 23 1014 50 10000 6.2 320 20:18 01.09.2019
2658 Clouds 23 1014 50 10000 6.2 320 20:18 01.09.2019
2659 Clouds 24 1014 50 10000 6.2 320 19:58 01.09.2019
2660 Clouds 24 1014 50 10000 6.2 320 19:58 01.09.2019
2661 Clouds 24 1014 47 10000 6.2 320 19:37 01.09.2019
2662 Clouds 25 1014 44 10000 5.7 310 19:19 01.09.2019
2663 Clear 26 1014 42 10000 6.2 310 18:43 01.09.2019
2664 Clear 26 1014 42 10000 6.2 310 18:25 01.09.2019
2665 Clear 26 1014 42 10000 6.2 310 18:25 01.09.2019
2666 Clear 26 1014 39 10000 7.2 320 17:57 01.09.2019
2667 Clear 26 1014 44 10000 6.2 310 17:38 01.09.2019
2668 Clear 26 1014 44 10000 6.2 310 17:19 01.09.2019
2669 Clear 26 1014 44 10000 6.2 310 17:19 01.09.2019
2670 Clear 27 1014 42 10000 6.2 310 16:41 01.09.2019
2671 Clear 27 1014 42 10000 6.2 310 16:41 01.09.2019
2672 Clear 28 1014 42 10000 6.2 310 16:20 01.09.2019
2673 Clear 27 1014 42 10000 5.1 310 15:55 01.09.2019
2674 Clear 27 1015 42 10000 5.1 310 15:37 01.09.2019
2675 Clear 26 1015 37 10000 5.1 340 15:19 01.09.2019
2676 Clear 26 1015 51 10000 4.6 300 14:41 01.09.2019
2677 Clear 26 1015 51 10000 4.6 300 14:21 01.09.2019
2678 Clear 25 1016 54 10000 4.1 310 13:58 01.09.2019
2679 Clear 24 1016 54 10000 4.1 340 13:40 01.09.2019
2680 Clear 24 1016 54 10000 4.1 340 13:20 01.09.2019
2681 Clear 24 1016 54 10000 4.1 340 13:20 01.09.2019
2682 Clear 23 1016 64 10000 4.6 340 12:43 01.09.2019
2683 Clear 23 1016 64 10000 4.6 340 12:25 01.09.2019
2684 Clear 22 1016 68 10000 4.1 330 11:55 01.09.2019
2685 Clear 21 1016 73 10000 4.6 330 11:37 01.09.2019
2686 Clouds 21 1016 72 10000 3.1 310 11:18 01.09.2019
2687 Clouds 19 1016 77 10000 5.1 340 10:43 01.09.2019
2688 Clouds 19 1016 77 10000 5.1 340 10:23 01.09.2019
2689 Clouds 18 1015 82 10000 5.1 320 09:47 01.09.2019
2690 Clouds 18 1015 82 10000 5.1 320 09:26 01.09.2019
2691 Clouds 18 1015 82 10000 5.7 320 08:46 01.09.2019
2692 Clouds 18 1015 82 10000 5.7 320 08:25 01.09.2019
2693 Clouds 18 1015 88 10000 5.7 320 07:59 01.09.2019
2694 Clouds 18 1015 88 10000 6.2 320 07:41 01.09.2019
2695 Clouds 18 1015 88 10000 5.7 330 07:18 01.09.2019
2696 Clear 18 1015 88 10000 4.6 320 06:37 01.09.2019
2697 Clouds 18 1015 88 10000 4.6 320 05:57 01.09.2019
2698 Clouds 18 1015 88 10000 4.6 320 05:57 01.09.2019
2699 Clouds 18 1016 82 10000 4.6 330 04:36 01.09.2019
2700 Clouds 18 1016 82 10000 8.7 330 03:43 01.09.2019
2701 Clouds 18 1016 82 10000 6.7 330 02:59 01.09.2019
2702 Clear 18 1016 82 10000 6.7 330 02:30 01.09.2019
2703 Clear 18 1016 82 10000 6.2 330 01:52 01.09.2019
2704 Clear 18 1016 82 10000 6.2 330 01:26 01.09.2019
2705 Clear 18 1017 82 10000 7.2 330 00:47 01.09.2019
2706 Clear 18 1017 82 10000 7.2 330 00:23 01.09.2019
2707 Clear 18 1016 77 10000 6.7 330 23:56 31.08.2019
2708 Clear 19 1016 72 10000 7.2 330 23:38 31.08.2019
2709 Clear 19 1016 77 10000 6.7 330 23:18 31.08.2019
2710 Clear 19 1016 77 10000 6.7 330 22:54 31.08.2019
2711 Clouds 19 1016 77 10000 5.7 320 22:36 31.08.2019
2712 Clouds 19 1016 77 10000 5.7 320 22:36 31.08.2019
2713 Clouds 19 1016 77 10000 5.7 320 22:36 31.08.2019
2714 Clouds 19 1016 77 10000 5.7 330 22:18 31.08.2019
2715 Clouds 20 1016 72 10000 6.2 320 21:40 31.08.2019
2716 Clouds 20 1016 72 10000 6.2 320 21:40 31.08.2019
2717 Clouds 20 1016 68 10000 5.7 330 21:21 31.08.2019
2718 Clouds 21 1016 64 10000 6.7 340 20:50 31.08.2019
2719 Clouds 21 1016 64 10000 6.7 340 20:31 31.08.2019
2720 Clouds 21 1016 60 10000 8.2 330 19:59 31.08.2019
2721 Clear 23 1016 57 10000 6.2 320 19:40 31.08.2019
2722 Clear 23 1016 53 10000 8.2 330 19:21 31.08.2019
2723 Clear 24 1016 47 10000 6.2 320 18:41 31.08.2019
2724 Clear 25 1016 44 10000 6.2 330 18:21 31.08.2019
2725 Clear 25 1016 44 10000 6.2 330 17:58 31.08.2019
2726 Clear 25 1016 47 10000 6.2 330 17:37 31.08.2019
2727 Clear 25 1016 47 10000 5.1 310 17:19 31.08.2019
2728 Clear 25 1016 47 10000 5.1 310 16:59 31.08.2019
2729 Clear 25 1016 47 10000 5.7 320 16:41 31.08.2019
2730 Clear 26 1017 45 10000 4.6 320 16:21 31.08.2019
2731 Clear 26 1017 45 10000 4.6 320 15:59 31.08.2019
2732 Clear 26 1017 45 10000 4.6 330 15:38 31.08.2019
2733 Clear 25 1017 44 10000 5.1 340 15:18 31.08.2019
2734 Clear 25 1017 50 10000 4.6 330 14:42 31.08.2019
2735 Clear 25 1018 50 10000 4.6 310 14:23 31.08.2019
2736 Clear 25 1018 50 10000 4.6 310 13:56 31.08.2019
2737 Clear 24 1018 53 10000 4.1 310 13:36 31.08.2019
2738 Clear 24 1018 57 10000 5.1 350 13:18 31.08.2019
2739 Clouds 24 1018 57 10000 5.7 350 12:41 31.08.2019
2740 Clouds 22 1018 64 10000 6.2 340 12:21 31.08.2019
2741 Clouds 22 1018 64 10000 6.2 340 11:58 31.08.2019
2742 Clouds 21 1018 68 10000 4.1 330 11:40 31.08.2019
2743 Clouds 21 1018 68 10000 4.1 330 11:22 31.08.2019
2744 Clouds 21 1018 68 10000 5.1 330 10:54 31.08.2019
2745 Clouds 20 1017 77 10000 5.1 330 10:36 31.08.2019
2746 Clouds 19 1017 77 10000 5.7 320 10:18 31.08.2019
2747 Clouds 19 1017 88 10000 5.1 320 09:40 31.08.2019
2748 Clouds 18 1017 88 10000 5.1 320 09:21 31.08.2019
2749 Clouds 17 1017 88 10000 5.7 310 08:45 31.08.2019
2750 Clouds 17 1017 88 10000 5.7 310 08:27 31.08.2019
2751 Clear 17 1016 88 10000 5.1 310 07:58 31.08.2019
2752 Clear 17 1016 88 10000 5.1 310 07:37 31.08.2019
2753 Clear 18 1016 88 10000 5.1 310 07:18 31.08.2019
2754 Clear 18 1016 88 10000 5.1 310 06:26 31.08.2019
2755 Clear 18 1016 88 10000 5.1 310 06:26 31.08.2019
2756 Clouds 18 1017 93 10000 4.6 310 05:50 31.08.2019
2757 Clouds 18 1017 93 10000 4.6 310 05:27 31.08.2019
2758 Clear 19 1017 88 10000 5.1 310 04:28 31.08.2019
2759 Clear 19 1017 88 10000 5.1 310 03:42 31.08.2019
2760 Clear 19 1017 77 10000 4.1 310 02:22 31.08.2019
2761 Clear 19 1017 68 10000 3.6 320 01:47 31.08.2019
2762 Clear 19 1017 68 10000 3.6 320 01:28 31.08.2019
2763 Clear 20 1017 60 10000 4.6 320 00:46 31.08.2019
2764 Clear 20 1017 60 10000 4.6 320 00:46 31.08.2019
2765 Clear 20 1017 60 10000 4.6 320 00:27 31.08.2019
2766 Clear 20 1017 68 10000 7.2 310 23:49 30.08.2019
2767 Clear 20 1017 64 10000 6.7 300 23:19 30.08.2019
2768 Clear 20 1017 64 10000 6.7 300 22:58 30.08.2019
2769 Clear 21 1017 64 10000 6.2 300 22:38 30.08.2019
2770 Clear 21 1017 64 10000 6.2 300 22:19 30.08.2019
2771 Clear 21 1017 64 10000 6.7 310 21:57 30.08.2019
2772 Clear 22 1016 60 10000 7.2 310 21:36 30.08.2019
2773 Clear 22 1016 57 10000 6.2 310 21:18 30.08.2019
2774 Clear 22 1016 57 10000 6.2 310 21:18 30.08.2019
2775 Clear 22 1016 57 10000 6.2 310 20:56 30.08.2019
2776 Clear 23 1017 53 10000 6.2 300 20:37 30.08.2019
2777 Clear 23 1017 50 10000 7.2 310 20:18 30.08.2019
2778 Clear 25 1017 50 10000 7.2 310 19:55 30.08.2019
2779 Clear 26 1017 44 10000 5.7 300 19:36 30.08.2019
2780 Clear 27 1017 42 10000 5.7 300 19:18 30.08.2019
2781 Clear 27 1017 33 10000 4.1 290 18:44 30.08.2019
2782 Clear 27 1017 33 10000 4.1 290 18:24 30.08.2019
2783 Clear 27 1017 33 10000 4.6 270 17:56 30.08.2019
2784 Clear 27 1017 33 10000 4.6 270 17:56 30.08.2019
2785 Clear 27 1017 33 10000 5.1 250 17:38 30.08.2019
2786 Clear 27 1017 29 10000 3.1 260 17:19 30.08.2019
2787 Clear 27 1017 29 10000 3.1 260 16:49 30.08.2019
2788 Clear 27 1018 27 10000 2.6 0 16:29 30.08.2019
2789 Clear 27 1018 31 10000 3.1 0 15:59 30.08.2019
2790 Clear 26 1018 37 10000 2.6 0 15:39 30.08.2019
2791 Clear 27 1019 45 10000 3.1 0 15:20 30.08.2019
2792 Clear 26 1019 37 10000 1.5 0 14:45 30.08.2019
2793 Clear 26 1019 37 10000 1.5 0 14:25 30.08.2019
2794 Clear 26 1019 42 10000 1.5 0 13:56 30.08.2019
2795 Clear 25 1019 54 10000 1.5 0 13:38 30.08.2019
2796 Clear 25 1019 54 10000 1.5 0 13:20 30.08.2019
2797 Clear 24 1019 57 10000 2.6 40 12:44 30.08.2019
2798 Clear 23 1019 57 10000 2.6 40 12:25 30.08.2019
2799 Clear 22 1019 60 10000 2.1 0 11:57 30.08.2019
2800 Clear 22 1019 68 10000 2.6 340 11:39 30.08.2019
2801 Clear 21 1019 72 10000 3.6 340 11:20 30.08.2019
2802 Clear 20 1019 68 10000 2.6 340 10:37 30.08.2019
2803 Mist 18 1019 77 10000 4.1 310 10:19 30.08.2019
2804 Mist 18 1019 77 10000 4.1 310 09:55 30.08.2019
2805 Mist 18 1019 77 10000 4.1 320 09:36 30.08.2019
2806 Clear 17 1019 82 10000 1 0 09:18 30.08.2019
2807 Clear 17 1019 82 10000 3.1 310 08:42 30.08.2019
2808 Clear 17 1019 82 10000 3.1 310 08:23 30.08.2019
2809 Clear 17 1019 77 10000 3.6 320 07:46 30.08.2019
2810 Clear 17 1019 77 10000 3.6 320 07:25 30.08.2019
2811 Clear 17 1018 77 10000 2.6 310 06:49 30.08.2019
2812 Clear 18 1018 77 10000 2.6 310 06:31 30.08.2019
2813 Clear 17 1018 77 10000 2.1 310 05:59 30.08.2019
2814 Clear 18 1019 88 10000 3.6 330 05:24 30.08.2019
2815 Clear 18 1019 82 10000 3.6 330 03:56 30.08.2019
2816 Clear 18 1019 82 10000 4.1 320 03:37 30.08.2019
2817 Clear 18 1019 82 10000 4.1 320 03:37 30.08.2019
2818 Clear 18 1019 82 10000 4.6 320 02:37 30.08.2019
2819 Clear 19 1019 82 10000 4.1 310 01:40 30.08.2019
2820 Clear 19 1019 77 10000 3.6 320 00:53 30.08.2019
2821 Clear 19 1019 82 10000 5.1 310 00:19 30.08.2019
2822 Clear 19 1019 82 10000 6.7 310 23:47 29.08.2019
2823 Clear 19 1019 82 10000 6.7 310 23:22 29.08.2019
2824 Clear 19 1019 82 10000 6.7 310 23:22 29.08.2019
2825 Clear 19 1019 82 10000 6.7 310 23:22 29.08.2019
2826 Clouds 19 1019 77 10000 4.6 340 22:45 29.08.2019
2827 Clouds 19 1019 77 10000 4.6 340 22:27 29.08.2019
2828 Clouds 19 1019 77 10000 4.6 340 22:27 29.08.2019
2829 Clouds 20 1018 73 10000 5.1 320 21:59 29.08.2019
2830 Clear 20 1018 68 10000 4.6 330 21:41 29.08.2019
2831 Clear 21 1018 68 10000 4.6 330 21:21 29.08.2019
2832 Clear 21 1018 64 10000 5.7 310 20:59 29.08.2019
2833 Clear 22 1018 64 10000 5.7 310 20:40 29.08.2019
2834 Clear 22 1018 60 10000 6.2 310 20:19 29.08.2019
2835 Clear 22 1018 57 10000 7.7 330 19:56 29.08.2019
2836 Clear 22 1018 57 10000 7.7 330 19:38 29.08.2019
2837 Clear 25 1018 47 10000 7.2 330 19:19 29.08.2019
2838 Clear 25 1018 47 10000 6.2 330 18:41 29.08.2019
2839 Clear 26 1018 42 10000 5.1 310 18:20 29.08.2019
2840 Clear 27 1018 39 10000 5.1 310 17:56 29.08.2019
2841 Clear 27 1018 39 10000 5.1 310 17:37 29.08.2019
2842 Clear 27 1018 33 10000 3.6 320 17:19 29.08.2019
2843 Clear 27 1018 30 10000 3.6 310 16:43 29.08.2019
2844 Clear 27 1019 30 10000 3.6 310 16:24 29.08.2019
2845 Clear 27 1019 30 10000 3.6 310 15:58 29.08.2019
2846 Clear 28 1019 32 10000 4.1 300 15:37 29.08.2019
2847 Clear 27 1019 32 10000 4.1 330 15:19 29.08.2019
2848 Clear 27 1019 32 10000 4.1 330 15:19 29.08.2019
2849 Clear 27 1019 32 10000 3.6 350 14:45 29.08.2019
2850 Clear 25 1019 34 10000 4.1 340 14:22 29.08.2019
2851 Clear 26 1019 34 10000 4.1 340 13:58 29.08.2019
2852 Clear 25 1019 36 10000 4.6 350 13:39 29.08.2019
2853 Clear 25 1019 44 10000 4.6 350 13:20 29.08.2019
2854 Clear 24 1019 44 10000 4.6 350 12:58 29.08.2019
2855 Clear 23 1019 50 10000 3.6 330 12:39 29.08.2019
2856 Clear 22 1019 60 10000 2.6 170 12:20 29.08.2019
2857 Clear 23 1019 49 10000 3.6 10 11:58 29.08.2019
2858 Clear 21 1019 56 10000 3.6 350 11:37 29.08.2019
2859 Clear 22 1019 56 10000 3.6 350 11:18 29.08.2019
2860 Clear 20 1019 77 10000 4.1 330 10:42 29.08.2019
2861 Clear 19 1019 77 10000 4.1 330 10:24 29.08.2019
2862 Clouds 18 1018 88 10000 2.6 330 09:42 29.08.2019
2863 Clouds 17 1018 88 10000 2.6 320 09:21 29.08.2019
2864 Clouds 17 1018 88 10000 2.6 320 08:59 29.08.2019
2865 Clouds 17 1018 88 10000 3.1 330 08:40 29.08.2019
2866 Clouds 17 1018 88 10000 3.1 330 08:21 29.08.2019
2867 Clear 17 1017 88 10000 4.6 320 07:49 29.08.2019
2868 Clear 18 1017 88 10000 4.6 320 07:26 29.08.2019
2869 Clear 18 1018 88 10000 4.1 330 06:48 29.08.2019
2870 Clear 17 1018 88 10000 4.1 330 06:30 29.08.2019
2871 Clear 17 1018 88 10000 4.1 330 05:42 29.08.2019
2872 Clear 18 1018 82 10000 4.1 330 04:51 29.08.2019
2873 Clear 18 1018 77 10000 3.1 320 04:29 29.08.2019
2874 Clear 18 1018 88 10000 4.6 320 03:20 29.08.2019
2875 Clear 18 1018 82 10000 4.1 320 01:49 29.08.2019
2876 Clear 18 1018 82 10000 4.1 320 01:30 29.08.2019
2877 Clouds 18 1018 82 10000 5.7 320 00:42 29.08.2019
2878 Clear 18 1018 82 10000 6.2 320 00:21 29.08.2019
2879 Clear 18 1018 82 10000 6.7 320 23:44 28.08.2019
2880 Clear 18 1018 82 10000 6.7 320 23:25 28.08.2019
2881 Clouds 18 1017 82 10000 7.2 310 22:59 28.08.2019
2882 Clouds 19 1017 77 10000 7.2 310 22:39 28.08.2019
2883 Clouds 19 1017 77 10000 7.2 310 22:18 28.08.2019
2884 Clouds 19 1017 72 10000 7.2 310 21:58 28.08.2019
2885 Clouds 20 1016 68 10000 6.2 320 21:39 28.08.2019
2886 Clouds 20 1016 68 10000 6.2 320 21:20 28.08.2019
2887 Clouds 22 1017 60 10000 5.7 300 20:42 28.08.2019
2888 Clouds 22 1017 60 10000 5.7 300 20:24 28.08.2019
2889 Clouds 23 1016 57 10000 6.2 310 19:59 28.08.2019
2890 Clouds 24 1017 53 10000 5.7 320 19:39 28.08.2019
2891 Clear 25 1016 54 10000 5.1 310 19:21 28.08.2019
2892 Clear 25 1016 45 10000 4.1 320 18:42 28.08.2019
2893 Clear 25 1016 40 10000 3.6 360 18:22 28.08.2019
2894 Clear 25 1016 47 10000 4.1 320 17:57 28.08.2019
2895 Clear 25 1017 47 10000 4.1 300 17:37 28.08.2019
2896 Clear 25 1017 45 10000 3.1 0 17:19 28.08.2019
2897 Clear 26 1017 45 10000 3.6 10 16:43 28.08.2019
2898 Clear 25 1017 47 10000 3.6 350 16:19 28.08.2019
2899 Clear 25 1017 47 10000 3.6 350 15:58 28.08.2019
2900 Clouds 25 1017 47 10000 4.6 340 15:37 28.08.2019
2901 Clouds 24 1018 54 10000 4.1 320 15:19 28.08.2019
2902 Clouds 23 1018 54 10000 4.1 320 14:56 28.08.2019
2903 Clouds 23 1018 54 10000 3.1 0 14:37 28.08.2019
2904 Clouds 23 1018 54 10000 3.1 0 14:19 28.08.2019
2905 Clouds 23 1018 57 10000 3.6 90 13:56 28.08.2019
2906 Clouds 23 1018 64 10000 3.6 0 13:37 28.08.2019
2907 Clouds 22 1018 69 10000 2.6 0 13:18 28.08.2019
2908 Clouds 22 1018 68 10000 3.1 360 12:41 28.08.2019
2909 Clouds 21 1018 77 10000 2.1 90 12:23 28.08.2019
2910 Clouds 21 1018 73 10000 4.6 20 11:42 28.08.2019
2911 Clouds 21 1018 73 10000 4.6 20 11:23 28.08.2019
2912 Clouds 20 1018 77 10000 3.6 10 10:59 28.08.2019
2913 Clouds 20 1018 82 10000 4.1 20 10:41 28.08.2019
2914 Clouds 19 1018 82 10000 4.1 360 10:21 28.08.2019
2915 Clouds 19 1018 82 10000 4.1 360 09:58 28.08.2019
2916 Clouds 19 1018 88 10000 2.1 340 09:39 28.08.2019
2917 Clouds 18 1018 88 10000 1.5 340 09:18 28.08.2019
2918 Clouds 18 1018 88 10000 4.1 330 08:39 28.08.2019
2919 Clouds 18 1017 88 10000 4.1 330 08:20 28.08.2019
2920 Clouds 18 1018 88 10000 3.6 330 07:40 28.08.2019
2921 Clouds 18 1018 88 10000 3.6 330 07:20 28.08.2019
2922 Clouds 18 1017 88 10000 4.1 330 06:51 28.08.2019
2923 Clouds 18 1017 88 10000 4.1 330 06:32 28.08.2019
2924 Clouds 19 1018 88 10000 4.6 320 05:32 28.08.2019
2925 Clouds 19 1018 82 10000 4.1 330 02:46 28.08.2019
2926 Clouds 19 1018 82 10000 4.1 330 01:32 28.08.2019
2927 Clouds 19 1018 82 10000 4.6 320 00:55 28.08.2019
2928 Clouds 19 1018 82 10000 4.6 320 00:35 28.08.2019
2929 Clouds 19 1018 82 10000 5.1 330 23:58 27.08.2019
2930 Clouds 19 1018 82 10000 5.1 330 23:39 27.08.2019
2931 Clouds 19 1018 82 10000 4.6 320 23:20 27.08.2019
2932 Clouds 19 1017 77 10000 6.2 330 22:42 27.08.2019
2933 Clouds 20 1017 77 10000 6.2 330 22:23 27.08.2019
2934 Clouds 20 1017 77 10000 3.6 330 21:57 27.08.2019
2935 Clouds 20 1017 73 10000 4.1 310 21:39 27.08.2019
2936 Clouds 20 1017 73 10000 4.6 300 21:21 27.08.2019
2937 Clouds 20 1017 73 10000 4.6 300 20:59 27.08.2019
2938 Clouds 21 1017 68 10000 6.7 330 20:40 27.08.2019
2939 Clouds 21 1017 68 10000 6.7 330 20:20 27.08.2019
2940 Clouds 22 1017 64 10000 5.1 320 19:55 27.08.2019
2941 Clouds 23 1017 64 10000 5.7 320 19:37 27.08.2019
2942 Clouds 23 1017 69 10000 5.1 320 19:18 27.08.2019
2943 Clouds 23 1017 69 10000 5.1 300 18:41 27.08.2019
2944 Clouds 23 1017 64 10000 5.7 310 18:18 27.08.2019
2945 Clouds 23 1017 64 10000 5.7 310 17:56 27.08.2019
2946 Clouds 23 1017 60 10000 4.6 310 17:37 27.08.2019
2947 Clouds 23 1017 64 10000 4.6 310 17:18 27.08.2019
2948 Clouds 23 1017 64 10000 4.1 300 16:43 27.08.2019
2949 Clouds 23 1017 64 10000 4.1 300 16:24 27.08.2019
2950 Clouds 23 1017 64 10000 4.1 300 15:57 27.08.2019
2951 Clouds 23 1017 64 10000 4.6 310 15:38 27.08.2019
2952 Clouds 23 1017 64 10000 4.6 310 15:19 27.08.2019
2953 Clouds 23 1018 64 10000 4.1 300 14:43 27.08.2019
2954 Clouds 23 1018 64 10000 4.1 300 14:24 27.08.2019
2955 Clouds 22 1018 69 10000 4.6 330 13:57 27.08.2019
2956 Clouds 22 1018 64 10000 4.6 310 13:38 27.08.2019
2957 Clouds 22 1018 64 10000 4.6 310 13:20 27.08.2019
2958 Clouds 22 1018 68 10000 4.1 330 12:41 27.08.2019
2959 Clouds 21 1018 68 10000 4.1 330 12:20 27.08.2019
2960 Clouds 21 1018 73 10000 4.1 320 11:56 27.08.2019
2961 Clouds 21 1018 73 10000 4.6 340 11:37 27.08.2019
2962 Clouds 20 1018 73 10000 5.7 340 11:18 27.08.2019
2963 Clouds 20 1017 77 10000 4.1 330 10:40 27.08.2019
2964 Clouds 19 1017 82 10000 3.6 340 10:19 27.08.2019
2965 Clouds 19 1017 82 10000 3.6 340 09:55 27.08.2019
2966 Clouds 19 1017 82 10000 3.6 340 09:36 27.08.2019
2967 Clouds 18 1016 88 10000 3.6 340 09:18 27.08.2019
2968 Clouds 18 1016 88 10000 4.1 340 08:42 27.08.2019
2969 Clouds 18 1016 88 10000 4.1 340 08:23 27.08.2019
2970 Clouds 18 1016 88 10000 3.6 340 07:42 27.08.2019
2971 Clouds 18 1016 88 10000 3.6 340 07:20 27.08.2019
2972 Clouds 18 1016 88 10000 2.1 340 07:20 27.08.2019
2973 Clouds 18 1016 88 10000 2.1 340 06:58 27.08.2019
2974 Clouds 18 1015 88 10000 3.1 350 06:37 27.08.2019
2975 Clouds 18 1015 88 10000 3.1 340 06:18 27.08.2019
2976 Clouds 19 1015 88 10000 3.1 330 05:24 27.08.2019
2977 Clouds 19 1016 88 10000 5.7 340 03:43 27.08.2019
2978 Clouds 19 1016 88 10000 4.1 350 02:28 27.08.2019
2979 Clear 19 1015 88 10000 4.1 320 01:45 27.08.2019
2980 Clear 19 1015 88 10000 4.1 320 01:24 27.08.2019
2981 Clear 19 1016 82 10000 6.2 320 00:48 27.08.2019
2982 Clear 20 1016 82 10000 6.2 320 00:26 27.08.2019
2983 Clear 20 1015 73 10000 5.1 310 23:40 26.08.2019
2984 Clear 20 1015 77 10000 6.2 300 23:21 26.08.2019
2985 Clear 20 1015 77 10000 6.2 300 22:57 26.08.2019
2986 Clear 20 1014 73 10000 7.2 330 22:36 26.08.2019
2987 Clouds 20 1014 64 10000 5.1 320 22:18 26.08.2019
2988 Clouds 21 1014 64 10000 5.1 320 21:39 26.08.2019
2989 Clouds 22 1014 53 10000 4.6 320 21:21 26.08.2019
2990 Clouds 23 1013 47 10000 5.7 330 20:58 26.08.2019
2991 Clouds 24 1013 47 10000 5.7 330 20:39 26.08.2019
2992 Clouds 24 1013 45 10000 3.1 340 20:19 26.08.2019
2993 Clouds 25 1013 48 10000 2.6 350 19:56 26.08.2019
2994 Clouds 25 1013 48 10000 2.6 350 19:38 26.08.2019
2995 Clouds 26 1013 45 10000 2.1 0 19:18 26.08.2019
2996 Clouds 28 1014 48 10000 2.6 290 18:39 26.08.2019
2997 Clouds 27 1014 48 10000 3.1 330 18:20 26.08.2019
2998 Clouds 26 1014 54 10000 4.1 300 17:56 26.08.2019
2999 Clouds 26 1014 54 10000 4.1 300 17:38 26.08.2019
3000 Clouds 25 1014 51 10000 5.1 330 17:18 26.08.2019
3001 Clouds 25 1014 57 10000 6.7 330 16:56 26.08.2019
3002 Clouds 24 1014 57 10000 6.7 330 16:38 26.08.2019
3003 Clouds 24 1014 57 10000 3.6 290 16:18 26.08.2019
3004 Clouds 24 1014 57 10000 4.6 340 15:42 26.08.2019
3005 Clouds 23 1014 60 10000 4.6 260 15:21 26.08.2019
3006 Clouds 23 1014 60 10000 3.6 280 14:46 26.08.2019
3007 Clouds 22 1014 60 10000 4.6 250 14:23 26.08.2019
3008 Clouds 22 1014 64 10000 4.1 230 13:59 26.08.2019
3009 Clouds 22 1014 64 10000 4.1 230 13:39 26.08.2019
3010 Clouds 22 1014 60 10000 3.1 240 13:20 26.08.2019
3011 Clear 22 1014 60 10000 2.1 0 12:43 26.08.2019
3012 Clouds 21 1014 68 10000 2.1 170 12:25 26.08.2019
3013 Clear 21 1014 73 10000 3.1 50 11:56 26.08.2019
3014 Clear 20 1014 73 10000 3.1 50 11:36 26.08.2019
3015 Clear 20 1014 77 10000 3.1 50 11:18 26.08.2019
3016 Clear 20 1014 82 10000 2.6 70 10:44 26.08.2019
3017 Clear 19 1014 82 10000 2.6 100 10:22 26.08.2019
3018 Clear 19 1014 82 10000 2.6 100 10:22 26.08.2019
3019 Clear 18 1014 93 10000 3.6 70 09:57 26.08.2019
3020 Clear 18 1014 93 10000 3.6 70 09:39 26.08.2019
3021 Clear 18 1014 88 10000 2.1 320 09:19 26.08.2019
3022 Clouds 18 1014 93 10000 4.1 330 08:42 26.08.2019
3023 Clouds 17 1013 93 10000 4.6 300 08:24 26.08.2019
3024 Clouds 18 1013 93 10000 4.1 320 07:59 26.08.2019
3025 Clouds 18 1013 93 10000 4.1 320 07:41 26.08.2019
3026 Clouds 18 1012 93 10000 4.1 300 07:22 26.08.2019
3027 Clouds 18 1013 93 10000 4.6 300 06:45 26.08.2019
3028 Clear 18 1013 88 10000 4.6 300 06:24 26.08.2019
3029 Clear 18 1013 82 10000 5.1 300 05:49 26.08.2019
3030 Clouds 18 1013 82 10000 4.1 320 04:31 26.08.2019
3031 Clouds 18 1014 82 10000 5.7 320 02:56 26.08.2019
3032 Clouds 18 1014 82 10000 6.7 310 01:40 26.08.2019
3033 Thunderstorm 18 1014 82 10000 6.2 320 01:21 26.08.2019
3034 Thunderstorm 18 1014 82 10000 7.2 320 00:38 26.08.2019
3035 Rain 18 1014 82 10000 6.7 320 00:19 26.08.2019
3036 Thunderstorm 18 1014 82 10000 6.7 310 23:42 25.08.2019
3037 Clouds 18 1014 82 10000 7.2 310 23:19 25.08.2019
3038 Clouds 18 1014 82 10000 6.2 310 22:56 25.08.2019
3039 Clouds 19 1014 82 10000 6.2 310 22:38 25.08.2019
3040 Clouds 19 1014 82 10000 6.7 310 22:19 25.08.2019
3041 Clouds 19 1013 72 10000 5.7 310 21:56 25.08.2019
3042 Clouds 20 1013 72 10000 5.7 310 21:37 25.08.2019
3043 Clouds 20 1013 68 10000 6.2 310 21:18 25.08.2019
3044 Clouds 21 1013 64 10000 5.7 310 20:40 25.08.2019
3045 Clouds 22 1013 60 10000 5.7 320 20:20 25.08.2019
3046 Clouds 23 1013 57 10000 6.7 330 19:58 25.08.2019
3047 Clouds 23 1013 57 10000 6.7 330 19:38 25.08.2019
3048 Clouds 24 1013 53 10000 5.7 320 19:18 25.08.2019
3049 Clouds 25 1014 34 10000 4.6 320 18:57 25.08.2019
3050 Clouds 25 1014 53 10000 5.1 310 18:57 25.08.2019
3051 Clouds 25 1014 34 10000 4.6 320 18:39 25.08.2019
3052 Clouds 24 1014 34 10000 4.6 320 18:20 25.08.2019
3053 Clouds 25 1014 44 10000 3.6 300 17:43 25.08.2019
3054 Clouds 25 1014 44 10000 4.1 320 17:25 25.08.2019
3055 Clear 25 1014 44 10000 4.6 330 16:54 25.08.2019
3056 Clear 25 1014 44 10000 4.6 330 16:36 25.08.2019
3057 Clear 25 1015 44 10000 2.6 0 16:18 25.08.2019
3058 Clear 23 1015 53 10000 4.6 330 15:42 25.08.2019
3059 Clear 23 1015 64 10000 4.6 330 15:23 25.08.2019
3060 Clouds 22 1015 64 10000 4.1 310 14:43 25.08.2019
3061 Clouds 22 1015 56 10000 3.1 330 14:24 25.08.2019
3062 Clouds 22 1016 53 10000 2.1 290 13:56 25.08.2019
3063 Clouds 22 1016 53 10000 2.1 290 13:37 25.08.2019
3064 Clouds 22 1016 56 10000 1.5 0 13:18 25.08.2019
3065 Clouds 22 1016 60 10000 2.1 310 12:42 25.08.2019
3066 Clouds 21 1017 64 10000 3.1 310 12:24 25.08.2019
3067 Clouds 20 1017 64 10000 3.1 300 11:59 25.08.2019
3068 Clouds 20 1017 64 10000 3.1 300 11:38 25.08.2019
3069 Clouds 20 1017 68 10000 3.1 310 11:20 25.08.2019
3070 Clouds 20 1017 68 10000 2.6 330 10:57 25.08.2019
3071 Clouds 19 1017 68 10000 2.6 330 10:38 25.08.2019
3072 Clouds 19 1016 72 10000 3.6 320 10:19 25.08.2019
3073 Clouds 18 1016 77 10000 3.6 320 09:44 25.08.2019
3074 Clouds 18 1016 82 10000 4.6 330 09:24 25.08.2019
3075 Clouds 17 1016 82 10000 4.1 330 08:48 25.08.2019
3076 Clouds 17 1016 82 10000 5.1 320 08:29 25.08.2019
3077 Clouds 18 1016 82 10000 5.1 330 07:55 25.08.2019
3078 Clouds 17 1016 82 10000 5.1 330 07:33 25.08.2019
3079 Clouds 17 1016 88 10000 5.7 320 06:40 25.08.2019
3080 Clear 17 1016 88 10000 3.6 330 05:35 25.08.2019
3081 Clouds 18 1017 88 10000 3.1 360 03:51 25.08.2019
3082 Clouds 18 1017 82 10000 4.6 340 02:55 25.08.2019
3083 Clouds 18 1017 82 10000 6.2 340 02:36 25.08.2019
3084 Clear 18 1017 82 10000 5.7 340 01:18 25.08.2019
3085 Clear 18 1017 82 10000 6.7 320 00:37 25.08.2019
3086 Clear 19 1017 77 10000 6.7 320 00:18 25.08.2019
3087 Clear 19 1017 77 10000 6.2 320 23:45 24.08.2019
3088 Clear 19 1017 77 10000 6.2 310 23:22 24.08.2019
3089 Clear 20 1016 77 10000 8.7 310 22:54 24.08.2019
3090 Clear 20 1016 77 10000 8.7 310 22:36 24.08.2019
3091 Clear 21 1016 72 10000 8.2 310 22:18 24.08.2019
3092 Clear 20 1016 68 10000 7.7 310 21:42 24.08.2019
3093 Clear 22 1016 60 10000 7.7 310 21:24 24.08.2019
3094 Clear 22 1016 53 10000 7.2 300 20:59 24.08.2019
3095 Clear 23 1016 53 10000 7.2 300 20:41 24.08.2019
3096 Clear 23 1016 44 10000 5.7 300 20:20 24.08.2019
3097 Clear 25 1016 39 10000 5.7 290 19:59 24.08.2019
3098 Clear 26 1016 39 10000 5.7 290 19:40 24.08.2019
3099 Clear 26 1016 32 10000 6.7 320 19:22 24.08.2019
3100 Clear 27 1016 28 10000 6.2 320 18:57 24.08.2019
3101 Clear 29 1016 28 10000 6.2 320 18:37 24.08.2019
3102 Clear 29 1016 30 10000 6.2 320 18:19 24.08.2019
3103 Clear 30 1016 35 10000 5.7 310 17:43 24.08.2019
3104 Clear 29 1016 35 10000 7.2 330 17:24 24.08.2019
3105 Clear 29 1016 35 10000 6.7 330 16:44 24.08.2019
3106 Clear 30 1017 33 10000 5.7 330 16:20 24.08.2019
3107 Clear 30 1017 40 10000 4.6 320 15:58 24.08.2019
3108 Clear 30 1017 40 10000 4.6 320 15:40 24.08.2019
3109 Clear 28 1017 40 10000 4.6 320 15:21 24.08.2019
3110 Clear 28 1017 40 10000 5.1 330 14:42 24.08.2019
3111 Clear 28 1017 40 10000 4.6 360 14:22 24.08.2019
3112 Clear 27 1017 39 10000 4.6 330 13:56 24.08.2019
3113 Clear 27 1017 39 10000 4.6 330 13:37 24.08.2019
3114 Clear 26 1017 39 10000 5.7 330 13:18 24.08.2019
3115 Clear 25 1017 44 10000 4.1 310 12:42 24.08.2019
3116 Clear 25 1017 50 10000 4.1 330 12:24 24.08.2019
3117 Clear 23 1017 53 10000 5.1 350 11:57 24.08.2019
3118 Clear 24 1017 53 10000 5.1 350 11:39 24.08.2019
3119 Clear 22 1017 60 10000 5.1 330 11:20 24.08.2019
3120 Clear 21 1017 64 10000 4.6 350 10:44 24.08.2019
3121 Clouds 21 1017 72 10000 6.7 310 10:23 24.08.2019
3122 Clouds 20 1017 72 10000 6.7 320 09:44 24.08.2019
3123 Clouds 20 1016 77 10000 7.7 310 09:20 24.08.2019
3124 Clouds 19 1016 82 10000 7.2 310 08:58 24.08.2019
3125 Clouds 19 1016 82 10000 7.2 310 08:39 24.08.2019
3126 Clear 19 1016 72 10000 6.2 310 08:21 24.08.2019
3127 Clear 19 1016 72 10000 5.7 310 07:47 24.08.2019
3128 Clear 19 1016 72 10000 5.7 310 07:26 24.08.2019
3129 Clear 21 1016 52 10000 4.6 320 06:28 24.08.2019
3130 Clear 21 1016 43 10000 4.1 310 05:41 24.08.2019
3131 Clear 21 1016 31 10000 2.1 350 04:36 24.08.2019
3132 Clear 21 1016 29 10000 1.5 320 03:36 24.08.2019
3133 Clear 20 1016 40 10000 1.5 300 02:26 24.08.2019
3134 Clear 21 1017 38 10000 5.1 350 01:31 24.08.2019
3135 Clear 21 1017 40 10000 4.1 330 00:53 24.08.2019
3136 Clear 21 1016 46 10000 4.6 330 00:26 24.08.2019
3137 Clear 22 1016 53 10000 6.7 320 23:59 23.08.2019
3138 Clear 22 1016 53 10000 6.7 320 23:39 23.08.2019
3139 Clear 22 1016 46 10000 7.2 320 23:19 23.08.2019
3140 Clear 22 1016 44 10000 7.2 320 22:42 23.08.2019
3141 Clear 22 1015 36 10000 7.2 320 22:24 23.08.2019
3142 Clear 24 1015 41 10000 7.2 310 21:41 23.08.2019
3143 Clear 25 1015 41 10000 7.2 310 21:23 23.08.2019
3144 Clear 25 1015 37 10000 6.7 310 20:59 23.08.2019
3145 Clear 26 1015 37 10000 6.7 310 20:40 23.08.2019
3146 Clear 27 1015 45 10000 6.2 300 20:21 23.08.2019
3147 Clear 28 1015 37 10000 5.7 300 19:44 23.08.2019
3148 Clear 31 1015 35 10000 4.6 300 19:19 23.08.2019
3149 Clear 30 1015 33 10000 4.1 290 18:49 23.08.2019
3150 Clear 31 1015 35 10000 4.6 310 18:31 23.08.2019
3151 Clear 31 1015 33 10000 4.1 310 17:58 23.08.2019
3152 Clear 32 1015 33 10000 4.1 310 17:39 23.08.2019
3153 Clear 31 1016 36 10000 4.1 300 17:20 23.08.2019
3154 Clear 32 1016 30 10000 2.1 0 16:48 23.08.2019
3155 Clear 31 1016 31 10000 2.6 130 16:29 23.08.2019
3156 Clear 31 1016 35 10000 2.6 130 15:58 23.08.2019
3157 Clear 31 1016 35 10000 2.6 130 15:38 23.08.2019
3158 Clear 31 1016 35 10000 3.1 120 15:20 23.08.2019
3159 Clear 30 1017 37 10000 3.1 70 14:43 23.08.2019
3160 Clear 29 1017 39 10000 3.1 90 14:21 23.08.2019
3161 Clear 28 1017 42 10000 4.1 0 13:58 23.08.2019
3162 Clear 28 1017 42 10000 4.1 0 13:58 23.08.2019
3163 Clear 28 1017 42 10000 4.1 0 13:40 23.08.2019
3164 Clear 28 1017 47 10000 3.6 100 13:22 23.08.2019
3165 Clear 28 1017 33 10000 2.1 0 12:58 23.08.2019
3166 Clear 27 1017 33 10000 2.1 0 12:40 23.08.2019
3167 Clear 28 1017 37 10000 1.5 0 12:21 23.08.2019
3168 Clear 26 1017 39 10000 1 0 11:56 23.08.2019
3169 Clear 26 1017 39 10000 1 0 11:38 23.08.2019
3170 Clear 25 1017 44 10000 1 0 11:18 23.08.2019
3171 Clear 25 1017 44 10000 1 0 11:18 23.08.2019
3172 Clear 24 1017 53 10000 1.5 270 10:44 23.08.2019
3173 Clear 23 1016 61 10000 1 0 10:23 23.08.2019
3174 Clear 22 1016 78 10000 1 0 09:58 23.08.2019
3175 Clear 21 1016 78 10000 1 0 09:39 23.08.2019
3176 Clear 21 1016 78 10000 1 0 09:20 23.08.2019
3177 Clear 21 1016 78 10000 2.1 0 08:44 23.08.2019
3178 Clear 20 1015 83 10000 2.1 30 08:20 23.08.2019
3179 Clear 20 1015 83 10000 2.1 30 08:20 23.08.2019
3180 Clear 20 1015 73 10000 1.5 10 07:44 23.08.2019
3181 Clear 21 1015 49 10000 3.1 10 07:24 23.08.2019
3182 Clear 21 1015 49 10000 3.6 360 06:59 23.08.2019
3183 Clear 21 1015 49 10000 3.6 360 06:40 23.08.2019
3184 Clear 22 1015 47 10000 3.1 360 06:21 23.08.2019
3185 Clear 22 1015 44 10000 4.1 310 05:43 23.08.2019
3186 Clear 24 1015 44 10000 4.1 320 05:23 23.08.2019
3187 Clear 22 1015 47 10000 3.1 310 03:36 23.08.2019
3188 Clear 23 1015 47 10000 3.1 320 02:37 23.08.2019
3189 Clear 23 1015 47 10000 1.5 290 02:18 23.08.2019
3190 Clear 24 1016 41 10000 3.6 330 00:46 23.08.2019
3191 Clear 24 1015 39 10000 5.7 310 00:23 23.08.2019
3192 Clear 24 1015 39 10000 5.1 320 23:59 22.08.2019
3193 Clear 25 1015 39 10000 5.1 320 23:40 22.08.2019
3194 Clear 26 1015 42 10000 5.1 320 23:20 22.08.2019
3195 Clear 25 1015 42 10000 5.7 310 22:42 22.08.2019
3196 Clear 25 1015 42 10000 5.7 310 22:23 22.08.2019
3197 Clear 25 1015 37 10000 6.2 320 21:58 22.08.2019
3198 Clear 26 1015 35 10000 6.2 310 21:40 22.08.2019
3199 Clear 27 1015 35 10000 6.2 310 21:21 22.08.2019
3200 Clear 28 1015 35 10000 5.7 300 20:58 22.08.2019
3201 Clear 29 1015 35 10000 5.7 300 20:39 22.08.2019
3202 Clear 29 1015 35 10000 5.7 300 20:19 22.08.2019
3203 Clear 29 1015 31 10000 4.6 290 19:56 22.08.2019
3204 Clouds 31 1015 31 10000 5.1 270 19:38 22.08.2019
3205 Clear 31 1015 31 10000 4.6 290 19:38 22.08.2019
3206 Clouds 31 1015 31 10000 5.1 270 19:20 22.08.2019
3207 Clouds 31 1015 29 10000 5.7 260 18:57 22.08.2019
3208 Clouds 31 1015 29 10000 5.7 260 18:39 22.08.2019
3209 Clouds 31 1015 27 10000 5.1 230 18:18 22.08.2019
3210 Clouds 31 1015 26 10000 5.1 240 17:43 22.08.2019
3211 Clouds 30 1015 23 10000 2.1 0 17:24 22.08.2019
3212 Clouds 30 1016 24 10000 2.1 0 16:59 22.08.2019
3213 Clouds 31 1016 24 10000 2.1 0 16:40 22.08.2019
3214 Clouds 30 1016 24 10000 1.5 0 16:21 22.08.2019
3215 Clouds 30 1016 24 10000 1.5 0 16:21 22.08.2019
3216 Clouds 31 1016 25 10000 1.5 0 15:59 22.08.2019
3217 Clouds 31 1016 25 10000 1.5 0 15:40 22.08.2019
3218 Clouds 30 1016 25 10000 1.5 0 15:40 22.08.2019
3219 Clear 31 1016 29 10000 2.6 90 15:21 22.08.2019
3220 Clear 31 1016 29 10000 2.6 90 15:21 22.08.2019
3221 Clear 29 1017 31 10000 2.6 0 14:57 22.08.2019
3222 Clear 31 1017 31 10000 2.6 0 14:39 22.08.2019
3223 Clear 31 1017 33 10000 3.1 70 14:18 22.08.2019
3224 Clear 29 1017 35 10000 3.1 110 13:56 22.08.2019
3225 Clear 28 1017 35 10000 3.1 110 13:37 22.08.2019
3226 Clear 28 1017 34 10000 3.6 100 13:18 22.08.2019
3227 Clear 26 1017 41 10000 3.6 90 12:40 22.08.2019
3228 Clear 25 1017 47 10000 4.6 60 12:21 22.08.2019
3229 Clear 25 1017 47 10000 5.7 60 11:57 22.08.2019
3230 Clear 25 1017 47 10000 5.7 60 11:39 22.08.2019
3231 Clear 25 1017 50 10000 4.6 40 11:19 22.08.2019
3232 Clear 22 1017 60 10000 2.6 60 10:57 22.08.2019
3233 Clear 22 1017 60 10000 2.6 60 10:37 22.08.2019
3234 Clear 22 1017 68 10000 4.1 70 10:19 22.08.2019
3235 Clear 21 1016 77 10000 3.1 40 09:54 22.08.2019
3236 Clear 21 1016 77 10000 3.1 40 09:36 22.08.2019
3237 Clear 21 1016 77 10000 3.1 40 09:36 22.08.2019
3238 Clear 19 1016 77 10000 1.5 50 09:18 22.08.2019
3239 -273 0 0 0 0 0 08:40 22.08.2019
3240 Clear 20 1016 49 10000 1.5 10 08:21 22.08.2019
3241 Clear 20 1016 43 10000 2.1 350 07:43 22.08.2019
3242 Clear 20 1016 43 10000 2.1 350 07:24 22.08.2019
3243 Clear 20 1015 43 10000 2.6 330 06:59 22.08.2019
3244 Clear 20 1015 43 10000 2.6 330 06:59 22.08.2019
3245 Clear 19 1015 43 10000 2.6 330 06:41 22.08.2019
3246 Clear 20 1016 38 10000 3.1 320 06:19 22.08.2019
3247 Clear 20 1016 38 10000 2.6 300 04:42 22.08.2019
3248 Clear 22 1017 46 10000 3.6 320 03:20 22.08.2019
3249 Clear 20 1017 43 10000 3.1 320 02:35 22.08.2019
3250 Clear 20 1017 41 10000 2.1 320 01:30 22.08.2019
3251 Clear 21 1017 43 10000 5.52 1.641 00:50 22.08.2019
3252 Clear 22 1017 41 10000 1 0 00:30 22.08.2019
3253 Clear 23 1017 41 10000 4.6 300 23:59 21.08.2019
3254 Clear 23 1017 41 10000 4.6 300 23:39 21.08.2019
3255 Clear 23 1017 41 10000 6.2 320 23:21 21.08.2019
3256 Clear 23 1016 44 10000 7.7 330 22:57 21.08.2019
3257 Clear 23 1016 44 10000 7.7 330 22:39 21.08.2019
3258 Clear 24 1016 44 10000 7.2 320 22:20 21.08.2019
3259 Clear 24 1016 47 10000 6.2 320 21:55 21.08.2019
3260 Clear 24 1016 47 10000 6.2 320 21:55 21.08.2019
3261 Clear 24 1016 47 10000 6.2 320 21:37 21.08.2019
3262 Clear 24 1016 47 10000 6.2 320 21:37 21.08.2019
3263 Clear 24 1016 44 10000 6.7 310 21:18 21.08.2019
3264 Clear 26 1015 42 10000 6.7 310 20:44 21.08.2019
3265 Clear 26 1016 39 10000 6.7 310 20:25 21.08.2019
3266 Clear 29 1016 39 10000 5.7 300 20:00 21.08.2019
3267 Clear 29 1016 39 10000 5.7 300 19:41 21.08.2019
3268 Clear 30 1016 35 10000 5.7 300 19:23 21.08.2019
3269 Clear 31 1015 31 10000 5.1 310 18:56 21.08.2019
3270 Clear 31 1015 31 10000 5.1 310 18:56 21.08.2019
3271 Clear 31 1015 31 10000 5.1 310 18:38 21.08.2019
3272 Clear 29 1015 35 10000 5.1 290 18:20 21.08.2019
3273 Clear 31 1016 31 10000 3.1 140 17:44 21.08.2019
3274 Clear 31 1016 31 10000 3.1 140 17:22 21.08.2019
3275 Clear 31 1016 33 10000 3.6 0 16:57 21.08.2019
3276 Clear 31 1016 33 10000 3.6 0 16:39 21.08.2019
3277 Clear 31 1016 33 10000 2.6 0 16:18 21.08.2019
3278 Clear 30 1016 33 10000 1.5 0 15:56 21.08.2019
3279 Clear 30 1016 33 10000 1.5 0 15:38 21.08.2019
3280 Clear 29 1017 38 10000 2.6 130 15:19 21.08.2019
3281 Clear 29 1017 38 10000 2.6 130 15:19 21.08.2019
3282 Clear 29 1017 38 10000 2.6 130 15:19 21.08.2019
3283 Clear 28 1017 40 10000 3.1 0 14:55 21.08.2019
3284 Clear 28 1017 40 10000 3.1 0 14:37 21.08.2019
3285 Clear 27 1017 42 10000 2.1 100 14:18 21.08.2019
3286 Clear 26 1017 45 10000 2.1 0 13:43 21.08.2019
3287 Clear 26 1017 45 10000 2.1 0 13:20 21.08.2019
3288 Clear 25 1017 47 10000 2.6 0 12:58 21.08.2019
3289 Clear 25 1017 47 10000 2.6 0 12:40 21.08.2019
3290 Clear 25 1017 47 10000 2.6 0 12:40 21.08.2019
3291 Clear 24 1017 57 10000 3.6 330 12:20 21.08.2019
3292 Clear 23 1018 60 10000 3.1 300 11:54 21.08.2019
3293 Clear 23 1018 60 10000 3.1 300 11:36 21.08.2019
3294 Clouds 22 1017 68 10000 3.6 310 11:18 21.08.2019
3295 Mist 21 1017 73 10000 4.6 310 10:55 21.08.2019
3296 Mist 21 1017 73 10000 4.6 310 10:37 21.08.2019
3297 Mist 20 1017 77 10000 4.1 330 10:18 21.08.2019
3298 Mist 19 1017 82 10000 3.6 320 09:41 21.08.2019
3299 Clouds 18 1016 88 10000 4.6 310 09:22 21.08.2019
3300 Clear 18 1016 88 10000 3.1 320 08:55 21.08.2019
3301 Clear 18 1016 88 10000 3.1 320 08:37 21.08.2019
3302 Clear 18 1016 82 10000 5.1 330 08:18 21.08.2019
3303 Clear 19 1016 82 10000 5.7 310 07:38 21.08.2019
3304 Clear 19 1016 82 10000 6.2 310 07:19 21.08.2019
3305 Clear 19 1016 82 10000 6.2 310 06:46 21.08.2019
3306 Clear 19 1016 72 10000 5.7 310 06:20 21.08.2019
3307 Clear 19 1016 82 10000 6.7 310 05:30 21.08.2019
3308 Clear 19 1016 77 10000 6.7 310 04:58 21.08.2019
3309 Clear 19 1016 68 10000 5.7 310 02:45 21.08.2019
3310 Clear 20 1017 64 10000 5.1 320 01:38 21.08.2019
3311 Clear 19 1017 56 10000 6.2 320 00:43 21.08.2019
3312 Clear 19 1017 60 10000 7.2 320 00:22 21.08.2019
3313 Clear 20 1017 60 10000 6.7 320 23:55 20.08.2019
3314 Clear 20 1017 60 10000 6.7 320 23:36 20.08.2019
3315 Clear 20 1017 56 10000 7.2 320 23:18 20.08.2019
3316 Clear 20 1017 60 10000 5.7 320 22:54 20.08.2019
3317 Clear 20 1017 60 10000 6.2 310 22:36 20.08.2019
3318 Clear 20 1017 60 10000 6.2 310 22:18 20.08.2019
3319 Clear 21 1017 56 10000 7.2 310 21:56 20.08.2019
3320 Clear 21 1017 56 10000 7.2 310 21:37 20.08.2019
3321 Clear 22 1016 53 10000 6.7 310 21:18 20.08.2019
3322 Clear 23 1016 53 10000 7.2 320 20:42 20.08.2019
3323 Clear 24 1016 50 10000 7.2 310 20:23 20.08.2019
3324 Clear 24 1016 44 10000 6.7 310 19:41 20.08.2019
3325 Clear 26 1016 42 10000 6.7 320 19:22 20.08.2019
3326 Clear 26 1016 42 10000 6.2 320 18:59 20.08.2019
3327 Clear 27 1016 42 10000 6.2 320 18:41 20.08.2019
3328 Clear 27 1016 37 10000 4.6 300 18:20 20.08.2019
3329 Clear 27 1016 37 10000 4.6 300 17:59 20.08.2019
3330 Clear 27 1016 37 10000 5.1 300 17:39 20.08.2019
3331 Clear 27 1016 37 10000 5.1 300 17:20 20.08.2019
3332 Clear 27 1017 34 10000 4.1 300 16:47 20.08.2019
3333 Clear 27 1017 34 10000 4.1 300 16:28 20.08.2019
3334 Clear 27 1017 37 10000 4.1 310 15:59 20.08.2019
3335 Clear 27 1017 39 10000 4.1 310 15:40 20.08.2019
3336 Clear 26 1018 42 10000 4.6 320 15:18 20.08.2019
3337 Clear 26 1018 42 10000 4.6 320 14:44 20.08.2019
3338 Clear 24 1018 44 10000 5.1 330 14:22 20.08.2019
3339 Clear 26 1018 42 10000 4.6 320 14:22 20.08.2019
3340 Clear 24 1018 44 10000 5.1 330 13:59 20.08.2019
3341 Clear 24 1018 50 10000 5.1 310 13:40 20.08.2019
3342 Clear 24 1018 50 10000 6.7 330 13:21 20.08.2019
3343 Clear 23 1018 50 10000 6.7 330 12:55 20.08.2019
3344 Clear 23 1018 56 10000 7.7 340 12:36 20.08.2019
3345 Clear 22 1018 47 10000 3.6 350 12:18 20.08.2019
3346 Clear 21 1018 64 10000 5.7 320 11:42 20.08.2019
3347 Clouds 20 1018 72 10000 7.2 320 11:22 20.08.2019
3348 Clouds 19 1018 72 10000 7.2 320 10:58 20.08.2019
3349 Clouds 19 1018 77 10000 7.2 320 10:39 20.08.2019
3350 Clouds 19 1018 77 10000 7.2 320 10:39 20.08.2019
3351 Clouds 18 1018 77 10000 6.2 320 10:21 20.08.2019
3352 Clouds 18 1018 77 10000 6.2 320 09:58 20.08.2019
3353 Clouds 17 1018 82 10000 5.7 310 09:40 20.08.2019
3354 Clouds 17 1018 82 10000 5.7 310 09:21 20.08.2019
3355 Clouds 17 1018 82 10000 5.7 330 08:42 20.08.2019
3356 Clouds 17 1018 82 10000 5.7 330 08:24 20.08.2019
3357 Clouds 17 1018 82 10000 6.7 320 07:57 20.08.2019
3358 Clouds 17 1018 82 10000 6.7 320 07:57 20.08.2019
3359 Clouds 17 1018 82 10000 6.7 320 07:57 20.08.2019
3360 Clouds 17 1017 82 10000 6.7 330 07:38 20.08.2019
3361 Clouds 17 1017 82 10000 6.7 330 07:20 20.08.2019
3362 Clouds 17 1018 82 10000 8.2 330 06:44 20.08.2019
3363 Clouds 17 1018 82 10000 8.2 330 06:20 20.08.2019
3364 Clouds 17 1018 82 10000 9.3 340 05:42 20.08.2019
3365 Clouds 17 1018 82 10000 8.7 330 04:26 20.08.2019
3366 Clouds 18 1019 82 10000 7.7 330 02:51 20.08.2019
3367 Clouds 18 1019 82 10000 6.2 330 01:58 20.08.2019
3368 Clouds 18 1019 82 10000 5.1 330 01:21 20.08.2019
3369 Clouds 18 1019 72 10000 5.7 340 00:45 20.08.2019
3370 Clouds 18 1019 72 10000 5.7 340 00:25 20.08.2019
3371 Clouds 18 1019 72 10000 5.1 330 23:50 19.08.2019
3372 Clear 18 1019 68 10000 6.2 350 23:19 19.08.2019
3373 Clear 18 1019 68 10000 6.2 350 22:59 19.08.2019
3374 Clouds 18 1018 72 10000 7.7 340 22:41 19.08.2019
3375 Clouds 19 1018 63 10000 7.2 330 22:21 19.08.2019
3376 Clouds 19 1018 63 10000 7.2 330 21:58 19.08.2019
3377 Clouds 19 1018 63 10000 7.7 350 21:38 19.08.2019
3378 Clouds 19 1018 63 10000 7.7 350 21:20 19.08.2019
3379 Clouds 20 1018 63 10000 8.7 340 20:56 19.08.2019
3380 Clouds 21 1018 56 10000 6.2 340 20:37 19.08.2019
3381 Clouds 21 1018 56 10000 8.2 340 20:19 19.08.2019
3382 Clouds 21 1018 56 10000 8.2 340 19:55 19.08.2019
3383 Clouds 21 1018 56 10000 8.2 340 19:55 19.08.2019
3384 Clouds 21 1017 53 10000 8.2 340 19:36 19.08.2019
3385 Clear 22 1017 53 10000 7.7 310 19:18 19.08.2019
3386 Clear 22 1017 49 10000 8.2 320 18:41 19.08.2019
3387 Clear 22 1017 49 10000 8.2 320 18:23 19.08.2019
3388 Clear 22 1017 49 10000 8.2 320 17:57 19.08.2019
3389 Clear 23 1017 41 10000 8.2 330 17:38 19.08.2019
3390 Clear 23 1017 43 10000 8.7 330 17:19 19.08.2019
3391 Clear 23 1017 43 10000 8.7 330 16:56 19.08.2019
3392 Clear 23 1018 46 10000 7.2 310 16:37 19.08.2019
3393 Clear 23 1018 46 10000 7.2 310 16:18 19.08.2019
3394 Clear 23 1018 44 10000 7.7 320 15:45 19.08.2019
3395 Clear 24 1018 47 10000 6.2 310 15:20 19.08.2019
3396 Clear 24 1018 47 10000 6.2 320 14:56 19.08.2019
3397 Clear 24 1018 47 10000 6.2 320 14:37 19.08.2019
3398 Clear 24 1018 44 10000 5.1 310 14:19 19.08.2019
3399 Clear 23 1018 47 10000 5.7 330 13:56 19.08.2019
3400 Clear 23 1018 47 10000 5.7 330 13:36 19.08.2019
3401 Clouds 22 1018 49 10000 6.7 310 13:18 19.08.2019
3402 Clouds 22 1018 49 10000 6.2 330 12:43 19.08.2019
3403 Clouds 22 1018 49 10000 6.2 330 12:43 19.08.2019
3404 Clouds 21 1018 56 10000 6.2 330 12:23 19.08.2019
3405 Clouds 21 1018 60 10000 7.2 330 11:56 19.08.2019
3406 Clouds 21 1018 60 10000 7.2 330 11:36 19.08.2019
3407 Clouds 20 1018 64 10000 6.7 330 11:18 19.08.2019
3408 Clouds 19 1018 68 10000 7.7 340 10:40 19.08.2019
3409 Clouds 19 1017 72 10000 4.1 340 10:19 19.08.2019
3410 Clouds 19 1017 72 10000 4.1 340 10:19 19.08.2019
3411 Clouds 18 1017 77 10000 4.1 330 09:57 19.08.2019
3412 Clouds 18 1017 77 10000 4.1 330 09:39 19.08.2019
3413 Clouds 17 1017 82 10000 5.1 330 09:20 19.08.2019
3414 Clouds 17 1018 82 10000 4.1 330 08:46 19.08.2019
3415 Clouds 17 1017 87 10000 4.1 340 08:25 19.08.2019
3416 Clouds 17 1017 87 10000 4.1 350 07:59 19.08.2019
3417 Clouds 17 1017 87 10000 5.1 350 07:40 19.08.2019
3418 Clouds 17 1017 87 10000 5.1 350 07:21 19.08.2019
3419 Clouds 17 1018 77 10000 5.7 340 06:40 19.08.2019
3420 Clouds 18 1018 77 10000 6.7 330 05:54 19.08.2019
3421 Clear 18 1018 77 10000 4.1 350 04:35 19.08.2019
3422 Clouds 17 1018 77 10000 4.1 350 03:58 19.08.2019
3423 Clouds 18 1018 77 10000 7.2 340 03:18 19.08.2019
3424 Clouds 18 1019 82 10000 6.2 350 01:46 19.08.2019
3425 Clear 18 1019 72 10000 5.1 360 00:59 19.08.2019
3426 Clear 18 1019 72 10000 5.1 360 00:37 19.08.2019
3427 Clear 18 1019 72 10000 6.7 340 00:18 19.08.2019
3428 Clear 19 1019 72 10000 6.2 350 23:40 18.08.2019
3429 Clouds 19 1018 68 10000 6.2 340 23:20 18.08.2019
3430 Clouds 19 1018 68 10000 6.2 340 23:20 18.08.2019
3431 Clouds 19 1017 72 10000 5.7 340 22:40 18.08.2019
3432 Clouds 20 1017 72 10000 5.7 340 22:22 18.08.2019
3433 Clouds 20 1017 72 10000 4.6 340 21:58 18.08.2019
3434 Clouds 21 1017 72 10000 4.6 340 21:40 18.08.2019
3435 Clouds 22 1017 68 10000 7.2 330 21:20 18.08.2019
3436 Clouds 23 1016 69 10000 6.7 340 20:58 18.08.2019
3437 Clouds 23 1016 69 10000 6.7 340 20:40 18.08.2019
3438 Clouds 24 1016 69 10000 6.2 340 20:22 18.08.2019
3439 Clouds 24 1016 64 10000 6.2 330 19:42 18.08.2019
3440 Clouds 24 1016 69 10000 4.6 310 19:23 18.08.2019
3441 Clouds 25 1016 73 10000 7.2 340 18:59 18.08.2019
3442 Clouds 25 1016 73 10000 7.2 340 18:40 18.08.2019
3443 Clouds 25 1016 69 10000 3.6 290 18:21 18.08.2019
3444 Clouds 24 1016 73 10000 4.1 280 17:55 18.08.2019
3445 Clouds 24 1016 73 10000 4.1 280 17:37 18.08.2019
3446 Clouds 24 1016 69 10000 4.1 300 17:18 18.08.2019
3447 Clouds 24 1016 69 10000 5.1 310 16:55 18.08.2019
3448 Clouds 24 1016 69 10000 5.1 310 16:37 18.08.2019
3449 Rain 24 1017 61 10000 3.1 300 16:18 18.08.2019
3450 Clouds 24 1016 61 10000 3.6 290 15:40 18.08.2019
3451 Clouds 25 1017 65 10000 3.6 300 15:20 18.08.2019
3452 Clouds 25 1017 65 10000 4.1 310 14:58 18.08.2019
3453 Clouds 25 1017 65 10000 4.1 310 14:39 18.08.2019
3454 Clouds 25 1017 65 10000 4.1 300 14:19 18.08.2019
3455 Clouds 25 1017 57 10000 3.6 310 13:57 18.08.2019
3456 Clouds 25 1017 57 10000 3.6 310 13:39 18.08.2019
3457 Clouds 25 1017 65 10000 3.6 300 13:20 18.08.2019
3458 Clouds 25 1017 69 10000 3.1 280 12:54 18.08.2019
3459 Clouds 23 1017 69 10000 3.1 300 12:36 18.08.2019
3460 Clouds 23 1017 69 10000 3.1 300 12:18 18.08.2019
3461 Clouds 23 1017 78 10000 2.6 0 11:41 18.08.2019
3462 Clouds 22 1017 78 10000 1.5 310 11:22 18.08.2019
3463 Clouds 22 1017 83 10000 1.5 310 10:56 18.08.2019
3464 Clouds 22 1017 83 10000 1.5 310 10:38 18.08.2019
3465 Clouds 21 1016 88 10000 2.1 330 10:18 18.08.2019
3466 Clouds 21 1016 88 10000 0.5 0 09:42 18.08.2019
3467 Clouds 20 1016 94 10000 1.98 348.152 09:19 18.08.2019
3468 Clouds 19 1016 93 10000 1.98 348.152 08:43 18.08.2019
3469 Clouds 19 1016 93 10000 1.5 330 08:25 18.08.2019
3470 Clouds 19 1015 93 10000 1.5 290 07:53 18.08.2019
3471 Clouds 19 1015 93 10000 1.5 300 07:29 18.08.2019
3472 Clouds 19 1015 93 10000 3.1 340 06:19 18.08.2019
3473 Clouds 20 1015 93 10000 3.1 330 04:59 18.08.2019
3474 Clouds 20 1015 88 10000 4.1 330 03:51 18.08.2019
3475 Clouds 21 1015 88 10000 4.1 340 02:52 18.08.2019
3476 Clouds 21 1016 88 10000 3.6 340 02:32 18.08.2019
3477 Clouds 21 1016 88 10000 2.6 340 01:57 18.08.2019
3478 Clouds 21 1016 88 10000 3.1 340 01:26 18.08.2019
3479 Clouds 21 1016 88 10000 3.1 340 01:26 18.08.2019
3480 Clouds 21 1016 88 10000 4.6 330 00:41 18.08.2019
3481 Clear 21 1015 78 10000 3.6 340 00:20 18.08.2019
3482 Clouds 21 1016 88 10000 2.6 340 23:58 17.08.2019
3483 Clouds 21 1016 83 10000 4.6 340 23:38 17.08.2019
3484 Clouds 21 1016 88 10000 2.6 340 23:38 17.08.2019
3485 Clouds 21 1016 83 10000 4.6 340 23:19 17.08.2019
3486 Clouds 21 1015 83 10000 5.7 330 22:57 17.08.2019
3487 Clouds 21 1015 83 10000 5.7 330 22:39 17.08.2019
3488 Clouds 21 1015 83 10000 6.7 310 22:20 17.08.2019
3489 Clouds 21 1015 83 10000 6.7 310 22:20 17.08.2019
3490 Clouds 22 1015 78 10000 7.7 320 21:54 17.08.2019
3491 Clouds 23 1015 78 10000 7.2 310 21:36 17.08.2019
3492 Clouds 23 1015 78 10000 7.2 310 21:18 17.08.2019
3493 Clouds 25 1015 69 10000 7.7 320 20:38 17.08.2019
3494 Clouds 25 1015 69 10000 7.7 320 20:19 17.08.2019
3495 Clouds 25 1015 61 10000 7.7 320 19:43 17.08.2019
3496 Clouds 25 1015 57 10000 7.7 310 19:24 17.08.2019
3497 Clear 26 1015 57 10000 7.2 320 18:59 17.08.2019
3498 Clear 26 1015 57 10000 7.2 320 18:39 17.08.2019
3499 Clear 27 1015 54 10000 7.2 330 18:18 17.08.2019
3500 Clear 28 1015 51 10000 6.7 320 17:55 17.08.2019
3501 Clear 28 1015 51 10000 6.7 320 17:37 17.08.2019
3502 Clear 28 1015 51 10000 5.7 310 17:18 17.08.2019
3503 Clear 28 1015 48 10000 4.6 310 16:43 17.08.2019
3504 Clear 28 1015 48 10000 4.6 300 16:25 17.08.2019
3505 Clear 29 1015 48 10000 5.1 300 15:57 17.08.2019
3506 Clear 29 1015 48 10000 5.1 300 15:38 17.08.2019
3507 Clear 28 1015 42 10000 3.1 340 15:20 17.08.2019
3508 Clear 28 1015 42 10000 3.1 340 15:20 17.08.2019
3509 Clear 27 1016 45 10000 4.6 350 14:41 17.08.2019
3510 Clear 27 1016 48 10000 3.6 360 14:22 17.08.2019
3511 Clouds 26 1016 51 10000 4.6 330 13:47 17.08.2019
3512 Clouds 26 1017 61 10000 4.6 340 13:23 17.08.2019
3513 Clouds 24 1017 61 10000 4.6 340 12:58 17.08.2019
3514 Clouds 24 1017 61 10000 4.6 340 12:39 17.08.2019
3515 Clouds 23 1017 69 10000 5.7 340 12:19 17.08.2019
3516 Clouds 22 1017 69 10000 6.2 340 11:44 17.08.2019
3517 Clouds 22 1017 73 10000 4.1 340 11:21 17.08.2019
3518 Clouds 21 1017 77 10000 5.1 340 10:57 17.08.2019
3519 Clouds 21 1017 77 10000 5.1 340 10:39 17.08.2019
3520 Clouds 21 1017 77 10000 5.1 330 10:19 17.08.2019
3521 Clouds 20 1017 82 10000 6.2 340 09:48 17.08.2019
3522 Clouds 19 1017 88 10000 6.7 340 09:29 17.08.2019
3523 Clouds 19 1017 88 10000 4.6 330 08:54 17.08.2019
3524 Clouds 19 1017 88 10000 4.1 340 08:25 17.08.2019
3525 Clouds 19 1017 88 10000 2.1 350 07:51 17.08.2019
3526 Clouds 19 1017 88 10000 4.6 330 07:21 17.08.2019
3527 Clouds 19 1017 88 10000 5.1 340 06:53 17.08.2019
3528 Clouds 19 1017 88 10000 3.6 340 05:32 17.08.2019
3529 Clouds 19 1017 88 10000 5.1 340 04:29 17.08.2019
3530 Clouds 19 1018 88 10000 5.7 330 03:33 17.08.2019
3531 Clouds 19 1018 88 10000 4.6 340 01:47 17.08.2019
3532 Clouds 19 1018 88 10000 4.1 350 01:28 17.08.2019
3533 Clouds 19 1018 88 10000 3.1 0 00:55 17.08.2019
3534 Clouds 19 1018 88 10000 4.1 340 00:31 17.08.2019
3535 Clouds 19 1018 88 10000 3.6 320 23:52 16.08.2019
3536 Clouds 19 1018 88 10000 6.7 330 23:27 16.08.2019
3537 Clouds 20 1018 82 10000 9.3 310 22:57 16.08.2019
3538 Clouds 20 1018 82 10000 9.3 310 22:39 16.08.2019
3539 Clouds 20 1018 82 10000 6.2 320 22:19 16.08.2019
3540 Clouds 21 1017 77 10000 7.2 330 21:41 16.08.2019
3541 Clouds 22 1017 68 10000 8.7 330 21:20 16.08.2019
3542 Clouds 23 1017 64 10000 7.2 330 20:56 16.08.2019
3543 Clouds 23 1017 64 10000 7.2 330 20:38 16.08.2019
3544 Clouds 23 1017 60 10000 7.2 330 20:18 16.08.2019
3545 Clouds 25 1017 50 10000 7.2 330 19:44 16.08.2019
3546 Clear 25 1017 51 10000 6.2 330 19:23 16.08.2019
3547 Clear 25 1017 47 10000 6.2 310 18:55 16.08.2019
3548 Clear 25 1017 51 10000 6.7 320 18:36 16.08.2019
3549 Clear 25 1017 51 10000 6.7 320 18:18 16.08.2019
3550 Clear 26 1017 51 10000 7.7 320 17:43 16.08.2019
3551 Clear 26 1018 45 10000 8.7 320 17:24 16.08.2019
3552 Clear 26 1018 48 10000 8.7 330 16:56 16.08.2019
3553 Clear 26 1018 48 10000 8.7 330 16:37 16.08.2019
3554 Clear 26 1018 45 10000 8.7 330 16:18 16.08.2019
3555 Clear 26 1018 51 10000 8.7 330 15:41 16.08.2019
3556 Clear 26 1018 48 10000 9.8 330 15:22 16.08.2019
3557 Clear 26 1018 48 10000 7.2 320 14:58 16.08.2019
3558 Clear 26 1018 48 10000 7.2 320 14:40 16.08.2019
3559 Clear 26 1018 51 10000 7.2 330 14:19 16.08.2019
3560 Clear 25 1019 51 10000 8.2 340 13:58 16.08.2019
3561 Clear 25 1019 51 10000 8.2 340 13:38 16.08.2019
3562 Clouds 25 1019 54 10000 5.7 330 13:19 16.08.2019
3563 Clouds 25 1019 64 10000 6.2 320 12:39 16.08.2019
3564 Clouds 23 1019 64 10000 9.3 330 12:20 16.08.2019
3565 Clouds 23 1019 68 10000 8.2 330 11:43 16.08.2019
3566 Clouds 22 1019 68 10000 6.7 330 11:24 16.08.2019
3567 Clouds 21 1019 73 10000 7.7 330 10:55 16.08.2019
3568 Clouds 21 1019 73 10000 7.7 330 10:55 16.08.2019
3569 Clouds 21 1019 73 10000 7.7 330 10:36 16.08.2019
3570 Clouds 20 1019 77 10000 3.1 320 10:18 16.08.2019
3571 Clouds 19 1019 82 10000 4.1 320 09:38 16.08.2019
3572 Clouds 19 1019 82 10000 2.6 0 09:19 16.08.2019
3573 Clouds 19 1019 88 10000 3.6 310 08:56 16.08.2019
3574 Clouds 19 1019 88 10000 3.6 310 08:38 16.08.2019
3575 Clouds 19 1018 88 10000 2.1 300 08:19 16.08.2019
3576 Clouds 19 1018 88 10000 3.1 330 07:44 16.08.2019
3577 Clouds 19 1018 88 10000 1.5 0 07:25 16.08.2019
3578 Clouds 19 1018 93 10000 3.1 360 06:38 16.08.2019
3579 Clouds 19 1018 82 10000 3.1 350 05:58 16.08.2019
3580 Clouds 19 1018 82 10000 2.1 10 05:33 16.08.2019
3581 Clouds 20 1019 82 10000 7.7 340 03:19 16.08.2019
3582 Clear 20 1019 77 10000 8.2 340 01:50 16.08.2019
3583 Clear 21 1019 77 10000 7.7 340 01:25 16.08.2019
3584 Clear 21 1019 73 10000 5.7 360 00:48 16.08.2019
3585 Clear 21 1019 73 10000 5.7 350 00:23 16.08.2019
3586 Clear 21 1019 73 10000 6.7 340 23:55 15.08.2019
3587 Clear 21 1019 68 10000 6.2 340 23:37 15.08.2019
3588 Clear 21 1019 68 10000 6.2 340 23:18 15.08.2019
3589 Clear 22 1019 68 10000 4.1 330 22:41 15.08.2019
3590 Clear 22 1018 68 10000 5.7 340 22:22 15.08.2019
3591 Clear 23 1018 64 10000 6.2 340 21:58 15.08.2019
3592 Clear 24 1018 64 10000 6.2 340 21:39 15.08.2019
3593 Clear 23 1018 64 10000 7.7 340 21:19 15.08.2019
3594 Clouds 24 1018 57 10000 8.7 330 20:56 15.08.2019
3595 Clouds 25 1018 57 10000 8.7 330 20:38 15.08.2019
3596 Clouds 25 1018 54 10000 10.8 330 20:19 15.08.2019
3597 Clear 26 1018 47 10000 11.3 330 19:39 15.08.2019
3598 Clear 27 1018 45 10000 9.8 330 19:21 15.08.2019
3599 Clear 26 1018 42 10000 10.8 340 18:49 15.08.2019
3600 Clear 28 1018 39 10000 9.8 340 18:25 15.08.2019
3601 Clear 29 1018 37 10000 8.2 330 17:59 15.08.2019
3602 Clear 29 1018 37 10000 8.2 330 17:39 15.08.2019
3603 Clear 30 1018 37 10000 8.2 330 17:20 15.08.2019
3604 Clear 30 1018 33 10000 7.2 330 16:59 15.08.2019
3605 Clear 30 1018 33 10000 7.2 330 16:41 15.08.2019
3606 Clear 29 1018 29 10000 7.2 320 16:23 15.08.2019
3607 Clear 29 1018 29 10000 6.7 340 15:55 15.08.2019
3608 Clear 29 1018 29 10000 6.7 340 15:36 15.08.2019
3609 Clear 28 1019 25 10000 6.2 330 15:18 15.08.2019
3610 Clear 27 1019 28 10000 5.7 330 14:41 15.08.2019
3611 Clear 27 1019 30 10000 5.7 340 14:22 15.08.2019
3612 Clear 27 1019 32 10000 6.7 320 13:57 15.08.2019
3613 Clear 27 1019 32 10000 6.7 320 13:39 15.08.2019
3614 Clear 27 1019 28 10000 5.1 360 13:20 15.08.2019
3615 Clear 27 1019 32 10000 4.1 340 12:55 15.08.2019
3616 Clear 26 1019 34 10000 5.7 330 12:36 15.08.2019
3617 Clear 25 1019 34 10000 5.7 330 12:18 15.08.2019
3618 Clear 24 1019 39 10000 5.1 360 11:40 15.08.2019
3619 Clear 23 1019 50 10000 6.7 340 11:21 15.08.2019
3620 Clouds 23 1019 53 10000 5.7 350 10:59 15.08.2019
3621 Clouds 22 1019 53 10000 5.7 350 10:38 15.08.2019
3622 Clouds 22 1019 60 10000 5.1 330 10:20 15.08.2019
3623 Clouds 21 1019 64 10000 3.6 340 09:45 15.08.2019
3624 Clouds 20 1019 72 10000 3.1 340 09:23 15.08.2019
3625 Clouds 19 1019 77 10000 4.1 340 08:56 15.08.2019
3626 Clouds 19 1019 77 10000 4.1 340 08:36 15.08.2019
3627 Clouds 19 1019 77 10000 4.6 350 08:18 15.08.2019
3628 Clear 20 1019 72 10000 4.6 350 07:42 15.08.2019
3629 Clear 20 1019 72 10000 3.1 360 07:23 15.08.2019
3630 Clear 20 1019 72 10000 3.1 360 07:23 15.08.2019
3631 Clear 20 1019 77 10000 5.7 350 06:53 15.08.2019
3632 Clear 20 1019 77 10000 6.7 340 06:32 15.08.2019
3633 Clear 20 1019 77 10000 5.7 340 05:48 15.08.2019
3634 Clear 20 1019 77 10000 5.1 330 05:28 15.08.2019
3635 Clouds 20 1019 93 10000 6.7 340 04:34 15.08.2019
3636 Clouds 20 1019 93 10000 7.2 330 03:45 15.08.2019
3637 Clouds 20 1020 88 10000 7.2 340 02:45 15.08.2019
3638 Clouds 20 1020 88 10000 6.2 330 01:52 15.08.2019
3639 Clouds 20 1020 88 10000 6.2 330 01:31 15.08.2019
3640 Clouds 20 1020 88 10000 8.7 330 00:41 15.08.2019
3641 Clouds 20 1020 88 10000 6.7 320 00:21 15.08.2019
3642 Clouds 21 1020 83 10000 9.8 330 23:58 14.08.2019
3643 Clouds 21 1020 83 10000 9.8 330 23:38 14.08.2019
3644 Clouds 21 1020 83 10000 9.8 330 23:38 14.08.2019
3645 Clouds 21 1020 83 10000 8.7 330 23:19 14.08.2019
3646 Clouds 21 1020 83 10000 6.7 330 22:57 14.08.2019
3647 Clouds 21 1020 83 10000 6.7 330 22:39 14.08.2019
3648 Clouds 21 1019 77 10000 6.7 330 22:20 14.08.2019
3649 Clouds 22 1019 73 10000 7.2 330 21:56 14.08.2019
3650 Clouds 23 1019 69 10000 8.2 330 21:37 14.08.2019
3651 Clouds 23 1019 69 10000 8.2 330 21:18 14.08.2019
3652 Clouds 24 1019 65 10000 7.2 330 20:42 14.08.2019
3653 Clouds 24 1019 61 10000 8.2 340 20:22 14.08.2019
3654 Clouds 25 1019 57 10000 9.3 330 19:59 14.08.2019
3655 Clouds 24 1019 57 10000 9.3 330 19:39 14.08.2019
3656 Clouds 27 1019 51 10000 8.7 340 19:21 14.08.2019
3657 Clouds 27 1019 51 10000 8.2 330 18:57 14.08.2019
3658 Clouds 27 1019 61 10000 11.3 360 18:38 14.08.2019
3659 Clouds 28 1019 48 10000 9.3 340 18:20 14.08.2019
3660 Clouds 29 1019 42 10000 8.2 340 17:56 14.08.2019
3661 Clouds 29 1019 42 10000 8.2 340 17:37 14.08.2019
3662 Clouds 29 1019 39 10000 6.7 340 17:19 14.08.2019
3663 Clouds 29 1019 30 10000 7.2 330 16:54 14.08.2019
3664 Clouds 29 1019 30 10000 7.2 330 16:36 14.08.2019
3665 Clear 29 1019 32 10000 7.7 360 16:18 14.08.2019
3666 Clear 29 1020 32 10000 6.7 340 15:42 14.08.2019
3667 Clear 28 1020 32 10000 7.2 350 15:18 14.08.2019
3668 Clear 28 1020 32 10000 6.7 330 14:54 14.08.2019
3669 Clear 28 1020 32 10000 5.7 350 14:36 14.08.2019
3670 Clear 28 1020 32 10000 5.7 350 14:18 14.08.2019
3671 Clear 27 1020 32 10000 6.2 340 13:43 14.08.2019
3672 Clear 27 1020 32 10000 5.7 340 13:23 14.08.2019
3673 Clear 26 1020 36 10000 4.6 350 12:56 14.08.2019
3674 Clear 26 1020 36 10000 4.6 350 12:38 14.08.2019
3675 Clear 26 1020 39 10000 5.7 350 12:20 14.08.2019
3676 Clear 23 1020 41 10000 5.7 350 11:48 14.08.2019
3677 Clear 22 1020 46 10000 5.7 350 11:23 14.08.2019
3678 Clear 22 1020 46 10000 5.7 350 11:23 14.08.2019
3679 Clear 21 1020 49 10000 5.1 350 10:59 14.08.2019
3680 Clear 21 1020 49 10000 5.1 350 10:40 14.08.2019
3681 Clouds 19 1020 56 10000 5.1 350 10:22 14.08.2019
3682 Clouds 19 1020 64 10000 5.1 360 09:55 14.08.2019
3683 Clouds 19 1020 64 10000 5.1 360 09:36 14.08.2019
3684 Clouds 17 1020 72 10000 5.7 350 09:18 14.08.2019
3685 Clouds 17 1020 72 10000 7.7 340 08:36 14.08.2019
3686 Clear 17 1020 77 10000 7.2 340 08:18 14.08.2019
3687 Clear 18 1019 72 10000 5.7 330 07:45 14.08.2019
3688 Clear 18 1019 77 10000 5.1 330 07:27 14.08.2019
3689 Clear 18 1019 77 10000 4.1 330 06:44 14.08.2019
3690 Clear 18 1020 72 10000 4.6 330 05:48 14.08.2019
3691 Clear 18 1020 77 10000 4.6 340 04:45 14.08.2019
3692 Clear 18 1020 67 10000 5.1 350 02:56 14.08.2019
3693 Clear 18 1020 72 10000 4.6 40 02:26 14.08.2019
3694 Clear 18 1020 63 10000 6.2 340 01:38 14.08.2019
3695 Clear 19 1020 63 10000 7.2 330 00:54 14.08.2019
3696 Clear 18 1020 63 10000 9.8 330 23:50 13.08.2019
3697 Clear 18 1020 63 10000 7.7 330 23:25 13.08.2019
3698 Clear 18 1019 63 10000 5.7 340 22:58 13.08.2019
3699 Clear 18 1019 63 10000 5.7 340 22:39 13.08.2019
3700 Clear 18 1019 63 10000 5.7 340 22:39 13.08.2019
3701 Clear 19 1019 63 10000 6.7 320 22:21 13.08.2019
3702 Clear 19 1019 56 10000 10.8 330 21:58 13.08.2019
3703 Clear 20 1019 56 10000 10.8 330 21:37 13.08.2019
3704 Clear 20 1019 52 10000 9.3 330 21:19 13.08.2019
3705 Clear 22 1019 49 10000 7.2 320 20:56 13.08.2019
3706 Clear 22 1019 49 10000 7.2 320 20:36 13.08.2019
3707 Clear 22 1019 43 10000 9.3 330 20:18 13.08.2019
3708 Clear 23 1019 41 10000 7.2 320 19:42 13.08.2019
3709 Clear 24 1019 38 10000 7.7 330 19:21 13.08.2019
3710 Clear 25 1019 41 10000 6.7 310 18:56 13.08.2019
3711 Clear 25 1019 41 10000 6.7 310 18:37 13.08.2019
3712 Clear 25 1019 41 10000 7.7 330 18:18 13.08.2019
3713 Clear 24 1019 39 10000 7.7 320 17:41 13.08.2019
3714 Clear 25 1019 36 10000 7.7 320 17:21 13.08.2019
3715 Clear 25 1019 34 10000 6.7 320 16:56 13.08.2019
3716 Clear 25 1019 34 10000 6.7 320 16:38 13.08.2019
3717 Clear 25 1019 32 10000 7.2 330 16:20 13.08.2019
3718 Clear 25 1019 36 10000 7.2 330 15:40 13.08.2019
3719 Clear 25 1020 36 10000 6.7 330 15:21 13.08.2019
3720 Clear 25 1020 34 10000 7.2 330 14:59 13.08.2019
3721 Clear 25 1020 34 10000 7.2 330 14:40 13.08.2019
3722 Clear 24 1020 36 10000 6.7 360 14:19 13.08.2019
3723 Clear 25 1020 38 10000 7.7 340 13:55 13.08.2019
3724 Clear 25 1020 38 10000 7.7 340 13:37 13.08.2019
3725 Clear 24 1020 41 10000 5.1 330 13:18 13.08.2019
3726 Clear 24 1020 50 10000 6.2 330 12:41 13.08.2019
3727 Clear 22 1020 49 10000 9.3 340 12:23 13.08.2019
3728 Clouds 21 1020 53 10000 8.2 330 11:59 13.08.2019
3729 Clouds 21 1020 53 10000 8.2 330 11:40 13.08.2019
3730 Clouds 21 1020 56 10000 5.7 330 11:21 13.08.2019
3731 Clouds 21 1020 56 10000 5.7 330 11:21 13.08.2019
3732 Clouds 20 1020 68 10000 5.7 330 10:56 13.08.2019
3733 Clouds 20 1020 68 10000 5.7 330 10:37 13.08.2019
3734 Clouds 19 1020 72 10000 7.7 330 10:19 13.08.2019
3735 Clouds 18 1020 72 10000 8.2 330 09:44 13.08.2019
3736 Clouds 17 1020 82 10000 5.7 330 09:23 13.08.2019
3737 Clouds 17 1020 82 10000 5.7 330 09:23 13.08.2019
3738 Clouds 17 1019 82 10000 6.7 320 08:44 13.08.2019
3739 Clouds 17 1019 77 10000 6.2 320 08:23 13.08.2019
3740 Clear 17 1019 77 10000 5.7 330 07:58 13.08.2019
3741 Clear 17 1019 77 10000 5.7 330 07:58 13.08.2019
3742 Clear 16 1019 77 10000 5.7 330 07:38 13.08.2019
3743 Clear 16 1019 77 10000 5.7 330 07:38 13.08.2019
3744 Clear 17 1019 77 10000 6.7 320 07:19 13.08.2019
3745 Clear 17 1018 77 10000 5.7 330 06:41 13.08.2019
3746 Clear 17 1019 77 10000 6.7 330 05:46 13.08.2019
3747 Clear 17 1020 77 10000 9.8 330 03:45 13.08.2019
3748 Clear 17 1020 77 10000 6.7 330 02:22 13.08.2019
3749 Clear 18 1020 77 10000 9.3 330 01:26 13.08.2019
3750 Clear 18 1020 77 10000 7.7 330 00:47 13.08.2019
3751 Clear 18 1020 77 10000 9.3 330 00:18 13.08.2019
3752 Clear 18 1020 72 10000 9.8 330 23:41 12.08.2019
3753 Clear 18 1020 68 10000 11.3 330 23:20 12.08.2019
3754 Clear 18 1020 63 10000 7.2 320 22:40 12.08.2019
3755 Clear 19 1019 59 10000 7.7 320 22:20 12.08.2019
3756 Clear 19 1019 52 10000 7.2 320 21:57 12.08.2019
3757 Clear 20 1019 52 10000 7.2 320 21:38 12.08.2019
3758 Clear 20 1019 49 10000 8.2 320 21:19 12.08.2019
3759 Clear 21 1019 46 10000 9.3 330 20:58 12.08.2019
3760 Clear 21 1019 46 10000 9.3 330 20:58 12.08.2019
3761 Clear 21 1019 46 10000 9.3 330 20:39 12.08.2019
3762 Clear 22 1019 43 10000 7.7 320 20:20 12.08.2019
3763 Clear 22 1019 43 10000 7.7 320 19:56 12.08.2019
3764 Clear 22 1019 43 10000 7.7 320 19:38 12.08.2019
3765 Clear 23 1019 38 10000 9.3 320 19:19 12.08.2019
3766 Clear 24 1019 36 10000 8.7 340 18:56 12.08.2019
3767 Clear 24 1019 36 10000 8.7 340 18:37 12.08.2019
3768 Clear 23 1019 38 10000 10.3 330 18:19 12.08.2019
3769 Clear 24 1019 33 10000 8.7 340 17:47 12.08.2019
3770 Clear 24 1019 33 10000 9.3 330 17:28 12.08.2019
3771 Clear 25 1019 34 10000 8.7 340 16:58 12.08.2019
3772 Clear 25 1019 34 10000 8.7 340 16:39 12.08.2019
3773 Clear 25 1020 36 10000 8.2 330 16:20 12.08.2019
3774 -273 0 0 0 0 0 16:20 12.08.2019
3775 Clear 25 1020 31 10000 7.2 350 15:59 12.08.2019
3776 Clear 25 1020 31 10000 7.2 350 15:41 12.08.2019
3777 Clear 25 1020 31 10000 7.2 350 15:41 12.08.2019
3778 Clear 25 1020 33 10000 8.2 340 15:21 12.08.2019
3779 -273 0 0 0 0 0 14:57 12.08.2019
3780 Clear 25 1020 33 10000 7.7 360 14:57 12.08.2019
3781 Clear 25 1020 33 10000 7.7 360 14:39 12.08.2019
3782 Clear 24 1021 36 10000 8.2 360 14:20 12.08.2019
3783 Clear 24 1021 36 10000 8.2 360 14:20 12.08.2019
3784 Clear 24 1021 38 10000 9.8 360 13:47 12.08.2019
3785 Clear 24 1021 38 10000 9.8 360 13:47 12.08.2019
3786 Clear 23 1021 36 10000 9.8 350 13:24 12.08.2019
3787 Clear 23 1022 43 10000 8.2 360 12:59 12.08.2019
3788 Clear 22 1022 43 10000 8.2 360 12:41 12.08.2019
3789 Clouds 22 1022 49 10000 6.7 360 12:18 12.08.2019
3790 -273 0 0 0 0 0 11:43 12.08.2019
3791 Clouds 21 1022 56 10000 7.7 350 11:43 12.08.2019
3792 Clouds 20 1022 52 10000 8.2 360 11:25 12.08.2019
3793 Clouds 19 1022 64 10000 6.7 340 10:43 12.08.2019
3794 Clouds 18 1022 68 10000 7.2 340 10:23 12.08.2019
3795 Clouds 18 1022 72 10000 5.1 350 09:57 12.08.2019
3796 Clouds 18 1022 72 10000 5.1 350 09:38 12.08.2019
3797 Clouds 17 1021 77 10000 7.2 330 09:20 12.08.2019
3798 Clouds 17 1021 82 10000 7.2 330 08:58 12.08.2019
3799 Clouds 16 1021 82 10000 7.2 330 08:39 12.08.2019
3800 Clouds 16 1020 82 10000 6.2 330 08:21 12.08.2019
3801 Clouds 16 1020 82 10000 8.2 330 07:53 12.08.2019
3802 Clear 16 1020 82 10000 7.7 330 07:33 12.08.2019
3803 Clear 16 1020 82 10000 6.7 330 06:52 12.08.2019
3804 Clouds 17 1021 87 10000 4.1 360 05:41 12.08.2019
3805 Clouds 17 1022 82 10000 4.1 340 03:25 12.08.2019
3806 Clouds 17 1023 82 10000 5.1 330 02:41 12.08.2019
3807 Clouds 18 1023 82 10000 4.1 330 01:22 12.08.2019
3808 Clouds 18 1023 82 10000 5.1 340 00:58 12.08.2019
3809 Clouds 18 1023 82 10000 5.1 340 00:58 12.08.2019
3810 Clouds 18 1023 82 10000 5.1 340 00:58 12.08.2019
3811 Clouds 18 1023 82 10000 5.1 340 00:40 12.08.2019
3812 Clouds 18 1023 82 10000 5.1 340 00:40 12.08.2019
3813 Clouds 18 1023 77 10000 5.7 330 00:20 12.08.2019
3814 Clouds 18 1023 72 10000 6.2 330 23:57 11.08.2019
3815 Clouds 19 1023 72 10000 6.2 330 23:38 11.08.2019
3816 Clouds 19 1022 72 10000 6.7 330 23:19 11.08.2019
3817 Clouds 19 1022 72 10000 6.2 330 22:55 11.08.2019
3818 Clouds 19 1022 72 10000 6.2 330 22:36 11.08.2019
3819 Clouds 19 1022 68 10000 6.7 330 22:18 11.08.2019
3820 Clouds 19 1022 64 10000 6.7 330 21:54 11.08.2019
3821 Clouds 20 1022 64 10000 6.7 330 21:36 11.08.2019
3822 Clouds 20 1021 56 10000 6.7 330 21:18 11.08.2019
3823 Clouds 21 1021 56 10000 6.2 330 20:41 11.08.2019
3824 Clouds 22 1021 53 10000 8.7 340 20:22 11.08.2019
3825 Clouds 22 1021 46 10000 7.7 330 19:45 11.08.2019
3826 Clouds 23 1021 49 10000 7.7 320 19:22 11.08.2019
3827 Clouds 23 1021 46 10000 6.7 320 18:58 11.08.2019
3828 Clouds 23 1021 46 10000 6.7 320 18:38 11.08.2019
3829 Clouds 23 1021 41 10000 8.2 320 18:19 11.08.2019
3830 Clouds 24 1021 38 10000 7.2 310 17:42 11.08.2019
3831 Clouds 23 1021 40 10000 7.2 310 17:20 11.08.2019
3832 Clouds 23 1021 41 10000 7.7 320 16:59 11.08.2019
3833 Clouds 23 1021 41 10000 7.7 320 16:40 11.08.2019
3834 Clouds 23 1021 47 10000 8.2 330 16:22 11.08.2019
3835 Clouds 23 1021 44 10000 7.2 330 15:57 11.08.2019
3836 Clouds 23 1021 44 10000 7.2 330 15:38 11.08.2019
3837 Clouds 23 1021 46 10000 6.7 320 15:20 11.08.2019
3838 Clouds 23 1022 47 10000 7.2 340 14:54 11.08.2019
3839 Clouds 23 1022 47 10000 7.2 340 14:36 11.08.2019
3840 Clouds 22 1022 49 10000 7.7 340 14:18 11.08.2019
3841 Clouds 22 1022 56 10000 5.7 320 13:41 11.08.2019
3842 Clouds 22 1022 56 10000 7.7 330 13:22 11.08.2019
3843 Clouds 21 1022 56 10000 6.2 330 12:41 11.08.2019
3844 Clouds 21 1022 56 10000 6.7 340 12:22 11.08.2019
3845 Clouds 21 1022 60 10000 5.7 330 11:41 11.08.2019
3846 Clouds 20 1022 72 10000 4.6 340 11:23 11.08.2019
3847 Clouds 20 1022 77 10000 4.6 340 10:57 11.08.2019
3848 Clouds 19 1022 77 10000 4.6 340 10:39 11.08.2019
3849 Clouds 19 1022 82 10000 3.6 330 10:20 11.08.2019
3850 Clouds 18 1021 82 10000 4.1 330 09:55 11.08.2019
3851 Clouds 18 1021 82 10000 4.1 330 09:37 11.08.2019
3852 Clouds 18 1021 88 10000 3.6 330 09:18 11.08.2019
3853 Clouds 17 1021 88 10000 2.1 310 08:41 11.08.2019
3854 Clouds 17 1021 88 10000 2.1 310 08:23 11.08.2019
3855 Clouds 17 1021 88 10000 2.1 320 07:47 11.08.2019
3856 Clouds 17 1020 88 10000 2.1 300 07:20 11.08.2019
3857 Clouds 17 1020 87 10000 1.5 300 06:38 11.08.2019
3858 Clouds 17 1021 82 10000 3.1 330 05:34 11.08.2019
3859 Clouds 18 1021 88 10000 2.1 330 03:36 11.08.2019
3860 Clouds 18 1021 88 10000 3.6 330 02:45 11.08.2019
3861 Rain 18 1021 88 10000 2.6 330 01:35 11.08.2019
3862 Clouds 19 1021 88 10000 2.1 340 00:59 11.08.2019
3863 Clouds 19 1021 88 10000 2.1 340 00:40 11.08.2019
3864 Rain 19 1021 88 10000 4.1 350 00:22 11.08.2019
3865 Rain 19 1021 77 10000 5.1 330 23:39 10.08.2019
3866 Rain 19 1021 72 10000 4.6 330 23:20 10.08.2019
3867 Clear 20 1020 72 10000 5.7 340 22:43 10.08.2019
3868 Clouds 20 1021 72 10000 4.6 330 22:24 10.08.2019
3869 Clouds 20 1020 68 10000 6.7 330 21:57 10.08.2019
3870 Clouds 20 1020 68 10000 6.7 330 21:38 10.08.2019
3871 Clouds 21 1020 68 10000 6.2 330 21:18 10.08.2019
3872 Clouds 21 1020 60 10000 6.2 320 20:42 10.08.2019
3873 Clear 21 1020 56 10000 6.2 320 20:21 10.08.2019
3874 Clouds 22 1020 53 10000 7.7 330 19:57 10.08.2019
3875 Clouds 22 1020 53 10000 7.7 330 19:38 10.08.2019
3876 Clouds 22 1020 46 10000 5.7 320 19:19 10.08.2019
3877 Clear 23 1020 46 10000 6.2 310 18:39 10.08.2019
3878 Clear 23 1020 44 10000 6.7 320 18:21 10.08.2019
3879 Clear 24 1020 41 10000 5.1 310 17:44 10.08.2019
3880 Clouds 24 1020 44 10000 4.6 310 17:25 10.08.2019
3881 Clouds 25 1020 44 10000 4.6 330 16:47 10.08.2019
3882 Clouds 25 1020 44 10000 4.1 310 16:28 10.08.2019
3883 Clouds 25 1020 47 10000 3.6 10 15:55 10.08.2019
3884 Clouds 25 1021 47 10000 2.6 320 15:26 10.08.2019
3885 Clouds 24 1021 47 10000 2.6 360 14:45 10.08.2019
3886 Clouds 24 1021 47 10000 2.6 360 14:45 10.08.2019
3887 Clouds 24 1021 53 10000 2.6 0 14:23 10.08.2019
3888 Clouds 24 1021 53 10000 3.1 0 13:59 10.08.2019
3889 Clouds 24 1021 53 10000 3.1 0 13:39 10.08.2019
3890 Clouds 24 1021 56 10000 3.6 320 13:18 10.08.2019
3891 Clouds 23 1021 56 10000 3.6 350 12:42 10.08.2019
3892 Clouds 22 1022 64 10000 4.1 340 12:22 10.08.2019
3893 Clouds 22 1021 64 10000 5.1 360 11:57 10.08.2019
3894 Clouds 22 1021 64 10000 5.1 360 11:38 10.08.2019
3895 Clouds 22 1021 73 10000 4.1 330 11:20 10.08.2019
3896 Clouds 21 1021 82 10000 3.6 330 10:39 10.08.2019
3897 Clouds 20 1021 82 10000 4.6 350 10:20 10.08.2019
3898 Clouds 20 1021 88 10000 2.6 360 09:59 10.08.2019
3899 Clouds 19 1021 88 10000 2.6 360 09:38 10.08.2019
3900 Clouds 18 1021 93 10000 1.5 340 09:20 10.08.2019
3901 Clouds 18 1021 88 10000 1 0 08:38 10.08.2019
3902 Clouds 18 1021 93 10000 1.5 310 08:19 10.08.2019
3903 Clouds 18 1020 93 10000 1 0 07:51 10.08.2019
3904 Clouds 17 1020 93 10000 1.5 290 07:27 10.08.2019
3905 Clouds 18 1020 93 10000 2.1 280 06:48 10.08.2019
3906 Clouds 18 1020 88 10000 1.5 290 06:21 10.08.2019
3907 Clouds 18 1020 88 10000 2.6 330 05:24 10.08.2019
3908 Clouds 18 1020 88 10000 2.1 310 04:21 10.08.2019
3909 Clear 19 1021 93 10000 3.6 320 02:53 10.08.2019
3910 Clear 19 1021 88 10000 3.6 320 01:57 10.08.2019
3911 Clear 19 1021 88 10000 3.6 320 01:39 10.08.2019
3912 Clear 19 1020 88 10000 5.1 300 01:20 10.08.2019
3913 Clear 19 1020 88 10000 4.6 300 00:43 10.08.2019
3914 Clear 20 1020 82 10000 4.1 300 00:21 10.08.2019
3915 Clear 20 1020 82 10000 4.1 300 23:42 09.08.2019
3916 Clouds 20 1020 88 10000 4.6 300 23:22 09.08.2019
3917 Clouds 20 1019 88 10000 4.1 300 22:56 09.08.2019
3918 Clouds 20 1019 88 10000 4.1 300 22:38 09.08.2019
3919 Clouds 21 1019 77 10000 4.1 300 22:19 09.08.2019
3920 Clouds 21 1019 77 10000 3.6 300 21:41 09.08.2019
3921 Clouds 21 1019 77 10000 3.6 300 21:41 09.08.2019
3922 Clouds 22 1019 68 10000 5.1 300 21:23 09.08.2019
3923 Clouds 22 1019 68 10000 5.1 300 20:59 09.08.2019
3924 Clouds 22 1019 68 10000 5.1 300 20:40 09.08.2019
3925 Clouds 23 1018 64 10000 5.7 300 20:21 09.08.2019
3926 Clouds 23 1018 57 10000 4.6 290 19:56 09.08.2019
3927 Clouds 23 1018 57 10000 4.6 290 19:38 09.08.2019
3928 Clouds 23 1018 57 10000 3.6 290 19:18 09.08.2019
3929 Clouds 24 1018 53 10000 3.1 290 18:41 09.08.2019
3930 Clouds 24 1018 53 10000 2.6 280 18:22 09.08.2019
3931 Clouds 23 1018 53 10000 3.6 300 17:57 09.08.2019
3932 Clouds 24 1018 53 10000 3.6 300 17:39 09.08.2019
3933 Clouds 23 1018 57 10000 3.6 300 17:20 09.08.2019
3934 Clouds 23 1019 77 10000 3.6 160 16:41 09.08.2019
3935 Clouds 23 1019 57 10000 3.1 290 16:23 09.08.2019
3936 Clouds 23 1019 69 10000 2.1 0 15:57 09.08.2019
3937 Clouds 23 1019 69 10000 2.1 0 15:39 09.08.2019
3938 Drizzle 22 1019 64 10000 2.6 0 15:20 09.08.2019
3939 -273 0 0 0 0 0 14:55 09.08.2019
3940 Rain 21 1019 73 10000 2.6 240 14:36 09.08.2019
3941 Rain 21 1019 77 10000 2.6 230 14:18 09.08.2019
3942 Rain 21 1019 77 10000 3.6 240 13:42 09.08.2019
3943 Rain 21 1019 82 8000 3.6 280 13:20 09.08.2019
3944 Rain 21 1018 77 10000 2.1 280 12:46 09.08.2019
3945 Rain 21 1018 82 10000 3.6 270 12:24 09.08.2019
3946 Rain 21 1018 83 10000 3.1 290 11:58 09.08.2019
3947 Rain 20 1018 83 10000 3.1 290 11:37 09.08.2019
3948 Rain 20 1018 83 10000 3.1 290 11:37 09.08.2019
3949 Drizzle 20 1017 88 10000 2.6 270 11:18 09.08.2019
3950 Rain 20 1017 83 10000 1.5 280 10:40 09.08.2019
3951 Clouds 20 1017 88 10000 1 0 10:22 09.08.2019
3952 Drizzle 19 1016 93 10000 2.6 230 09:46 09.08.2019
3953 Drizzle 19 1016 93 10000 1 0 09:20 09.08.2019
3954 Drizzle 19 1016 88 2000 2.6 260 08:58 09.08.2019
3955 Drizzle 19 1016 88 2000 2.6 260 08:40 09.08.2019
3956 Rain 19 1016 88 10000 3.1 270 08:20 09.08.2019
3957 Rain 19 1016 88 10000 3.1 280 07:44 09.08.2019
3958 Rain 19 1015 94 10000 3.1 280 07:24 09.08.2019
3959 Clouds 20 1015 94 10000 3.1 280 06:56 09.08.2019
3960 Clouds 20 1015 94 10000 3.1 280 06:56 09.08.2019
3961 Clouds 20 1015 94 10000 4.1 270 06:33 09.08.2019
3962 Rain 20 1015 100 6000 4.1 240 05:58 09.08.2019
3963 Drizzle 21 1015 100 3000 6.7 220 04:22 09.08.2019
3964 Mist 22 1015 100 3000 6.2 210 02:18 09.08.2019
3965 Drizzle 22 1015 100 4000 5.7 210 00:50 09.08.2019
3966 Clouds 22 1015 94 10000 6.2 220 00:27 09.08.2019
3967 Clouds 22 1015 94 10000 5.7 210 23:59 08.08.2019
3968 Clouds 22 1015 94 10000 5.7 210 23:38 08.08.2019
3969 Mist 22 1015 94 10000 5.1 220 23:20 08.08.2019
3970 Mist 22 1015 94 10000 5.7 220 22:59 08.08.2019
3971 Mist 22 1015 94 10000 5.7 220 22:37 08.08.2019
3972 Mist 22 1014 94 10000 5.7 220 22:19 08.08.2019
3973 Mist 22 1014 88 10000 5.7 220 21:58 08.08.2019
3974 Mist 22 1014 88 10000 5.7 220 21:40 08.08.2019
3975 Mist 22 1014 88 10000 7.2 220 21:21 08.08.2019
3976 Mist 22 1014 94 10000 7.7 230 20:56 08.08.2019
3977 Mist 22 1014 94 10000 7.7 230 20:38 08.08.2019
3978 Mist 23 1014 88 10000 6.7 230 20:19 08.08.2019
3979 Mist 23 1014 88 10000 6.7 220 19:43 08.08.2019
3980 Mist 23 1014 88 10000 7.2 210 19:22 08.08.2019
3981 Mist 23 1015 88 10000 7.7 210 18:44 08.08.2019
3982 Drizzle 23 1014 88 8000 6.7 210 18:24 08.08.2019
3983 Drizzle 23 1015 83 10000 7.2 210 17:58 08.08.2019
3984 Drizzle 23 1015 83 10000 7.2 210 17:40 08.08.2019
3985 Drizzle 23 1015 83 10000 7.2 200 17:22 08.08.2019
3986 Rain 23 1015 78 10000 8.2 210 16:55 08.08.2019
3987 Rain 24 1015 78 10000 8.2 210 16:37 08.08.2019
3988 Drizzle 24 1015 73 10000 6.7 210 16:19 08.08.2019
3989 Drizzle 24 1015 69 10000 7.7 210 15:42 08.08.2019
3990 Drizzle 23 1015 73 10000 7.2 190 15:23 08.08.2019
3991 Mist 23 1015 73 10000 8.2 210 14:59 08.08.2019
3992 Mist 23 1015 83 10000 7.2 220 14:37 08.08.2019
3993 Mist 23 1015 83 10000 7.2 220 14:18 08.08.2019
3994 Mist 23 1015 83 10000 6.7 210 13:40 08.08.2019
3995 Mist 23 1015 83 10000 6.2 210 13:22 08.08.2019
3996 Mist 22 1015 94 10000 5.1 230 12:57 08.08.2019
3997 Mist 23 1015 94 10000 5.1 230 12:37 08.08.2019
3998 Mist 23 1015 94 10000 5.1 230 12:37 08.08.2019
3999 Fog 22 1015 100 10000 4.1 230 12:18 08.08.2019
4000 Fog 22 1015 100 9000 4.1 220 11:41 08.08.2019
4001 Fog 22 1014 100 7000 3.1 210 11:23 08.08.2019
4002 Mist 22 1014 100 1500 2.6 220 10:41 08.08.2019
4003 Fog 21 1014 100 500 3.1 220 10:22 08.08.2019
4004 Fog 21 1014 100 300 4.1 230 09:54 08.08.2019
4005 Fog 21 1014 100 700 4.1 230 09:33 08.08.2019
4006 Mist 21 1014 100 1300 4.1 220 09:00 08.08.2019
4007 Mist 21 1014 100 1300 4.1 220 08:40 08.08.2019
4008 Mist 21 1014 100 1200 4.1 220 08:20 08.08.2019
4009 Clouds 21 1014 100 6000 4.1 230 07:42 08.08.2019
4010 Fog 21 1014 100 600 4.1 230 07:21 08.08.2019
4011 Fog 21 1014 100 900 4.6 230 06:58 08.08.2019
4012 Rain 21 1014 100 900 4.6 230 06:40 08.08.2019
4013 Rain 21 1014 100 2500 4.1 220 05:54 08.08.2019
4014 Drizzle 21 1014 100 4000 3.6 220 05:27 08.08.2019
4015 Rain 21 1015 100 3000 4.6 230 03:54 08.08.2019
4016 Rain 21 1015 100 4000 4.6 220 03:35 08.08.2019
4017 Drizzle 21 1015 100 6000 4.1 220 01:41 08.08.2019
4018 Clouds 21 1015 94 10000 5.1 210 00:46 08.08.2019
4019 Clouds 21 1015 94 10000 5.7 210 00:20 08.08.2019
4020 Mist 21 1015 94 10000 4.6 230 23:23 07.08.2019
4021 Mist 21 1015 94 10000 4.6 220 22:59 07.08.2019
4022 Mist 21 1015 94 10000 4.6 220 22:41 07.08.2019
4023 Mist 22 1015 88 10000 5.1 210 22:21 07.08.2019
4024 Mist 22 1015 94 10000 5.1 220 21:57 07.08.2019
4025 Mist 22 1015 94 10000 5.1 220 21:57 07.08.2019
4026 Mist 22 1015 94 10000 5.1 220 21:39 07.08.2019
4027 Mist 22 1015 94 10000 5.1 220 21:39 07.08.2019
4028 Mist 22 1014 94 10000 6.2 220 21:20 07.08.2019
4029 Fog 22 1014 88 10000 6.2 220 20:57 07.08.2019
4030 Fog 22 1014 88 10000 6.2 220 20:38 07.08.2019
4031 Fog 22 1014 88 10000 6.2 220 20:20 07.08.2019
4032 Fog 22 1014 88 10000 6.2 220 20:20 07.08.2019
4033 Fog 22 1014 88 10000 6.2 220 20:20 07.08.2019
4034 Fog 23 1015 73 10000 6.2 220 19:55 07.08.2019
4035 Fog 23 1015 73 10000 6.2 220 19:36 07.08.2019
4036 Fog 24 1015 69 10000 5.7 240 19:18 07.08.2019
4037 Clouds 24 1015 69 10000 6.2 220 18:40 07.08.2019
4038 Clouds 24 1015 69 10000 6.2 220 18:20 07.08.2019
4039 Clouds 24 1015 69 10000 5.1 220 17:55 07.08.2019
4040 Clouds 24 1015 69 10000 5.1 220 17:37 07.08.2019
4041 Clouds 24 1015 73 10000 5.7 230 17:19 07.08.2019
4042 Clouds 24 1015 69 10000 5.1 240 16:56 07.08.2019
4043 Clouds 24 1015 69 10000 5.1 240 16:38 07.08.2019
4044 Clouds 24 1015 69 10000 4.6 240 16:19 07.08.2019
4045 Mist 24 1015 73 10000 4.1 240 15:43 07.08.2019
4046 Mist 24 1015 73 10000 4.1 240 15:43 07.08.2019
4047 Mist 23 1016 73 10000 3.6 250 15:21 07.08.2019
4048 Mist 23 1016 69 10000 4.1 220 14:57 07.08.2019
4049 Mist 23 1016 69 10000 4.1 220 14:38 07.08.2019
4050 Mist 22 1016 73 10000 4.6 230 14:20 07.08.2019
4051 Fog 22 1016 73 10000 3.6 240 13:40 07.08.2019
4052 Mist 22 1016 78 10000 3.1 170 13:19 07.08.2019
4053 Mist 22 1016 83 10000 1.5 0 12:57 07.08.2019
4054 Mist 22 1016 83 10000 1.5 0 12:38 07.08.2019
4055 Rain 21 1016 88 10000 1.5 0 12:20 07.08.2019
4056 Rain 21 1015 88 10000 1 0 11:58 07.08.2019
4057 Rain 21 1015 88 10000 1 0 11:40 07.08.2019
4058 Mist 20 1015 88 10000 1.5 260 11:18 07.08.2019
4059 Rain 20 1015 88 10000 1.5 0 10:41 07.08.2019
4060 Rain 20 1015 94 10000 1.5 90 10:20 07.08.2019
4061 Rain 20 1015 94 10000 1 0 09:59 07.08.2019
4062 Rain 20 1015 94 10000 1 0 09:40 07.08.2019
4063 Drizzle 19 1015 94 10000 1.5 240 09:21 07.08.2019
4064 Drizzle 19 1014 94 10000 1.5 240 08:45 07.08.2019
4065 Rain 19 1014 94 10000 0.5 0 08:25 07.08.2019
4066 Rain 19 1014 94 10000 1.5 250 07:51 07.08.2019
4067 Rain 19 1014 94 10000 1.49 276.506 07:32 07.08.2019
4068 Rain 20 1014 88 10000 1.5 270 06:50 07.08.2019
4069 Rain 20 1014 88 10000 1.5 240 06:26 07.08.2019
4070 Rain 20 1014 88 10000 1.5 280 05:43 07.08.2019
4071 Clouds 20 1014 88 10000 1.5 310 04:43 07.08.2019
4072 Clouds 20 1014 88 10000 1.5 300 03:20 07.08.2019
4073 Clouds 20 1014 88 10000 2.6 300 02:42 07.08.2019
4074 Clouds 20 1015 88 10000 2.6 290 01:53 07.08.2019
4075 Clouds 20 1015 88 10000 4.1 300 01:24 07.08.2019
4076 Clouds 20 1015 88 10000 3.1 290 00:38 07.08.2019
4077 Clouds 21 1015 83 10000 2.1 280 00:19 07.08.2019
4078 Clouds 21 1015 77 10000 2.6 300 23:40 06.08.2019
4079 Clouds 21 1015 83 10000 3.6 300 23:21 06.08.2019
4080 Clouds 21 1015 83 10000 3.6 300 23:20 06.08.2019
4081 Clouds 21 1014 83 10000 3.1 290 22:42 06.08.2019
4082 Clouds 21 1014 77 10000 3.1 300 22:22 06.08.2019
4083 Clouds 22 1014 73 10000 3.6 310 21:59 06.08.2019
4084 Clouds 22 1014 73 10000 3.6 310 21:40 06.08.2019
4085 Clouds 22 1014 69 10000 4.6 330 21:20 06.08.2019
4086 Clouds 22 1014 69 10000 4.6 330 21:20 06.08.2019
4087 Clouds 22 1014 69 10000 4.6 330 21:20 06.08.2019
4088 Clouds 22 1014 69 10000 4.6 330 21:20 06.08.2019
4089 Clouds 23 1014 64 10000 5.1 310 20:48 06.08.2019
4090 Clouds 23 1014 60 10000 6.7 330 20:29 06.08.2019
4091 Clouds 24 1014 61 10000 5.1 320 19:59 06.08.2019
4092 Clouds 24 1014 61 10000 5.1 320 19:41 06.08.2019
4093 Clouds 24 1014 61 10000 5.1 340 19:22 06.08.2019
4094 Clouds 25 1014 61 10000 3.6 310 18:45 06.08.2019
4095 Clouds 24 1014 65 10000 5.7 360 18:26 06.08.2019
4096 Clouds 25 1015 64 10000 5.7 330 17:58 06.08.2019
4097 Clouds 25 1015 64 10000 5.7 330 17:38 06.08.2019
4098 Clouds 25 1015 64 10000 5.7 330 17:38 06.08.2019
4099 Clouds 25 1015 61 10000 4.1 310 17:20 06.08.2019
4100 Clouds 25 1015 61 10000 5.7 330 16:55 06.08.2019
4101 Clouds 24 1015 61 10000 5.7 330 16:37 06.08.2019
4102 Clouds 25 1015 61 10000 4.1 300 16:19 06.08.2019
4103 -273 0 0 0 0 0 15:56 06.08.2019
4104 Clouds 25 1016 61 10000 4.6 310 15:38 06.08.2019
4105 Clouds 25 1015 61 10000 6.7 330 15:18 06.08.2019
4106 Clouds 24 1015 61 10000 5.1 330 14:41 06.08.2019
4107 Clouds 24 1016 57 10000 5.1 350 14:22 06.08.2019
4108 Clouds 24 1016 64 10000 4.1 300 13:57 06.08.2019
4109 Clouds 24 1016 64 10000 4.1 300 13:38 06.08.2019
4110 Clouds 24 1016 64 10000 4.1 320 13:19 06.08.2019
4111 Clouds 23 1016 69 10000 4.1 310 12:55 06.08.2019
4112 Clouds 23 1016 69 10000 4.1 310 12:36 06.08.2019
4113 Clouds 23 1016 73 10000 5.1 330 12:18 06.08.2019
4114 Clouds 22 1016 73 10000 4.6 320 11:40 06.08.2019
4115 Clouds 22 1016 73 10000 4.6 320 11:40 06.08.2019
4116 Clouds 22 1016 73 10000 5.1 330 11:18 06.08.2019
4117 Clouds 21 1016 77 10000 5.1 330 10:41 06.08.2019
4118 Clouds 21 1016 77 10000 5.1 330 10:22 06.08.2019
4119 Clouds 21 1015 82 10000 5.1 330 09:49 06.08.2019
4120 Clouds 20 1015 82 10000 3.6 320 09:24 06.08.2019
4121 Clouds 19 1015 88 10000 3.6 330 08:57 06.08.2019
4122 Clouds 19 1015 88 10000 3.6 330 08:38 06.08.2019
4123 Clouds 20 1015 88 10000 4.1 330 08:20 06.08.2019
4124 Clouds 20 1015 82 10000 3.1 330 07:36 06.08.2019
4125 Clouds 20 1015 88 10000 2.6 330 06:51 06.08.2019
4126 Clouds 20 1015 88 10000 2.6 10 06:32 06.08.2019
4127 Clouds 20 1015 82 10000 4.1 10 05:48 06.08.2019
4128 Clouds 20 1016 88 10000 5.7 340 03:44 06.08.2019
4129 Clouds 21 1016 83 10000 4.1 330 01:53 06.08.2019
4130 Clouds 21 1017 83 10000 5.1 330 01:23 06.08.2019
4131 Clouds 21 1017 83 10000 5.1 330 00:29 06.08.2019
4132 Clouds 21 1016 88 10000 6.7 330 23:46 05.08.2019
4133 Clouds 21 1016 88 10000 6.7 330 23:18 05.08.2019
4134 Clouds 21 1016 83 10000 7.2 320 22:41 05.08.2019
4135 Clouds 21 1016 83 10000 8.7 330 22:23 05.08.2019
4136 Clouds 22 1016 77 10000 7.2 330 21:55 05.08.2019
4137 Clouds 22 1016 77 10000 7.2 330 21:36 05.08.2019
4138 Clouds 22 1015 69 10000 6.2 320 21:18 05.08.2019
4139 Clouds 23 1015 69 10000 7.2 320 20:54 05.08.2019
4140 Clouds 23 1015 69 10000 7.2 320 20:36 05.08.2019
4141 Clouds 24 1015 60 10000 6.7 310 20:18 05.08.2019
4142 Clouds 24 1015 53 10000 7.2 310 19:40 05.08.2019
4143 Clouds 25 1015 47 10000 6.7 310 19:22 05.08.2019
4144 Clouds 25 1015 47 10000 6.2 310 18:57 05.08.2019
4145 Clouds 25 1015 47 10000 6.2 310 18:57 05.08.2019
4146 Clouds 25 1015 47 10000 6.2 310 18:39 05.08.2019
4147 Clouds 26 1015 44 10000 6.2 310 18:18 05.08.2019
4148 Clouds 26 1015 44 10000 6.7 320 17:41 05.08.2019
4149 Clouds 26 1015 47 10000 5.7 310 17:22 05.08.2019
4150 Clouds 26 1015 50 10000 6.7 320 16:46 05.08.2019
4151 Clouds 26 1015 47 10000 6.2 310 16:25 05.08.2019
4152 Clouds 26 1016 47 10000 5.7 310 15:45 05.08.2019
4153 Clouds 26 1016 47 10000 5.7 320 15:22 05.08.2019
4154 Clouds 26 1016 50 10000 5.7 310 14:58 05.08.2019
4155 Clouds 25 1016 50 10000 5.7 310 14:38 05.08.2019
4156 Clouds 25 1016 50 10000 4.6 310 14:19 05.08.2019
4157 Clouds 24 1016 50 10000 4.6 310 13:41 05.08.2019
4158 Clouds 24 1017 50 10000 4.1 330 13:21 05.08.2019
4159 Clouds 23 1017 57 10000 4.6 320 12:45 05.08.2019
4160 Clouds 22 1017 60 10000 3.6 300 12:20 05.08.2019
4161 Clouds 22 1017 64 10000 3.6 300 11:46 05.08.2019
4162 Clouds 21 1017 73 10000 4.6 330 11:27 05.08.2019
4163 Clouds 20 1017 77 10000 4.6 330 10:51 05.08.2019
4164 Clouds 19 1017 82 10000 4.6 330 10:33 05.08.2019
4165 Clouds 19 1017 82 10000 6.2 330 09:59 05.08.2019
4166 Clouds 19 1017 82 10000 6.2 330 09:40 05.08.2019
4167 Clouds 18 1017 88 10000 6.7 330 09:21 05.08.2019
4168 Clouds 18 1017 88 10000 6.7 330 08:47 05.08.2019
4169 Clouds 17 1017 88 10000 4.6 340 08:25 05.08.2019
4170 Clouds 17 1017 88 10000 4.1 330 07:54 05.08.2019
4171 Clouds 17 1017 88 10000 4.6 330 07:31 05.08.2019
4172 Clouds 17 1017 88 10000 4.6 330 06:59 05.08.2019
4173 Clouds 17 1017 88 10000 4.1 340 06:29 05.08.2019
4174 Clouds 17 1017 88 10000 4.1 320 05:41 05.08.2019
4175 Clouds 18 1017 88 10000 3.6 340 04:56 05.08.2019
4176 Clouds 18 1017 88 10000 5.1 350 03:58 05.08.2019
4177 Clouds 18 1018 88 10000 3.6 340 03:20 05.08.2019
4178 Clouds 18 1018 88 10000 5.7 330 02:26 05.08.2019
4179 Clouds 18 1018 82 10000 6.2 330 01:32 05.08.2019
4180 Clear 18 1018 77 10000 5.1 330 00:41 05.08.2019
4181 Clouds 18 1018 82 10000 5.7 330 00:21 05.08.2019
4182 Clouds 18 1018 82 10000 4.1 320 23:55 04.08.2019
4183 Clouds 19 1018 82 10000 4.1 320 23:36 04.08.2019
4184 Clouds 19 1018 82 10000 4.1 330 23:18 04.08.2019
4185 Clouds 19 1018 77 10000 4.6 330 22:54 04.08.2019
4186 Clouds 19 1018 77 10000 4.6 330 22:36 04.08.2019
4187 Clouds 19 1018 77 10000 4.1 320 22:18 04.08.2019
4188 Clouds 20 1017 68 10000 6.2 330 21:41 04.08.2019
4189 Clouds 21 1017 64 10000 6.7 310 21:20 04.08.2019
4190 Clouds 21 1017 56 10000 8.2 330 20:43 04.08.2019
4191 Clouds 22 1017 56 10000 5.7 310 20:19 04.08.2019
4192 Clouds 23 1017 53 10000 7.2 320 19:57 04.08.2019
4193 Clouds 23 1017 53 10000 7.2 320 19:37 04.08.2019
4194 Clouds 23 1017 53 10000 6.7 310 19:19 04.08.2019
4195 Clouds 24 1017 50 10000 5.7 310 18:42 04.08.2019
4196 Clouds 24 1016 50 10000 6.2 310 18:20 04.08.2019
4197 Clouds 24 1016 50 10000 6.2 310 18:20 04.08.2019
4198 Clouds 24 1017 50 10000 7.7 340 17:45 04.08.2019
4199 Clouds 24 1017 50 10000 6.2 320 17:25 04.08.2019
4200 Clouds 24 1017 50 10000 5.7 310 16:59 04.08.2019
4201 Clouds 25 1017 50 10000 5.7 310 16:38 04.08.2019
4202 Clouds 25 1017 50 10000 5.1 310 16:19 04.08.2019
4203 Clouds 24 1017 47 10000 5.1 320 15:42 04.08.2019
4204 Clouds 24 1017 53 10000 5.1 310 15:21 04.08.2019
4205 Clouds 24 1017 53 10000 4.1 300 14:45 04.08.2019
4206 Clouds 24 1017 57 10000 4.6 310 14:26 04.08.2019
4207 Clouds 23 1018 64 10000 4.6 320 13:47 04.08.2019
4208 Clouds 23 1018 64 10000 4.6 300 13:28 04.08.2019
4209 Clouds 23 1018 68 10000 4.1 310 12:59 04.08.2019
4210 Clouds 23 1018 68 10000 4.1 310 12:40 04.08.2019
4211 Clouds 23 1018 68 10000 4.6 300 12:22 04.08.2019
4212 Clouds 22 1018 68 10000 4.6 320 11:55 04.08.2019
4213 Clouds 21 1018 68 10000 4.6 320 11:36 04.08.2019
4214 Clouds 21 1018 68 10000 4.6 330 11:18 04.08.2019
4215 Clouds 20 1018 77 10000 4.1 310 10:40 04.08.2019
4216 Clouds 20 1017 77 10000 4.6 320 10:19 04.08.2019
4217 Clouds 19 1017 82 10000 4.6 340 09:42 04.08.2019
4218 Clouds 19 1017 82 10000 4.1 330 09:21 04.08.2019
4219 Clouds 18 1017 88 10000 4.6 330 08:41 04.08.2019
4220 Clouds 18 1017 88 10000 4.6 330 08:20 04.08.2019
4221 Clouds 18 1017 88 10000 5.7 330 07:48 04.08.2019
4222 Clouds 19 1017 88 10000 5.1 330 06:47 04.08.2019
4223 Clouds 19 1017 88 10000 5.7 340 06:24 04.08.2019
4224 Clouds 18 1017 88 10000 3.1 320 03:44 04.08.2019
4225 Clouds 19 1017 88 10000 4.6 330 02:22 04.08.2019
4226 Clouds 19 1017 88 10000 3.6 330 01:33 04.08.2019
4227 Clouds 19 1017 88 10000 4.1 330 00:45 04.08.2019
4228 Clouds 20 1017 88 10000 4.1 330 00:26 04.08.2019
4229 Clouds 20 1017 82 10000 3.6 340 23:57 03.08.2019
4230 Clouds 20 1017 82 10000 3.6 340 23:39 03.08.2019
4231 Clouds 20 1016 82 10000 5.7 330 23:18 03.08.2019
4232 Clouds 20 1016 88 10000 4.1 330 22:43 03.08.2019
4233 Clouds 20 1016 83 10000 6.7 320 22:20 03.08.2019
4234 Clouds 21 1015 83 10000 7.2 320 21:40 03.08.2019
4235 Clouds 22 1015 78 10000 6.2 310 21:22 03.08.2019
4236 Clouds 22 1015 73 10000 5.7 310 20:46 03.08.2019
4237 Clouds 23 1015 69 10000 4.6 310 20:27 03.08.2019
4238 Clouds 23 1015 69 10000 5.7 330 19:58 03.08.2019
4239 Clouds 24 1015 69 10000 5.7 330 19:40 03.08.2019
4240 Clouds 24 1015 64 10000 5.7 310 19:21 03.08.2019
4241 Clouds 24 1016 64 10000 7.7 310 18:46 03.08.2019
4242 Clouds 24 1016 64 10000 7.7 310 18:46 03.08.2019
4243 Clouds 25 1015 65 10000 8.2 320 18:26 03.08.2019
4244 Clouds 25 1015 61 10000 7.7 320 17:47 03.08.2019
4245 Clouds 25 1016 57 10000 7.2 310 17:21 03.08.2019
4246 Clouds 26 1016 61 10000 8.2 330 16:55 03.08.2019
4247 Clouds 25 1016 61 10000 8.2 330 16:37 03.08.2019
4248 Clouds 25 1016 61 10000 7.2 310 16:18 03.08.2019
4249 Clouds 26 1016 57 10000 6.7 320 15:42 03.08.2019
4250 Clouds 26 1016 57 10000 6.7 330 15:20 03.08.2019
4251 Clouds 26 1016 57 10000 6.2 330 14:38 03.08.2019
4252 Clouds 25 1016 54 10000 6.7 340 14:19 03.08.2019
4253 Clouds 25 1016 57 10000 7.2 340 13:50 03.08.2019
4254 Clouds 24 1016 61 10000 7.7 350 13:24 03.08.2019
4255 Clouds 23 1016 64 10000 6.7 330 12:57 03.08.2019
4256 Clouds 23 1016 64 10000 6.7 330 12:38 03.08.2019
4257 Clouds 23 1016 69 10000 7.2 340 12:20 03.08.2019
4258 Clouds 22 1016 73 10000 8.2 340 11:47 03.08.2019
4259 Clouds 21 1016 77 10000 7.2 340 11:25 03.08.2019
4260 Clouds 21 1016 77 10000 7.2 340 10:40 03.08.2019
4261 Clouds 20 1016 77 10000 7.7 340 10:21 03.08.2019
4262 Clouds 19 1016 82 10000 7.7 340 09:39 03.08.2019
4263 Clouds 18 1016 88 10000 8.7 330 09:19 03.08.2019
4264 Clouds 18 1016 82 10000 8.2 330 08:46 03.08.2019
4265 Clouds 18 1015 88 10000 8.2 330 07:47 03.08.2019
4266 Clouds 18 1015 88 10000 7.2 330 07:28 03.08.2019
4267 Clouds 18 1015 88 10000 7.7 320 06:22 03.08.2019
4268 Clouds 18 1016 88 10000 5.1 340 03:58 03.08.2019
4269 Clouds 18 1016 82 10000 4.6 340 02:28 03.08.2019
4270 Clouds 18 1016 82 10000 7.2 340 01:34 03.08.2019
4271 Clouds 18 1016 82 10000 6.7 330 00:33 03.08.2019
4272 Clouds 19 1017 82 10000 7.2 340 23:57 02.08.2019
4273 Clouds 19 1017 82 10000 7.2 340 23:57 02.08.2019
4274 Clouds 19 1017 82 10000 7.2 340 23:37 02.08.2019
4275 Clouds 18 1017 82 10000 7.2 330 23:18 02.08.2019
4276 Clouds 19 1016 77 10000 5.7 320 22:54 02.08.2019
4277 Clouds 19 1016 77 10000 5.7 320 22:36 02.08.2019
4278 Clouds 19 1016 82 10000 8.2 310 22:18 02.08.2019
4279 Clouds 20 1016 82 10000 7.7 310 21:41 02.08.2019
4280 Clouds 20 1015 77 10000 7.7 310 21:22 02.08.2019
4281 Clouds 21 1015 73 10000 8.2 310 20:45 02.08.2019
4282 Clouds 21 1015 64 10000 8.2 310 20:27 02.08.2019
4283 Clouds 22 1015 60 10000 8.2 320 19:56 02.08.2019
4284 Clouds 22 1016 60 10000 8.2 310 19:34 02.08.2019
4285 Clouds 24 1016 57 10000 7.7 310 18:57 02.08.2019
4286 Clouds 24 1016 57 10000 7.7 310 18:39 02.08.2019
4287 Clouds 24 1016 53 10000 6.2 310 18:20 02.08.2019
4288 Clouds 24 1016 53 10000 6.7 310 17:42 02.08.2019
4289 Clouds 24 1016 47 10000 8.2 330 17:22 02.08.2019
4290 Clouds 24 1016 47 10000 7.2 330 16:40 02.08.2019
4291 Clouds 24 1016 47 10000 7.2 330 16:40 02.08.2019
4292 Clouds 24 1017 57 10000 6.7 330 16:21 02.08.2019
4293 Clouds 24 1017 53 10000 8.2 330 15:58 02.08.2019
4294 Clouds 24 1017 53 10000 8.2 330 15:38 02.08.2019
4295 Clouds 24 1017 53 10000 7.2 320 15:18 02.08.2019
4296 Clouds 24 1017 57 10000 6.7 310 14:45 02.08.2019
4297 Clouds 23 1017 57 10000 5.7 330 14:18 02.08.2019
4298 Clouds 23 1017 60 10000 7.2 340 13:47 02.08.2019
4299 Clouds 23 1017 60 10000 4.6 310 13:23 02.08.2019
4300 Clouds 22 1017 64 10000 5.1 320 12:44 02.08.2019
4301 Clouds 21 1017 64 10000 4.6 310 12:21 02.08.2019
4302 Clouds 21 1017 68 10000 5.1 340 11:46 02.08.2019
4303 Clouds 20 1017 72 10000 6.7 310 11:26 02.08.2019
4304 Clouds 20 1017 72 10000 6.7 310 11:26 02.08.2019
4305 Clouds 20 1017 72 10000 5.7 320 10:55 02.08.2019
4306 Clouds 20 1017 72 10000 5.7 320 10:55 02.08.2019
4307 Clouds 19 1017 77 10000 7.2 330 10:37 02.08.2019
4308 Clouds 19 1017 77 10000 7.2 330 10:19 02.08.2019
4309 Clouds 18 1017 77 10000 5.7 330 09:48 02.08.2019
4310 Clouds 18 1017 82 10000 5.1 330 09:24 02.08.2019
4311 Clouds 18 1017 82 10000 5.1 330 08:46 02.08.2019
4312 Clouds 18 1017 82 10000 5.7 330 08:21 02.08.2019
4313 Clouds 18 1016 82 10000 5.1 340 07:48 02.08.2019
4314 Clouds 18 1016 82 10000 3.6 340 07:29 02.08.2019
4315 Clouds 18 1016 82 10000 4.6 330 06:44 02.08.2019
4316 Clouds 18 1017 82 10000 4.6 340 05:50 02.08.2019
4317 Clouds 18 1017 82 10000 5.1 340 04:19 02.08.2019
4318 Clouds 18 1017 82 10000 5.1 340 03:25 02.08.2019
4319 Clouds 18 1018 82 10000 5.1 340 01:46 02.08.2019
4320 Clouds 18 1017 82 10000 7.2 340 00:35 02.08.2019
4321 Clouds 18 1017 82 10000 7.2 350 23:46 01.08.2019
4322 Clouds 18 1017 82 10000 7.7 330 23:28 01.08.2019
4323 Clouds 19 1017 77 10000 6.7 350 22:56 01.08.2019
4324 Clouds 19 1017 77 10000 6.7 350 22:37 01.08.2019
4325 Clouds 19 1016 77 10000 7.2 330 22:19 01.08.2019
4326 Clouds 20 1016 72 10000 7.2 320 21:43 01.08.2019
4327 Clouds 20 1016 72 10000 6.7 310 21:23 01.08.2019
4328 Clouds 20 1016 72 10000 6.7 310 21:23 01.08.2019
4329 Clouds 21 1015 68 10000 7.2 320 20:55 01.08.2019
4330 Clouds 21 1015 68 10000 7.2 320 20:36 01.08.2019
4331 Clouds 22 1015 64 10000 6.7 310 20:18 01.08.2019
4332 Clouds 23 1015 56 10000 7.7 320 19:40 01.08.2019
4333 Clouds 23 1015 56 10000 7.2 320 19:19 01.08.2019
4334 Clouds 24 1015 50 10000 6.2 310 18:44 01.08.2019
4335 Clouds 24 1015 47 10000 6.2 300 18:24 01.08.2019
4336 Clouds 25 1015 47 10000 6.2 320 17:51 01.08.2019
4337 Clouds 25 1015 47 10000 7.2 330 17:32 01.08.2019
4338 Clouds 25 1015 44 10000 5.7 310 16:57 01.08.2019
4339 Clouds 25 1015 44 10000 5.7 310 16:39 01.08.2019
4340 Clouds 25 1015 47 10000 5.1 310 16:19 01.08.2019
4341 Clouds 25 1016 47 10000 5.7 310 15:41 01.08.2019
4342 Clouds 25 1016 47 10000 6.2 320 15:19 01.08.2019
4343 Clouds 25 1016 47 10000 5.1 310 14:43 01.08.2019
4344 Clouds 24 1016 50 10000 6.7 330 14:20 01.08.2019
4345 Clouds 24 1016 53 10000 5.1 330 13:58 01.08.2019
4346 Clouds 24 1016 53 10000 5.1 330 13:40 01.08.2019
4347 Clouds 24 1016 53 10000 5.1 300 13:21 01.08.2019
4348 Clouds 22 1016 56 10000 4.6 310 12:47 01.08.2019
4349 Clouds 22 1016 64 10000 5.1 320 12:27 01.08.2019
4350 Clouds 21 1015 64 10000 5.1 320 11:44 01.08.2019
4351 Clouds 21 1015 68 10000 5.1 320 11:25 01.08.2019
4352 Clouds 20 1015 72 10000 4.1 340 10:57 01.08.2019
4353 Clouds 20 1015 72 10000 4.1 340 10:39 01.08.2019
4354 Clouds 19 1015 72 10000 1 0 10:21 01.08.2019
4355 Clouds 18 1015 82 10000 3.1 0 09:47 01.08.2019
4356 Clouds 18 1014 82 10000 2.1 0 09:23 01.08.2019
4357 Clouds 17 1014 88 10000 3.1 20 08:49 01.08.2019
4358 Clouds 17 1014 88 10000 5.1 350 08:21 01.08.2019
4359 Clouds 17 1014 88 10000 4.1 350 07:53 01.08.2019
4360 Clouds 17 1014 88 10000 5.7 340 07:29 01.08.2019
4361 Clouds 17 1014 88 10000 6.2 340 06:50 01.08.2019
4362 Clouds 17 1014 88 10000 6.7 330 06:31 01.08.2019
4363 Clouds 17 1014 88 10000 7.2 320 05:31 01.08.2019
4364 Clouds 18 1014 88 10000 6.7 320 02:36 01.08.2019
4365 Clouds 18 1014 82 10000 7.2 330 01:25 01.08.2019
4366 Clouds 18 1014 82 10000 8.7 320 00:27 01.08.2019
4367 Clouds 18 1014 82 10000 7.7 320 23:57 31.07.2019
4368 Clouds 18 1014 82 10000 7.7 320 23:39 31.07.2019
4369 Clouds 18 1014 82 10000 7.7 320 23:19 31.07.2019
4370 Clouds 19 1013 72 10000 8.7 310 22:44 31.07.2019
4371 Clouds 19 1013 72 10000 8.2 310 22:24 31.07.2019
4372 Clear 19 1013 68 10000 8.2 320 21:41 31.07.2019
4373 Clear 20 1013 53 10000 7.2 320 21:22 31.07.2019
4374 Clear 22 1013 53 10000 7.2 310 20:49 31.07.2019
4375 Clear 23 1013 46 10000 7.7 310 20:24 31.07.2019
4376 Clear 23 1013 47 10000 6.7 320 19:49 31.07.2019
4377 Clear 24 1013 50 10000 6.7 310 19:31 31.07.2019
4378 Clear 25 1013 44 10000 6.2 320 18:58 31.07.2019
4379 Clear 25 1013 44 10000 6.2 320 18:39 31.07.2019
4380 Clear 25 1013 39 10000 6.7 330 18:18 31.07.2019
4381 Clear 25 1013 34 10000 6.2 310 17:45 31.07.2019
4382 Clear 25 1014 36 10000 8.7 330 17:20 31.07.2019
4383 Clear 25 1014 39 10000 7.2 320 16:54 31.07.2019
4384 Clear 25 1014 44 10000 6.2 320 16:33 31.07.2019
4385 Clear 24 1014 41 10000 6.2 320 15:58 31.07.2019
4386 Clear 24 1014 41 10000 6.2 320 15:38 31.07.2019
4387 Clear 24 1014 47 10000 5.1 310 15:20 31.07.2019
4388 Clear 24 1014 47 10000 6.2 320 14:42 31.07.2019
4389 Clear 24 1015 47 10000 6.7 330 14:20 31.07.2019
4390 Clear 24 1015 41 10000 5.1 320 13:55 31.07.2019
4391 Clear 24 1015 47 10000 5.1 320 13:37 31.07.2019
4392 Clear 24 1015 47 10000 5.1 320 13:18 31.07.2019
4393 Clear 23 1015 47 10000 4.6 320 12:41 31.07.2019
4394 Clear 22 1015 49 10000 5.7 330 12:23 31.07.2019
4395 Clear 22 1015 49 10000 6.2 320 11:40 31.07.2019
4396 Clear 21 1015 56 10000 7.7 330 11:21 31.07.2019
4397 Clear 20 1015 56 10000 6.7 320 10:56 31.07.2019
4398 Clear 20 1015 56 10000 6.7 320 10:38 31.07.2019
4399 Clear 19 1015 63 10000 6.2 310 10:19 31.07.2019
4400 Clear 18 1014 68 10000 6.7 320 09:42 31.07.2019
4401 Clouds 17 1014 68 10000 7.7 330 09:23 31.07.2019
4402 Clear 17 1014 72 10000 7.2 330 08:43 31.07.2019
4403 Clear 17 1014 72 10000 7.2 320 08:24 31.07.2019
4404 Clear 17 1014 77 10000 8.2 320 07:48 31.07.2019
4405 Clear 17 1014 77 10000 7.2 320 07:30 31.07.2019
4406 Clear 17 1015 72 10000 6.2 320 05:23 31.07.2019
4407 Clear 17 1015 72 10000 7.2 320 04:19 31.07.2019
4408 Clear 17 1017 72 10000 9.8 320 00:38 31.07.2019
4409 Clear 17 1017 72 10000 11.8 330 23:51 30.07.2019
4410 Clouds 17 1017 72 10000 11.3 330 23:29 30.07.2019
4411 Clouds 18 1017 72 10000 7.7 330 22:49 30.07.2019
4412 Clouds 18 1016 63 10000 9.8 330 22:26 30.07.2019
4413 Clouds 18 1016 55 10000 13.9 330 21:59 30.07.2019
4414 Clouds 19 1016 55 10000 13.9 330 21:37 30.07.2019
4415 Clouds 19 1016 56 10000 9.3 330 21:19 30.07.2019
4416 Clouds 20 1016 49 10000 10.3 330 20:56 30.07.2019
4417 Clouds 20 1016 49 10000 10.3 330 20:37 30.07.2019
4418 Clouds 21 1016 46 10000 8.7 330 20:18 30.07.2019
4419 Clear 22 1017 43 10000 8.7 320 19:44 30.07.2019
4420 Clear 22 1016 40 10000 8.2 320 19:26 30.07.2019
4421 Clear 23 1016 43 10000 9.3 320 18:48 30.07.2019
4422 Clear 23 1017 38 10000 8.2 310 18:23 30.07.2019
4423 Clear 23 1017 38 10000 10.3 330 17:58 30.07.2019
4424 Clear 23 1017 38 10000 10.3 330 17:39 30.07.2019
4425 Clear 24 1018 33 10000 10.3 340 17:18 30.07.2019
4426 Clear 24 1018 33 10000 9.8 350 16:41 30.07.2019
4427 Clear 24 1018 36 10000 8.7 330 16:19 30.07.2019
4428 Clear 24 1018 36 10000 9.3 330 15:39 30.07.2019
4429 Clear 24 1018 33 10000 10.3 360 15:19 30.07.2019
4430 Clear 24 1018 33 10000 10.3 360 15:19 30.07.2019
4431 Clear 24 1019 36 10000 9.8 350 14:43 30.07.2019
4432 Clear 23 1019 38 10000 9.3 340 14:22 30.07.2019
4433 Clouds 23 1019 40 10000 10.8 350 13:56 30.07.2019
4434 Clouds 23 1019 40 10000 10.8 350 13:37 30.07.2019
4435 Clouds 23 1019 43 10000 8.7 350 13:19 30.07.2019
4436 Clouds 22 1019 49 10000 8.7 350 12:43 30.07.2019
4437 Clouds 22 1020 49 10000 8.7 360 12:24 30.07.2019
4438 Clouds 21 1020 52 10000 9.3 360 11:46 30.07.2019
4439 Clouds 20 1020 56 10000 9.3 10 11:26 30.07.2019
4440 Clouds 20 1020 63 10000 7.2 350 10:57 30.07.2019
4441 Clouds 19 1020 63 10000 7.2 350 10:38 30.07.2019
4442 Clouds 19 1020 63 10000 7.2 350 10:38 30.07.2019
4443 Clouds 19 1020 63 10000 8.2 360 10:20 30.07.2019
4444 Clouds 19 1020 63 10000 8.2 360 10:20 30.07.2019
4445 Clouds 18 1020 72 10000 10.8 340 09:48 30.07.2019
4446 Clouds 18 1019 77 10000 10.8 350 09:28 30.07.2019
4447 Clouds 17 1019 82 10000 10.8 350 08:41 30.07.2019
4448 Clouds 16 1019 82 10000 8.2 350 08:19 30.07.2019
4449 Clouds 16 1019 77 10000 7.7 350 07:43 30.07.2019
4450 Clouds 16 1019 77 10000 7.7 350 07:43 30.07.2019
4451 Clouds 17 1019 82 10000 8.2 340 07:23 30.07.2019
4452 Clear 17 1019 82 10000 8.2 350 06:44 30.07.2019
4453 Clear 17 1019 82 10000 8.7 350 05:36 30.07.2019
4454 Clear 17 1019 82 10000 7.2 340 04:42 30.07.2019
4455 Clouds 18 1020 77 10000 6.7 350 01:30 30.07.2019
4456 Clear 18 1019 77 10000 6.2 340 00:28 30.07.2019
4457 Clear 18 1019 72 10000 6.2 350 23:59 29.07.2019
4458 Clear 18 1019 72 10000 6.2 350 23:41 29.07.2019
4459 Clouds 18 1019 72 10000 7.2 350 23:22 29.07.2019
4460 Clouds 19 1018 72 10000 7.2 340 22:56 29.07.2019
4461 Clouds 19 1018 72 10000 7.2 340 22:38 29.07.2019
4462 Clouds 19 1018 63 10000 8.7 350 22:18 29.07.2019
4463 Clouds 20 1018 60 10000 9.3 340 21:42 29.07.2019
4464 Clouds 20 1018 60 10000 8.7 340 21:23 29.07.2019
4465 Clouds 21 1018 56 10000 8.7 340 20:58 29.07.2019
4466 Clouds 21 1018 56 10000 8.7 340 20:39 29.07.2019
4467 Clouds 22 1017 53 10000 8.7 340 20:19 29.07.2019
4468 Clouds 22 1017 53 10000 9.3 330 19:47 29.07.2019
4469 Clouds 23 1017 46 10000 9.8 350 19:23 29.07.2019
4470 Clouds 23 1017 49 10000 8.7 340 18:58 29.07.2019
4471 Clouds 23 1017 49 10000 8.7 340 18:40 29.07.2019
4472 Clouds 23 1017 47 10000 9.8 340 18:20 29.07.2019
4473 Clouds 23 1017 47 10000 8.7 340 17:47 29.07.2019
4474 Clouds 23 1017 47 10000 8.2 330 17:29 29.07.2019
4475 Clouds 23 1017 47 10000 9.3 340 16:55 29.07.2019
4476 Clouds 23 1017 47 10000 9.3 340 16:37 29.07.2019
4477 Clouds 23 1017 47 10000 9.3 330 16:18 29.07.2019
4478 Clouds 24 1017 47 10000 8.2 340 15:45 29.07.2019
4479 Clouds 24 1017 47 10000 8.2 340 15:27 29.07.2019
4480 Clouds 23 1017 47 10000 8.2 350 14:42 29.07.2019
4481 Clouds 23 1017 49 10000 6.7 340 14:21 29.07.2019
4482 Clouds 23 1017 50 10000 7.7 340 13:46 29.07.2019
4483 Clouds 23 1017 47 10000 7.2 350 13:24 29.07.2019
4484 Clouds 23 1016 50 10000 7.2 350 12:59 29.07.2019
4485 Clouds 23 1016 50 10000 7.2 350 12:40 29.07.2019
4486 Clouds 22 1016 60 10000 7.7 350 12:21 29.07.2019
4487 Clouds 21 1016 64 10000 6.7 350 11:42 29.07.2019
4488 Clouds 21 1016 68 10000 6.2 340 11:19 29.07.2019
4489 Clouds 20 1016 72 10000 7.2 340 10:44 29.07.2019
4490 Clouds 20 1016 77 10000 4.6 340 10:22 29.07.2019
4491 Clouds 20 1015 82 10000 4.1 330 09:44 29.07.2019
4492 Drizzle 19 1015 82 10000 5.1 330 09:23 29.07.2019
4493 Drizzle 19 1015 93 10000 4.1 330 08:49 29.07.2019
4494 Drizzle 18 1015 93 9000 3.1 330 08:27 29.07.2019
4495 Clouds 18 1014 100 10000 3.1 330 07:50 29.07.2019
4496 Clouds 18 1014 93 10000 2.6 310 07:30 29.07.2019
4497 Clouds 18 1014 93 10000 2.6 310 07:30 29.07.2019
4498 Clouds 19 1014 88 10000 3.6 300 06:40 29.07.2019
4499 Clouds 19 1014 88 10000 2.1 290 05:37 29.07.2019
4500 Clouds 19 1014 88 10000 3.1 300 04:23 29.07.2019
4501 Clouds 18 1014 82 10000 3.1 310 01:52 29.07.2019
4502 Clouds 18 1014 82 10000 3.6 310 01:34 29.07.2019
4503 Clouds 18 1014 82 10000 5.7 310 00:58 29.07.2019
4504 Clouds 18 1014 82 10000 6.2 310 00:30 29.07.2019
4505 Clouds 18 1014 82 10000 5.7 310 23:45 28.07.2019
4506 Clouds 19 1014 82 10000 4.1 300 23:26 28.07.2019
4507 Clouds 19 1014 77 10000 5.7 300 22:46 28.07.2019
4508 Clouds 19 1013 77 10000 7.2 310 22:28 28.07.2019
4509 Clouds 19 1013 72 10000 6.7 310 21:56 28.07.2019
4510 Clouds 19 1013 72 10000 6.7 310 21:56 28.07.2019
4511 Clouds 20 1013 72 10000 6.7 310 21:37 28.07.2019
4512 Clouds 20 1013 68 10000 7.2 310 21:18 28.07.2019
4513 Clouds 21 1012 60 10000 6.7 310 20:42 28.07.2019
4514 Clouds 22 1012 56 10000 5.7 300 20:24 28.07.2019
4515 Clouds 21 1012 53 10000 5.7 300 19:41 28.07.2019
4516 Clouds 24 1012 47 10000 5.7 310 19:21 28.07.2019
4517 Clouds 24 1012 47 10000 5.1 300 18:46 28.07.2019
4518 Clouds 24 1012 47 10000 5.1 300 18:28 28.07.2019
4519 Clouds 24 1012 50 10000 5.7 300 17:58 28.07.2019
4520 Clouds 24 1012 50 10000 5.7 300 17:39 28.07.2019
4521 Clouds 24 1012 53 10000 5.1 300 17:19 28.07.2019
4522 Clouds 24 1012 53 10000 5.7 300 16:46 28.07.2019
4523 Clouds 24 1013 53 10000 5.1 300 16:26 28.07.2019
4524 Clouds 24 1013 57 10000 6.2 330 15:49 28.07.2019
4525 Clouds 24 1013 60 10000 5.1 320 15:28 28.07.2019
4526 Clouds 23 1013 60 10000 5.1 300 14:57 28.07.2019
4527 Clouds 23 1013 60 10000 5.7 320 14:37 28.07.2019
4528 Clouds 23 1013 60 10000 5.7 320 14:18 28.07.2019
4529 Clouds 23 1013 60 10000 4.1 310 13:40 28.07.2019
4530 Clouds 22 1014 64 10000 4.6 300 13:21 28.07.2019
4531 Clouds 22 1014 68 10000 4.1 310 12:57 28.07.2019
4532 Clouds 22 1014 68 10000 4.1 310 12:39 28.07.2019
4533 Clouds 22 1014 68 10000 4.1 310 12:19 28.07.2019
4534 Clouds 21 1014 68 10000 5.1 330 11:44 28.07.2019
4535 Clouds 20 1013 73 10000 6.2 330 11:26 28.07.2019
4536 Clouds 20 1013 73 10000 4.6 320 10:39 28.07.2019
4537 Clouds 20 1013 73 10000 4.6 320 10:39 28.07.2019
4538 Clouds 19 1013 82 10000 6.2 330 10:20 28.07.2019
4539 Clouds 19 1013 82 10000 4.6 320 09:41 28.07.2019
4540 Clouds 19 1013 82 10000 4.6 320 09:41 28.07.2019
4541 Clouds 18 1013 88 10000 4.6 320 09:23 28.07.2019
4542 Clouds 18 1012 88 10000 5.7 330 08:46 28.07.2019
4543 Clouds 18 1012 88 10000 6.2 330 08:28 28.07.2019
4544 Clouds 18 1013 88 10000 6.2 330 07:51 28.07.2019
4545 Clouds 18 1013 88 10000 5.1 320 07:32 28.07.2019
4546 Clouds 18 1013 88 10000 7.2 330 06:39 28.07.2019
4547 Clouds 18 1013 88 10000 2.6 340 05:25 28.07.2019
4548 Clouds 19 1013 88 10000 4.1 320 03:23 28.07.2019
4549 Clouds 19 1014 88 10000 3.6 310 02:19 28.07.2019
4550 Clouds 19 1014 88 10000 4.1 320 01:19 28.07.2019
4551 Clouds 19 1014 88 10000 3.1 320 00:44 28.07.2019
4552 Clouds 19 1014 88 10000 3.6 310 00:18 28.07.2019
4553 Clouds 19 1014 82 10000 3.1 310 23:44 27.07.2019
4554 Clouds 19 1013 82 10000 2.1 310 23:19 27.07.2019
4555 Clouds 20 1013 82 10000 2.6 300 22:40 27.07.2019
4556 Clouds 20 1013 82 10000 2.6 300 22:19 27.07.2019
4557 Clouds 20 1012 77 10000 3.1 310 21:39 27.07.2019
4558 Clouds 21 1012 77 10000 3.6 300 21:20 27.07.2019
4559 Clouds 21 1012 73 10000 3.6 270 20:50 27.07.2019
4560 Clouds 21 1012 73 10000 3.6 280 20:23 27.07.2019
4561 Clouds 21 1012 68 10000 4.1 270 19:46 27.07.2019
4562 Clouds 21 1012 68 10000 4.1 270 19:26 27.07.2019
4563 Clouds 21 1012 64 10000 3.6 300 18:52 27.07.2019
4564 Clouds 22 1012 64 10000 4.1 300 18:34 27.07.2019
4565 Clouds 22 1012 64 10000 5.1 290 17:52 27.07.2019
4566 Clouds 22 1013 60 10000 5.7 280 17:33 27.07.2019
4567 Clouds 22 1013 60 10000 5.1 290 16:59 27.07.2019
4568 Clouds 22 1013 60 10000 5.1 290 16:59 27.07.2019
4569 Clouds 22 1013 60 10000 5.1 290 16:40 27.07.2019
4570 Clouds 23 1013 64 10000 5.7 280 16:21 27.07.2019
4571 Clouds 23 1013 60 10000 5.1 280 15:48 27.07.2019
4572 Clouds 22 1013 64 10000 4.6 290 15:20 27.07.2019
4573 Clouds 22 1013 73 10000 4.1 300 14:50 27.07.2019
4574 Clouds 22 1013 73 10000 5.1 280 14:31 27.07.2019
4575 Rain 21 1013 78 10000 4.1 280 13:55 27.07.2019
4576 Clouds 21 1013 83 10000 4.6 310 13:25 27.07.2019
4577 Drizzle 20 1013 88 9000 3.6 280 12:59 27.07.2019
4578 Drizzle 20 1013 88 9000 3.6 280 12:41 27.07.2019
4579 Drizzle 20 1013 88 10000 3.6 280 12:21 27.07.2019
4580 Clouds 20 1013 94 10000 3.6 270 11:41 27.07.2019
4581 Drizzle 20 1013 100 6000 5.1 230 11:23 27.07.2019
4582 Drizzle 20 1013 100 8000 4.6 240 10:42 27.07.2019
4583 Mist 20 1013 94 10000 4.1 240 10:23 27.07.2019
4584 Drizzle 19 1013 100 8000 5.1 240 09:43 27.07.2019
4585 Rain 19 1013 93 4000 5.1 230 09:23 27.07.2019
4586 Rain 19 1013 93 2000 5.7 230 08:52 27.07.2019
4587 Rain 18 1013 100 4000 5.1 230 08:33 27.07.2019
4588 Rain 18 1013 100 3500 5.7 230 07:57 27.07.2019
4589 Rain 18 1013 100 3500 5.7 230 07:57 27.07.2019
4590 Rain 18 1013 100 3500 5.7 230 07:38 27.07.2019
4591 Drizzle 18 1013 93 7000 5.1 230 07:18 27.07.2019
4592 Drizzle 18 1014 93 6000 5.1 230 06:49 27.07.2019
4593 Drizzle 18 1014 93 6000 5.1 230 06:49 27.07.2019
4594 Clouds 18 1014 93 10000 4.6 230 06:20 27.07.2019
4595 Clouds 18 1014 88 10000 5.1 250 05:34 27.07.2019
4596 Clouds 18 1015 77 10000 4.1 250 04:41 27.07.2019
4597 Clouds 18 1016 82 10000 4.1 250 03:40 27.07.2019
4598 Clouds 18 1016 82 10000 3.6 260 02:43 27.07.2019
4599 Clouds 18 1017 88 10000 4.1 260 01:57 27.07.2019
4600 Clouds 18 1017 82 10000 3.6 260 01:32 27.07.2019
4601 Clouds 18 1018 82 10000 2.6 260 00:38 27.07.2019
4602 Clouds 19 1018 77 10000 2.1 280 00:18 27.07.2019
4603 Clouds 19 1018 77 10000 3.6 300 23:41 26.07.2019
4604 Clouds 19 1018 72 10000 2.6 290 23:23 26.07.2019
4605 Clouds 19 1018 68 10000 4.1 300 22:43 26.07.2019
4606 Clouds 19 1017 68 10000 4.6 300 22:24 26.07.2019
4607 Clouds 19 1017 60 10000 5.1 310 21:51 26.07.2019
4608 Clouds 20 1017 56 10000 5.7 320 21:20 26.07.2019
4609 Clouds 21 1017 56 10000 6.7 310 20:51 26.07.2019
4610 Clouds 21 1017 53 10000 6.2 310 20:32 26.07.2019
4611 Clouds 22 1017 53 10000 7.2 320 19:55 26.07.2019
4612 Clouds 22 1017 53 10000 7.2 320 19:36 26.07.2019
4613 Clouds 22 1017 46 10000 5.7 310 19:18 26.07.2019
4614 Clouds 23 1017 49 10000 7.7 330 18:41 26.07.2019
4615 Clouds 23 1018 49 10000 6.7 320 18:21 26.07.2019
4616 Clouds 23 1018 49 10000 6.2 310 17:56 26.07.2019
4617 Clouds 23 1018 49 10000 6.2 310 17:37 26.07.2019
4618 Clouds 23 1018 47 10000 7.2 320 17:18 26.07.2019
4619 Clouds 24 1018 47 10000 6.7 320 16:54 26.07.2019
4620 Clouds 24 1018 47 10000 6.7 320 16:36 26.07.2019
4621 Clouds 23 1018 47 10000 5.7 310 16:18 26.07.2019
4622 Clouds 24 1018 50 10000 7.2 320 15:43 26.07.2019
4623 Clouds 23 1018 47 10000 6.7 310 15:21 26.07.2019
4624 Clouds 23 1018 47 10000 6.7 320 14:45 26.07.2019
4625 Clouds 23 1018 49 10000 8.7 330 14:25 26.07.2019
4626 Clouds 23 1019 49 10000 7.7 320 13:48 26.07.2019
4627 Clouds 22 1018 53 10000 7.7 310 13:29 26.07.2019
4628 Clouds 22 1019 53 10000 8.7 330 12:54 26.07.2019
4629 Clouds 22 1018 56 10000 6.2 330 12:36 26.07.2019
4630 Clouds 22 1018 56 10000 6.2 330 12:18 26.07.2019
4631 Clouds 21 1018 64 10000 5.1 300 11:38 26.07.2019
4632 Clouds 20 1018 72 10000 4.6 310 11:18 26.07.2019
4633 Clouds 21 1018 68 10000 6.2 330 10:46 26.07.2019
4634 Clouds 20 1018 77 10000 5.1 330 10:28 26.07.2019
4635 Clouds 19 1018 77 10000 4.6 330 09:50 26.07.2019
4636 Clouds 19 1018 88 10000 3.6 320 09:31 26.07.2019
4637 Clouds 18 1018 88 10000 2.6 340 08:42 26.07.2019
4638 Clouds 18 1017 88 10000 4.6 340 08:21 26.07.2019
4639 Clouds 18 1017 88 10000 3.1 330 07:52 26.07.2019
4640 Clouds 19 1017 88 10000 4.6 340 07:26 26.07.2019
4641 Clouds 19 1017 88 10000 4.6 340 06:31 26.07.2019
4642 Clouds 18 1017 88 10000 5.1 330 04:50 26.07.2019
4643 Clouds 18 1017 88 10000 4.6 330 04:21 26.07.2019
4644 Clouds 19 1018 82 10000 5.1 340 02:25 26.07.2019
4645 Clouds 19 1018 82 10000 3.6 330 01:31 26.07.2019
4646 Clouds 19 1017 82 10000 5.7 330 00:33 26.07.2019
4647 Clouds 19 1017 82 10000 5.7 340 23:55 25.07.2019
4648 Clouds 20 1017 77 10000 4.1 330 23:23 25.07.2019
4649 Clouds 20 1017 82 10000 4.6 330 22:55 25.07.2019
4650 Clouds 20 1016 82 10000 5.7 320 22:36 25.07.2019
4651 Clouds 20 1016 82 10000 5.7 320 22:18 25.07.2019
4652 Clouds 20 1016 77 10000 6.7 320 21:41 25.07.2019
4653 Clouds 21 1016 77 10000 7.2 320 21:21 25.07.2019
4654 Clouds 21 1016 68 10000 5.7 310 20:45 25.07.2019
4655 Clouds 22 1016 73 10000 5.7 300 20:22 25.07.2019
4656 Clouds 22 1016 73 10000 5.7 300 20:22 25.07.2019
4657 Clouds 22 1016 73 10000 5.7 310 19:42 25.07.2019
4658 Drizzle 22 1016 77 10000 6.7 300 19:24 25.07.2019
4659 Drizzle 22 1016 78 10000 7.2 300 18:56 25.07.2019
4660 Drizzle 23 1016 69 10000 6.7 320 18:38 25.07.2019
4661 Drizzle 23 1016 69 10000 6.7 320 18:19 25.07.2019
4662 Drizzle 23 1016 73 10000 5.1 300 17:40 25.07.2019
4663 Drizzle 23 1016 69 10000 5.7 280 17:22 25.07.2019
4664 Clouds 24 1015 61 10000 5.7 270 16:43 25.07.2019
4665 Clouds 24 1015 57 10000 4.6 270 16:25 25.07.2019
4666 Clouds 25 1015 57 10000 5.1 260 15:51 25.07.2019
4667 Clouds 25 1015 65 10000 6.7 200 15:21 25.07.2019
4668 Clouds 25 1016 61 10000 6.2 210 14:56 25.07.2019
4669 Clouds 25 1016 61 10000 6.2 210 14:38 25.07.2019
4670 Clouds 25 1016 65 10000 6.2 210 14:18 25.07.2019
4671 Clouds 25 1015 65 10000 5.7 220 13:40 25.07.2019
4672 Clouds 24 1016 65 10000 4.1 200 13:22 25.07.2019
4673 Clouds 24 1016 69 10000 4.1 220 12:35 25.07.2019
4674 Clouds 23 1015 73 10000 3.1 220 11:59 25.07.2019
4675 Clouds 23 1015 73 10000 3.1 220 11:40 25.07.2019
4676 Clouds 22 1015 73 10000 2.1 260 11:22 25.07.2019
4677 Clouds 22 1015 73 10000 2.6 210 10:45 25.07.2019
4678 Clouds 21 1015 73 10000 2.6 240 10:24 25.07.2019
4679 Clouds 20 1015 78 10000 2.1 230 09:47 25.07.2019
4680 Clouds 20 1015 83 10000 2.1 250 09:28 25.07.2019
4681 Clouds 20 1015 83 10000 2.6 260 08:53 25.07.2019
4682 Clouds 20 1015 83 10000 2.6 280 08:33 25.07.2019
4683 Clouds 20 1015 88 10000 2.6 250 07:41 25.07.2019
4684 Clouds 20 1014 88 10000 2.6 280 06:50 25.07.2019
4685 Clouds 20 1014 94 10000 1.5 290 06:31 25.07.2019
4686 Clouds 20 1014 94 10000 1 0 05:36 25.07.2019
4687 Clouds 20 1014 94 10000 1.5 250 04:50 25.07.2019
4688 Clouds 20 1015 94 10000 1.5 270 03:24 25.07.2019
4689 Clouds 20 1015 94 10000 3.1 300 01:21 25.07.2019
4690 Clouds 20 1015 88 10000 2.1 310 00:34 25.07.2019
4691 Clouds 21 1015 88 10000 2.6 290 23:59 24.07.2019
4692 Clouds 21 1015 88 10000 2.6 290 23:40 24.07.2019
4693 Clouds 21 1014 88 10000 5.7 300 23:22 24.07.2019
4694 Clouds 21 1014 88 10000 6.7 300 22:45 24.07.2019
4695 Clouds 22 1014 83 10000 7.2 300 22:22 24.07.2019
4696 Clouds 22 1014 83 10000 6.2 300 21:56 24.07.2019
4697 Clouds 22 1014 83 10000 6.2 300 21:38 24.07.2019
4698 Clouds 22 1014 83 10000 6.2 300 21:38 24.07.2019
4699 Clouds 23 1014 73 10000 5.7 300 21:19 24.07.2019
4700 Clear 24 1014 69 10000 5.1 300 20:46 24.07.2019
4701 Clear 25 1013 61 10000 5.7 310 20:28 24.07.2019
4702 Clear 26 1013 61 10000 5.7 300 19:58 24.07.2019
4703 Clear 26 1013 61 10000 5.7 300 19:40 24.07.2019
4704 Clear 26 1013 61 10000 5.7 300 19:40 24.07.2019
4705 Clear 27 1013 51 10000 5.1 300 19:20 24.07.2019
4706 Clear 27 1013 42 10000 5.1 300 18:43 24.07.2019
4707 Clear 28 1014 38 10000 4.1 300 18:24 24.07.2019
4708 Clear 30 1014 35 10000 4.1 300 17:47 24.07.2019
4709 Clear 30 1014 25 10000 3.6 270 17:22 24.07.2019
4710 Clear 30 1014 29 10000 4.1 260 16:57 24.07.2019
4711 Clear 30 1014 29 10000 4.1 260 16:39 24.07.2019
4712 Clear 30 1014 33 10000 4.1 280 16:20 24.07.2019
4713 Clear 29 1014 33 10000 3.6 0 15:37 24.07.2019
4714 Clear 28 1014 35 10000 2.6 110 15:19 24.07.2019
4715 Clear 28 1015 42 10000 3.1 0 14:45 24.07.2019
4716 Clear 27 1015 42 10000 2.1 0 14:20 24.07.2019
4717 Clear 25 1015 45 10000 2.6 80 13:40 24.07.2019
4718 Clear 26 1015 50 10000 2.1 120 13:19 24.07.2019
4719 Clear 24 1015 50 10000 2.1 90 12:53 24.07.2019
4720 Clear 23 1015 47 10000 1.5 0 12:34 24.07.2019
4721 Clear 22 1015 56 10000 2.6 20 11:55 24.07.2019
4722 Clear 22 1015 56 10000 2.6 20 11:36 24.07.2019
4723 Clear 22 1016 68 10000 2.6 0 11:18 24.07.2019
4724 Clear 20 1016 72 10000 3.1 340 10:39 24.07.2019
4725 Clouds 19 1016 82 10000 4.1 330 10:18 24.07.2019
4726 Clouds 19 1016 82 10000 4.1 330 09:43 24.07.2019
4727 Clouds 18 1016 88 10000 3.1 310 09:22 24.07.2019
4728 Clouds 17 1016 82 10000 2.6 300 08:43 24.07.2019
4729 Clear 17 1015 82 10000 3.1 310 07:52 24.07.2019
4730 Clear 17 1015 82 10000 1.5 320 07:31 24.07.2019
4731 Clear 17 1014 82 10000 0.5 0 06:56 24.07.2019
4732 Clear 18 1015 82 10000 3.6 0 06:28 24.07.2019
4733 Clouds 18 1015 88 10000 6.2 310 04:56 24.07.2019
4734 Clear 19 1016 68 10000 4.1 330 01:49 24.07.2019
4735 Clear 19 1016 68 10000 4.1 310 00:58 24.07.2019
4736 Clear 19 1016 68 10000 4.1 310 00:39 24.07.2019
4737 Clear 20 1016 72 10000 4.1 320 23:54 23.07.2019
4738 Clear 20 1016 68 10000 4.6 330 23:26 23.07.2019
4739 Clear 20 1016 64 10000 3.6 330 22:59 23.07.2019
4740 Clear 20 1016 64 10000 3.6 330 22:38 23.07.2019
4741 Clear 21 1016 60 10000 5.1 330 22:19 23.07.2019
4742 Clear 22 1016 56 10000 6.7 330 21:45 23.07.2019
4743 Clear 23 1016 53 10000 6.7 330 21:26 23.07.2019
4744 Clear 24 1016 50 10000 5.7 320 20:49 23.07.2019
4745 Clear 25 1016 47 10000 5.1 320 20:29 23.07.2019
4746 Clear 25 1015 47 10000 5.7 320 19:44 23.07.2019
4747 Clear 25 1015 47 10000 5.7 320 19:44 23.07.2019
4748 Clear 26 1016 50 10000 6.2 330 19:24 23.07.2019
4749 Clear 26 1016 50 10000 6.2 330 19:24 23.07.2019
4750 Clear 26 1016 54 10000 7.2 340 18:59 23.07.2019
4751 Clear 26 1016 54 10000 7.2 340 18:40 23.07.2019
4752 Clear 26 1016 54 10000 8.2 340 18:20 23.07.2019
4753 Clear 26 1016 50 10000 8.2 330 17:43 23.07.2019
4754 Clouds 27 1016 45 10000 6.2 310 17:22 23.07.2019
4755 Clear 27 1016 42 10000 6.2 330 16:48 23.07.2019
4756 Clear 27 1016 45 10000 4.6 320 16:27 23.07.2019
4757 Clear 28 1016 42 10000 5.7 330 15:52 23.07.2019
4758 Clear 28 1016 47 10000 3.6 310 15:34 23.07.2019
4759 Clear 27 1016 51 10000 3.6 310 14:59 23.07.2019
4760 Clear 27 1016 51 10000 3.6 310 14:37 23.07.2019
4761 Clouds 25 1016 47 10000 3.1 310 14:18 23.07.2019
4762 Clouds 25 1016 47 10000 3.1 310 14:18 23.07.2019
4763 Clouds 24 1016 54 10000 3.6 310 13:56 23.07.2019
4764 Clouds 24 1016 54 10000 3.6 310 13:37 23.07.2019
4765 Clouds 24 1016 53 10000 4.1 310 13:19 23.07.2019
4766 Clouds 23 1016 57 10000 3.1 10 12:42 23.07.2019
4767 Clouds 22 1016 64 10000 4.6 330 12:22 23.07.2019
4768 Clouds 21 1016 73 10000 5.1 330 11:41 23.07.2019
4769 Clouds 21 1017 73 10000 4.6 320 11:22 23.07.2019
4770 Clouds 20 1017 77 10000 5.1 330 10:51 23.07.2019
4771 Clouds 20 1017 77 10000 5.7 320 10:23 23.07.2019
4772 Clouds 19 1016 82 10000 5.7 320 09:43 23.07.2019
4773 Clouds 18 1016 88 10000 4.6 320 09:22 23.07.2019
4774 Clouds 18 1016 88 10000 4.1 320 08:56 23.07.2019
4775 Clouds 18 1016 88 10000 4.1 320 08:38 23.07.2019
4776 Clouds 18 1016 88 10000 5.1 320 08:18 23.07.2019
4777 Clouds 18 1016 88 10000 5.7 310 07:39 23.07.2019
4778 Clouds 18 1015 88 10000 4.6 310 06:58 23.07.2019
4779 Clouds 18 1015 88 10000 5.7 310 06:36 23.07.2019
4780 Clouds 19 1015 82 10000 5.1 310 04:45 23.07.2019
4781 Clouds 19 1016 88 10000 3.1 340 01:46 23.07.2019
4782 Clouds 19 1016 82 10000 4.1 340 00:47 23.07.2019
4783 Clouds 19 1016 88 10000 6.2 310 00:26 23.07.2019
4784 Clouds 19 1016 88 10000 7.2 310 23:40 22.07.2019
4785 Clouds 19 1016 93 10000 7.7 310 23:21 22.07.2019
4786 Clouds 19 1016 82 10000 9.3 310 22:46 22.07.2019
4787 Clouds 19 1016 82 10000 8.2 310 22:27 22.07.2019
4788 Clouds 20 1016 77 10000 7.7 310 21:58 22.07.2019
4789 Clouds 20 1016 77 10000 7.7 310 21:40 22.07.2019
4790 Clouds 20 1016 77 10000 8.2 310 21:20 22.07.2019
4791 Clear 22 1016 64 10000 5.1 300 20:44 22.07.2019
4792 Clear 24 1016 54 10000 4.6 300 20:23 22.07.2019
4793 Clear 25 1016 45 10000 5.1 330 19:43 22.07.2019
4794 Clear 27 1016 39 10000 5.1 320 19:24 22.07.2019
4795 Clear 28 1016 38 10000 4.1 240 18:57 22.07.2019
4796 Clear 28 1016 38 10000 4.1 240 18:39 22.07.2019
4797 Clear 28 1016 40 10000 4.1 260 18:21 22.07.2019
4798 Clear 28 1016 35 10000 3.6 280 17:39 22.07.2019
4799 Clear 28 1016 35 10000 3.1 0 17:20 22.07.2019
4800 Clear 28 1017 35 10000 2.6 340 16:41 22.07.2019
4801 Clear 28 1017 43 10000 2.6 120 16:21 22.07.2019
4802 Clear 28 1017 40 10000 2.1 0 15:58 22.07.2019
4803 Clear 28 1017 40 10000 2.1 0 15:37 22.07.2019
4804 Clear 27 1017 45 10000 2.6 360 15:18 22.07.2019
4805 Clear 26 1017 48 10000 3.1 300 14:42 22.07.2019
4806 Clear 26 1017 54 10000 2.6 0 14:20 22.07.2019
4807 Clouds 24 1018 57 10000 3.1 340 13:46 22.07.2019
4808 Clouds 25 1018 61 10000 3.1 340 13:28 22.07.2019
4809 Mist 24 1018 61 10000 3.6 330 12:45 22.07.2019
4810 Mist 22 1018 65 10000 3.1 300 12:25 22.07.2019
4811 Mist 22 1018 69 10000 2.6 330 11:45 22.07.2019
4812 Clouds 21 1018 78 10000 2.6 350 11:24 22.07.2019
4813 Mist 20 1018 77 10000 2.6 310 10:48 22.07.2019
4814 Mist 20 1018 82 10000 3.6 330 10:29 22.07.2019
4815 Mist 19 1018 88 10000 2.6 320 09:44 22.07.2019
4816 Mist 19 1018 88 10000 2.1 310 09:25 22.07.2019
4817 Mist 18 1018 88 10000 1.5 310 08:47 22.07.2019
4818 Clouds 18 1018 93 10000 1.5 0 08:26 22.07.2019
4819 Clouds 18 1018 93 10000 1.5 0 07:59 22.07.2019
4820 Clouds 18 1018 93 10000 1.5 0 07:40 22.07.2019
4821 Clear 18 1018 93 10000 2.1 320 07:21 22.07.2019
4822 Clear 18 1018 88 10000 5.1 320 03:58 22.07.2019
4823 Clear 18 1018 88 10000 5.1 310 02:43 22.07.2019
4824 Clear 18 1018 82 10000 6.7 320 00:57 22.07.2019
4825 Clear 19 1018 82 10000 6.2 320 00:28 22.07.2019
4826 Clear 18 1019 82 10000 7.2 320 23:56 21.07.2019
4827 Clear 18 1019 82 10000 7.2 320 23:36 21.07.2019
4828 Clear 19 1018 72 10000 6.7 320 22:55 21.07.2019
4829 Clear 20 1018 64 10000 6.2 320 22:36 21.07.2019
4830 Clear 20 1018 64 10000 6.2 320 22:18 21.07.2019
4831 Clear 21 1018 53 10000 6.2 320 21:44 21.07.2019
4832 Clear 22 1018 50 10000 6.2 320 21:24 21.07.2019
4833 Clear 23 1018 50 10000 7.2 330 20:55 21.07.2019
4834 Clear 24 1018 50 10000 7.2 330 20:37 21.07.2019
4835 Clear 24 1017 53 10000 6.7 320 20:19 21.07.2019
4836 Clear 24 1017 57 10000 6.7 320 19:47 21.07.2019
4837 Clear 25 1018 54 10000 6.7 320 19:24 21.07.2019
4838 Clear 26 1018 54 10000 7.2 320 18:48 21.07.2019
4839 Clear 25 1018 51 10000 6.2 310 18:26 21.07.2019
4840 Clear 26 1018 54 10000 6.2 320 17:43 21.07.2019
4841 Clear 26 1018 51 10000 5.7 310 17:20 21.07.2019
4842 Clear 26 1018 51 10000 7.2 330 16:58 21.07.2019
4843 Clear 26 1018 51 10000 7.2 330 16:39 21.07.2019
4844 Clear 27 1018 45 10000 6.7 330 16:20 21.07.2019
4845 Clear 28 1018 45 10000 6.2 310 15:37 21.07.2019
4846 Clear 27 1018 39 10000 5.1 320 15:19 21.07.2019
4847 Clear 26 1018 39 10000 4.6 330 14:42 21.07.2019
4848 Clear 26 1018 47 10000 4.6 340 14:22 21.07.2019
4849 Clear 25 1019 44 10000 5.7 350 13:52 21.07.2019
4850 Clear 24 1019 50 10000 4.6 350 13:32 21.07.2019
4851 Clear 24 1019 50 10000 6.2 10 12:45 21.07.2019
4852 Clear 23 1019 57 10000 4.6 340 12:26 21.07.2019
4853 Clear 23 1019 60 10000 5.7 330 11:52 21.07.2019
4854 Clouds 22 1019 64 10000 6.2 330 11:31 21.07.2019
4855 Clouds 21 1019 68 10000 5.1 340 10:58 21.07.2019
4856 Clouds 21 1019 68 10000 5.1 340 10:40 21.07.2019
4857 Clouds 20 1019 77 10000 5.7 330 10:22 21.07.2019
4858 Clouds 19 1018 77 10000 5.7 340 09:42 21.07.2019
4859 Clouds 19 1018 82 10000 5.1 340 09:24 21.07.2019
4860 Clouds 18 1018 88 10000 7.2 350 08:45 21.07.2019
4861 Clouds 18 1018 88 10000 7.2 350 08:45 21.07.2019
4862 Clouds 18 1018 88 10000 7.2 330 08:26 21.07.2019
4863 Clouds 18 1018 82 10000 5.7 330 07:39 21.07.2019
4864 Clouds 18 1018 88 10000 5.1 330 06:52 21.07.2019
4865 Clouds 18 1018 88 10000 6.7 330 05:43 21.07.2019
4866 Clouds 18 1019 88 10000 6.2 330 02:53 21.07.2019
4867 Clouds 18 1019 82 10000 4.1 350 01:19 21.07.2019
4868 Clouds 18 1019 82 10000 3.6 30 00:41 21.07.2019
4869 Clouds 18 1019 82 10000 4.6 350 00:18 21.07.2019
4870 Clouds 19 1019 82 10000 7.2 340 23:42 20.07.2019
4871 Clear 19 1018 72 10000 8.7 340 23:21 20.07.2019
4872 Clouds 19 1018 72 10000 8.7 330 22:45 20.07.2019
4873 Clouds 20 1018 72 10000 7.2 330 22:22 20.07.2019
4874 Clouds 20 1017 73 10000 7.2 340 21:57 20.07.2019
4875 Clouds 20 1017 73 10000 7.2 340 21:38 20.07.2019
4876 Clouds 21 1017 73 10000 8.2 320 21:20 20.07.2019
4877 Clouds 22 1017 73 10000 9.3 330 20:41 20.07.2019
4878 Clouds 22 1017 73 10000 9.3 320 20:19 20.07.2019
4879 Clouds 23 1017 69 10000 9.3 330 19:45 20.07.2019
4880 Clouds 24 1017 65 10000 7.7 320 19:20 20.07.2019
4881 Clouds 25 1017 61 10000 7.7 320 18:43 20.07.2019
4882 Clouds 25 1016 61 10000 7.2 310 18:20 20.07.2019
4883 Clear 25 1016 57 10000 7.2 320 17:54 20.07.2019
4884 Clear 26 1016 51 10000 7.7 330 17:23 20.07.2019
4885 Clear 27 1016 48 10000 7.2 340 16:44 20.07.2019
4886 Clear 28 1016 51 10000 5.7 310 16:26 20.07.2019
4887 Clouds 27 1016 51 10000 6.2 310 15:58 20.07.2019
4888 Clouds 27 1016 51 10000 6.2 310 15:38 20.07.2019
4889 Clouds 27 1017 54 10000 7.7 340 15:20 20.07.2019
4890 Clouds 26 1017 54 10000 6.7 330 14:47 20.07.2019
4891 Clouds 25 1017 54 10000 7.2 340 14:28 20.07.2019
4892 Clouds 24 1017 57 10000 7.2 340 13:39 20.07.2019
4893 Clouds 24 1017 64 10000 7.2 350 13:21 20.07.2019
4894 Clouds 23 1017 64 10000 5.7 350 12:57 20.07.2019
4895 Clouds 21 1017 69 10000 4.6 350 12:26 20.07.2019
4896 Clouds 21 1017 69 10000 4.6 350 12:26 20.07.2019
4897 Clouds 20 1017 77 10000 5.1 330 11:59 20.07.2019
4898 Clouds 20 1017 77 10000 5.1 330 11:37 20.07.2019
4899 Clouds 20 1016 77 10000 5.7 340 11:19 20.07.2019
4900 Clouds 19 1016 77 10000 8.2 340 10:37 20.07.2019
4901 Clouds 19 1016 82 10000 7.2 330 10:18 20.07.2019
4902 Clouds 19 1016 82 10000 7.7 310 09:45 20.07.2019
4903 Clouds 18 1015 88 10000 7.7 310 09:24 20.07.2019
4904 Clouds 18 1015 88 10000 10.3 320 08:47 20.07.2019
4905 Clouds 18 1015 88 10000 7.7 320 08:20 20.07.2019
4906 Clouds 18 1015 88 10000 4.6 330 07:26 20.07.2019
4907 Clouds 18 1015 88 10000 4.6 330 06:43 20.07.2019
4908 Clouds 18 1015 88 10000 5.7 340 04:57 20.07.2019
4909 Clouds 18 1015 88 10000 2.1 0 04:30 20.07.2019
4910 Clouds 18 1015 82 10000 5.1 340 01:22 20.07.2019
4911 Clouds 18 1015 82 10000 6.7 340 00:49 20.07.2019
4912 Clouds 18 1014 82 10000 6.7 340 00:26 20.07.2019
4913 Clouds 18 1015 82 10000 8.7 340 23:50 19.07.2019
4914 Clouds 19 1014 82 10000 8.7 330 23:29 19.07.2019
4915 Clouds 19 1014 72 10000 9.3 330 22:59 19.07.2019
4916 Clouds 19 1014 72 10000 9.3 330 22:40 19.07.2019
4917 Clouds 19 1014 68 10000 8.7 330 22:19 19.07.2019
4918 Clouds 20 1013 64 10000 6.7 320 21:43 19.07.2019
4919 Clouds 20 1013 64 10000 7.2 320 21:24 19.07.2019
4920 Clouds 21 1013 64 10000 7.7 320 20:43 19.07.2019
4921 Clouds 22 1013 60 10000 8.7 320 20:25 19.07.2019
4922 Clouds 23 1013 57 10000 8.2 320 19:39 19.07.2019
4923 Clouds 24 1013 53 10000 8.2 320 19:18 19.07.2019
4924 Clouds 24 1013 53 10000 8.2 320 18:40 19.07.2019
4925 Clouds 25 1013 54 10000 7.2 320 18:19 19.07.2019
4926 Clouds 25 1013 51 10000 7.2 320 17:45 19.07.2019
4927 Clouds 25 1014 57 10000 6.7 320 17:25 19.07.2019
4928 Clouds 25 1014 57 10000 6.7 320 16:48 19.07.2019
4929 Clouds 24 1014 57 10000 6.2 320 16:25 19.07.2019
4930 Clouds 24 1014 61 10000 6.7 320 15:48 19.07.2019
4931 Clouds 24 1014 61 10000 6.7 330 15:29 19.07.2019
4932 Clouds 23 1015 64 10000 5.7 320 14:56 19.07.2019
4933 Clouds 23 1015 64 10000 5.7 320 14:56 19.07.2019
4934 Clouds 23 1015 64 10000 5.7 320 14:37 19.07.2019
4935 Clouds 23 1015 69 10000 5.7 320 14:19 19.07.2019
4936 Mist 22 1015 69 10000 6.7 320 13:43 19.07.2019
4937 Mist 22 1015 69 10000 5.1 310 13:22 19.07.2019
4938 Mist 22 1015 69 10000 6.7 340 12:49 19.07.2019
4939 Mist 20 1015 77 10000 6.2 330 12:30 19.07.2019
4940 Mist 20 1015 77 10000 5.7 330 11:47 19.07.2019
4941 Mist 19 1015 82 10000 5.7 320 11:20 19.07.2019
4942 Mist 19 1015 88 10000 5.7 330 10:58 19.07.2019
4943 Mist 19 1015 88 10000 5.7 330 10:39 19.07.2019
4944 Clouds 19 1015 88 10000 5.1 330 10:20 19.07.2019
4945 Clouds 18 1015 88 10000 4.1 330 09:44 19.07.2019
4946 Mist 18 1014 93 10000 5.1 330 09:22 19.07.2019
4947 Mist 18 1014 93 10000 4.6 330 08:50 19.07.2019
4948 Clouds 17 1014 93 10000 5.1 330 08:32 19.07.2019
4949 Clouds 18 1014 93 10000 6.2 320 07:34 19.07.2019
4950 Clouds 18 1014 93 10000 4.6 320 06:47 19.07.2019
4951 Clouds 18 1014 88 10000 6.2 320 05:39 19.07.2019
4952 Clouds 18 1015 88 10000 6.7 320 01:56 19.07.2019
4953 Clouds 19 1016 82 10000 4.6 330 00:58 19.07.2019
4954 Clouds 19 1016 82 10000 7.7 330 00:21 19.07.2019
4955 Clouds 19 1016 82 10000 7.7 330 23:41 18.07.2019
4956 Clouds 19 1015 82 10000 6.7 330 23:23 18.07.2019
4957 Clouds 19 1015 82 10000 6.7 330 22:57 18.07.2019
4958 Clouds 19 1015 77 10000 6.7 330 22:39 18.07.2019
4959 Clouds 20 1015 77 10000 6.7 330 22:18 18.07.2019
4960 Clouds 21 1015 73 10000 8.2 330 21:39 18.07.2019
4961 Clouds 21 1015 68 10000 7.2 320 21:20 18.07.2019
4962 Clouds 22 1015 64 10000 7.7 320 20:48 18.07.2019
4963 Clouds 23 1014 57 10000 7.7 310 20:27 18.07.2019
4964 Clouds 24 1014 50 10000 6.7 310 19:51 18.07.2019
4965 Clear 24 1014 44 10000 7.2 310 19:28 18.07.2019
4966 Clear 26 1014 36 10000 7.7 330 18:52 18.07.2019
4967 Clear 26 1015 34 10000 6.7 310 18:24 18.07.2019
4968 Clear 26 1015 36 10000 7.2 320 17:57 18.07.2019
4969 Clear 26 1015 36 10000 7.2 320 17:38 18.07.2019
4970 Clear 26 1015 34 10000 8.2 340 17:19 18.07.2019
4971 Clear 26 1015 37 10000 7.7 340 16:53 18.07.2019
4972 Clear 26 1015 39 10000 7.7 330 16:29 18.07.2019
4973 Clear 26 1015 42 10000 7.2 330 15:58 18.07.2019
4974 Clear 25 1016 45 10000 7.7 340 15:36 18.07.2019
4975 Clear 25 1016 47 10000 5.7 320 14:57 18.07.2019
4976 Clear 25 1016 47 10000 5.7 320 14:38 18.07.2019
4977 Clear 25 1016 47 10000 5.7 350 14:20 18.07.2019
4978 Clouds 24 1016 53 10000 5.7 350 13:43 18.07.2019
4979 Clouds 24 1016 53 10000 6.2 340 13:22 18.07.2019
4980 Clouds 23 1016 57 10000 6.7 340 12:48 18.07.2019
4981 Clouds 22 1016 56 10000 5.1 330 12:21 18.07.2019
4982 Clouds 21 1016 60 10000 5.1 340 11:52 18.07.2019
4983 Clouds 21 1016 60 10000 5.7 340 11:34 18.07.2019
4984 Clouds 20 1016 68 10000 8.2 330 10:58 18.07.2019
4985 Clouds 20 1016 68 10000 4.6 330 10:38 18.07.2019
4986 Clouds 18 1016 77 10000 5.1 320 09:48 18.07.2019
4987 Clouds 17 1016 82 10000 5.7 310 09:25 18.07.2019
4988 Clouds 17 1016 82 10000 5.1 310 08:50 18.07.2019
4989 Clouds 17 1016 82 10000 3.1 310 08:21 18.07.2019
4990 Clouds 17 1016 82 10000 4.1 320 07:48 18.07.2019
4991 Clouds 17 1016 82 10000 5.1 330 07:27 18.07.2019
4992 Clouds 17 1016 82 10000 5.1 340 06:43 18.07.2019
4993 Clouds 17 1016 88 10000 4.6 340 05:57 18.07.2019
4994 Clouds 17 1017 82 10000 5.7 350 03:24 18.07.2019
4995 Clouds 17 1018 82 10000 6.2 340 01:52 18.07.2019
4996 Clouds 17 1018 82 10000 5.7 350 01:20 18.07.2019
4997 Clouds 18 1018 82 10000 7.7 340 23:55 17.07.2019
4998 Clouds 18 1018 82 10000 10.3 340 23:21 17.07.2019
4999 Clouds 18 1017 82 10000 9.8 330 22:58 17.07.2019
5000 Clouds 18 1017 82 10000 9.8 330 22:40 17.07.2019
5001 Clouds 18 1017 82 10000 10.3 330 22:20 17.07.2019
5002 Clouds 19 1017 77 10000 9.8 340 21:45 17.07.2019
5003 Clouds 19 1017 77 10000 10.8 340 21:27 17.07.2019
5004 Clouds 19 1017 72 10000 7.7 330 20:58 17.07.2019
5005 Clouds 20 1017 72 10000 7.7 330 20:40 17.07.2019
5006 Clouds 20 1017 72 10000 7.7 330 20:21 17.07.2019
5007 Clouds 20 1017 68 10000 6.7 330 19:56 17.07.2019
5008 Clouds 21 1017 68 10000 7.7 330 19:37 17.07.2019
5009 Clouds 21 1017 68 10000 7.7 330 19:18 17.07.2019
5010 Clouds 21 1017 68 10000 7.2 320 18:41 17.07.2019
5011 Clouds 21 1017 68 10000 7.2 320 18:20 17.07.2019
5012 Clouds 21 1017 68 10000 6.7 310 17:50 17.07.2019
5013 Clouds 21 1017 68 10000 6.7 310 17:27 17.07.2019
5014 Clouds 21 1017 64 10000 6.7 310 16:56 17.07.2019
5015 Clouds 21 1017 73 10000 6.2 320 16:38 17.07.2019
5016 Clouds 21 1017 73 10000 6.2 320 16:18 17.07.2019
5017 Clouds 20 1017 73 10000 6.2 320 15:50 17.07.2019
5018 Clouds 21 1018 72 10000 7.2 330 15:25 17.07.2019
5019 Clouds 20 1018 77 10000 5.7 320 14:54 17.07.2019
5020 Clouds 20 1018 77 10000 7.2 330 14:36 17.07.2019
5021 Clouds 20 1018 77 10000 6.7 330 14:18 17.07.2019
5022 Clouds 19 1017 77 10000 6.7 340 13:41 17.07.2019
5023 Clouds 19 1017 77 10000 6.7 340 13:21 17.07.2019
5024 Clouds 20 1017 82 10000 5.7 340 12:40 17.07.2019
5025 Clouds 20 1017 82 10000 5.7 340 12:21 17.07.2019
5026 Clouds 19 1017 82 10000 7.2 340 11:45 17.07.2019
5027 Clouds 19 1017 82 10000 7.2 340 11:21 17.07.2019
5028 Clouds 18 1017 82 10000 8.2 330 10:51 17.07.2019
5029 Clouds 18 1016 82 10000 6.7 340 10:31 17.07.2019
5030 Clouds 18 1016 82 10000 6.7 340 10:31 17.07.2019
5031 Clouds 18 1016 82 10000 6.7 340 09:59 17.07.2019
5032 Clouds 18 1016 82 10000 7.2 330 09:40 17.07.2019
5033 Clouds 18 1016 82 10000 7.2 330 09:22 17.07.2019
5034 Clouds 18 1016 82 10000 5.1 320 08:43 17.07.2019
5035 Clouds 18 1015 88 10000 5.1 310 08:22 17.07.2019
5036 Clouds 18 1015 88 10000 7.2 320 07:50 17.07.2019
5037 Clouds 18 1015 88 10000 7.2 320 07:24 17.07.2019
5038 Clouds 18 1015 88 10000 5.7 320 06:56 17.07.2019
5039 Clouds 18 1015 88 10000 7.2 310 06:30 17.07.2019
5040 Clouds 18 1015 88 10000 8.7 320 05:49 17.07.2019
5041 Clouds 18 1015 88 10000 8.7 320 05:28 17.07.2019
5042 Clouds 18 1015 88 10000 5.7 320 04:45 17.07.2019
5043 Clouds 18 1016 88 10000 5.7 330 03:29 17.07.2019
5044 Clouds 18 1016 88 10000 5.1 330 02:19 17.07.2019
5045 Clouds 18 1016 88 10000 5.7 320 01:26 17.07.2019
5046 Clouds 18 1016 88 10000 6.7 330 00:59 17.07.2019
5047 Clouds 18 1016 88 10000 6.2 330 00:37 17.07.2019
5048 Clouds 18 1016 88 10000 5.7 330 00:19 17.07.2019
5049 Clouds 18 1016 88 10000 5.7 330 00:19 17.07.2019
5050 Clouds 18 1016 88 10000 3.6 0 23:38 16.07.2019
5051 Clouds 18 1016 88 10000 3.6 0 23:18 16.07.2019
5052 Clouds 18 1015 82 10000 7.7 330 22:43 16.07.2019
5053 Clouds 19 1015 82 10000 7.7 330 22:24 16.07.2019
5054 Clouds 19 1015 82 10000 5.7 320 21:47 16.07.2019
5055 Clouds 19 1015 82 10000 5.7 320 21:25 16.07.2019
5056 Clouds 19 1015 77 10000 4.1 320 20:58 16.07.2019
5057 Clouds 19 1015 77 10000 6.2 330 20:40 16.07.2019
5058 Clouds 20 1015 77 10000 7.7 320 20:21 16.07.2019
5059 Clouds 20 1015 77 10000 7.7 320 19:53 16.07.2019
5060 Clouds 20 1015 77 10000 6.7 320 19:29 16.07.2019
5061 Clouds 20 1015 73 10000 6.7 330 18:58 16.07.2019
5062 Clouds 21 1015 73 10000 6.2 330 18:39 16.07.2019
5063 Clouds 21 1015 68 10000 6.2 330 18:20 16.07.2019
5064 Clouds 21 1015 73 10000 4.6 310 17:44 16.07.2019
5065 Clouds 21 1015 73 10000 4.6 310 17:24 16.07.2019
5066 Clouds 22 1015 64 10000 5.1 320 16:49 16.07.2019
5067 Clouds 22 1015 64 10000 5.1 320 16:25 16.07.2019
5068 Clouds 22 1015 68 10000 4.6 310 15:56 16.07.2019
5069 Clouds 22 1015 68 10000 5.1 330 15:38 16.07.2019
5070 Clouds 22 1015 68 10000 5.1 330 15:18 16.07.2019
5071 Clouds 21 1016 77 10000 5.1 310 14:46 16.07.2019
5072 Clouds 21 1016 77 10000 5.1 310 14:28 16.07.2019
5073 Mist 20 1016 82 10000 5.7 330 13:57 16.07.2019
5074 Mist 20 1016 82 10000 5.7 330 13:57 16.07.2019
5075 Mist 20 1016 88 10000 5.7 320 13:37 16.07.2019
5076 Drizzle 19 1016 88 10000 5.1 320 13:18 16.07.2019
5077 Drizzle 19 1016 88 10000 4.1 320 12:42 16.07.2019
5078 Drizzle 19 1015 82 10000 4.6 350 12:20 16.07.2019
5079 Drizzle 19 1015 88 10000 4.1 330 11:54 16.07.2019
5080 Drizzle 19 1016 88 10000 5.7 330 11:36 16.07.2019
5081 Drizzle 18 1016 88 10000 4.6 330 11:18 16.07.2019
5082 Drizzle 18 1015 88 10000 5.7 320 10:43 16.07.2019
5083 Drizzle 18 1015 88 10000 6.2 330 10:19 16.07.2019
5084 Drizzle 18 1015 88 10000 4.6 330 09:43 16.07.2019
5085 Drizzle 18 1015 88 10000 4.6 330 09:21 16.07.2019
5086 Drizzle 18 1015 88 10000 5.7 330 08:48 16.07.2019
5087 Drizzle 18 1015 88 10000 6.7 340 08:27 16.07.2019
5088 Clouds 18 1015 88 10000 6.2 330 07:54 16.07.2019
5089 Clouds 18 1014 88 10000 6.7 340 07:35 16.07.2019
5090 Clouds 18 1014 82 10000 6.2 330 06:58 16.07.2019
5091 Clouds 18 1014 82 10000 5.7 330 06:37 16.07.2019
5092 Clouds 18 1014 82 10000 4.1 330 05:52 16.07.2019
5093 Clouds 18 1015 82 10000 5.1 340 05:27 16.07.2019
5094 Clouds 18 1015 82 10000 3.1 0 04:34 16.07.2019
5095 Clouds 18 1015 82 10000 5.1 330 03:43 16.07.2019
5096 Clouds 18 1016 77 10000 6.7 330 02:44 16.07.2019
5097 Clouds 19 1016 77 10000 6.7 330 02:24 16.07.2019
5098 Clouds 19 1016 82 10000 4.6 340 01:26 16.07.2019
5099 Clouds 19 1016 82 10000 4.1 340 00:24 16.07.2019
5100 Clouds 19 1016 82 10000 4.1 340 23:58 15.07.2019
5101 Clouds 19 1016 82 10000 6.7 330 23:39 15.07.2019
5102 Clouds 19 1016 82 10000 7.2 330 23:20 15.07.2019
5103 Clouds 19 1015 88 10000 8.2 330 22:44 15.07.2019
5104 Clouds 19 1015 88 10000 8.2 330 22:20 15.07.2019
5105 Clouds 19 1015 88 10000 7.7 320 21:57 15.07.2019
5106 Clouds 19 1015 88 10000 7.7 320 21:39 15.07.2019
5107 Clouds 20 1015 88 10000 7.7 320 21:19 15.07.2019
5108 Clouds 21 1015 77 10000 6.2 310 20:44 15.07.2019
5109 Clouds 21 1015 77 10000 6.2 310 20:24 15.07.2019
5110 Clouds 21 1015 77 10000 7.2 300 19:57 15.07.2019
5111 Clouds 22 1015 73 10000 7.7 320 19:38 15.07.2019
5112 Clouds 22 1015 73 10000 7.7 310 19:18 15.07.2019
5113 Clouds 22 1015 73 10000 7.7 310 18:44 15.07.2019
5114 Clouds 22 1015 69 10000 6.7 310 18:21 15.07.2019
5115 Clouds 22 1015 69 10000 6.7 310 17:57 15.07.2019
5116 Clouds 22 1015 73 10000 7.7 310 17:38 15.07.2019
5117 Clouds 22 1015 73 10000 7.7 310 17:20 15.07.2019
5118 Clouds 22 1016 73 10000 7.2 310 16:57 15.07.2019
5119 Clouds 22 1016 73 10000 7.2 310 16:36 15.07.2019
5120 Drizzle 22 1016 73 10000 7.7 310 16:18 15.07.2019
5121 Drizzle 23 1016 64 10000 6.2 310 15:39 15.07.2019
5122 Drizzle 23 1016 64 10000 6.2 310 15:39 15.07.2019
5123 Drizzle 23 1016 64 10000 6.2 310 15:21 15.07.2019
5124 Clouds 22 1016 64 10000 6.2 310 14:58 15.07.2019
5125 Clouds 22 1016 73 10000 6.7 330 14:37 15.07.2019
5126 Clouds 22 1016 73 10000 7.2 330 14:19 15.07.2019
5127 Clouds 22 1016 73 10000 6.7 320 13:46 15.07.2019
5128 Clouds 22 1016 68 10000 5.7 310 13:18 15.07.2019
5129 Clouds 22 1016 73 10000 5.1 320 12:44 15.07.2019
5130 Clouds 21 1016 73 10000 5.1 320 12:25 15.07.2019
5131 Clouds 21 1016 68 10000 6.7 340 11:44 15.07.2019
5132 Clouds 21 1016 68 10000 6.7 340 11:26 15.07.2019
5133 Clouds 20 1016 73 10000 6.2 330 10:59 15.07.2019
5134 Clouds 20 1016 77 10000 6.7 330 10:40 15.07.2019
5135 Clouds 20 1016 77 10000 6.7 330 10:22 15.07.2019
5136 Clouds 19 1016 82 10000 5.1 330 09:42 15.07.2019
5137 Clouds 19 1016 82 10000 5.1 330 09:19 15.07.2019
5138 Clouds 18 1015 82 10000 5.1 330 08:45 15.07.2019
5139 Clouds 18 1015 82 10000 5.1 330 08:24 15.07.2019
5140 Clouds 18 1015 88 10000 5.1 330 07:43 15.07.2019
5141 Clouds 18 1015 88 10000 5.1 330 07:21 15.07.2019
5142 Clouds 19 1015 88 10000 5.7 320 06:40 15.07.2019
5143 Clouds 18 1015 88 10000 4.6 320 06:18 15.07.2019
5144 Clouds 18 1015 88 10000 4.1 310 05:42 15.07.2019
5145 Clouds 19 1015 88 10000 3.6 320 04:45 15.07.2019
5146 Clouds 19 1015 88 10000 3.6 320 04:23 15.07.2019
5147 Clouds 19 1016 88 10000 4.6 330 02:51 15.07.2019
5148 Clouds 19 1016 88 10000 5.1 320 02:18 15.07.2019
5149 Clouds 19 1016 88 10000 4.6 310 01:34 15.07.2019
5150 Clouds 19 1016 88 10000 3.6 310 00:53 15.07.2019
5151 Clouds 19 1016 88 10000 4.6 320 00:28 15.07.2019
5152 Clouds 19 1016 88 10000 5.1 310 23:58 14.07.2019
5153 Clouds 20 1016 88 10000 5.1 310 23:40 14.07.2019
5154 Clouds 20 1016 88 10000 5.1 310 23:20 14.07.2019
5155 Clouds 20 1016 82 10000 5.7 310 22:57 14.07.2019
5156 Clouds 20 1015 82 10000 4.6 310 22:38 14.07.2019
5157 Clouds 20 1015 82 10000 4.6 310 22:20 14.07.2019
5158 Clouds 21 1015 77 10000 4.1 310 21:42 14.07.2019
5159 Clouds 21 1015 77 10000 4.1 310 21:19 14.07.2019
5160 Clear 21 1015 73 10000 4.6 300 20:57 14.07.2019
5161 Clear 22 1015 73 10000 5.1 310 20:38 14.07.2019
5162 Clear 22 1015 69 10000 5.1 300 20:19 14.07.2019
5163 Clear 22 1015 60 10000 4.6 300 19:46 14.07.2019
5164 Clear 23 1015 60 10000 4.6 300 19:28 14.07.2019
5165 Clear 23 1015 60 10000 4.6 310 18:58 14.07.2019
5166 Clouds 23 1015 57 10000 5.1 320 18:39 14.07.2019
5167 Clouds 23 1016 57 10000 5.1 260 18:21 14.07.2019
5168 Clouds 23 1016 57 10000 5.1 260 17:54 14.07.2019
5169 Clouds 23 1016 57 10000 5.1 270 17:22 14.07.2019
5170 Clouds 23 1016 57 10000 5.1 270 17:22 14.07.2019
5171 Clouds 23 1016 57 10000 5.7 260 16:52 14.07.2019
5172 Clouds 23 1016 57 10000 5.1 260 16:24 14.07.2019
5173 Clouds 23 1016 57 10000 6.2 210 15:57 14.07.2019
5174 Clouds 23 1016 61 10000 6.7 220 15:35 14.07.2019
5175 Clouds 23 1016 61 10000 6.2 220 14:56 14.07.2019
5176 Clouds 23 1016 64 10000 4.1 220 14:37 14.07.2019
5177 Clouds 22 1016 64 10000 3.6 240 14:18 14.07.2019
5178 Clouds 23 1016 69 10000 2.6 240 13:44 14.07.2019
5179 Clouds 22 1016 69 10000 2.6 240 13:21 14.07.2019
5180 Clouds 21 1017 77 10000 2.1 0 12:43 14.07.2019
5181 Clouds 21 1017 77 10000 2.1 0 12:22 14.07.2019
5182 Clouds 20 1017 82 10000 2.1 0 11:57 14.07.2019
5183 Clouds 20 1016 82 10000 2.6 270 11:38 14.07.2019
5184 Clouds 20 1016 82 10000 2.6 270 11:19 14.07.2019
5185 Clouds 19 1016 82 10000 2.1 320 10:42 14.07.2019
5186 Clouds 19 1016 82 10000 3.1 340 10:19 14.07.2019
5187 Clouds 19 1016 82 10000 2.6 290 09:44 14.07.2019
5188 Clouds 19 1016 82 10000 2.6 290 09:24 14.07.2019
5189 Clouds 19 1015 82 10000 2.1 320 08:45 14.07.2019
5190 Clouds 19 1015 82 10000 3.6 310 08:20 14.07.2019
5191 Clouds 19 1015 82 10000 3.1 310 07:39 14.07.2019
5192 Clouds 19 1015 82 10000 3.6 310 06:59 14.07.2019
5193 Clouds 19 1015 82 10000 3.1 280 05:45 14.07.2019
5194 Clouds 19 1016 88 10000 4.1 310 03:50 14.07.2019
5195 Clouds 19 1016 88 10000 3.1 300 03:32 14.07.2019
5196 Clouds 19 1016 88 10000 3.6 280 02:50 14.07.2019
5197 Clouds 19 1016 88 10000 3.1 300 02:22 14.07.2019
5198 Clouds 19 1016 88 10000 3.6 270 01:34 14.07.2019
5199 Clouds 19 1016 82 10000 4.1 260 00:58 14.07.2019
5200 Clouds 19 1016 88 10000 3.6 270 00:39 14.07.2019
5201 Clouds 19 1016 88 10000 4.6 260 00:20 14.07.2019
5202 Clouds 19 1016 82 10000 4.1 280 23:45 13.07.2019
5203 Clouds 20 1016 82 10000 4.1 280 23:25 13.07.2019
5204 Clouds 20 1016 82 10000 4.1 270 22:56 13.07.2019
5205 Clouds 20 1016 77 10000 4.1 270 22:37 13.07.2019
5206 Clouds 20 1016 77 10000 4.1 270 22:37 13.07.2019
5207 Clouds 20 1016 73 10000 5.1 270 22:19 13.07.2019
5208 Clouds 21 1016 64 10000 5.1 250 21:42 13.07.2019
5209 Clouds 21 1015 57 10000 5.7 230 21:19 13.07.2019
5210 Clouds 21 1015 57 10000 5.7 230 21:19 13.07.2019
5211 Clear 23 1015 53 10000 6.7 230 20:45 13.07.2019
5212 Clear 22 1015 53 10000 6.7 230 20:26 13.07.2019
5213 Clear 24 1015 50 10000 6.2 210 19:46 13.07.2019
5214 Clear 25 1015 50 10000 6.2 210 19:27 13.07.2019
5215 Clouds 24 1016 57 10000 6.7 230 18:44 13.07.2019
5216 Clouds 24 1016 61 10000 6.7 240 18:21 13.07.2019
5217 Clouds 24 1016 61 10000 6.7 230 17:40 13.07.2019
5218 Clouds 24 1016 61 10000 6.7 230 17:20 13.07.2019
5219 Clouds 24 1016 61 10000 7.2 230 16:57 13.07.2019
5220 Clouds 24 1016 61 10000 7.2 220 16:37 13.07.2019
5221 Clouds 24 1016 61 10000 7.2 220 16:37 13.07.2019
5222 Clouds 24 1016 64 10000 7.2 230 16:19 13.07.2019
5223 Clouds 23 1016 69 10000 7.2 230 15:43 13.07.2019
5224 Clouds 24 1016 69 10000 7.2 230 15:21 13.07.2019
5225 Clouds 23 1017 69 10000 7.2 220 14:44 13.07.2019
5226 Clouds 23 1017 69 10000 7.2 220 14:22 13.07.2019
5227 Clouds 23 1016 64 10000 3.1 210 13:46 13.07.2019
5228 Clouds 23 1016 64 10000 3.1 210 13:24 13.07.2019
5229 Clouds 23 1016 69 10000 3.6 210 12:59 13.07.2019
5230 Clouds 22 1016 78 10000 5.7 220 12:37 13.07.2019
5231 Clouds 21 1016 83 10000 5.1 230 12:18 13.07.2019
5232 Fog 20 1016 83 10000 4.1 220 11:41 13.07.2019
5233 Fog 20 1016 83 10000 4.1 220 11:19 13.07.2019
5234 Fog 20 1016 88 7000 4.1 210 10:44 13.07.2019
5235 Fog 19 1016 88 7000 4.1 210 10:23 13.07.2019
5236 Fog 19 1016 93 10000 2.6 230 09:54 13.07.2019
5237 Fog 19 1016 93 10000 2.6 230 09:54 13.07.2019
5238 Fog 19 1016 93 10000 3.6 240 09:31 13.07.2019
5239 Fog 18 1015 93 10000 3.1 220 08:58 13.07.2019
5240 Fog 18 1015 93 10000 3.6 230 08:33 13.07.2019
5241 Clouds 18 1015 100 9000 4.6 210 07:59 13.07.2019
5242 Clouds 18 1014 93 10000 2.6 220 07:30 13.07.2019
5243 Clouds 18 1015 93 10000 5.7 220 06:39 13.07.2019
5244 Clouds 19 1015 93 10000 3.6 240 05:58 13.07.2019
5245 Clouds 19 1015 93 10000 5.1 220 05:28 13.07.2019
5246 Clouds 19 1015 93 10000 4.1 220 04:23 13.07.2019
5247 Clouds 19 1015 93 10000 4.6 220 03:56 13.07.2019
5248 Clouds 19 1015 88 10000 4.1 210 03:37 13.07.2019
5249 Clouds 19 1016 88 10000 4.1 230 01:55 13.07.2019
5250 Clouds 19 1016 88 10000 4.1 240 01:37 13.07.2019
5251 Clouds 19 1016 82 10000 3.1 230 01:18 13.07.2019
5252 Clouds 19 1016 82 10000 2.6 240 00:51 13.07.2019
5253 Clear 20 1015 82 10000 3.1 220 00:19 13.07.2019
5254 Clear 20 1015 77 10000 3.1 240 23:46 12.07.2019
5255 Clear 20 1015 77 10000 3.1 240 23:28 12.07.2019
5256 Clouds 20 1015 73 10000 4.1 240 22:46 12.07.2019
5257 Clouds 20 1015 73 10000 4.1 240 22:46 12.07.2019
5258 Clouds 20 1015 73 10000 4.1 240 22:24 12.07.2019
5259 Clouds 21 1014 69 10000 5.7 240 21:43 12.07.2019
5260 Clouds 21 1014 69 10000 5.7 240 21:22 12.07.2019
5261 Clouds 22 1014 64 10000 5.7 250 20:56 12.07.2019
5262 Clouds 23 1014 69 10000 6.2 240 20:37 12.07.2019
5263 Clouds 24 1014 64 10000 5.7 230 20:19 12.07.2019
5264 Clouds 24 1014 69 10000 6.2 240 19:41 12.07.2019
5265 Thunderstorm 24 1014 69 10000 6.2 240 19:23 12.07.2019
5266 Thunderstorm 23 1014 69 10000 5.7 230 18:44 12.07.2019
5267 Thunderstorm 23 1014 69 10000 5.7 230 18:21 12.07.2019
5268 Thunderstorm 23 1014 69 10000 5.7 230 17:51 12.07.2019
5269 Thunderstorm 24 1014 69 10000 5.1 230 17:28 12.07.2019
5270 Thunderstorm 25 1015 65 10000 5.1 210 16:48 12.07.2019
5271 Clouds 25 1015 57 10000 5.1 190 16:22 12.07.2019
5272 Clouds 25 1015 65 10000 5.1 190 15:42 12.07.2019
5273 Clouds 25 1015 65 10000 5.1 190 15:22 12.07.2019
5274 Clouds 24 1015 65 10000 5.7 200 14:58 12.07.2019
5275 Clouds 24 1015 73 10000 3.6 120 14:39 12.07.2019
5276 Clouds 24 1015 73 10000 3.6 120 14:20 12.07.2019
5277 Clouds 24 1015 78 10000 3.1 200 13:42 12.07.2019
5278 Clouds 23 1015 78 10000 5.7 220 13:20 12.07.2019
5279 Clouds 22 1015 73 10000 6.2 230 12:41 12.07.2019
5280 Clouds 22 1015 73 10000 6.2 230 12:21 12.07.2019
5281 Clear 23 1015 78 10000 2.6 100 11:45 12.07.2019
5282 Clear 23 1015 78 10000 2.6 100 11:23 12.07.2019
5283 Clear 23 1015 83 10000 3.6 80 10:55 12.07.2019
5284 Clear 22 1015 78 10000 2.6 110 10:37 12.07.2019
5285 Clear 22 1013 69 10000 2.1 340 10:18 12.07.2019
5286 Clear 22 1014 69 10000 2.6 190 09:46 12.07.2019
5287 Clear 22 1014 69 10000 2.6 190 09:23 12.07.2019
5288 Clouds 20 1014 88 9000 1.5 140 08:42 12.07.2019
5289 Clouds 20 1014 88 9000 1.5 140 08:21 12.07.2019
5290 Clear 20 1013 88 10000 1.5 10 07:47 12.07.2019
5291 Clear 20 1013 88 10000 1.5 10 07:28 12.07.2019
5292 Clear 20 1013 88 10000 2.1 30 06:29 12.07.2019
5293 Clear 21 1013 60 10000 3.1 90 05:50 12.07.2019
5294 Clear 21 1014 50 10000 0.5 0 03:46 12.07.2019
5295 Clear 22 1013 47 10000 1.5 360 01:50 12.07.2019
5296 Clear 23 1013 44 10000 1 0 01:32 12.07.2019
5297 Clear 24 1013 42 10000 3.6 360 00:34 12.07.2019
5298 Clear 25 1013 42 10000 4.6 340 23:56 11.07.2019
5299 Clear 25 1012 42 10000 3.1 10 23:37 11.07.2019
5300 Clear 25 1012 42 10000 3.1 10 23:37 11.07.2019
5301 Clear 26 1012 39 10000 4.6 350 23:18 11.07.2019
5302 Clear 26 1012 35 10000 3.6 350 22:42 11.07.2019
5303 Clear 26 1012 35 10000 3.6 350 22:23 11.07.2019
5304 Clear 26 1012 35 10000 3.6 350 22:23 11.07.2019
5305 Clear 29 1011 33 10000 5.1 310 21:43 11.07.2019
5306 Clear 30 1011 31 10000 5.7 330 21:20 11.07.2019
5307 Clear 30 1011 31 10000 5.7 330 21:20 11.07.2019
5308 Clear 29 1011 33 10000 5.1 310 21:20 11.07.2019
5309 Clear 30 1011 31 10000 5.7 330 20:58 11.07.2019
5310 Clear 32 1011 29 10000 5.1 320 20:40 11.07.2019
5311 Clear 32 1011 28 10000 8.2 330 20:22 11.07.2019
5312 Clear 35 1011 26 10000 6.2 300 19:48 11.07.2019
5313 Clear 35 1011 26 10000 6.2 300 19:30 11.07.2019
5314 Clear 36 1011 25 10000 6.2 310 18:57 11.07.2019
5315 Clear 34 1011 26 10000 5.7 310 18:38 11.07.2019
5316 Clear 36 1011 28 10000 5.1 300 18:20 11.07.2019
5317 Clear 35 1011 24 10000 2.6 0 17:43 11.07.2019
5318 Clear 35 1011 24 10000 2.6 0 17:25 11.07.2019
5319 Clear 35 1012 17 10000 3.6 60 16:52 11.07.2019
5320 Clear 35 1012 18 10000 3.1 90 16:24 11.07.2019
5321 Clear 35 1012 20 10000 2.6 70 15:55 11.07.2019
5322 Clear 34 1012 21 10000 2.1 0 15:36 11.07.2019
5323 Clear 34 1012 21 10000 2.1 0 15:18 11.07.2019
5324 Clear 32 1013 24 10000 2.1 0 14:43 11.07.2019
5325 Clear 32 1013 24 10000 2.1 0 14:22 11.07.2019
5326 Clear 31 1013 35 10000 3.6 0 13:47 11.07.2019
5327 Clear 31 1013 35 10000 3.6 0 13:28 11.07.2019
5328 Clear 30 1013 37 10000 3.6 50 12:47 11.07.2019
5329 Clear 31 1013 37 10000 3.6 50 12:28 11.07.2019
5330 Clear 28 1013 42 10000 3.6 70 11:59 11.07.2019
5331 Clear 27 1013 48 10000 3.1 30 11:41 11.07.2019
5332 Clear 27 1013 48 10000 3.1 30 11:22 11.07.2019
5333 Clear 25 1013 60 10000 3.1 30 10:46 11.07.2019
5334 Clear 24 1013 64 10000 2.6 50 10:19 11.07.2019
5335 Clear 22 1013 68 10000 2.6 100 09:48 11.07.2019
5336 Clear 22 1013 68 10000 2.6 100 09:29 11.07.2019
5337 Clear 21 1013 77 10000 2.6 120 08:53 11.07.2019
5338 Clear 20 1012 64 10000 2.1 70 08:27 11.07.2019
5339 Clear 20 1012 64 10000 3.6 330 07:57 11.07.2019
5340 Clear 20 1012 60 10000 3.1 340 07:38 11.07.2019
5341 Clear 21 1012 56 10000 5.1 340 06:41 11.07.2019
5342 Clear 21 1012 60 10000 3.6 330 05:53 11.07.2019
5343 Clear 22 1012 56 10000 4.6 330 05:30 11.07.2019
5344 Clear 22 1012 60 10000 3.6 320 04:55 11.07.2019
5345 Clear 22 1013 57 10000 7.2 330 02:41 11.07.2019
5346 Clear 22 1013 57 10000 7.2 330 02:41 11.07.2019
5347 Clear 22 1013 53 10000 6.2 320 01:43 11.07.2019
5348 Clear 22 1013 53 10000 5.7 310 00:31 11.07.2019
5349 Clear 23 1012 57 10000 6.2 310 23:49 10.07.2019
5350 Clear 23 1012 60 10000 7.7 330 23:20 10.07.2019
5351 Clear 23 1012 60 10000 7.7 330 22:52 10.07.2019
5352 Clear 24 1012 54 10000 5.7 320 22:22 10.07.2019
5353 Clear 25 1013 51 10000 4.6 300 21:48 10.07.2019
5354 Clear 25 1013 51 10000 4.6 300 21:28 10.07.2019
5355 Clear 26 1012 54 10000 5.1 300 20:59 10.07.2019
5356 Clear 27 1012 54 10000 6.7 310 20:40 10.07.2019
5357 Clear 28 1012 54 10000 6.7 310 20:20 10.07.2019
5358 Clear 28 1012 54 10000 6.2 300 19:54 10.07.2019
5359 Clear 29 1012 48 10000 7.2 310 19:22 10.07.2019
5360 Clear 29 1012 51 10000 5.7 290 18:59 10.07.2019
5361 Clear 30 1012 51 10000 5.7 300 18:41 10.07.2019
5362 Clear 29 1012 51 10000 5.7 300 18:22 10.07.2019
5363 Clear 30 1012 48 10000 6.2 320 17:42 10.07.2019
5364 Clear 29 1012 48 10000 6.2 320 17:23 10.07.2019
5365 Clear 30 1012 40 10000 5.1 240 16:39 10.07.2019
5366 Clear 30 1012 40 10000 5.1 240 16:19 10.07.2019
5367 Clear 30 1013 31 10000 2.6 60 15:47 10.07.2019
5368 Clear 30 1013 31 10000 2.6 60 15:23 10.07.2019
5369 Clear 29 1014 42 10000 3.1 70 14:46 10.07.2019
5370 Clear 29 1014 42 10000 3.1 70 14:26 10.07.2019
5371 Clear 28 1014 40 10000 4.1 90 13:54 10.07.2019
5372 Clear 27 1014 42 10000 2.1 80 13:23 10.07.2019
5373 Clear 26 1014 48 10000 2.6 80 12:59 10.07.2019
5374 Clear 26 1014 57 10000 2.6 20 12:39 10.07.2019
5375 Clear 25 1013 48 10000 4.1 70 12:20 10.07.2019
5376 Clear 24 1014 73 10000 2.1 90 11:47 10.07.2019
5377 Clear 23 1014 73 10000 2.1 90 11:21 10.07.2019
5378 Clear 22 1014 83 10000 2.6 90 10:56 10.07.2019
5379 Clear 21 1014 77 10000 3.1 350 10:23 10.07.2019
5380 Clear 20 1014 82 10000 4.6 330 09:45 10.07.2019
5381 Clear 20 1014 82 10000 4.6 330 09:21 10.07.2019
5382 Clear 20 1014 82 10000 4.6 330 09:21 10.07.2019
5383 Mist 19 1013 88 10000 3.6 320 08:57 10.07.2019
5384 Mist 19 1013 88 10000 4.1 310 08:38 10.07.2019
5385 Clear 19 1013 93 10000 4.1 310 08:20 10.07.2019
5386 Clear 18 1013 93 10000 6.2 310 07:42 10.07.2019
5387 Clear 18 1013 93 10000 6.2 310 07:22 10.07.2019
5388 Clear 19 1014 88 10000 6.2 330 06:31 10.07.2019
5389 Clear 19 1014 93 10000 6.2 310 05:39 10.07.2019
5390 Clear 19 1015 88 10000 5.1 300 04:30 10.07.2019
5391 Clouds 19 1015 82 10000 6.2 310 01:25 10.07.2019
5392 Clouds 19 1015 88 10000 6.7 310 00:42 10.07.2019
5393 Clouds 19 1015 82 10000 6.7 310 23:42 09.07.2019
5394 Clouds 19 1015 82 10000 6.7 310 23:22 09.07.2019
5395 Clouds 19 1015 82 10000 6.2 310 22:54 09.07.2019
5396 Clouds 20 1015 82 10000 6.2 310 22:36 09.07.2019
5397 Clear 20 1014 77 10000 6.7 310 22:18 09.07.2019
5398 Clear 20 1014 73 10000 6.2 310 21:43 09.07.2019
5399 Clear 21 1014 73 10000 6.2 310 21:24 09.07.2019
5400 Clear 22 1014 69 10000 5.7 310 20:44 09.07.2019
5401 Clear 22 1014 69 10000 5.7 310 20:25 09.07.2019
5402 Clear 24 1014 61 10000 6.2 310 19:43 09.07.2019
5403 Clear 24 1014 61 10000 6.2 310 19:24 09.07.2019
5404 Clear 25 1015 57 10000 5.7 310 18:49 09.07.2019
5405 Clear 25 1015 57 10000 5.7 310 18:49 09.07.2019
5406 Clear 25 1015 57 10000 5.7 310 18:27 09.07.2019
5407 Clear 25 1015 57 10000 5.7 310 18:27 09.07.2019
5408 Clear 25 1015 57 10000 6.2 320 17:58 09.07.2019
5409 Clouds 25 1015 51 10000 5.7 340 17:40 09.07.2019
5410 Clear 26 1014 48 10000 2.6 330 17:21 09.07.2019
5411 Clouds 25 1015 54 10000 4.6 300 16:50 09.07.2019
5412 Clouds 25 1015 54 10000 4.6 300 16:25 09.07.2019
5413 Clouds 25 1015 51 10000 4.1 310 15:56 09.07.2019
5414 Clouds 25 1016 51 10000 3.1 0 15:36 09.07.2019
5415 Clouds 25 1016 57 10000 2.6 100 14:59 09.07.2019
5416 Clouds 25 1016 61 10000 5.1 30 14:40 09.07.2019
5417 Clouds 24 1016 61 10000 5.1 30 14:21 09.07.2019
5418 Clouds 23 1017 64 10000 2.6 0 13:45 09.07.2019
5419 Clouds 23 1017 64 10000 2.6 0 13:27 09.07.2019
5420 Clouds 23 1017 64 10000 3.1 0 12:56 09.07.2019
5421 Clouds 22 1017 68 10000 3.6 340 12:37 09.07.2019
5422 Clouds 21 1017 68 10000 4.1 350 12:18 09.07.2019
5423 Clouds 21 1017 73 10000 2.6 280 11:41 09.07.2019
5424 Clouds 21 1017 73 10000 2.6 280 11:22 09.07.2019
5425 Clouds 20 1017 72 10000 3.6 310 10:58 09.07.2019
5426 Clouds 20 1017 77 10000 4.6 320 10:34 09.07.2019
5427 Clouds 19 1017 82 10000 3.1 300 09:56 09.07.2019
5428 Clouds 19 1016 82 10000 3.1 320 09:37 09.07.2019
5429 Clouds 19 1016 82 10000 3.1 320 09:19 09.07.2019
5430 Clouds 18 1016 88 10000 3.1 320 08:41 09.07.2019
5431 Clouds 17 1017 93 10000 3.1 200 04:19 05.07.2019
5432 Clouds 17 1017 88 10000 2.6 230 03:39 05.07.2019
5433 Clouds 17 1017 93 10000 3.6 220 03:20 05.07.2019
5434 Clouds 17 1017 93 10000 3.6 220 02:51 05.07.2019
5435 Clouds 17 1017 93 10000 2.6 210 01:56 05.07.2019
5436 Clouds 17 1017 88 10000 3.6 230 01:28 05.07.2019
5437 Clouds 17 1017 88 10000 4.6 220 00:51 05.07.2019
5438 Clouds 17 1017 88 10000 4.6 220 00:29 05.07.2019
5439 Clouds 18 1016 88 10000 4.1 210 23:39 04.07.2019
5440 Clouds 18 1016 82 10000 3.1 240 23:18 04.07.2019
5441 Clouds 18 1016 88 10000 4.6 220 22:41 04.07.2019
5442 Clouds 19 1016 82 10000 6.2 230 22:20 04.07.2019
5443 Clouds 19 1016 77 10000 6.2 210 21:44 04.07.2019
5444 Clouds 20 1016 77 10000 6.2 210 21:26 04.07.2019
5445 Clouds 21 1016 68 10000 5.7 210 20:59 04.07.2019
5446 Clouds 21 1016 68 10000 5.1 220 20:38 04.07.2019
5447 Clouds 21 1016 68 10000 5.1 230 20:19 04.07.2019
5448 Clouds 21 1016 68 10000 5.1 230 20:19 04.07.2019
5449 Clouds 21 1016 64 10000 4.6 220 19:41 04.07.2019
5450 Clouds 21 1016 64 10000 4.6 220 19:22 04.07.2019
5451 Clouds 20 1016 72 10000 6.2 210 18:55 04.07.2019
5452 Clouds 21 1016 68 10000 5.7 230 18:36 04.07.2019
5453 Clouds 21 1016 72 10000 6.2 230 18:18 04.07.2019
5454 Clouds 21 1016 68 10000 6.7 230 17:41 04.07.2019
5455 Clouds 21 1016 73 10000 6.7 230 17:18 04.07.2019
5456 Clouds 22 1016 64 10000 6.2 200 15:55 04.07.2019
5457 Clouds 22 1016 64 10000 5.7 220 15:36 04.07.2019
5458 Clouds 22 1016 60 10000 6.2 200 15:18 04.07.2019
5459 Clouds 22 1016 64 10000 6.7 230 14:41 04.07.2019
5460 Clouds 22 1016 64 10000 6.7 230 14:20 04.07.2019
5461 Clouds 21 1016 68 10000 6.2 230 13:57 04.07.2019
5462 Clouds 21 1016 68 10000 6.2 230 13:39 04.07.2019
5463 Clouds 21 1016 68 10000 5.7 240 13:20 04.07.2019
5464 Clouds 20 1015 72 10000 4.6 230 12:40 04.07.2019
5465 Clouds 20 1015 72 10000 4.6 230 12:21 04.07.2019
5466 Clouds 20 1015 77 10000 4.6 210 11:57 04.07.2019
5467 Clouds 19 1015 82 10000 4.1 220 11:37 04.07.2019
5468 Clouds 20 1015 68 10000 5.7 180 11:18 04.07.2019
5469 Clouds 19 1015 82 10000 4.1 210 10:39 04.07.2019
5470 Clouds 19 1015 82 10000 4.1 210 10:18 04.07.2019
5471 Rain 18 1015 88 10000 3.6 200 09:39 04.07.2019
5472 Clouds 18 1014 93 10000 3.6 200 09:20 04.07.2019
5473 Clouds 17 1014 93 10000 3.6 200 08:55 04.07.2019
5474 Clouds 17 1014 93 10000 4.1 200 08:19 04.07.2019
5475 Clouds 17 1014 93 10000 3.1 220 07:43 04.07.2019
5476 Clouds 17 1014 93 10000 3.1 220 07:22 04.07.2019
5477 Clouds 17 1013 93 10000 2.1 200 06:39 04.07.2019
5478 Clouds 17 1014 93 10000 2.1 200 05:50 04.07.2019
5479 Clouds 17 1013 93 10000 2.6 180 05:31 04.07.2019
5480 Clouds 17 1014 88 10000 2.6 250 02:41 04.07.2019
5481 Clouds 17 1014 88 10000 2.6 250 01:41 04.07.2019
5482 Clouds 18 1014 82 10000 2.6 280 01:19 04.07.2019
5483 -273 0 0 0 0 0 23:56 03.07.2019
5484 Clouds 18 1013 82 10000 4.6 260 23:36 03.07.2019
5485 Clouds 18 1013 82 10000 5.7 260 23:18 03.07.2019
5486 Clouds 18 1013 77 10000 4.6 280 22:39 03.07.2019
5487 Clouds 18 1013 77 10000 4.6 280 22:21 03.07.2019
5488 Clouds 19 1013 72 10000 4.1 270 21:58 03.07.2019
5489 Clouds 19 1013 72 10000 4.6 270 21:38 03.07.2019
5490 Clouds 19 1013 72 10000 4.6 270 21:20 03.07.2019
5491 Clouds 20 1012 64 10000 4.1 280 20:42 03.07.2019
5492 Clouds 20 1012 64 10000 4.1 280 20:23 03.07.2019
5493 Clouds 21 1013 60 10000 4.1 270 19:50 03.07.2019
5494 Clouds 21 1013 56 10000 4.1 270 19:32 03.07.2019
5495 Clouds 22 1013 56 10000 3.6 280 18:48 03.07.2019
5496 Clouds 22 1013 56 10000 3.6 280 18:29 03.07.2019
5497 Clouds 22 1013 56 10000 4.6 240 17:57 03.07.2019
5498 Clouds 22 1013 60 10000 3.6 240 17:37 03.07.2019
5499 Clouds 22 1013 64 10000 4.1 260 17:18 03.07.2019
5500 Clouds 21 1013 64 10000 3.6 220 16:43 03.07.2019
5501 Clouds 22 1013 64 10000 3.6 220 16:21 03.07.2019
5502 Clouds 22 1014 60 10000 3.1 240 15:49 03.07.2019
5503 Clouds 22 1014 60 10000 3.1 240 15:31 03.07.2019
5504 Clouds 22 1014 68 10000 4.1 240 14:56 03.07.2019
5505 Clouds 22 1014 68 10000 4.1 260 14:37 03.07.2019
5506 Clouds 22 1014 68 10000 4.1 260 14:18 03.07.2019
5507 Clouds 21 1014 68 10000 2.1 0 13:35 03.07.2019
5508 Clouds 20 1014 68 10000 2.6 0 12:55 03.07.2019
5509 Clouds 20 1014 77 10000 3.6 230 12:22 03.07.2019
5510 Clouds 19 1014 72 10000 2.6 130 11:59 03.07.2019
5511 Clouds 20 1014 64 10000 2.6 150 11:40 03.07.2019
5512 Clouds 19 1014 64 10000 2.6 150 11:21 03.07.2019
5513 Clouds 19 1014 82 10000 1 0 10:42 03.07.2019
5514 Clouds 19 1014 82 10000 1 0 10:23 03.07.2019
5515 Clouds 18 1014 88 10000 2.6 260 09:43 03.07.2019
5516 Clouds 18 1014 88 10000 2.6 260 09:22 03.07.2019
5517 Clouds 17 1014 93 10000 2.1 240 08:57 03.07.2019
5518 Clouds 17 1014 93 10000 0.5 0 08:38 03.07.2019
5519 Clouds 17 1014 93 10000 1 210 08:18 03.07.2019
5520 Clouds 17 1014 93 10000 5.05 330.596 07:37 03.07.2019
5521 Clouds 17 1014 93 10000 5.05 330.596 06:55 03.07.2019
5522 Clouds 17 1014 88 10000 0.5 0 05:57 03.07.2019
5523 Clouds 17 1014 88 10000 1 0 05:24 03.07.2019
5524 Clouds 17 1014 88 10000 3.6 310 03:58 03.07.2019
5525 Clouds 18 1015 88 10000 5.1 320 02:55 03.07.2019
5526 Clouds 17 1015 88 10000 4.6 320 01:39 03.07.2019
5527 Clouds 17 1015 88 10000 6.2 330 01:21 03.07.2019
5528 Clouds 17 1015 88 10000 6.2 320 00:40 03.07.2019
5529 Clouds 18 1015 82 10000 5.1 310 23:57 02.07.2019
5530 Clouds 18 1015 82 10000 5.1 310 23:37 02.07.2019
5531 Clouds 18 1015 82 10000 5.7 330 23:19 02.07.2019
5532 Clouds 18 1015 82 10000 5.1 330 22:41 02.07.2019
5533 Clouds 18 1015 77 10000 4.1 320 22:23 02.07.2019
5534 Clouds 18 1015 77 10000 4.1 320 21:58 02.07.2019
5535 Clouds 19 1015 72 10000 5.1 320 21:39 02.07.2019
5536 Clouds 19 1015 72 10000 5.1 300 21:20 02.07.2019
5537 Clouds 19 1015 72 10000 5.1 300 20:57 02.07.2019
5538 Clouds 20 1015 68 10000 5.1 310 20:39 02.07.2019
5539 Clouds 20 1015 68 10000 5.1 300 20:19 02.07.2019
5540 Clouds 20 1015 68 10000 5.1 300 19:42 02.07.2019
5541 Clouds 21 1015 64 10000 5.1 310 19:23 02.07.2019
5542 Clouds 20 1015 68 10000 4.6 310 18:47 02.07.2019
5543 Clouds 21 1015 64 10000 5.7 330 18:18 02.07.2019
5544 Clouds 21 1015 64 10000 5.7 330 18:18 02.07.2019
5545 Clouds 21 1016 68 10000 5.7 340 17:41 02.07.2019
5546 Clouds 21 1016 68 10000 5.7 340 17:22 02.07.2019
5547 Clouds 21 1016 68 10000 5.7 330 16:52 02.07.2019
5548 Clouds 21 1016 68 10000 5.1 320 16:34 02.07.2019
5549 Clouds 22 1016 60 10000 5.7 340 15:47 02.07.2019
5550 Clouds 21 1016 60 10000 5.7 340 15:27 02.07.2019
5551 Clouds 21 1016 56 10000 3.6 310 14:57 02.07.2019
5552 Clouds 21 1016 60 10000 4.1 320 14:39 02.07.2019
5553 Clouds 21 1016 56 10000 4.1 350 14:20 02.07.2019
5554 Clouds 21 1016 64 10000 4.6 320 13:40 02.07.2019
5555 Clouds 21 1016 64 10000 4.6 310 13:18 02.07.2019
5556 Clouds 21 1016 64 10000 5.1 320 12:44 02.07.2019
5557 Rain 20 1016 68 10000 5.1 320 12:22 02.07.2019
5558 Rain 20 1016 68 10000 6.2 340 11:44 02.07.2019
5559 Rain 20 1016 68 10000 6.2 340 11:44 02.07.2019
5560 Rain 20 1016 68 10000 6.2 340 11:23 02.07.2019
5561 Clouds 19 1016 72 10000 5.7 330 10:54 02.07.2019
5562 Clouds 19 1017 77 10000 5.1 330 10:27 02.07.2019
5563 Clouds 19 1017 77 10000 4.6 330 09:57 02.07.2019
5564 Clouds 18 1016 82 10000 4.6 330 09:22 02.07.2019
5565 Clouds 18 1016 82 10000 4.6 330 08:57 02.07.2019
5566 Clouds 18 1016 82 10000 3.6 330 08:37 02.07.2019
5567 Clouds 18 1016 82 10000 4.1 320 07:59 02.07.2019
5568 Clouds 18 1016 82 10000 6.7 330 07:38 02.07.2019
5569 Clouds 18 1016 82 10000 4.1 310 07:18 02.07.2019
5570 Clouds 18 1016 82 10000 4.1 320 06:37 02.07.2019
5571 Clouds 18 1017 82 10000 6.2 330 05:27 02.07.2019
5572 Clouds 18 1019 82 10000 4.6 330 02:41 02.07.2019
5573 Clouds 18 1019 82 10000 5.1 320 00:28 02.07.2019
5574 Clouds 18 1019 82 10000 6.2 330 23:38 01.07.2019
5575 Clouds 18 1019 77 10000 5.7 330 23:18 01.07.2019
5576 Clouds 19 1019 77 10000 5.7 330 22:42 01.07.2019
5577 Clouds 19 1019 77 10000 5.7 330 22:23 01.07.2019
5578 Clouds 19 1018 77 10000 6.7 310 21:44 01.07.2019
5579 Clouds 19 1018 68 10000 7.7 320 21:25 01.07.2019
5580 Clouds 20 1018 72 10000 8.7 330 20:47 01.07.2019
5581 Clouds 20 1018 68 10000 8.7 330 20:21 01.07.2019
5582 Clouds 21 1018 68 10000 8.7 330 19:55 01.07.2019
5583 Clouds 21 1019 64 10000 8.7 330 19:36 01.07.2019
5584 Clouds 22 1019 60 10000 8.2 310 19:18 01.07.2019
5585 Clouds 21 1019 64 10000 6.7 310 18:43 01.07.2019
5586 Clouds 22 1019 64 10000 6.7 310 18:25 01.07.2019
5587 Clouds 22 1019 60 10000 7.2 320 17:46 01.07.2019
5588 Clouds 22 1019 60 10000 7.2 320 17:26 01.07.2019
5589 Clouds 22 1019 60 10000 6.7 320 16:57 01.07.2019
5590 Clouds 22 1019 60 10000 6.7 320 16:39 01.07.2019
5591 Clouds 22 1019 60 10000 6.7 310 16:20 01.07.2019
5592 Clouds 22 1020 60 10000 8.2 330 15:43 01.07.2019
5593 Clouds 22 1020 60 10000 7.2 330 15:23 01.07.2019
5594 Clouds 21 1020 60 10000 7.7 330 14:44 01.07.2019
5595 Clouds 21 1020 60 10000 6.7 340 14:20 01.07.2019
5596 Clouds 22 1020 56 10000 7.2 330 13:48 01.07.2019
5597 Clouds 21 1020 60 10000 6.2 320 13:24 01.07.2019
5598 Clouds 21 1020 64 10000 5.7 320 12:57 01.07.2019
5599 Clouds 21 1020 64 10000 5.7 320 12:38 01.07.2019
5600 Clouds 20 1020 64 10000 6.2 330 12:19 01.07.2019
5601 Clouds 20 1020 68 10000 6.2 320 11:44 01.07.2019
5602 Clouds 20 1020 72 10000 5.7 320 11:22 01.07.2019
5603 Clouds 19 1020 68 10000 6.7 350 10:48 01.07.2019
5604 Clouds 19 1020 77 10000 5.7 350 10:25 01.07.2019
5605 Clouds 18 1020 77 10000 5.1 350 09:59 01.07.2019
5606 Clouds 18 1020 77 10000 5.1 350 09:40 01.07.2019
5607 Clouds 18 1020 77 10000 4.6 340 09:21 01.07.2019
5608 Clouds 17 1020 82 10000 5.1 340 08:38 01.07.2019
5609 Clouds 17 1020 82 10000 5.1 330 08:19 01.07.2019
5610 Clouds 17 1020 82 10000 6.2 340 07:28 01.07.2019
5611 Clouds 17 1020 82 10000 6.2 340 06:30 01.07.2019
5612 Clouds 17 1021 82 10000 6.2 340 02:27 01.07.2019
5613 Clouds 17 1021 82 10000 5.7 340 00:50 01.07.2019
5614 Clouds 18 1021 82 10000 7.2 330 00:30 01.07.2019
5615 Clouds 18 1021 77 10000 6.7 340 23:57 30.06.2019
5616 Clouds 18 1021 77 10000 8.2 330 23:22 30.06.2019
5617 Clouds 18 1020 77 10000 8.2 330 22:53 30.06.2019
5618 Clouds 19 1020 72 10000 7.7 330 22:22 30.06.2019
5619 Clouds 19 1020 68 10000 6.7 330 21:45 30.06.2019
5620 Clouds 20 1020 68 10000 7.2 320 21:26 30.06.2019
5621 Clouds 20 1020 60 10000 7.2 320 20:59 30.06.2019
5622 Clouds 21 1020 60 10000 7.2 320 20:40 30.06.2019
5623 Clouds 21 1019 56 10000 7.7 320 20:21 30.06.2019
5624 Clouds 22 1019 60 10000 6.7 310 19:47 30.06.2019
5625 Clouds 22 1019 56 10000 7.2 310 19:25 30.06.2019
5626 Clouds 23 1019 56 10000 6.7 320 18:47 30.06.2019
5627 Clouds 23 1019 50 10000 6.7 320 18:21 30.06.2019
5628 Clouds 24 1019 50 10000 6.7 320 17:40 30.06.2019
5629 Clouds 24 1019 50 10000 5.7 320 17:19 30.06.2019
5630 Clouds 24 1019 50 10000 6.2 340 16:52 30.06.2019
5631 Clouds 24 1019 50 10000 5.1 330 16:32 30.06.2019
5632 Clouds 23 1019 53 10000 5.7 310 15:55 30.06.2019
5633 Clouds 23 1019 53 10000 6.7 320 15:36 30.06.2019
5634 Clouds 23 1019 53 10000 6.7 320 15:18 30.06.2019
5635 Clouds 22 1019 56 10000 7.2 340 14:43 30.06.2019
5636 Clouds 22 1019 60 10000 7.2 340 14:22 30.06.2019
5637 Clouds 22 1019 64 10000 6.7 330 13:42 30.06.2019
5638 Clouds 22 1019 64 10000 7.2 320 13:20 30.06.2019
5639 Clouds 21 1019 68 10000 6.2 320 12:47 30.06.2019
5640 Clouds 21 1019 64 10000 6.7 340 12:24 30.06.2019
5641 Clouds 20 1019 68 10000 6.7 320 11:47 30.06.2019
5642 Clouds 19 1019 72 10000 6.7 310 11:24 30.06.2019
5643 Clouds 19 1019 72 10000 6.7 320 10:59 30.06.2019
5644 Clouds 19 1019 72 10000 6.7 320 10:38 30.06.2019
5645 Clouds 19 1018 72 10000 5.1 320 10:19 30.06.2019
5646 Clouds 18 1018 77 10000 7.2 330 09:44 30.06.2019
5647 Clouds 18 1018 77 10000 7.2 330 09:44 30.06.2019
5648 Clouds 18 1018 82 10000 6.2 330 09:23 30.06.2019
5649 Clouds 18 1017 82 10000 5.7 320 08:58 30.06.2019
5650 Clouds 18 1018 88 10000 5.1 310 08:32 30.06.2019
5651 Clouds 18 1017 88 10000 6.2 320 07:59 30.06.2019
5652 Clouds 17 1017 82 10000 5.1 320 07:29 30.06.2019
5653 Clear 17 1017 82 10000 5.1 310 06:51 30.06.2019
5654 Clear 17 1016 82 10000 5.1 310 05:54 30.06.2019
5655 Clear 18 1017 77 10000 6.2 320 02:59 30.06.2019
5656 Clear 18 1017 77 10000 6.2 330 01:30 30.06.2019
5657 Clear 18 1017 77 10000 6.7 330 00:38 30.06.2019
5658 Clear 19 1016 72 10000 6.7 340 23:57 29.06.2019
5659 Clouds 19 1016 68 10000 7.2 350 23:25 29.06.2019
5660 Clouds 19 1016 68 10000 7.2 350 23:25 29.06.2019
5661 Clouds 19 1016 68 10000 7.2 330 22:59 29.06.2019
5662 Clouds 19 1016 68 10000 7.2 330 22:40 29.06.2019
5663 Clouds 19 1016 64 10000 7.2 330 22:21 29.06.2019
5664 Clouds 19 1016 60 10000 7.2 330 21:51 29.06.2019
5665 Clouds 21 1015 56 10000 7.7 320 21:23 29.06.2019
5666 Clouds 22 1015 49 10000 8.7 330 20:45 29.06.2019
5667 Clouds 23 1015 53 10000 7.7 320 20:27 29.06.2019
5668 Clouds 23 1015 50 10000 7.7 320 19:48 29.06.2019
5669 Clouds 23 1015 50 10000 7.7 320 19:24 29.06.2019
5670 Clouds 24 1015 53 10000 8.7 320 18:54 29.06.2019
5671 Clouds 24 1016 53 10000 7.2 330 18:27 29.06.2019
5672 Clouds 24 1016 53 10000 6.2 320 17:55 29.06.2019
5673 Clouds 24 1016 50 10000 7.2 330 17:36 29.06.2019
5674 Clouds 24 1016 50 10000 7.2 330 17:18 29.06.2019
5675 Clouds 25 1016 53 10000 7.7 340 16:42 29.06.2019
5676 -273 0 0 0 0 0 15:56 29.06.2019
5677 Clouds 25 1016 53 10000 7.2 340 15:31 29.06.2019
5678 Clouds 24 1016 53 10000 5.7 330 14:45 29.06.2019
5679 -273 0 0 0 0 0 14:26 29.06.2019
5680 Clouds 24 1016 53 10000 5.1 320 13:51 29.06.2019
5681 Clouds 24 1016 53 10000 4.6 320 13:27 29.06.2019
5682 Clouds 23 1016 56 10000 5.7 350 12:57 29.06.2019
5683 Clouds 23 1016 56 10000 5.7 350 12:38 29.06.2019
5684 Clouds 22 1016 56 10000 5.1 350 12:20 29.06.2019
5685 Clouds 22 1016 60 10000 4.6 320 11:42 29.06.2019
5686 Clouds 21 1016 64 10000 5.7 340 11:21 29.06.2019
5687 Clouds 21 1016 64 10000 4.6 320 10:49 29.06.2019
5688 Clouds 20 1016 72 10000 5.1 310 10:21 29.06.2019
5689 Clouds 19 1016 77 10000 5.7 320 09:55 29.06.2019
5690 Clouds 18 1016 82 10000 5.1 320 08:55 29.06.2019
5691 Clouds 18 1016 88 10000 4.1 320 08:30 29.06.2019
5692 Clouds 17 1015 88 10000 4.1 330 07:45 29.06.2019
5693 Clouds 17 1016 88 10000 4.1 320 06:49 29.06.2019
5694 Clouds 18 1015 88 10000 4.6 320 06:25 29.06.2019
5695 Clouds 18 1016 88 10000 3.6 340 03:55 29.06.2019
5696 Clear 18 1016 82 10000 4.1 330 01:42 29.06.2019
5697 Clear 18 1016 82 10000 5.1 330 00:41 29.06.2019
5698 Clear 19 1016 72 10000 7.2 320 23:48 28.06.2019
5699 Clear 19 1015 72 10000 7.2 310 23:21 28.06.2019
5700 Clear 19 1015 72 10000 8.2 320 22:47 28.06.2019
5701 Clear 19 1015 68 10000 7.2 320 22:19 28.06.2019
5702 Clear 20 1015 64 10000 8.2 320 21:45 28.06.2019
5703 Clear 21 1015 64 10000 7.7 320 21:19 28.06.2019
5704 Clear 22 1015 64 10000 6.7 310 20:41 28.06.2019
5705 Clear 22 1015 60 10000 7.2 310 20:19 28.06.2019
5706 Clear 23 1015 53 10000 7.7 300 19:40 28.06.2019
5707 Clear 23 1015 53 10000 7.7 300 19:21 28.06.2019
5708 Clear 24 1015 47 10000 6.2 300 18:41 28.06.2019
5709 Clouds 25 1015 47 10000 6.7 310 18:22 28.06.2019
5710 Clouds 25 1015 47 10000 6.7 320 17:46 28.06.2019
5711 Clouds 25 1015 47 10000 6.2 320 17:25 28.06.2019
5712 Clouds 25 1016 44 10000 5.7 320 16:46 28.06.2019
5713 Clouds 25 1016 47 10000 4.6 300 16:20 28.06.2019
5714 Clouds 25 1016 47 10000 4.1 300 15:45 28.06.2019
5715 Clouds 25 1016 47 10000 4.6 320 15:18 28.06.2019
5716 Clouds 24 1016 44 10000 3.6 310 14:42 28.06.2019
5717 Clouds 25 1016 39 10000 3.6 340 14:21 28.06.2019
5718 Clouds 24 1017 41 10000 3.6 330 13:49 28.06.2019
5719 Clouds 24 1017 50 10000 3.1 310 13:29 28.06.2019
5720 Clouds 23 1017 47 10000 3.6 330 12:53 28.06.2019
5721 Clouds 23 1017 56 10000 3.6 330 12:33 28.06.2019
5722 Clouds 22 1017 60 10000 2.6 0 11:46 28.06.2019
5723 Clouds 21 1017 60 10000 3.1 350 11:19 28.06.2019
5724 Clouds 20 1017 68 10000 3.1 340 10:43 28.06.2019
5725 Clouds 19 1017 77 10000 4.6 320 10:20 28.06.2019
5726 Clouds 18 1017 82 10000 3.1 310 09:47 28.06.2019
5727 Clouds 18 1017 88 10000 4.1 310 09:28 28.06.2019
5728 Clouds 16 1018 93 10000 2.6 330 08:43 28.06.2019
5729 Clouds 16 1018 87 10000 3.1 30 08:24 28.06.2019
5730 Clouds 16 1018 93 10000 2.6 10 07:43 28.06.2019
5731 Clouds 16 1017 93 10000 4.6 320 06:57 28.06.2019
5732 Clouds 17 1018 88 10000 5.1 310 04:42 28.06.2019
5733 Clear 18 1019 82 10000 4.6 310 00:48 28.06.2019
5734 Clouds 18 1019 82 10000 4.6 300 00:22 28.06.2019
5735 Clouds 18 1019 88 10000 3.6 300 23:47 27.06.2019
5736 Clouds 18 1018 88 10000 4.1 300 23:25 27.06.2019
5737 Clouds 19 1018 82 10000 4.1 300 22:44 27.06.2019
5738 Clouds 19 1018 77 10000 4.6 300 22:25 27.06.2019
5739 Clouds 19 1018 72 10000 4.1 300 21:59 27.06.2019
5740 Clouds 20 1018 72 10000 4.1 300 21:41 27.06.2019
5741 Clouds 20 1018 64 10000 4.6 310 21:21 27.06.2019
5742 Clouds 21 1018 56 10000 4.6 300 20:49 27.06.2019
5743 Clouds 22 1018 53 10000 3.6 300 20:31 27.06.2019
5744 Clouds 22 1017 50 10000 5.1 230 19:57 27.06.2019
5745 Clouds 22 1017 53 10000 5.1 230 19:39 27.06.2019
5746 Clouds 22 1017 53 10000 5.1 230 19:21 27.06.2019
5747 Clouds 22 1017 50 10000 5.7 240 18:41 27.06.2019
5748 Clouds 22 1017 50 10000 6.2 230 18:19 27.06.2019
5749 Clouds 22 1018 53 10000 6.2 230 17:39 27.06.2019
5750 Clouds 22 1018 53 10000 5.7 220 17:21 27.06.2019
5751 Clouds 22 1018 53 10000 6.2 220 16:39 27.06.2019
5752 Clouds 22 1018 56 10000 5.7 220 16:19 27.06.2019
5753 Clouds 22 1018 56 10000 5.7 220 16:19 27.06.2019
5754 Clouds 22 1018 56 10000 5.7 220 15:50 27.06.2019
5755 Clouds 22 1018 50 10000 4.6 220 15:30 27.06.2019
5756 Clouds 22 1018 56 10000 5.7 220 14:52 27.06.2019
5757 Clouds 22 1018 56 10000 4.1 220 14:31 27.06.2019
5758 Clouds 22 1018 56 10000 4.6 220 13:57 27.06.2019
5759 Clouds 22 1018 56 10000 4.6 220 13:38 27.06.2019
5760 Clouds 22 1018 60 10000 3.6 220 13:20 27.06.2019
5761 Clouds 21 1018 60 10000 3.6 240 12:43 27.06.2019
5762 Clouds 21 1018 64 10000 2.6 240 12:23 27.06.2019
5763 Clouds 21 1018 73 10000 2.6 0 11:45 27.06.2019
5764 Clouds 20 1018 77 10000 3.1 130 11:22 27.06.2019
5765 Clouds 19 1018 82 10000 1.5 0 10:56 27.06.2019
5766 Clouds 18 1018 88 10000 2.1 100 10:36 27.06.2019
5767 Clouds 18 1018 88 10000 2.1 100 10:18 27.06.2019
5768 Clouds 18 1018 88 10000 2.1 100 10:18 27.06.2019
5769 Clouds 17 1017 88 10000 2.1 80 09:38 27.06.2019
5770 Clouds 17 1017 88 10000 2.1 80 09:20 27.06.2019
5771 Clouds 15 1017 93 10000 1 0 08:46 27.06.2019
5772 Clouds 15 1017 93 10000 1.5 280 08:26 27.06.2019
5773 Clouds 14 1017 100 10000 3.1 270 07:40 27.06.2019
5774 Clouds 14 1017 100 10000 1 270 06:56 27.06.2019
5775 Clouds 14 1017 100 10000 1 40 06:30 27.06.2019
5776 Clouds 15 1017 100 10000 1.74 188.694 03:50 27.06.2019
5777 Clouds 16 1017 93 10000 1.5 280 02:41 27.06.2019
5778 Clouds 17 1017 88 10000 2.6 270 01:26 27.06.2019
5779 Clouds 17 1017 88 10000 3.1 260 00:49 27.06.2019
5780 Clouds 18 1017 82 10000 2.6 280 00:26 27.06.2019
5781 Clouds 18 1017 82 10000 2.1 280 23:48 26.06.2019
5782 Clouds 18 1017 82 10000 2.6 280 23:23 26.06.2019
5783 Clouds 18 1017 82 10000 3.6 290 22:57 26.06.2019
5784 Clouds 18 1017 82 10000 3.6 290 22:39 26.06.2019
5785 Clouds 19 1017 77 10000 3.1 290 22:19 26.06.2019
5786 Clouds 20 1016 72 10000 4.1 290 21:42 26.06.2019
5787 Clouds 20 1016 68 10000 4.1 290 21:20 26.06.2019
5788 Clouds 21 1016 68 10000 4.6 290 20:55 26.06.2019
5789 Clouds 21 1016 68 10000 4.6 290 20:37 26.06.2019
5790 Clouds 21 1016 64 10000 4.1 290 20:18 26.06.2019
5791 Clouds 22 1015 56 10000 4.6 300 19:41 26.06.2019
5792 Clouds 22 1015 53 10000 4.1 290 19:22 26.06.2019
5793 Clouds 22 1015 56 10000 4.1 300 18:45 26.06.2019
5794 Clouds 22 1015 57 10000 4.6 290 18:22 26.06.2019
5795 Clouds 23 1015 60 10000 4.1 310 17:57 26.06.2019
5796 Clouds 23 1015 57 10000 3.1 280 17:28 26.06.2019
5797 Clouds 23 1016 69 10000 2.6 0 16:57 26.06.2019
5798 Clouds 22 1016 69 10000 2.6 0 16:39 26.06.2019
5799 Clouds 22 1016 73 10000 2.6 320 16:19 26.06.2019
5800 Clouds 21 1016 73 10000 2.1 0 15:37 26.06.2019
5801 Clouds 21 1016 73 10000 2.1 0 15:19 26.06.2019
5802 -273 0 0 0 0 0 14:38 26.06.2019
5803 Clouds 21 1017 82 10000 1.5 300 14:19 26.06.2019
5804 Clouds 20 1017 88 10000 1.5 320 13:41 26.06.2019
5805 Clouds 19 1017 88 10000 2.1 310 13:19 26.06.2019
5806 Clouds 19 1017 88 6000 1.5 330 12:41 26.06.2019
5807 Mist 18 1017 93 4500 1 0 12:22 26.06.2019
5808 Drizzle 18 1016 93 6000 1.5 10 11:45 26.06.2019
5809 Mist 18 1016 93 6000 2.6 0 11:19 26.06.2019
5810 Drizzle 18 1016 93 6000 2.1 50 10:41 26.06.2019
5811 Rain 18 1016 93 6000 1.5 40 10:22 26.06.2019
5812 Rain 18 1016 93 6000 1.5 30 09:42 26.06.2019
5813 Rain 17 1015 100 8000 1 0 09:18 26.06.2019
5814 Drizzle 17 1015 93 9000 2.6 320 08:44 26.06.2019
5815 Clouds 17 1015 93 10000 1.5 350 08:20 26.06.2019
5816 Clouds 17 1015 100 10000 1 0 07:46 26.06.2019
5817 Rain 17 1014 93 8000 1 0 06:40 26.06.2019
5818 Clouds 17 1014 93 10000 1.5 10 06:21 26.06.2019
5819 Clear 17 1015 88 10000 2.1 0 01:25 26.06.2019
5820 Clear 18 1015 82 10000 3.6 310 00:25 26.06.2019
5821 Clear 18 1015 82 10000 3.6 320 23:45 25.06.2019
5822 Clouds 18 1015 82 10000 3.6 310 23:27 25.06.2019
5823 Clouds 18 1015 82 10000 4.1 310 22:57 25.06.2019
5824 Clouds 18 1015 82 10000 4.1 310 22:38 25.06.2019
5825 Clouds 18 1015 82 10000 4.1 320 22:20 25.06.2019
5826 Clouds 19 1015 77 10000 4.1 310 21:43 25.06.2019
5827 Clouds 19 1015 77 10000 3.6 300 21:22 25.06.2019
5828 Clouds 20 1015 72 10000 5.1 310 20:45 25.06.2019
5829 Clouds 20 1015 72 10000 5.1 310 20:45 25.06.2019
5830 Clouds 20 1015 72 10000 5.1 310 20:45 25.06.2019
5831 Clouds 21 1014 64 10000 5.1 320 20:22 25.06.2019
5832 Clouds 21 1014 64 10000 5.1 320 19:46 25.06.2019
5833 Clouds 21 1014 64 10000 2.6 280 19:23 25.06.2019
5834 Rain 22 1014 64 10000 3.1 270 18:59 25.06.2019
5835 Rain 23 1014 68 10000 4.6 260 18:40 25.06.2019
5836 Rain 23 1014 68 10000 4.6 260 18:21 25.06.2019
5837 -273 0 0 0 0 0 17:30 25.06.2019
5838 Clouds 24 1015 53 10000 4.1 250 16:58 25.06.2019
5839 Clouds 24 1015 53 10000 4.1 250 16:39 25.06.2019
5840 Clouds 24 1015 50 10000 1.5 0 16:21 25.06.2019
5841 Clouds 24 1015 53 10000 2.6 260 15:42 25.06.2019
5842 Clouds 24 1015 53 10000 1 0 15:24 25.06.2019
5843 Clouds 24 1016 53 10000 1.5 0 14:54 25.06.2019
5844 Clouds 23 1016 60 10000 3.1 360 14:35 25.06.2019
5845 Clouds 23 1016 60 10000 3.1 100 13:47 25.06.2019
5846 Clouds 23 1016 60 10000 3.1 100 13:47 25.06.2019
5847 Clouds 22 1016 60 10000 2.6 0 13:29 25.06.2019
5848 Clouds 22 1016 68 10000 2.6 100 12:55 25.06.2019
5849 Clouds 22 1016 68 10000 2.6 100 12:37 25.06.2019
5850 Clouds 21 1016 64 10000 2.1 90 12:18 25.06.2019
5851 Clouds 20 1016 68 10000 1.5 0 11:43 25.06.2019
5852 Clouds 20 1016 68 10000 1 0 11:21 25.06.2019
5853 Clouds 19 1016 72 10000 1 0 10:45 25.06.2019
5854 Rain 18 1016 82 10000 1 290 10:23 25.06.2019
5855 Clouds 18 1016 82 10000 1.5 320 09:56 25.06.2019
5856 Clouds 17 1016 88 10000 2.6 310 09:38 25.06.2019
5857 Clouds 17 1016 88 10000 2.6 310 09:19 25.06.2019
5858 Clouds 16 1016 88 10000 2.1 320 08:47 25.06.2019
5859 Clouds 16 1016 88 10000 2.6 300 08:28 25.06.2019
5860 Clouds 17 1015 88 10000 1 0 07:40 25.06.2019
5861 Rain 17 1015 82 10000 1.5 300 06:58 25.06.2019
5862 Rain 17 1015 82 10000 1.5 300 06:40 25.06.2019
5863 Clouds 17 1015 77 10000 2.1 320 04:24 25.06.2019
5864 Clouds 17 1016 72 10000 3.6 310 02:23 25.06.2019
5865 Clouds 18 1016 72 10000 3.1 320 00:38 25.06.2019
5866 Clouds 18 1016 77 10000 3.6 320 00:18 25.06.2019
5867 Clouds 18 1016 72 10000 3.6 310 23:42 24.06.2019
5868 Clear 19 1016 72 10000 2.6 320 23:23 24.06.2019
5869 Clouds 19 1015 72 10000 3.1 320 22:44 24.06.2019
5870 Clouds 19 1015 68 10000 3.6 300 22:19 24.06.2019
5871 Clouds 20 1015 68 10000 4.1 310 21:42 24.06.2019
5872 Clouds 20 1015 68 10000 3.1 310 21:19 24.06.2019
5873 Clouds 20 1015 64 10000 3.1 290 20:59 24.06.2019
5874 Clouds 20 1015 64 10000 3.1 290 20:40 24.06.2019
5875 Clouds 21 1015 60 10000 4.1 320 20:21 24.06.2019
5876 Clouds 21 1015 60 10000 1.5 0 19:46 24.06.2019
5877 Clouds 21 1015 49 10000 2.1 0 19:24 24.06.2019
5878 Clouds 21 1015 49 10000 2.1 0 19:24 24.06.2019
5879 Rain 21 1015 53 10000 1.5 0 18:48 24.06.2019
5880 Rain 21 1015 64 10000 2.1 0 18:30 24.06.2019
5881 Clouds 21 1015 68 10000 2.1 80 17:57 24.06.2019
5882 Clouds 21 1015 60 10000 1.5 290 17:36 24.06.2019
5883 Clouds 21 1015 68 10000 2.1 80 17:36 24.06.2019
5884 Clouds 20 1015 68 10000 2.6 240 16:56 24.06.2019
5885 Clouds 20 1015 72 10000 1.5 0 16:37 24.06.2019
5886 Clouds 20 1015 72 10000 1.5 0 16:18 24.06.2019
5887 Rain 20 1015 72 10000 1.5 0 15:39 24.06.2019
5888 Rain 19 1015 77 10000 1.5 230 15:20 24.06.2019
5889 Rain 19 1016 72 10000 1.5 230 14:34 24.06.2019
5890 Rain 19 1015 68 10000 1 0 13:54 24.06.2019
5891 Rain 19 1015 68 10000 1 0 13:54 24.06.2019
5892 Rain 19 1015 77 10000 1.5 310 13:31 24.06.2019
5893 Rain 19 1015 77 10000 1.5 310 13:31 24.06.2019
5894 Rain 18 1015 93 10000 2.6 330 12:45 24.06.2019
5895 Rain 18 1015 88 10000 2.6 310 12:22 24.06.2019
5896 Rain 18 1015 77 10000 1.5 350 11:58 24.06.2019
5897 Rain 18 1015 77 10000 1.5 350 11:40 24.06.2019
5898 Rain 18 1015 82 10000 2.1 310 11:20 24.06.2019
5899 Clouds 17 1015 93 10000 2.6 300 10:47 24.06.2019
5900 Rain 17 1015 93 10000 2.6 320 10:27 24.06.2019
5901 Rain 17 1014 88 10000 2.6 320 09:49 24.06.2019
5902 Rain 17 1014 93 10000 2.1 310 09:22 24.06.2019
5903 Rain 17 1014 88 10000 1.5 320 08:52 24.06.2019
5904 Rain 17 1014 88 10000 1 0 08:26 24.06.2019
5905 Rain 17 1014 88 10000 1 0 08:26 24.06.2019
5906 Rain 17 1013 88 10000 1.5 30 07:45 24.06.2019
5907 Clouds 17 1013 93 10000 1.5 30 07:26 24.06.2019
5908 Clouds 16 1013 93 10000 1 0 06:49 24.06.2019
5909 Clouds 17 1013 93 10000 0.5 0 06:21 24.06.2019
5910 Clouds 17 1014 88 10000 2.6 300 05:27 24.06.2019
5911 Clouds 17 1014 88 10000 1.5 310 04:25 24.06.2019
5912 Clouds 17 1014 88 10000 2.1 330 03:23 24.06.2019
5913 Clouds 17 1014 88 10000 2.1 310 02:33 24.06.2019
5914 Clouds 18 1014 88 10000 3.6 310 01:54 24.06.2019
5915 Clouds 18 1014 82 10000 3.6 310 01:26 24.06.2019
5916 Clouds 18 1014 88 10000 3.6 300 00:41 24.06.2019
5917 Clouds 18 1014 88 10000 3.1 300 00:19 24.06.2019
5918 Clouds 18 1014 88 10000 2.6 300 23:45 23.06.2019
5919 Clouds 18 1014 82 10000 2.6 300 23:23 23.06.2019
5920 Clouds 19 1013 82 10000 4.1 310 22:43 23.06.2019
5921 Clouds 19 1013 88 10000 3.1 310 22:21 23.06.2019
5922 Clouds 20 1013 77 10000 3.1 270 21:58 23.06.2019
5923 Clouds 20 1013 77 10000 2.1 270 21:40 23.06.2019
5924 Clouds 20 1013 83 10000 3.6 250 21:21 23.06.2019
5925 Clouds 20 1013 83 10000 4.1 240 20:43 23.06.2019
5926 Clouds 21 1013 83 10000 3.6 240 20:25 23.06.2019
5927 Clouds 21 1013 78 10000 3.6 220 19:45 23.06.2019
5928 Clouds 21 1013 83 10000 2.6 220 19:21 23.06.2019
5929 Clouds 21 1013 88 10000 3.6 230 18:54 23.06.2019
5930 Clouds 21 1013 88 10000 3.6 200 18:24 23.06.2019
5931 Clouds 21 1013 94 10000 3.6 200 17:53 23.06.2019
5932 Clouds 20 1013 100 8000 4.1 210 17:27 23.06.2019
5933 Drizzle 20 1013 100 8000 4.6 210 16:59 23.06.2019
5934 Drizzle 20 1013 100 8000 4.6 210 16:40 23.06.2019
5935 Mist 20 1013 100 1500 5.1 210 16:21 23.06.2019
5936 Drizzle 19 1014 100 8000 5.1 220 15:41 23.06.2019
5937 Drizzle 19 1014 100 3000 5.7 210 15:22 23.06.2019
5938 Rain 19 1014 100 2500 6.2 210 14:42 23.06.2019
5939 Rain 19 1014 94 2500 6.2 210 14:23 23.06.2019
5940 Rain 19 1014 100 2000 4.1 190 13:58 23.06.2019
5941 Rain 19 1014 100 1500 5.1 190 13:40 23.06.2019
5942 Rain 19 1014 100 1500 5.1 190 13:19 23.06.2019
5943 Drizzle 18 1013 100 2000 5.1 200 12:44 23.06.2019
5944 Rain 18 1013 100 1500 5.1 180 12:22 23.06.2019
5945 Rain 18 1013 100 1500 5.1 180 12:22 23.06.2019
5946 Rain 19 1013 100 1500 4.1 170 11:55 23.06.2019
5947 Rain 19 1013 100 1500 4.1 170 11:37 23.06.2019
5948 Rain 19 1013 100 1200 4.1 160 11:19 23.06.2019
5949 Rain 18 1013 100 1200 3.6 170 10:43 23.06.2019
5950 Drizzle 18 1013 100 800 4.6 180 10:18 23.06.2019
5951 Fog 18 1013 100 500 4.1 170 09:39 23.06.2019
5952 Fog 18 1013 100 500 4.1 170 09:20 23.06.2019
5953 Mist 18 1013 100 1800 5.1 190 08:44 23.06.2019
5954 Mist 18 1013 93 500 4.6 160 08:26 23.06.2019
5955 Mist 18 1013 100 2500 4.1 200 07:53 23.06.2019
5956 Drizzle 18 1013 100 3500 3.6 200 07:21 23.06.2019
5957 Mist 18 1013 100 4500 3.6 230 06:54 23.06.2019
5958 Drizzle 18 1012 100 4500 3.6 230 05:54 23.06.2019
5959 Clouds 18 1013 93 10000 5.1 230 04:30 23.06.2019
5960 Clouds 18 1013 88 10000 2.1 230 01:54 23.06.2019
5961 Clouds 18 1014 88 10000 3.6 250 01:35 23.06.2019
5962 Clear 18 1014 88 10000 4.6 240 00:36 23.06.2019
5963 Clear 18 1014 77 10000 4.1 240 23:54 22.06.2019
5964 Clear 18 1014 77 10000 3.1 240 23:27 22.06.2019
5965 Clear 19 1014 68 10000 3.6 240 22:49 22.06.2019
5966 Clear 19 1014 68 10000 3.6 240 22:31 22.06.2019
5967 Clear 19 1014 52 10000 4.1 240 21:59 22.06.2019
5968 Clear 19 1013 68 10000 4.6 250 21:37 22.06.2019
5969 Clear 20 1013 49 10000 5.1 230 21:19 22.06.2019
5970 Clear 21 1014 40 10000 6.2 250 20:50 22.06.2019
5971 Clear 21 1014 40 10000 6.2 250 20:50 22.06.2019
5972 Clear 21 1014 38 10000 5.7 260 20:25 22.06.2019
5973 Clear 22 1014 33 10000 6.2 230 19:47 22.06.2019
5974 Clear 22 1014 31 10000 5.7 230 19:23 22.06.2019
5975 Clear 23 1014 33 10000 5.7 230 18:48 22.06.2019
5976 Clear 23 1014 36 10000 6.2 230 18:30 22.06.2019
5977 Clear 22 1014 38 10000 6.7 220 17:56 22.06.2019
5978 Clear 23 1014 33 10000 6.7 200 17:34 22.06.2019
5979 Clear 23 1014 33 10000 6.2 200 16:51 22.06.2019
5980 Clear 23 1014 36 10000 6.7 220 16:25 22.06.2019
5981 Clear 23 1015 36 10000 5.7 210 15:58 22.06.2019
5982 Clear 23 1015 36 10000 5.1 210 15:39 22.06.2019
5983 Clear 22 1015 36 10000 5.1 210 15:21 22.06.2019
5984 Clear 23 1015 33 10000 3.6 210 14:37 22.06.2019
5985 Clear 23 1015 36 10000 3.1 0 14:18 22.06.2019
5986 Clear 22 1015 46 10000 3.1 120 13:41 22.06.2019
5987 Clear 22 1015 46 10000 3.1 100 13:21 22.06.2019
5988 Clear 21 1015 53 10000 2.1 0 12:52 22.06.2019
5989 Clear 21 1015 52 10000 3.1 0 12:33 22.06.2019
5990 Clear 20 1015 49 10000 2.1 0 11:58 22.06.2019
5991 Clear 20 1015 52 10000 1.5 360 11:33 22.06.2019
5992 Clear 19 1016 59 10000 2.1 320 10:50 22.06.2019
5993 Clear 18 1016 63 10000 2.1 310 10:21 22.06.2019
5994 Clouds 17 1016 77 10000 1.5 290 09:55 22.06.2019
5995 Clouds 16 1016 77 10000 2.1 290 09:23 22.06.2019
5996 Clouds 15 1016 87 10000 1.5 280 08:43 22.06.2019
5997 Clouds 14 1016 87 10000 3.6 300 08:23 22.06.2019
5998 Clouds 14 1015 87 10000 3.1 310 07:33 22.06.2019
5999 Clouds 14 1015 87 10000 2.1 290 06:56 22.06.2019
6000 Clear 15 1015 87 10000 2.6 330 05:23 22.06.2019
6001 Clouds 15 1017 82 10000 3.6 330 02:33 22.06.2019
6002 Clear 16 1017 77 10000 5.1 310 01:22 22.06.2019
6003 Clear 16 1017 77 10000 5.1 310 00:46 22.06.2019
6004 Clear 16 1018 77 10000 4.1 310 00:22 22.06.2019
6005 Clear 17 1018 72 10000 4.6 330 23:44 21.06.2019
6006 Clear 17 1017 67 10000 3.6 320 23:22 21.06.2019
6007 Clear 17 1017 63 10000 1.5 0 22:52 21.06.2019
6008 Clear 18 1017 59 10000 5.1 330 22:24 21.06.2019
6009 Clouds 18 1017 55 10000 5.7 330 21:55 21.06.2019
6010 Clouds 19 1017 56 10000 5.7 330 21:37 21.06.2019
6011 Clouds 19 1017 56 10000 5.7 330 21:18 21.06.2019
6012 Clouds 20 1017 56 10000 6.2 320 20:44 21.06.2019
6013 Clouds 21 1017 49 10000 6.7 310 20:22 21.06.2019
6014 Clouds 22 1017 49 10000 6.7 320 19:35 21.06.2019
6015 Clouds 22 1017 43 10000 7.2 330 18:54 21.06.2019
6016 Clouds 23 1017 43 10000 7.2 330 18:34 21.06.2019
6017 Clouds 23 1017 43 10000 6.7 310 17:47 21.06.2019
6018 Clouds 23 1017 43 10000 5.7 310 17:29 21.06.2019
6019 Clouds 23 1018 46 10000 6.7 330 16:42 21.06.2019
6020 Clouds 22 1018 49 10000 8.2 340 16:22 21.06.2019
6021 Clouds 22 1018 40 10000 6.2 310 15:45 21.06.2019
6022 Clouds 23 1018 49 10000 6.7 320 15:24 21.06.2019
6023 Clouds 22 1018 53 10000 5.1 300 14:53 21.06.2019
6024 Clouds 22 1018 53 10000 5.1 300 14:31 21.06.2019
6025 Clouds 22 1018 56 10000 5.1 310 13:58 21.06.2019
6026 Clouds 21 1019 56 10000 5.1 350 13:36 21.06.2019
6027 Clouds 21 1019 56 10000 5.1 350 13:18 21.06.2019
6028 Clouds 20 1018 56 10000 4.6 360 12:42 21.06.2019
6029 Clouds 20 1019 56 10000 4.6 300 12:22 21.06.2019
6030 Clouds 19 1019 63 10000 5.1 330 11:48 21.06.2019
6031 Clouds 19 1019 63 10000 5.7 340 11:27 21.06.2019
6032 Clouds 18 1019 68 10000 4.6 310 10:56 21.06.2019
6033 Clouds 18 1019 72 10000 4.6 340 10:38 21.06.2019
6034 Clouds 17 1019 72 10000 4.6 340 10:19 21.06.2019
6035 Clouds 17 1019 77 10000 5.7 340 09:41 21.06.2019
6036 Clouds 16 1019 77 10000 3.1 340 09:21 21.06.2019
6037 Clouds 16 1019 82 10000 2.6 350 08:44 21.06.2019
6038 Clouds 15 1019 82 10000 4.1 350 08:24 21.06.2019
6039 Clouds 15 1018 87 10000 4.6 350 07:56 21.06.2019
6040 Clouds 15 1018 87 10000 4.6 350 07:38 21.06.2019
6041 Clouds 15 1018 87 10000 3.6 330 06:58 21.06.2019
6042 Clouds 15 1018 82 10000 4.6 330 06:24 21.06.2019
6043 Clouds 15 1018 87 10000 3.1 330 05:32 21.06.2019
6044 Clouds 15 1018 87 10000 5.1 330 04:35 21.06.2019
6045 Clouds 16 1019 87 10000 5.1 320 03:35 21.06.2019
6046 Clouds 16 1019 87 10000 5.7 330 02:58 21.06.2019
6047 Clouds 16 1019 82 10000 5.7 320 01:58 21.06.2019
6048 Clouds 16 1019 82 10000 7.7 330 01:25 21.06.2019
6049 Clouds 16 1019 82 10000 5.7 320 00:27 21.06.2019
6050 Clouds 17 1019 82 10000 6.2 330 23:53 20.06.2019
6051 Clouds 17 1018 82 10000 4.1 320 23:24 20.06.2019
6052 Clouds 17 1018 77 10000 4.1 310 22:59 20.06.2019
6053 Clouds 17 1018 77 10000 4.1 310 22:41 20.06.2019
6054 Clouds 17 1018 72 10000 6.2 320 22:22 20.06.2019
6055 Clouds 17 1017 68 10000 6.7 320 21:54 20.06.2019
6056 Clouds 18 1017 68 10000 7.2 330 21:36 20.06.2019
6057 Clouds 18 1017 68 10000 7.2 330 21:18 20.06.2019
6058 Clouds 18 1017 68 10000 7.2 330 21:18 20.06.2019
6059 Clouds 19 1017 63 10000 6.7 310 20:41 20.06.2019
6060 Clouds 20 1017 60 10000 5.7 310 20:21 20.06.2019
6061 Clouds 20 1017 60 10000 6.7 320 19:43 20.06.2019
6062 Clouds 20 1017 52 10000 6.2 310 19:19 20.06.2019
6063 Clouds 21 1017 56 10000 5.7 310 18:57 20.06.2019
6064 Clouds 21 1017 56 10000 5.1 300 18:38 20.06.2019
6065 Clouds 21 1017 56 10000 5.1 300 18:20 20.06.2019
6066 Clouds 21 1017 56 10000 5.7 320 17:45 20.06.2019
6067 Clouds 21 1017 56 10000 5.1 330 17:25 20.06.2019
6068 Clouds 21 1017 52 10000 5.7 320 16:42 20.06.2019
6069 Clouds 21 1017 52 10000 5.7 320 16:19 20.06.2019
6070 Clouds 21 1017 52 10000 5.7 320 15:56 20.06.2019
6071 Clouds 21 1017 53 10000 5.1 310 15:37 20.06.2019
6072 Clouds 21 1017 53 10000 5.1 310 15:18 20.06.2019
6073 Clouds 20 1017 53 10000 5.1 310 14:42 20.06.2019
6074 Clouds 20 1018 56 10000 4.6 320 14:21 20.06.2019
6075 Clouds 19 1018 60 10000 5.7 340 13:40 20.06.2019
6076 Clouds 19 1018 68 10000 3.6 310 13:19 20.06.2019
6077 Clouds 19 1017 72 10000 4.1 330 12:44 20.06.2019
6078 Clouds 18 1017 77 10000 3.1 310 12:22 20.06.2019
6079 Drizzle 18 1017 72 10000 3.1 310 11:44 20.06.2019
6080 Rain 18 1017 77 10000 2.1 300 11:23 20.06.2019
6081 Clouds 18 1017 82 10000 2.6 310 10:45 20.06.2019
6082 Clouds 18 1017 82 10000 2.6 310 10:45 20.06.2019
6083 Clouds 17 1017 82 10000 2.6 290 10:25 20.06.2019
6084 Clouds 17 1017 82 10000 2.1 300 09:58 20.06.2019
6085 Clouds 17 1017 82 10000 2.1 300 09:38 20.06.2019
6086 Clouds 17 1017 88 10000 2.1 240 09:20 20.06.2019
6087 Clouds 16 1017 93 10000 1.5 280 08:45 20.06.2019
6088 Clouds 16 1017 87 10000 1.5 290 08:26 20.06.2019
6089 Clouds 16 1017 93 10000 2.1 310 07:51 20.06.2019
6090 Clouds 16 1016 93 10000 2.1 320 07:27 20.06.2019
6091 Clear 16 1016 93 10000 3.6 300 06:27 20.06.2019
6092 Clouds 16 1017 87 10000 2.6 300 04:53 20.06.2019
6093 Clouds 16 1017 87 10000 3.1 300 02:29 20.06.2019
6094 Clear 17 1017 82 10000 5.1 300 00:34 20.06.2019
6095 Clear 17 1017 82 10000 4.6 300 23:49 19.06.2019
6096 Clouds 17 1017 82 10000 5.1 300 23:30 19.06.2019
6097 Clouds 18 1016 77 10000 4.1 290 22:57 19.06.2019
6098 Clouds 18 1016 77 10000 4.1 290 22:39 19.06.2019
6099 Clouds 19 1016 72 10000 4.6 300 22:18 19.06.2019
6100 Clouds 19 1016 72 10000 4.6 300 22:18 19.06.2019
6101 Clouds 20 1016 68 10000 4.6 320 21:42 19.06.2019
6102 Clouds 20 1016 64 10000 4.1 310 21:23 19.06.2019
6103 Clouds 21 1016 64 10000 3.6 300 20:42 19.06.2019
6104 Clouds 21 1016 64 10000 3.6 300 20:42 19.06.2019
6105 Clouds 21 1016 60 10000 3.6 280 20:22 19.06.2019
6106 Clouds 21 1016 53 10000 4.1 260 19:55 19.06.2019
6107 Clouds 22 1016 60 10000 3.6 260 19:36 19.06.2019
6108 Clouds 22 1016 60 10000 3.6 260 19:18 19.06.2019
6109 Clouds 22 1016 60 10000 4.1 240 18:43 19.06.2019
6110 Clouds 21 1016 68 10000 4.1 260 18:20 19.06.2019
6111 Clouds 21 1016 68 10000 5.7 240 17:35 19.06.2019
6112 Clouds 21 1016 60 10000 5.7 230 16:57 19.06.2019
6113 Clouds 21 1016 60 10000 6.2 220 16:38 19.06.2019
6114 Clouds 21 1016 60 10000 6.2 220 16:20 19.06.2019
6115 Clouds 21 1017 60 10000 6.2 230 15:48 19.06.2019
6116 Clouds 21 1017 60 10000 5.7 220 15:26 19.06.2019
6117 Clouds 21 1017 64 10000 5.7 230 14:50 19.06.2019
6118 Clouds 21 1017 68 10000 6.2 220 14:30 19.06.2019
6119 Clouds 20 1017 73 10000 5.1 220 13:59 19.06.2019
6120 Clouds 20 1017 73 10000 5.1 220 13:40 19.06.2019
6121 Clouds 20 1017 73 10000 5.1 230 13:21 19.06.2019
6122 Clouds 20 1017 73 10000 5.1 220 12:43 19.06.2019
6123 Clouds 20 1017 73 10000 4.6 210 12:21 19.06.2019
6124 Clouds 19 1016 82 10000 4.1 210 11:45 19.06.2019
6125 Clouds 19 1016 82 10000 5.1 210 11:25 19.06.2019
6126 Clouds 19 1016 88 10000 4.6 210 10:58 19.06.2019
6127 Clouds 19 1016 88 10000 4.6 210 10:40 19.06.2019
6128 Clouds 19 1016 88 10000 4.6 210 10:40 19.06.2019
6129 Rain 19 1016 88 10000 4.1 210 10:22 19.06.2019
6130 Rain 18 1016 88 10000 2.1 190 09:39 19.06.2019
6131 Clouds 18 1016 93 10000 2.6 240 09:20 19.06.2019
6132 Mist 18 1015 93 6000 2.6 230 08:50 19.06.2019
6133 Fog 18 1015 93 9000 3.1 220 08:28 19.06.2019
6134 Drizzle 18 1015 93 6000 3.6 240 07:47 19.06.2019
6135 Drizzle 18 1015 93 6000 3.6 240 07:47 19.06.2019
6136 Drizzle 18 1015 100 6000 4.1 220 07:25 19.06.2019
6137 Clouds 18 1015 100 8000 3.6 220 06:52 19.06.2019
6138 Clouds 18 1015 100 8000 4.1 220 06:28 19.06.2019
6139 Clouds 18 1015 100 9000 2.6 220 05:49 19.06.2019
6140 Drizzle 18 1015 93 9000 3.6 210 04:34 19.06.2019
6141 Drizzle 18 1015 100 10000 3.6 220 03:33 19.06.2019
6142 Clouds 18 1016 93 10000 4.6 220 02:26 19.06.2019
6143 Drizzle 18 1016 93 9000 4.1 230 01:23 19.06.2019
6144 Clouds 18 1016 93 9000 4.1 230 00:43 19.06.2019
6145 Clouds 18 1016 93 9000 4.1 220 00:20 19.06.2019
6146 Clouds 18 1015 93 9000 5.7 220 23:53 18.06.2019
6147 Fog 18 1015 100 9000 5.1 220 23:28 18.06.2019
6148 Drizzle 19 1015 100 7000 5.7 210 22:49 18.06.2019
6149 Drizzle 18 1015 93 7000 5.7 210 22:25 18.06.2019
6150 Drizzle 19 1015 93 7000 6.2 210 21:58 18.06.2019
6151 Drizzle 19 1015 93 7000 6.2 210 21:39 18.06.2019
6152 Drizzle 19 1015 88 9000 7.7 210 21:21 18.06.2019
6153 Drizzle 19 1015 93 7000 6.7 210 20:44 18.06.2019
6154 Drizzle 19 1015 93 6000 6.7 210 20:25 18.06.2019
6155 Drizzle 19 1015 82 5000 7.7 210 19:55 18.06.2019
6156 Drizzle 20 1015 82 5000 7.7 210 19:37 18.06.2019
6157 Clouds 20 1015 82 10000 7.7 210 19:19 18.06.2019
6158 Clouds 20 1015 77 10000 9.3 210 18:43 18.06.2019
6159 Rain 20 1015 77 10000 9.3 220 18:24 18.06.2019
6160 Rain 21 1015 77 10000 9.3 210 17:42 18.06.2019
6161 Clouds 21 1014 77 10000 8.2 210 17:20 18.06.2019
6162 Clouds 21 1014 77 10000 8.7 210 16:47 18.06.2019
6163 Clouds 21 1014 77 10000 9.8 200 16:27 18.06.2019
6164 Clouds 21 1014 77 10000 8.7 210 15:56 18.06.2019
6165 Clouds 21 1014 68 10000 11.3 210 15:37 18.06.2019
6166 Clouds 21 1014 68 10000 11.3 210 15:19 18.06.2019
6167 Clouds 21 1014 73 10000 9.8 210 14:45 18.06.2019
6168 Clouds 21 1014 73 10000 9.8 210 14:45 18.06.2019
6169 Clouds 21 1014 77 10000 8.7 210 14:22 18.06.2019
6170 Clouds 20 1014 82 10000 10.3 210 13:56 18.06.2019
6171 Clouds 20 1014 82 10000 10.3 210 13:38 18.06.2019
6172 Rain 20 1014 77 10000 9.3 210 13:19 18.06.2019
6173 Clouds 20 1014 82 10000 7.7 210 12:42 18.06.2019
6174 Clouds 20 1014 82 10000 9.3 200 12:24 18.06.2019
6175 Clouds 19 1014 88 10000 9.8 200 11:43 18.06.2019
6176 Mist 19 1014 93 10000 9.3 200 11:21 18.06.2019
6177 Mist 19 1013 93 10000 8.7 200 10:57 18.06.2019
6178 Mist 18 1013 93 10000 7.7 200 10:37 18.06.2019
6179 Mist 18 1013 93 10000 7.7 200 10:18 18.06.2019
6180 Rain 18 1013 93 10000 8.2 200 09:47 18.06.2019
6181 Mist 17 1013 93 10000 7.2 200 09:22 18.06.2019
6182 Mist 17 1013 93 10000 6.7 200 08:43 18.06.2019
6183 Mist 17 1013 93 10000 6.7 200 08:43 18.06.2019
6184 Drizzle 17 1013 93 10000 6.7 200 08:21 18.06.2019
6185 Drizzle 17 1012 100 8000 6.7 200 07:41 18.06.2019
6186 Rain 17 1012 100 10000 5.1 180 07:21 18.06.2019
6187 Drizzle 16 1012 93 9000 5.7 180 06:43 18.06.2019
6188 Drizzle 17 1013 88 6000 4.6 170 05:20 18.06.2019
6189 Clouds 16 1014 87 10000 4.6 200 02:53 18.06.2019
6190 Clouds 16 1014 87 10000 4.6 200 01:55 18.06.2019
6191 Clouds 16 1014 87 10000 4.6 210 01:25 18.06.2019
6192 Clouds 16 1014 87 10000 3.6 200 00:56 18.06.2019
6193 Clouds 16 1015 87 10000 3.6 200 00:30 18.06.2019
6194 Clouds 16 1015 82 10000 3.1 210 23:41 17.06.2019
6195 Clouds 16 1014 82 10000 4.1 210 23:20 17.06.2019
6196 Clouds 16 1014 82 10000 4.6 220 22:58 17.06.2019
6197 Clouds 16 1014 82 10000 4.6 220 22:38 17.06.2019
6198 Clear 17 1014 77 10000 5.7 220 22:20 17.06.2019
6199 Clear 17 1014 63 10000 5.7 230 21:42 17.06.2019
6200 Clear 18 1014 63 10000 7.2 230 21:21 17.06.2019
6201 Clear 18 1014 55 10000 5.7 240 20:38 17.06.2019
6202 Clear 18 1014 55 10000 5.7 240 20:20 17.06.2019
6203 Clear 18 1014 52 10000 6.2 240 19:54 17.06.2019
6204 Clear 18 1014 49 10000 6.7 240 19:36 17.06.2019
6205 Clear 19 1014 49 10000 6.7 240 19:18 17.06.2019
6206 Clear 19 1015 40 10000 5.7 230 18:38 17.06.2019
6207 Clear 19 1015 40 10000 5.7 230 18:18 17.06.2019
6208 Clear 19 1015 40 10000 5.7 230 18:18 17.06.2019
6209 Clear 19 1015 40 10000 5.7 230 18:18 17.06.2019
6210 Clear 19 1015 43 10000 7.2 220 17:47 17.06.2019
6211 Clear 19 1015 43 10000 7.2 220 17:29 17.06.2019
6212 Clear 19 1016 40 10000 6.7 240 16:55 17.06.2019
6213 Clear 20 1016 40 10000 6.7 240 16:37 17.06.2019
6214 Clear 20 1016 43 10000 5.1 230 16:19 17.06.2019
6215 Clear 20 1016 43 10000 5.1 220 15:43 17.06.2019
6216 Clear 20 1016 46 10000 4.6 230 15:20 17.06.2019
6217 Clear 20 1016 43 10000 5.1 220 15:20 17.06.2019
6218 Clear 20 1016 46 10000 4.6 230 14:55 17.06.2019
6219 Clear 20 1016 49 10000 3.6 220 14:36 17.06.2019
6220 Clear 20 1016 49 10000 3.6 220 14:36 17.06.2019
6221 Clear 20 1016 49 10000 2.1 230 14:18 17.06.2019
6222 Clear 20 1017 49 10000 3.1 180 13:40 17.06.2019
6223 Clear 19 1017 49 10000 3.1 180 13:20 17.06.2019
6224 Clear 19 1017 59 10000 2.6 0 12:39 17.06.2019
6225 Clear 18 1017 67 10000 2.1 0 12:19 17.06.2019
6226 Clear 18 1017 72 10000 2.6 110 11:43 17.06.2019
6227 Clear 17 1017 72 10000 2.6 110 11:25 17.06.2019
6228 Clouds 17 1017 77 10000 2.1 0 10:47 17.06.2019
6229 Clouds 16 1017 77 10000 2.1 0 10:29 17.06.2019
6230 Clouds 16 1017 77 10000 1 0 09:56 17.06.2019
6231 Clouds 15 1017 82 10000 1 0 09:34 17.06.2019
6232 Clouds 14 1017 87 10000 2.6 320 08:55 17.06.2019
6233 Clouds 13 1017 93 10000 2.1 330 08:36 17.06.2019
6234 Clouds 13 1017 87 10000 3.1 310 08:18 17.06.2019
6235 Clear 13 1017 93 10000 3.1 320 07:38 17.06.2019
6236 Clear 13 1017 87 10000 2.1 330 07:18 17.06.2019
6237 Clear 13 1017 87 10000 2.6 320 06:22 17.06.2019
6238 Clear 13 1018 93 10000 3.1 320 05:31 17.06.2019
6239 Clear 13 1018 87 10000 3.6 330 04:32 17.06.2019
6240 Clear 14 1018 87 10000 2.6 340 03:32 17.06.2019
6241 Clear 14 1019 82 10000 3.1 340 02:49 17.06.2019
6242 Clouds 14 1019 87 10000 3.6 340 02:31 17.06.2019
6243 Clouds 14 1019 87 10000 5.7 340 01:38 17.06.2019
6244 Clouds 15 1019 77 10000 5.1 330 00:58 17.06.2019
6245 Clouds 15 1019 82 10000 5.7 330 00:38 17.06.2019
6246 Clouds 15 1019 77 10000 6.7 320 00:20 17.06.2019
6247 Clouds 16 1019 77 10000 6.7 320 23:40 16.06.2019
6248 Clouds 15 1019 72 10000 7.2 310 23:20 16.06.2019
6249 Clouds 16 1018 67 10000 6.7 310 22:47 16.06.2019
6250 Clouds 16 1018 63 10000 7.7 310 22:21 16.06.2019
6251 Clouds 16 1018 63 10000 7.7 310 21:59 16.06.2019
6252 Clouds 17 1018 59 10000 7.2 320 21:40 16.06.2019
6253 Clouds 17 1018 59 10000 7.2 320 21:21 16.06.2019
6254 Clouds 18 1018 52 10000 7.2 330 20:55 16.06.2019
6255 Clouds 19 1018 49 10000 6.2 320 20:37 16.06.2019
6256 Clouds 19 1018 43 10000 6.7 320 20:18 16.06.2019
6257 Clouds 19 1018 43 10000 6.7 320 20:18 16.06.2019
6258 Clouds 20 1018 46 10000 7.2 330 19:40 16.06.2019
6259 Clouds 20 1018 46 10000 7.2 330 19:22 16.06.2019
6260 Clouds 20 1018 52 10000 6.7 330 18:57 16.06.2019
6261 Clouds 21 1018 46 10000 6.2 310 18:39 16.06.2019
6262 Clouds 21 1018 46 10000 5.7 330 18:20 16.06.2019
6263 Smoke 21 1018 43 10000 4.6 300 17:46 16.06.2019
6264 Smoke 21 1018 43 10000 4.6 300 17:22 16.06.2019
6265 Clouds 21 1018 43 10000 5.7 320 16:57 16.06.2019
6266 Clouds 22 1018 43 10000 6.2 330 16:38 16.06.2019
6267 Clouds 21 1018 43 10000 6.2 330 16:20 16.06.2019
6268 Clouds 21 1018 43 10000 4.6 320 15:42 16.06.2019
6269 Clouds 21 1018 43 10000 4.6 320 15:23 16.06.2019
6270 Clouds 21 1019 43 10000 3.1 0 14:44 16.06.2019
6271 Clouds 21 1019 43 10000 3.1 0 14:23 16.06.2019
6272 Clouds 20 1019 49 10000 3.6 310 13:52 16.06.2019
6273 Clouds 20 1019 52 10000 2.6 340 13:28 16.06.2019
6274 Clouds 19 1019 55 10000 4.1 350 12:58 16.06.2019
6275 Clouds 19 1019 55 10000 4.1 10 12:39 16.06.2019
6276 Clouds 18 1019 59 10000 4.1 350 12:19 16.06.2019
6277 Clouds 18 1019 63 10000 4.6 350 11:46 16.06.2019
6278 Clouds 17 1019 72 10000 4.1 330 11:20 16.06.2019
6279 Clouds 16 1019 72 10000 5.1 340 10:46 16.06.2019
6280 Clouds 16 1019 72 10000 5.1 340 10:22 16.06.2019
6281 Clouds 15 1019 77 10000 4.1 350 09:56 16.06.2019
6282 Clouds 15 1019 77 10000 3.6 330 09:36 16.06.2019
6283 Clouds 15 1019 82 10000 4.1 350 09:18 16.06.2019
6284 Clouds 14 1018 82 10000 5.7 340 08:40 16.06.2019
6285 Clouds 14 1018 76 10000 5.7 340 08:19 16.06.2019
6286 Clouds 14 1018 76 10000 5.1 350 07:44 16.06.2019
6287 Clear 13 1018 82 10000 4.6 340 06:59 16.06.2019
6288 Clear 13 1018 82 10000 5.1 340 06:39 16.06.2019
6289 Clear 14 1019 76 10000 5.7 340 05:50 16.06.2019
6290 Clear 14 1019 76 10000 4.6 330 04:54 16.06.2019
6291 Clear 14 1019 76 10000 5.1 330 03:57 16.06.2019
6292 Clear 14 1019 76 10000 4.1 320 03:32 16.06.2019
6293 Clear 14 1020 76 10000 5.1 330 02:33 16.06.2019
6294 Clear 15 1020 77 10000 6.2 340 01:47 16.06.2019
6295 Clear 15 1020 77 10000 6.2 340 01:27 16.06.2019
6296 Clear 15 1020 72 10000 6.2 340 00:40 16.06.2019
6297 Clear 15 1020 72 10000 5.7 340 00:21 16.06.2019
6298 Clear 15 1020 67 10000 5.1 330 23:45 15.06.2019
6299 Clear 16 1020 67 10000 5.1 330 23:25 15.06.2019
6300 Clear 16 1020 67 10000 5.1 320 22:50 15.06.2019
6301 Clear 16 1020 63 10000 5.1 330 22:27 15.06.2019
6302 Clear 16 1020 63 10000 5.7 320 21:57 15.06.2019
6303 Clouds 17 1020 55 10000 6.2 320 21:39 15.06.2019
6304 Clear 18 1020 48 10000 6.2 330 21:18 15.06.2019
6305 Clear 18 1020 48 10000 7.7 340 20:42 15.06.2019
6306 Clear 19 1020 45 10000 6.2 340 20:22 15.06.2019
6307 Clouds 20 1020 46 10000 6.2 330 19:43 15.06.2019
6308 Clouds 20 1020 46 10000 6.2 330 19:24 15.06.2019
6309 Clouds 20 1020 49 10000 5.7 340 18:41 15.06.2019
6310 Clouds 21 1021 43 10000 5.7 310 18:21 15.06.2019
6311 Clouds 21 1021 46 10000 5.7 310 17:43 15.06.2019
6312 Clouds 21 1021 46 10000 5.7 310 17:25 15.06.2019
6313 Clouds 20 1021 52 10000 4.6 300 16:48 15.06.2019
6314 Clouds 21 1021 52 10000 4.6 300 16:20 15.06.2019
6315 Clouds 19 1021 59 10000 2.6 220 15:44 15.06.2019
6316 Clouds 19 1021 59 10000 2.6 220 15:44 15.06.2019
6317 Clouds 19 1021 59 10000 2.6 220 15:24 15.06.2019
6318 Clouds 19 1022 59 10000 3.1 160 14:44 15.06.2019
6319 Clouds 19 1022 59 10000 3.1 160 14:20 15.06.2019
6320 Clouds 19 1022 59 10000 4.6 160 13:58 15.06.2019
6321 Clouds 19 1022 59 10000 2.1 0 13:40 15.06.2019
6322 Clouds 19 1022 56 10000 2.1 0 13:19 15.06.2019
6323 Clouds 18 1022 59 10000 3.1 330 12:52 15.06.2019
6324 Clouds 18 1022 59 10000 3.1 330 12:26 15.06.2019
6325 Clouds 18 1022 55 10000 2.6 0 11:53 15.06.2019
6326 Clouds 17 1022 67 10000 1.5 280 11:34 15.06.2019
6327 Clouds 17 1022 72 10000 3.6 330 10:55 15.06.2019
6328 Clouds 17 1022 77 10000 4.1 330 10:37 15.06.2019
6329 Clouds 16 1021 77 10000 3.1 10 10:18 15.06.2019
6330 Clouds 16 1021 87 10000 2.1 310 09:43 15.06.2019
6331 Clouds 15 1021 93 10000 1.5 340 09:21 15.06.2019
6332 Clouds 14 1021 87 10000 0.5 0 08:48 15.06.2019
6333 Clouds 14 1021 87 10000 0.5 0 08:29 15.06.2019
6334 Clouds 13 1020 93 10000 1 270 07:49 15.06.2019
6335 Clouds 13 1020 93 10000 1 270 07:22 15.06.2019
6336 Clouds 13 1020 93 10000 0.5 240 06:39 15.06.2019
6337 Clouds 13 1020 93 10000 0.5 240 06:39 15.06.2019
6338 Clouds 13 1020 93 10000 1 270 05:56 15.06.2019
6339 Clouds 14 1020 93 10000 1.5 280 05:23 15.06.2019
6340 Clouds 14 1021 93 10000 1.5 270 04:41 15.06.2019
6341 Clouds 14 1021 93 10000 1 240 03:42 15.06.2019
6342 Clouds 14 1021 87 10000 1 0 02:49 15.06.2019
6343 Clouds 14 1021 82 10000 1 0 02:20 15.06.2019
6344 Clouds 15 1021 82 10000 2.6 240 01:42 15.06.2019
6345 Clouds 15 1021 82 10000 2.1 290 00:47 15.06.2019
6346 Clouds 15 1021 82 10000 2.1 290 00:29 15.06.2019
6347 Clouds 15 1020 77 10000 3.6 300 23:54 14.06.2019
6348 Clouds 16 1020 72 10000 3.6 280 23:25 14.06.2019
6349 Clouds 16 1019 67 10000 4.6 310 22:43 14.06.2019
6350 Clouds 16 1019 67 10000 4.6 310 22:23 14.06.2019
6351 Clouds 16 1019 67 10000 4.6 310 22:23 14.06.2019
6352 Clouds 16 1019 63 10000 4.6 290 21:59 14.06.2019
6353 Clouds 17 1019 63 10000 5.1 280 21:40 14.06.2019
6354 Clouds 17 1019 55 10000 4.6 290 21:21 14.06.2019
6355 Clouds 18 1018 52 10000 6.2 270 20:42 14.06.2019
6356 Clouds 18 1018 48 10000 5.1 270 20:18 14.06.2019
6357 Clouds 18 1018 48 10000 5.1 270 19:53 14.06.2019
6358 Clouds 18 1018 52 10000 4.6 260 19:23 14.06.2019
6359 Clouds 18 1018 52 10000 4.6 260 19:23 14.06.2019
6360 Clouds 18 1018 52 10000 5.7 280 18:58 14.06.2019
6361 Clouds 18 1018 45 10000 6.2 300 18:40 14.06.2019
6362 Clouds 19 1018 45 10000 5.7 290 18:22 14.06.2019
6363 Clouds 19 1018 40 10000 5.7 280 17:47 14.06.2019
6364 Clouds 19 1018 40 10000 5.7 280 17:28 14.06.2019
6365 Clouds 19 1018 42 10000 1 0 16:58 14.06.2019
6366 Clouds 19 1018 45 10000 6.7 310 16:40 14.06.2019
6367 Clouds 19 1018 45 10000 6.7 310 16:40 14.06.2019
6368 Clouds 18 1018 42 10000 4.6 260 16:19 14.06.2019
6369 Clouds 18 1018 42 10000 4.6 260 16:19 14.06.2019
6370 Clouds 19 1018 48 10000 4.6 270 15:40 14.06.2019
6371 -273 0 0 0 0 0 15:22 14.06.2019
6372 Rain 18 1018 55 10000 4.6 260 14:54 14.06.2019
6373 Rain 17 1018 59 10000 5.1 290 14:35 14.06.2019
6374 Rain 17 1018 59 10000 5.1 290 14:35 14.06.2019
6375 Clouds 17 1018 55 10000 5.1 250 13:57 14.06.2019
6376 Clouds 17 1018 52 10000 4.6 280 13:38 14.06.2019
6377 Clouds 17 1017 55 10000 4.1 270 13:20 14.06.2019
6378 Clouds 17 1017 55 10000 5.1 260 12:42 14.06.2019
6379 Clouds 17 1017 55 10000 5.1 260 12:24 14.06.2019
6380 Clouds 17 1017 59 10000 3.6 270 11:57 14.06.2019
6381 Clouds 17 1017 67 10000 3.1 280 11:38 14.06.2019
6382 Rain 16 1016 67 10000 3.1 310 11:20 14.06.2019
6383 Clouds 16 1016 63 10000 4.1 290 10:42 14.06.2019
6384 Clouds 16 1016 72 10000 3.1 310 10:18 14.06.2019
6385 Clouds 15 1015 77 10000 2.6 280 09:43 14.06.2019
6386 Clouds 15 1015 77 10000 2.6 280 09:22 14.06.2019
6387 Clouds 14 1015 87 10000 1.5 270 08:46 14.06.2019
6388 Clouds 14 1015 87 10000 1.5 270 08:19 14.06.2019
6389 Clouds 13 1015 87 10000 1.5 310 07:50 14.06.2019
6390 Clouds 13 1015 87 10000 1.5 310 07:21 14.06.2019
6391 Clouds 14 1015 87 10000 2.1 310 06:34 14.06.2019
6392 Clouds 14 1015 87 10000 1.5 270 05:56 14.06.2019
6393 Clouds 14 1015 82 10000 1.5 280 05:21 14.06.2019
6394 Clouds 14 1015 82 10000 2.1 290 04:45 14.06.2019
6395 Clouds 14 1015 82 10000 2.6 290 03:52 14.06.2019
6396 Clouds 14 1015 82 10000 2.6 290 03:25 14.06.2019
6397 Clouds 14 1015 76 10000 2.1 300 02:50 14.06.2019
6398 Clouds 14 1015 76 10000 2.1 300 02:27 14.06.2019
6399 Clouds 14 1015 76 10000 2.1 300 02:27 14.06.2019
6400 Clouds 14 1015 76 10000 2.6 300 00:57 14.06.2019
6401 Clouds 15 1015 72 10000 3.1 310 00:23 14.06.2019
6402 Clouds 15 1015 72 10000 3.1 310 23:59 13.06.2019
6403 Clouds 15 1015 72 10000 3.6 320 23:39 13.06.2019
6404 Clouds 15 1014 72 10000 4.1 320 23:21 13.06.2019
6405 Clouds 15 1014 67 10000 5.1 340 22:40 13.06.2019
6406 Clouds 15 1014 67 10000 5.1 340 22:21 13.06.2019
6407 Clouds 16 1014 55 10000 6.7 340 21:40 13.06.2019
6408 Clouds 16 1014 55 10000 6.7 340 21:20 13.06.2019
6409 Clouds 17 1013 59 10000 6.2 330 20:57 13.06.2019
6410 -273 0 0 0 0 0 20:57 13.06.2019
6411 Clouds 17 1013 52 10000 6.2 320 20:38 13.06.2019
6412 Clouds 17 1013 52 10000 6.2 320 20:18 13.06.2019
6413 Clouds 18 1013 45 10000 8.7 340 19:41 13.06.2019
6414 Clouds 18 1013 48 10000 8.2 340 19:22 13.06.2019
6415 Clouds 18 1013 48 10000 8.2 340 18:57 13.06.2019
6416 Clouds 18 1013 45 10000 6.7 320 18:39 13.06.2019
6417 Clouds 18 1013 42 10000 6.7 300 18:21 13.06.2019
6418 Clouds 18 1013 45 10000 7.2 310 17:42 13.06.2019
6419 Clouds 19 1013 42 10000 6.2 320 17:20 13.06.2019
6420 Clouds 19 1013 42 10000 6.7 320 16:50 13.06.2019
6421 Clouds 19 1013 42 10000 6.7 320 16:22 13.06.2019
6422 Clouds 19 1013 42 10000 6.2 340 15:57 13.06.2019
6423 Clouds 19 1013 45 10000 5.7 330 15:39 13.06.2019
6424 Clouds 19 1013 42 10000 5.1 330 15:19 13.06.2019
6425 Clouds 19 1013 45 10000 5.7 320 14:47 13.06.2019
6426 Clouds 18 1013 45 10000 5.7 320 14:27 13.06.2019
6427 Clouds 18 1013 42 10000 7.2 360 13:47 13.06.2019
6428 Clouds 18 1013 45 10000 7.2 360 13:22 13.06.2019
6429 Clouds 18 1013 45 10000 7.2 360 12:58 13.06.2019
6430 Clouds 17 1013 51 10000 5.7 320 12:38 13.06.2019
6431 Clouds 17 1013 51 10000 5.7 360 12:20 13.06.2019
6432 Clouds 17 1013 63 10000 4.6 330 11:43 13.06.2019
6433 Clouds 17 1013 63 10000 4.6 330 11:25 13.06.2019
6434 Clouds 17 1013 63 10000 4.6 330 11:25 13.06.2019
6435 Clouds 16 1013 72 10000 6.2 360 10:47 13.06.2019
6436 Clouds 16 1013 72 10000 6.2 360 10:28 13.06.2019
6437 Clouds 15 1013 76 10000 5.1 360 09:52 13.06.2019
6438 -273 0 0 0 0 0 09:29 13.06.2019
6439 Clouds 14 1013 82 10000 2.6 330 08:56 13.06.2019
6440 Clouds 14 1013 82 10000 2.6 330 08:56 13.06.2019
6441 Clouds 14 1013 82 10000 1.5 330 08:37 13.06.2019
6442 Clouds 13 1013 82 10000 1.5 320 08:19 13.06.2019
6443 Clouds 13 1013 82 10000 1.5 0 07:37 13.06.2019
6444 Clouds 13 1013 82 10000 1.5 320 07:18 13.06.2019
6445 Clouds 13 1013 87 10000 1.5 340 06:38 13.06.2019
6446 Clouds 13 1013 87 10000 1.5 340 06:20 13.06.2019
6447 Clouds 13 1013 82 10000 2.6 350 05:39 13.06.2019
6448 Clouds 13 1013 82 10000 2.6 350 05:19 13.06.2019
6449 Clouds 13 1013 82 10000 3.1 350 03:49 13.06.2019
6450 Clouds 14 1014 76 10000 4.1 350 01:59 13.06.2019
6451 Clouds 14 1014 76 10000 6.2 340 00:32 13.06.2019
6452 Clouds 14 1014 76 10000 6.2 340 00:32 13.06.2019
6453 Clouds 14 1014 76 10000 6.2 340 23:38 12.06.2019
6454 Clouds 14 1014 76 10000 6.2 340 23:38 12.06.2019
6455 Clouds 15 1014 67 10000 6.7 350 23:19 12.06.2019
6456 Clouds 15 1013 62 10000 8.7 340 22:41 12.06.2019
6457 Clouds 15 1013 59 10000 8.2 360 22:21 12.06.2019
6458 Clouds 16 1013 55 10000 8.2 330 21:46 12.06.2019
6459 Clouds 16 1013 55 10000 8.2 330 21:28 12.06.2019
6460 Clouds 17 1013 48 10000 8.2 340 20:49 12.06.2019
6461 Clouds 17 1013 48 10000 8.2 340 20:31 12.06.2019
6462 Clouds 18 1013 45 10000 8.2 340 19:59 12.06.2019
6463 Clear 19 1013 45 10000 7.7 330 19:41 12.06.2019
6464 Clear 19 1013 45 10000 7.7 330 19:22 12.06.2019
6465 Clear 19 1013 37 10000 9.8 350 18:49 12.06.2019
6466 Clear 19 1013 37 10000 9.8 350 18:28 12.06.2019
6467 Clear 20 1013 32 10000 8.7 330 17:58 12.06.2019
6468 Clear 20 1013 32 10000 8.7 340 17:39 12.06.2019
6469 Clear 20 1013 30 10000 9.8 340 17:18 12.06.2019
6470 Clear 20 1014 32 10000 7.2 330 16:40 12.06.2019
6471 Clear 20 1014 32 10000 7.2 330 16:22 12.06.2019
6472 Clear 21 1014 32 10000 6.7 340 15:47 12.06.2019
6473 Clear 21 1014 32 10000 6.7 340 15:29 12.06.2019
6474 Clear 20 1015 30 10000 6.7 340 14:42 12.06.2019
6475 Clear 20 1015 30 10000 6.7 340 14:42 12.06.2019
6476 Clear 20 1015 30 10000 6.7 340 14:22 12.06.2019
6477 Clear 20 1015 34 10000 6.7 350 13:42 12.06.2019
6478 Clear 20 1015 40 10000 6.2 360 13:20 12.06.2019
6479 Clear 20 1015 40 10000 6.2 360 12:58 12.06.2019
6480 Clear 19 1015 39 10000 7.2 350 12:38 12.06.2019
6481 Clear 19 1015 39 10000 7.2 350 12:38 12.06.2019
6482 Clear 19 1015 45 10000 6.2 360 12:19 12.06.2019
6483 Clear 19 1015 45 10000 6.2 360 12:19 12.06.2019
6484 Clear 18 1015 45 10000 6.7 360 11:46 12.06.2019
6485 Clear 18 1015 45 10000 6.7 360 11:27 12.06.2019
6486 Clear 17 1015 59 10000 6.7 360 10:51 12.06.2019
6487 Clear 17 1015 59 10000 6.7 360 10:29 12.06.2019
6488 Clear 15 1015 67 10000 5.7 350 09:45 12.06.2019
6489 Clear 15 1015 67 10000 5.7 350 09:23 12.06.2019
6490 Clear 14 1015 67 10000 5.7 360 08:56 12.06.2019
6491 Clear 14 1015 67 10000 5.7 360 08:56 12.06.2019
6492 Clear 13 1015 76 10000 5.7 350 08:23 12.06.2019
6493 Clouds 14 1015 82 10000 3.6 360 07:46 12.06.2019
6494 Clear 14 1014 82 10000 6.2 350 06:54 12.06.2019
6495 Clear 14 1014 76 10000 3.6 360 05:37 12.06.2019
6496 Clear 14 1014 76 10000 6.7 350 05:19 12.06.2019
6497 Clear 15 1015 72 10000 8.7 340 01:58 12.06.2019
6498 Clear 15 1016 72 10000 8.7 330 00:40 12.06.2019
6499 Clear 15 1015 67 10000 9.3 340 23:50 11.06.2019
6500 Clear 15 1015 67 10000 9.3 340 23:31 11.06.2019
6501 Clear 16 1015 63 10000 8.2 340 22:44 11.06.2019
6502 Clear 16 1015 59 10000 9.3 340 22:21 11.06.2019
6503 Clear 17 1015 59 10000 9.3 340 21:58 11.06.2019
6504 Clear 17 1015 59 10000 8.7 340 21:39 11.06.2019
6505 Clear 17 1015 55 10000 9.8 340 21:20 11.06.2019
6506 Clear 18 1015 52 10000 9.8 350 20:49 11.06.2019
6507 Clear 19 1015 52 10000 9.8 350 20:27 11.06.2019
6508 Clear 19 1015 48 10000 10.3 340 19:57 11.06.2019
6509 Clear 19 1015 48 10000 10.8 340 19:39 11.06.2019
6510 Clear 19 1015 48 10000 10.8 340 19:38 11.06.2019
6511 Clear 20 1015 45 10000 10.8 340 19:18 11.06.2019
6512 Clear 20 1015 37 10000 8.7 340 18:23 11.06.2019
6513 Clear 20 1014 37 10000 8.7 350 18:22 11.06.2019
6514 Clear 20 1015 37 10000 8.7 350 17:42 11.06.2019
6515 Clear 20 1015 37 10000 9.8 340 17:23 11.06.2019
6516 Clear 20 1015 37 10000 9.8 340 16:58 11.06.2019
6517 Clouds 20 1015 35 10000 8.7 330 16:40 11.06.2019
6518 Clouds 21 1015 35 10000 8.7 330 16:22 11.06.2019
6519 Clouds 21 1016 37 10000 9.3 350 15:42 11.06.2019
6520 Clouds 21 1016 37 10000 9.3 350 15:42 11.06.2019
6521 Clouds 21 1016 37 10000 9.3 350 15:24 11.06.2019
6522 Clouds 21 1016 43 10000 8.7 350 14:52 11.06.2019
6523 Clouds 21 1016 46 10000 9.3 350 14:23 11.06.2019
6524 Clouds 20 1016 46 10000 7.2 340 13:55 11.06.2019
6525 Clouds 20 1016 52 10000 7.7 340 13:36 11.06.2019
6526 Clouds 20 1016 52 10000 6.7 240 13:18 11.06.2019
6527 Clouds 19 1017 59 10000 8.2 240 12:40 11.06.2019
6528 Clouds 18 1016 59 10000 6.7 350 12:20 11.06.2019
6529 Clouds 18 1016 67 10000 6.2 340 11:40 11.06.2019
6530 Clouds 17 1016 67 10000 6.2 340 11:20 11.06.2019
6531 Clouds 16 1016 77 10000 6.2 350 10:47 11.06.2019
6532 Clouds 16 1016 77 10000 6.2 350 10:26 11.06.2019
6533 Clouds 15 1017 82 10000 6.2 350 09:50 11.06.2019
6534 Clouds 15 1017 82 10000 6.2 350 09:25 11.06.2019
6535 Clouds 15 1016 87 10000 3.6 350 08:47 11.06.2019
6536 Clouds 15 1016 87 10000 3.6 350 08:29 11.06.2019
6537 Clouds 15 1016 93 10000 3.1 360 07:55 11.06.2019
6538 Clouds 15 1016 93 10000 2.1 330 07:31 11.06.2019
6539 Drizzle 15 1016 93 10000 3.1 330 06:51 11.06.2019
6540 Clouds 15 1017 82 10000 2.6 310 05:00 11.06.2019
6541 Clouds 15 1018 82 10000 4.6 310 03:47 11.06.2019
6542 Clouds 15 1019 82 10000 4.1 330 01:43 11.06.2019
6543 Clouds 15 1019 77 10000 5.1 330 00:49 11.06.2019
6544 Clouds 15 1019 77 10000 5.1 330 00:23 11.06.2019
6545 Clouds 15 1019 77 10000 6.2 320 23:41 10.06.2019
6546 Clouds 15 1019 77 10000 5.1 330 22:59 10.06.2019
6547 Clouds 15 1019 67 10000 5.7 330 22:41 10.06.2019
6548 Clouds 16 1019 67 10000 5.7 330 22:23 10.06.2019
6549 Clouds 16 1019 63 10000 5.7 340 21:41 10.06.2019
6550 Clouds 17 1019 67 10000 11.8 330 21:23 10.06.2019
6551 Clouds 17 1019 63 10000 7.2 330 20:57 10.06.2019
6552 Clouds 18 1019 59 10000 7.2 340 20:38 10.06.2019
6553 Clouds 18 1019 59 10000 6.7 310 20:19 10.06.2019
6554 Clouds 18 1019 52 10000 6.2 330 19:43 10.06.2019
6555 Clouds 19 1019 45 10000 6.7 320 19:22 10.06.2019
6556 Clouds 19 1019 45 10000 6.7 320 19:22 10.06.2019
6557 Clouds 19 1019 45 10000 6.7 320 18:56 10.06.2019
6558 Clouds 19 1019 45 10000 7.7 320 18:38 10.06.2019
6559 Clouds 20 1019 46 10000 6.7 310 18:19 10.06.2019
6560 Clouds 20 1019 46 10000 7.2 330 17:43 10.06.2019
6561 Clouds 20 1019 46 10000 7.2 330 17:23 10.06.2019
6562 Clear 20 1019 37 10000 5.7 320 16:48 10.06.2019
6563 Clear 21 1019 37 10000 5.7 320 16:30 10.06.2019
6564 Clear 21 1019 37 10000 6.2 350 15:57 10.06.2019
6565 Clouds 21 1019 40 10000 6.7 360 15:38 10.06.2019
6566 Clouds 21 1020 40 10000 6.7 350 15:19 10.06.2019
6567 Clouds 21 1020 46 10000 6.2 330 14:41 10.06.2019
6568 Clouds 21 1020 46 10000 6.2 330 14:22 10.06.2019
6569 Clouds 20 1020 46 10000 7.2 10 13:45 10.06.2019
6570 Clouds 20 1020 46 10000 7.2 10 13:24 10.06.2019
6571 Clouds 20 1021 52 10000 5.7 360 12:53 10.06.2019
6572 Clouds 19 1020 52 10000 7.7 350 12:30 10.06.2019
6573 Clouds 18 1021 59 10000 7.2 350 11:54 10.06.2019
6574 Clouds 18 1021 59 10000 7.2 350 11:30 10.06.2019
6575 Clouds 18 1021 63 10000 8.7 340 10:59 10.06.2019
6576 Clouds 17 1021 67 10000 8.2 340 10:40 10.06.2019
6577 Clouds 16 1021 77 10000 7.2 330 10:18 10.06.2019
6578 Clouds 16 1021 77 10000 7.2 330 09:50 10.06.2019
6579 Clouds 15 1021 77 10000 6.7 340 09:29 10.06.2019
6580 Clouds 15 1021 77 10000 6.7 340 09:29 10.06.2019
6581 Clouds 15 1020 82 10000 4.6 330 08:48 10.06.2019
6582 Clouds 14 1020 82 10000 4.6 330 08:26 10.06.2019
6583 Clouds 14 1020 87 10000 4.1 340 07:41 10.06.2019
6584 Clouds 15 1021 87 10000 1.5 310 04:43 10.06.2019
6585 Clouds 15 1021 82 10000 4.1 310 02:35 10.06.2019
6586 Clouds 15 1021 87 10000 2.6 310 01:50 10.06.2019
6587 Clouds 15 1021 82 10000 2.6 320 01:19 10.06.2019
6588 Clouds 16 1021 82 10000 3.1 330 00:47 10.06.2019
6589 Clouds 16 1021 77 10000 1.5 320 23:47 09.06.2019
6590 Clouds 17 1021 77 10000 1.5 320 23:22 09.06.2019
6591 Clouds 17 1021 77 10000 3.1 310 22:47 09.06.2019
6592 Clouds 17 1021 77 10000 3.1 310 22:26 09.06.2019
6593 Clouds 17 1021 68 10000 3.6 290 21:57 09.06.2019
6594 Clouds 18 1020 63 10000 4.1 280 21:37 09.06.2019
6595 Clouds 18 1020 63 10000 4.6 290 21:18 09.06.2019
6596 Clouds 19 1020 60 10000 5.7 270 20:41 09.06.2019
6597 Clouds 19 1020 60 10000 5.7 270 20:21 09.06.2019
6598 Clouds 19 1020 60 10000 5.7 280 19:45 09.06.2019
6599 Clouds 20 1020 52 10000 6.2 280 19:18 09.06.2019
6600 Clouds 20 1020 52 10000 6.2 280 19:18 09.06.2019
6601 Clouds 20 1020 52 10000 6.2 280 19:18 09.06.2019
6602 Clouds 20 1020 56 10000 5.1 300 18:44 09.06.2019
6603 Clouds 20 1020 56 10000 5.1 300 18:25 09.06.2019
6604 Clouds 20 1020 52 10000 4.6 290 17:56 09.06.2019
6605 Clouds 20 1020 49 10000 5.1 290 17:32 09.06.2019
6606 Clouds 20 1020 49 10000 4.6 290 16:59 09.06.2019
6607 Clouds 20 1020 49 10000 5.1 340 16:40 09.06.2019
6608 Clouds 21 1020 49 10000 4.1 290 16:20 09.06.2019
6609 Clouds 20 1021 56 10000 4.6 280 15:50 09.06.2019
6610 Clouds 20 1021 56 10000 4.6 280 15:29 09.06.2019
6611 Clouds 20 1021 56 10000 4.6 310 14:56 09.06.2019
6612 Clouds 20 1021 56 10000 4.1 290 14:38 09.06.2019
6613 Clouds 19 1021 52 10000 4.1 300 14:19 09.06.2019
6614 Clouds 20 1021 52 10000 4.6 340 13:48 09.06.2019
6615 Clouds 19 1021 52 10000 4.1 310 12:58 09.06.2019
6616 Clouds 19 1021 52 10000 4.1 320 12:38 09.06.2019
6617 Clouds 18 1021 59 10000 4.6 340 12:19 09.06.2019
6618 Clouds 18 1021 63 10000 3.6 330 11:38 09.06.2019
6619 Clouds 17 1021 67 10000 3.1 320 11:19 09.06.2019
6620 Clouds 17 1021 72 10000 2.1 300 10:43 09.06.2019
6621 Clouds 16 1021 72 10000 2.1 300 10:22 09.06.2019
6622 Clouds 15 1021 82 10000 1 0 09:40 09.06.2019
6623 Clouds 15 1021 82 10000 0.5 0 09:21 09.06.2019
6624 Clear 14 1021 76 10000 2.6 330 08:45 09.06.2019
6625 Clouds 13 1021 81 10000 1 0 08:20 09.06.2019
6626 Clouds 13 1020 81 10000 1.5 310 06:55 09.06.2019
6627 Clear 13 1020 81 10000 1 0 06:30 09.06.2019
6628 Clear 13 1021 76 10000 1.5 340 03:26 09.06.2019
6629 Clear 14 1021 76 10000 4.1 340 01:38 09.06.2019
6630 Clear 14 1021 76 10000 4.1 340 01:19 09.06.2019
6631 Clouds 14 1021 71 10000 5.7 340 00:45 09.06.2019
6632 Clouds 14 1021 76 10000 6.7 330 23:43 08.06.2019
6633 Clouds 15 1021 76 10000 6.7 330 23:24 08.06.2019
6634 Clouds 15 1021 67 10000 5.1 330 22:56 08.06.2019
6635 Clouds 15 1021 67 10000 5.1 320 22:38 08.06.2019
6636 Clouds 15 1020 63 10000 5.7 330 22:19 08.06.2019
6637 Clouds 15 1020 63 10000 5.7 330 21:50 08.06.2019
6638 Clouds 16 1020 59 10000 6.7 330 21:26 08.06.2019
6639 Clouds 17 1020 52 10000 5.7 320 20:47 08.06.2019
6640 Clouds 17 1020 52 10000 5.7 320 20:26 08.06.2019
6641 Clouds 18 1020 48 10000 6.7 330 19:59 08.06.2019
6642 Clouds 18 1020 45 10000 6.7 320 19:39 08.06.2019
6643 Clouds 19 1020 45 10000 6.7 320 19:19 08.06.2019
6644 Clouds 19 1019 45 10000 5.7 310 18:51 08.06.2019
6645 Clouds 19 1019 45 10000 5.7 310 18:33 08.06.2019
6646 Clear 19 1020 42 10000 5.7 310 17:49 08.06.2019
6647 Clear 19 1020 42 10000 5.7 310 17:23 08.06.2019
6648 Clear 19 1020 45 10000 6.2 330 16:57 08.06.2019
6649 Clear 19 1020 40 10000 5.1 310 16:38 08.06.2019
6650 Clear 20 1020 42 10000 5.7 320 15:56 08.06.2019
6651 Clear 20 1020 43 10000 5.7 320 15:36 08.06.2019
6652 Clear 20 1020 43 10000 5.7 320 15:36 08.06.2019
6653 Clouds 20 1020 40 10000 3.1 300 14:50 08.06.2019
6654 Clouds 20 1020 40 10000 3.1 300 14:31 08.06.2019
6655 Clouds 20 1020 40 10000 3.6 340 13:54 08.06.2019
6656 Clouds 19 1020 40 10000 3.6 0 13:22 08.06.2019
6657 Clouds 19 1021 48 10000 4.6 340 12:42 08.06.2019
6658 Clouds 17 1021 48 10000 5.1 350 11:59 08.06.2019
6659 Clouds 17 1021 55 10000 5.7 340 11:40 08.06.2019
6660 Clouds 17 1021 55 10000 5.7 350 11:20 08.06.2019
6661 Clouds 16 1021 58 10000 5.7 350 10:43 08.06.2019
6662 Clouds 15 1021 58 10000 5.7 350 10:22 08.06.2019
6663 Clouds 14 1021 67 10000 5.7